# Wetter Temperatur Luftdruck Luftfeuchtigkeit Sichtweite Windgeschwindigkeit Windrichtung Zeit
1 Clouds 15 1018 67 10000 1.5 110 07:59 14.07.2020
2 Clouds 15 1018 67 10000 1.5 110 07:38 14.07.2020
3 Clouds 14 1018 71 10000 2.6 110 07:18 14.07.2020
4 Clouds 12 1018 81 10000 2.1 110 06:47 14.07.2020
5 Clouds 12 1018 76 10000 1.5 120 06:24 14.07.2020
6 Clouds 12 1018 81 10000 1.5 120 05:36 14.07.2020
7 Clouds 12 1018 76 10000 2.1 110 04:37 14.07.2020
8 Clouds 13 1018 81 10000 2.1 100 03:47 14.07.2020
9 Clouds 13 1019 76 10000 1.5 90 02:51 14.07.2020
10 Clouds 14 1019 71 10000 1 0 02:25 14.07.2020
11 Clouds 13 1019 67 10000 2.6 110 01:36 14.07.2020
12 Clouds 14 1019 62 10000 3.1 100 00:55 14.07.2020
13 Clouds 16 1019 59 10000 3.6 100 00:36 14.07.2020
14 Clouds 16 1019 59 10000 3.6 100 00:18 14.07.2020
15 Clouds 16 1019 59 10000 2.6 100 23:37 13.07.2020
16 Clouds 16 1019 55 10000 1.5 80 23:19 13.07.2020
17 Clouds 17 1019 52 10000 2.1 80 22:42 13.07.2020
18 Clouds 18 1019 55 10000 1.5 60 22:22 13.07.2020
19 Clouds 20 1019 55 10000 1.5 50 21:57 13.07.2020
20 Clouds 21 1019 46 10000 2.1 30 21:39 13.07.2020
21 Clouds 20 1019 55 10000 1.5 50 21:39 13.07.2020
22 Clouds 21 1019 46 10000 2.1 30 21:20 13.07.2020
23 Clouds 21 1019 46 10000 2.1 30 20:58 13.07.2020
24 Clouds 22 1019 46 10000 2.1 30 20:39 13.07.2020
25 Clouds 23 1019 35 10000 2.1 40 20:21 13.07.2020
26 Clouds 23 1020 33 10000 1.5 60 19:45 13.07.2020
27 Clouds 24 1020 33 10000 1.5 60 19:26 13.07.2020
28 Clouds 23 1020 35 10000 2.6 100 18:59 13.07.2020
29 Clouds 24 1020 35 10000 2.6 100 18:40 13.07.2020
30 Clouds 24 1020 33 10000 2.6 10 18:21 13.07.2020
31 Clouds 24 1020 33 10000 3.1 80 17:56 13.07.2020
32 Clouds 24 1020 33 10000 3.1 80 17:38 13.07.2020
33 Clouds 24 1021 31 10000 2.6 120 17:20 13.07.2020
34 Clouds 24 1021 31 10000 2.1 70 16:55 13.07.2020
35 Clouds 25 1021 31 10000 2.1 70 16:37 13.07.2020
36 Clouds 25 1021 31 10000 3.6 80 16:18 13.07.2020
37 Clouds 25 1021 29 10000 2.6 120 15:55 13.07.2020
38 Clouds 24 1021 29 10000 2.6 120 15:37 13.07.2020
39 Clouds 24 1021 31 10000 4.1 100 15:18 13.07.2020
40 Clouds 25 1022 29 10000 3.6 0 14:55 13.07.2020
41 Clouds 24 1022 29 10000 3.6 0 14:36 13.07.2020
42 Clouds 23 1022 35 10000 2.6 50 14:18 13.07.2020
43 Clouds 23 1022 35 10000 3.1 60 13:41 13.07.2020
44 Clouds 23 1023 35 10000 3.1 60 13:21 13.07.2020
45 Clouds 23 1023 35 10000 3.1 0 12:54 13.07.2020
46 Clouds 23 1023 35 10000 2.6 0 12:36 13.07.2020
47 Clouds 23 1023 35 10000 2.6 0 12:18 13.07.2020
48 Clouds 22 1023 37 10000 1.5 0 11:40 13.07.2020
49 Clouds 21 1024 45 10000 2.1 200 11:22 13.07.2020
50 Clouds 21 1024 43 10000 1.5 0 10:42 13.07.2020
51 Clouds 20 1024 45 10000 2.1 120 10:20 13.07.2020
52 Clouds 19 1024 48 10000 2.1 100 09:47 13.07.2020
53 Clouds 17 1024 52 10000 2.6 110 09:27 13.07.2020
54 Clouds 17 1024 52 10000 2.6 110 09:00 13.07.2020
55 Clouds 15 1024 59 10000 2.6 100 08:40 13.07.2020
56 Clouds 15 1024 62 10000 1 0 08:20 13.07.2020
57 Clouds 12 1024 76 10000 0.5 0 07:21 13.07.2020
58 Clouds 10 1024 81 10000 0.5 10 06:46 13.07.2020
59 Clouds 10 1024 87 10000 0.5 0 06:24 13.07.2020
60 Clouds 10 1025 81 10000 1 0 04:57 13.07.2020
61 Clouds 11 1025 76 10000 0.5 0 02:42 13.07.2020
62 Clouds 12 1025 66 10000 1 0 01:40 13.07.2020
63 Clouds 12 1025 66 10000 1.5 90 01:20 13.07.2020
64 Clouds 13 1025 62 10000 2.1 70 00:38 13.07.2020
65 Clouds 13 1025 62 10000 2.1 60 00:19 13.07.2020
66 Clouds 14 1025 58 10000 2.1 70 23:41 12.07.2020
67 Clear 15 1025 55 10000 2.1 60 23:22 12.07.2020
68 Clear 16 1025 51 10000 2.1 40 22:56 12.07.2020
69 Clear 17 1025 51 10000 2.1 40 22:37 12.07.2020
70 Clear 17 1025 51 10000 2.1 40 22:18 12.07.2020
71 Clear 18 1025 48 10000 1.5 40 21:55 12.07.2020
72 Clear 18 1025 48 10000 1.5 40 21:55 12.07.2020
73 Clear 19 1025 45 10000 2.6 30 21:37 12.07.2020
74 Clear 19 1025 45 10000 2.6 30 21:19 12.07.2020
75 Clear 20 1025 40 10000 1.5 30 20:41 12.07.2020
76 Clouds 21 1025 37 10000 2.6 10 20:20 12.07.2020
77 Clouds 21 1025 37 10000 2.6 10 19:59 12.07.2020
78 Clouds 21 1025 37 10000 2.6 10 19:39 12.07.2020
79 Clouds 21 1025 37 10000 3.1 10 19:20 12.07.2020
80 Clouds 22 1025 33 10000 4.6 350 18:44 12.07.2020
81 Clouds 22 1025 30 10000 2.1 30 18:21 12.07.2020
82 Clouds 22 1025 33 10000 4.1 360 17:59 12.07.2020
83 Clouds 22 1025 33 10000 4.1 360 17:38 12.07.2020
84 Clouds 22 1025 31 10000 2.6 330 17:20 12.07.2020
85 Clouds 22 1025 35 10000 2.6 20 16:47 12.07.2020
86 Clouds 23 1026 31 10000 2.1 330 16:22 12.07.2020
87 Clouds 22 1026 37 10000 3.1 40 15:50 12.07.2020
88 Clouds 23 1026 31 10000 2.6 310 15:30 12.07.2020
89 Clouds 22 1026 32 10000 1.5 290 14:58 12.07.2020
90 Clear 22 1026 32 10000 1.5 290 14:39 12.07.2020
91 Clouds 22 1026 32 10000 1.5 290 14:39 12.07.2020
92 Clear 22 1026 37 10000 4.1 330 14:19 12.07.2020
93 Clear 22 1026 37 10000 1.5 0 13:40 12.07.2020
94 Clear 22 1026 37 10000 1.5 0 13:21 12.07.2020
95 Clear 21 1026 42 10000 3.1 350 12:56 12.07.2020
96 Clear 21 1026 42 10000 3.1 350 12:38 12.07.2020
97 Clear 21 1026 40 10000 3.1 0 12:18 12.07.2020
98 Clear 20 1026 40 10000 2.1 360 11:44 12.07.2020
99 Clouds 20 1026 45 10000 1.5 0 11:20 12.07.2020
100 Clouds 20 1026 49 10000 2.6 110 10:44 12.07.2020
101 Clouds 19 1026 52 10000 3.1 90 10:23 12.07.2020
102 Clouds 18 1026 55 10000 1.5 50 09:58 12.07.2020
103 Clouds 18 1026 55 10000 1.5 50 09:40 12.07.2020
104 Clouds 16 1026 59 10000 1 0 09:20 12.07.2020
105 Clouds 15 1026 62 10000 1 0 08:55 12.07.2020
106 Clouds 14 1026 62 10000 1 0 08:36 12.07.2020
107 Clouds 14 1026 67 10000 1 0 08:18 12.07.2020
108 Clouds 11 1026 81 10000 0.5 0 07:42 12.07.2020
109 Clouds 12 1026 71 10000 1.5 340 07:42 12.07.2020
110 Clouds 10 1026 81 10000 0.5 0 07:21 12.07.2020
111 Clear 9 1026 87 10000 0.5 330 06:51 12.07.2020
112 Clear 8 1025 93 10000 1 350 06:21 12.07.2020
113 Clear 8 1025 93 10000 0.5 0 05:33 12.07.2020
114 Clear 9 1025 87 10000 0.99 40 04:55 12.07.2020
115 Clear 9 1025 87 10000 0.5 0 04:25 12.07.2020
116 Clear 10 1025 87 10000 1.5 350 03:34 12.07.2020
117 Clear 10 1025 87 10000 0.5 0 02:52 12.07.2020
118 Clear 12 1025 81 10000 0.5 0 01:44 12.07.2020
119 Clouds 12 1025 76 10000 2.1 100 00:52 12.07.2020
120 Clouds 12 1025 81 10000 1 360 00:23 12.07.2020
121 Clouds 13 1025 71 10000 1 330 23:57 11.07.2020
122 Clouds 13 1025 71 10000 1 330 23:39 11.07.2020
123 Clouds 14 1025 66 10000 1 0 23:20 11.07.2020
124 Clouds 15 1024 58 10000 1.5 350 22:55 11.07.2020
125 Clouds 15 1024 58 10000 1.5 350 22:37 11.07.2020
126 Clouds 16 1024 59 10000 1.5 350 22:18 11.07.2020
127 Clouds 17 1024 48 10000 2.1 10 21:41 11.07.2020
128 Clouds 18 1024 45 10000 3.1 350 21:23 11.07.2020
129 Clear 19 1023 37 10000 4.6 340 20:56 11.07.2020
130 Clouds 20 1023 42 0 3.6 340 20:38 11.07.2020
131 Clouds 19 1023 42 0 3.6 340 20:20 11.07.2020
132 Clouds 20 1023 34 10000 4.6 340 19:57 11.07.2020
133 Clouds 20 1023 34 10000 4.6 340 19:39 11.07.2020
134 Clouds 20 1023 37 10000 4.6 350 19:20 11.07.2020
135 Clouds 21 1023 35 10000 4.1 340 18:55 11.07.2020
136 Clouds 21 1023 37 10000 5.1 330 18:36 11.07.2020
137 Clouds 21 1023 37 10000 5.1 330 18:18 11.07.2020
138 Clouds 21 1023 37 10000 4.1 360 17:42 11.07.2020
139 Rain 22 1022 35 10000 6.2 320 17:21 11.07.2020
140 Rain 22 1022 37 10000 5.1 330 16:59 11.07.2020
141 Rain 22 1022 37 10000 5.1 330 16:38 11.07.2020
142 Rain 21 1022 40 10000 3.1 360 16:19 11.07.2020
143 Rain 21 1022 43 10000 3.1 10 15:57 11.07.2020
144 Clouds 21 1022 43 10000 4.1 320 15:37 11.07.2020
145 Clouds 20 1022 43 10000 4.1 320 15:18 11.07.2020
146 Clouds 20 1022 45 10000 4.6 310 14:44 11.07.2020
147 Clouds 20 1022 42 10000 5.1 290 14:23 11.07.2020
148 Clouds 20 1022 52 10000 2.1 320 13:55 11.07.2020
149 Clouds 19 1022 52 10000 2.1 320 13:37 11.07.2020
150 Clouds 19 1022 59 10000 5.7 350 13:19 11.07.2020
151 Clouds 18 1022 59 10000 2.6 310 12:42 11.07.2020
152 Clouds 18 1022 63 10000 3.1 0 12:23 11.07.2020
153 Clouds 18 1022 63 10000 3.1 360 11:58 11.07.2020
154 Clouds 18 1022 63 10000 3.1 360 11:58 11.07.2020
155 Clouds 18 1022 63 10000 3.1 360 11:40 11.07.2020
156 Clouds 18 1022 63 10000 2.6 360 11:19 11.07.2020
157 Clouds 17 1021 72 10000 3.1 330 10:46 11.07.2020
158 Clouds 17 1021 77 10000 3.1 330 10:27 11.07.2020
159 Clouds 15 1021 82 10000 2.6 360 09:56 11.07.2020
160 Clouds 15 1021 82 10000 2.6 320 09:37 11.07.2020
161 Clouds 15 1021 82 10000 2.6 320 09:18 11.07.2020
162 Clouds 14 1020 82 10000 1 0 08:39 11.07.2020
163 Rain 15 1020 82 10000 1 0 08:20 11.07.2020
164 Clouds 14 1020 87 10000 1 0 07:50 11.07.2020
165 Clouds 14 1020 87 10000 3.1 350 07:27 11.07.2020
166 Clouds 14 1020 93 10000 2.6 340 06:59 11.07.2020
167 Rain 14 1019 87 10000 2.6 360 06:23 11.07.2020
168 Rain 14 1019 82 10000 2.6 340 05:46 11.07.2020
169 Rain 14 1019 82 10000 2.6 340 05:46 11.07.2020
170 Clouds 15 1018 82 10000 1.5 330 04:59 11.07.2020
171 Clouds 15 1018 82 10000 1.5 330 04:37 11.07.2020
172 Clouds 15 1018 87 10000 1 0 04:18 11.07.2020
173 Rain 16 1018 72 10000 2.6 340 02:51 11.07.2020
174 Rain 17 1018 67 10000 3.1 340 01:56 11.07.2020
175 Clouds 17 1018 63 10000 3.1 340 01:21 11.07.2020
176 Clouds 18 1018 68 10000 4.1 320 00:41 11.07.2020
177 Clouds 18 1017 63 10000 2.6 320 00:22 11.07.2020
178 Clouds 18 1017 63 10000 3.1 310 23:58 10.07.2020
179 Clouds 18 1017 63 10000 3.1 310 23:40 10.07.2020
180 Clouds 19 1017 63 10000 4.1 320 23:21 10.07.2020
181 Clouds 19 1016 56 10000 3.6 320 22:49 10.07.2020
182 Clouds 19 1016 56 10000 5.1 320 22:24 10.07.2020
183 Clouds 20 1015 60 10000 6.2 320 21:59 10.07.2020
184 Clouds 20 1015 60 10000 6.2 320 21:38 10.07.2020
185 Clouds 21 1015 52 10000 5.7 310 21:19 10.07.2020
186 Clouds 22 1015 49 10000 5.7 300 20:43 10.07.2020
187 Clouds 22 1015 49 10000 5.7 300 20:43 10.07.2020
188 Clouds 23 1015 46 10000 5.7 300 20:24 10.07.2020
189 Clouds 23 1014 46 10000 5.1 280 19:59 10.07.2020
190 Clouds 23 1014 46 10000 5.1 280 19:41 10.07.2020
191 Clouds 23 1014 46 10000 7.2 280 19:21 10.07.2020
192 Clouds 23 1014 43 10000 8.2 280 18:54 10.07.2020
193 Clouds 23 1014 43 10000 8.2 280 18:36 10.07.2020
194 Clouds 23 1014 44 10000 8.2 290 18:18 10.07.2020
195 Clouds 24 1013 44 10000 9.3 300 17:41 10.07.2020
196 Clouds 25 1013 44 10000 8.7 290 17:22 10.07.2020
197 Clouds 25 1013 47 10000 9.8 300 16:57 10.07.2020
198 Clouds 26 1013 47 10000 9.8 300 16:38 10.07.2020
199 Clouds 26 1012 44 10000 9.8 290 16:18 10.07.2020
200 Clear 27 1012 36 10000 10.8 280 15:43 10.07.2020
201 Clear 28 1012 32 5000 7.77 274 15:20 10.07.2020
202 Clear 29 1012 32 10000 9.3 280 14:43 10.07.2020
203 Clouds 28 1011 37 10000 8.7 270 14:22 10.07.2020
204 Clouds 29 1011 35 10000 8.7 250 13:58 10.07.2020
205 Clouds 29 1011 35 10000 8.7 250 13:40 10.07.2020
206 Clouds 28 1011 37 10000 9.3 260 13:22 10.07.2020
207 Clouds 28 1011 39 10000 7.7 250 12:58 10.07.2020
208 Clouds 28 1011 39 10000 7.7 250 12:40 10.07.2020
209 Clouds 28 1011 37 10000 8.2 250 12:21 10.07.2020
210 Clouds 29 1011 37 10000 8.2 240 11:42 10.07.2020
211 Clouds 28 1011 42 10000 6.2 210 11:21 10.07.2020
212 Clouds 28 1011 42 10000 5.7 230 10:58 10.07.2020
213 Clouds 27 1011 42 10000 5.1 230 10:39 10.07.2020
214 Clouds 26 1011 42 10000 5.1 230 10:20 10.07.2020
215 Clouds 26 1011 44 10000 3.6 210 09:41 10.07.2020
216 Clouds 24 1011 53 10000 3.1 180 09:23 10.07.2020
217 Clouds 23 1011 56 10000 4.1 170 08:59 10.07.2020
218 Clouds 22 1011 56 10000 4.1 170 08:41 10.07.2020
219 Clear 21 1011 60 10000 3.1 160 08:23 10.07.2020
220 Clear 20 1011 64 10000 3.1 130 07:48 10.07.2020
221 Clear 18 1011 72 10000 2.6 120 07:24 10.07.2020
222 Clear 16 1012 82 10000 3.6 110 06:58 10.07.2020
223 Clear 16 1012 82 10000 3.6 110 06:40 10.07.2020
224 Rain 16 1012 82 10000 4.1 100 05:40 10.07.2020
225 Rain 17 1013 72 10000 3.1 110 03:55 10.07.2020
226 Clear 17 1013 72 10000 3.1 110 02:55 10.07.2020
227 Clear 17 1013 77 10000 2.1 110 02:21 10.07.2020
228 Clear 19 1014 64 10000 2.6 130 00:55 10.07.2020
229 Clear 20 1014 60 10000 2.1 160 00:24 10.07.2020
230 Clear 21 1014 56 10000 1.5 150 23:56 09.07.2020
231 Clear 21 1014 56 10000 1.5 150 23:37 09.07.2020
232 Clear 21 1014 53 10000 1.5 160 23:19 09.07.2020
233 Clear 22 1013 53 10000 1.5 150 22:56 09.07.2020
234 Clear 22 1013 53 10000 1.5 150 22:38 09.07.2020
235 Clear 24 1013 44 10000 1.5 230 22:19 09.07.2020
236 Clear 24 1013 44 10000 1.5 230 21:54 09.07.2020
237 Clear 25 1013 44 10000 1.5 230 21:36 09.07.2020
238 Clear 25 1013 47 10000 2.6 280 21:18 09.07.2020
239 Clear 26 1013 39 10000 3.1 270 20:41 09.07.2020
240 Clouds 27 1013 39 10000 5.1 280 20:22 09.07.2020
241 Clouds 28 1013 32 10000 5.7 260 19:43 09.07.2020
242 Rain 28 1013 32 10000 6.7 270 19:22 09.07.2020
243 Rain 28 1013 30 10000 6.2 250 18:58 09.07.2020
244 Rain 28 1013 30 10000 6.2 250 18:40 09.07.2020
245 Rain 28 1013 32 10000 5.7 250 18:19 09.07.2020
246 Rain 28 1014 35 10000 5.1 230 17:43 09.07.2020
247 Rain 28 1014 35 10000 6.2 230 17:23 09.07.2020
248 Rain 27 1014 39 10000 4.6 250 16:58 09.07.2020
249 Rain 27 1014 39 10000 4.6 250 16:38 09.07.2020
250 Rain 28 1015 37 10000 6.2 260 16:19 09.07.2020
251 Rain 27 1015 37 10000 6.2 260 15:58 09.07.2020
252 Rain 27 1015 37 10000 8.7 220 15:38 09.07.2020
253 Rain 27 1015 44 10000 4.6 240 15:19 09.07.2020
254 Rain 26 1015 44 10000 4.6 240 14:58 09.07.2020
255 Rain 26 1015 44 10000 4.6 240 14:39 09.07.2020
256 Rain 26 1016 44 10000 5.7 230 14:20 09.07.2020
257 Clouds 25 1016 50 10000 4.6 250 13:56 09.07.2020
258 Clouds 26 1016 50 10000 4.6 250 13:38 09.07.2020
259 Clouds 25 1016 50 10000 4.6 240 13:19 09.07.2020
260 Clouds 24 1016 53 10000 4.6 260 12:42 09.07.2020
261 Clouds 24 1016 57 10000 2.1 0 12:23 09.07.2020
262 Clouds 23 1017 60 10000 2.6 270 11:57 09.07.2020
263 Clouds 22 1017 60 10000 2.6 270 11:39 09.07.2020
264 Clouds 22 1017 60 10000 2.1 220 11:19 09.07.2020
265 Clouds 20 1017 68 10000 3.1 180 10:56 09.07.2020
266 Clouds 20 1017 68 10000 3.1 180 10:56 09.07.2020
267 Clouds 20 1017 68 10000 3.1 180 10:38 09.07.2020
268 Clouds 19 1017 72 10000 2.1 170 10:19 09.07.2020
269 Clouds 18 1018 77 10000 1.5 170 09:43 09.07.2020
270 Clouds 17 1017 77 10000 2.1 170 09:23 09.07.2020
271 Clouds 17 1017 82 10000 2.1 180 08:49 09.07.2020
272 Clouds 16 1017 87 10000 2.6 170 08:26 09.07.2020
273 Clouds 16 1017 87 10000 2.1 140 07:56 09.07.2020
274 Clouds 16 1017 87 10000 2.1 140 07:37 09.07.2020
275 Clouds 15 1017 93 10000 1.5 150 07:19 09.07.2020
276 Clouds 15 1017 93 10000 2.1 120 06:20 09.07.2020
277 Clouds 15 1017 93 10000 1 0 05:50 09.07.2020
278 Drizzle 15 1018 93 10000 2.6 150 04:29 09.07.2020
279 Clouds 15 1018 93 10000 1.5 170 02:47 09.07.2020
280 Clouds 15 1018 93 10000 1.5 200 01:55 09.07.2020
281 Clouds 15 1019 93 10000 2.1 220 00:59 09.07.2020
282 Clouds 15 1019 93 10000 1 210 00:38 09.07.2020
283 Rain 14 1019 100 8000 2.1 250 00:19 09.07.2020
284 Rain 14 1019 100 8000 2.1 260 23:43 08.07.2020
285 Drizzle 14 1019 93 9000 1.5 250 23:24 08.07.2020
286 Drizzle 14 1019 93 9000 1.5 250 22:55 08.07.2020
287 Drizzle 15 1019 93 9000 1.5 250 22:36 08.07.2020
288 Drizzle 15 1019 93 7000 2.1 250 22:18 08.07.2020
289 Drizzle 15 1018 93 9000 2.1 280 21:55 08.07.2020
290 Drizzle 15 1018 93 9000 2.1 280 21:36 08.07.2020
291 Drizzle 15 1018 93 9000 1.5 310 21:18 08.07.2020
292 Drizzle 15 1018 93 10000 2.6 310 20:41 08.07.2020
293 Drizzle 15 1018 93 10000 2.6 350 20:23 08.07.2020
294 Rain 15 1018 87 10000 4.1 330 19:55 08.07.2020
295 Rain 15 1018 87 10000 4.1 330 19:37 08.07.2020
296 Rain 16 1018 87 10000 4.1 320 19:18 08.07.2020
297 Clouds 16 1018 82 10000 2.6 360 18:41 08.07.2020
298 Rain 16 1017 87 10000 1.5 20 18:21 08.07.2020
299 Rain 16 1017 82 10000 1.5 30 17:57 08.07.2020
300 Rain 16 1017 82 10000 1.5 30 17:38 08.07.2020
301 Rain 16 1018 82 10000 2.6 330 17:20 08.07.2020
302 Rain 16 1017 82 10000 3.1 320 16:57 08.07.2020
303 Rain 17 1017 82 10000 3.1 320 16:38 08.07.2020
304 Rain 17 1018 72 10000 5.1 290 16:18 08.07.2020
305 Rain 18 1017 55 10000 7.2 270 15:57 08.07.2020
306 Rain 18 1017 55 10000 7.2 270 15:38 08.07.2020
307 Clouds 19 1017 49 10000 8.2 290 15:19 08.07.2020
308 Clouds 19 1017 49 10000 8.2 290 15:19 08.07.2020
309 Clouds 20 1017 49 10000 6.2 270 14:42 08.07.2020
310 Clouds 20 1017 49 10000 6.2 270 14:42 08.07.2020
311 Clouds 20 1017 49 10000 7.2 270 14:21 08.07.2020
312 Clouds 20 1017 49 10000 6.7 270 13:56 08.07.2020
313 Clouds 20 1017 49 10000 6.7 270 13:37 08.07.2020
314 Clouds 20 1017 49 10000 6.7 280 13:18 08.07.2020
315 Clouds 20 1016 45 10000 6.2 280 12:40 08.07.2020
316 Clouds 20 1016 45 10000 6.2 280 12:20 08.07.2020
317 Clouds 20 1016 45 10000 5.1 260 11:40 08.07.2020
318 Clouds 20 1016 43 10000 6.7 260 11:21 08.07.2020
319 Clouds 20 1016 43 10000 7.2 280 10:59 08.07.2020
320 Clouds 20 1016 43 10000 7.2 280 10:41 08.07.2020
321 Clouds 20 1016 49 10000 4.1 210 10:23 08.07.2020
322 Clouds 18 1017 52 10000 4.1 220 09:45 08.07.2020
323 Clouds 17 1017 55 10000 3.6 230 09:25 08.07.2020
324 Clouds 16 1017 59 10000 3.1 220 08:44 08.07.2020
325 Clouds 16 1017 59 10000 2.6 210 08:25 08.07.2020
326 Clouds 15 1017 63 10000 2.6 200 07:51 08.07.2020
327 Clouds 14 1016 71 10000 1.5 120 07:25 08.07.2020
328 Clouds 13 1017 71 10000 1.5 120 06:59 08.07.2020
329 Clouds 13 1017 71 10000 1.5 120 06:39 08.07.2020
330 Clouds 13 1017 76 10000 2.6 100 06:20 08.07.2020
331 Clouds 12 1017 76 10000 2.1 100 05:44 08.07.2020
332 Clouds 12 1017 76 10000 2.6 100 04:43 08.07.2020
333 Clouds 11 1018 76 10000 3.6 100 03:30 08.07.2020
334 Clouds 11 1018 76 10000 3.6 100 01:59 08.07.2020
335 Clouds 11 1018 76 10000 3.6 100 01:37 08.07.2020
336 Clouds 12 1018 71 10000 2.6 100 00:46 08.07.2020
337 Clouds 12 1018 66 10000 3.1 100 00:19 08.07.2020
338 Clouds 13 1018 66 10000 2.1 100 23:43 07.07.2020
339 Clouds 13 1018 66 10000 1.5 140 23:21 07.07.2020
340 Clouds 14 1019 62 10000 0.5 0 22:54 07.07.2020
341 Clouds 14 1019 62 10000 0.5 0 22:36 07.07.2020
342 Clouds 15 1019 54 10000 1 30 22:18 07.07.2020
343 Clouds 17 1018 45 10000 2.6 340 21:41 07.07.2020
344 Clouds 17 1018 45 10000 2.6 340 21:22 07.07.2020
345 Clear 18 1018 42 10000 3.6 320 20:59 07.07.2020
346 Clear 19 1018 42 10000 3.6 320 20:41 07.07.2020
347 Clear 19 1018 42 10000 4.1 300 20:23 07.07.2020
348 Clear 20 1018 40 10000 3.1 300 19:55 07.07.2020
349 Clear 20 1018 40 10000 4.1 300 19:36 07.07.2020
350 Clear 20 1018 40 10000 4.1 300 19:18 07.07.2020
351 Clear 20 1018 37 10000 4.1 300 18:55 07.07.2020
352 Clear 20 1018 37 10000 4.1 300 18:36 07.07.2020
353 Clear 21 1019 37 10000 4.6 300 18:18 07.07.2020
354 Clear 21 1019 40 10000 5.7 280 17:43 07.07.2020
355 Clear 21 1019 40 10000 4.1 310 17:23 07.07.2020
356 Clear 21 1019 37 10000 4.1 270 16:58 07.07.2020
357 Clear 21 1019 37 10000 4.1 270 16:40 07.07.2020
358 Clear 21 1020 37 10000 4.6 270 16:21 07.07.2020
359 Clear 21 1020 40 10000 4.6 280 15:54 07.07.2020
360 Clear 21 1020 40 10000 4.6 280 15:36 07.07.2020
361 Clouds 21 1020 37 10000 5.7 290 15:18 07.07.2020
362 Clouds 20 1020 42 10000 4.1 260 14:42 07.07.2020
363 Clear 20 1020 40 10000 3.1 280 14:22 07.07.2020
364 Clear 19 1021 45 10000 3.1 290 13:40 07.07.2020
365 Clear 19 1021 48 10000 4.6 280 13:19 07.07.2020
366 Clouds 18 1021 45 10000 3.1 280 12:43 07.07.2020
367 Clouds 18 1021 48 10000 4.6 260 12:25 07.07.2020
368 Clouds 17 1021 55 10000 2.6 260 11:58 07.07.2020
369 Clouds 17 1021 55 10000 2.6 260 11:40 07.07.2020
370 Clouds 17 1021 51 10000 2.6 0 11:20 07.07.2020
371 Clouds 16 1021 59 10000 2.1 240 10:57 07.07.2020
372 Clouds 16 1021 59 10000 2.1 240 10:38 07.07.2020
373 Clouds 16 1022 62 10000 2.1 230 10:19 07.07.2020
374 Clouds 15 1022 62 10000 2.6 320 09:41 07.07.2020
375 Clouds 15 1022 62 10000 1.5 290 09:21 07.07.2020
376 Clear 14 1022 67 10000 1.5 270 08:42 07.07.2020
377 Clear 13 1022 62 10000 1 0 08:24 07.07.2020
378 Clear 13 1022 67 10000 0.5 0 07:49 07.07.2020
379 Clear 11 1022 81 10000 1 0 07:27 07.07.2020
380 Clear 11 1022 81 10000 1 0 07:27 07.07.2020
381 Clear 8 1022 87 10000 1.5 110 06:50 07.07.2020
382 Clear 8 1022 87 10000 0.5 0 06:32 07.07.2020
383 Clear 8 1022 93 10000 0.5 0 05:58 07.07.2020
384 Clear 8 1022 93 10000 1 0 05:23 07.07.2020
385 Clear 8 1022 93 10000 0.5 0 04:42 07.07.2020
386 Clear 9 1021 81 10000 0.5 0 03:41 07.07.2020
387 Clouds 11 1021 76 10000 2.1 290 02:28 07.07.2020
388 Clouds 12 1021 71 10000 2.6 300 01:25 07.07.2020
389 Clouds 12 1021 71 10000 2.6 280 00:54 07.07.2020
390 Clouds 13 1021 66 10000 3.1 300 00:36 07.07.2020
391 Clouds 13 1021 66 10000 3.1 300 00:18 07.07.2020
392 Clouds 14 1021 66 10000 3.6 280 23:41 06.07.2020
393 Clouds 14 1020 62 10000 3.1 290 23:22 06.07.2020
394 Clouds 15 1020 58 10000 4.1 300 22:55 06.07.2020
395 Clouds 15 1020 55 10000 5.1 300 22:37 06.07.2020
396 Clouds 16 1020 55 10000 5.1 300 22:18 06.07.2020
397 Clouds 16 1019 55 10000 4.1 300 21:54 06.07.2020
398 Clouds 16 1019 48 10000 5.7 300 21:36 06.07.2020
399 Clouds 17 1019 48 10000 5.7 300 21:18 06.07.2020
400 Clouds 17 1019 48 10000 7.2 320 20:39 06.07.2020
401 Clouds 18 1018 39 10000 7.2 300 20:20 06.07.2020
402 Clear 19 1018 39 10000 7.7 280 19:57 06.07.2020
403 Clear 19 1017 37 10000 8.7 280 19:39 06.07.2020
404 Clear 19 1017 37 10000 8.7 280 19:20 06.07.2020
405 Clear 20 1017 39 10000 7.7 290 18:56 06.07.2020
406 Clear 20 1017 39 10000 7.7 290 18:56 06.07.2020
407 Clear 20 1017 39 10000 7.7 290 18:38 06.07.2020
408 Clear 20 1017 34 10000 9.3 270 18:19 06.07.2020
409 Clear 21 1016 34 10000 9.8 280 17:42 06.07.2020
410 Clear 21 1016 37 10000 7.7 300 17:24 06.07.2020
411 Clear 21 1017 35 0 9.3 280 16:58 06.07.2020
412 Clear 21 1016 37 10000 8.7 290 16:40 06.07.2020
413 Clear 21 1016 37 10000 8.7 290 16:21 06.07.2020
414 Clear 21 1016 37 10000 8.7 300 15:42 06.07.2020
415 Clear 21 1016 37 10000 8.7 300 15:42 06.07.2020
416 Clear 21 1016 37 10000 9.3 280 15:24 06.07.2020
417 Clear 21 1016 37 10000 9.3 280 15:24 06.07.2020
418 Clear 21 1015 40 10000 8.2 290 14:57 06.07.2020
419 Clouds 21 1015 40 10000 8.2 290 14:38 06.07.2020
420 Clouds 21 1015 37 10000 8.7 270 14:19 06.07.2020
421 Clouds 21 1015 40 10000 9.3 270 13:51 06.07.2020
422 Clouds 21 1015 42 10000 7.7 290 13:28 06.07.2020
423 Clouds 20 1015 40 10000 8.2 270 12:59 06.07.2020
424 Clouds 20 1015 40 10000 8.2 270 12:41 06.07.2020
425 Clouds 19 1015 42 10000 7.7 280 12:18 06.07.2020
426 Clouds 19 1014 42 10000 8.7 270 11:57 06.07.2020
427 Clouds 19 1014 42 10000 8.7 270 11:37 06.07.2020
428 Clouds 19 1014 52 10000 7.7 290 11:19 06.07.2020
429 Clouds 19 1014 59 10000 7.7 290 10:43 06.07.2020
430 Clouds 18 1014 68 10000 6.7 310 10:22 06.07.2020
431 Clouds 18 1014 82 10000 5.1 250 09:58 06.07.2020
432 Clouds 18 1014 82 10000 5.1 250 09:39 06.07.2020
433 Rain 18 1014 82 10000 3.6 250 09:21 06.07.2020
434 Clouds 17 1013 88 10000 4.1 260 08:55 06.07.2020
435 Clouds 18 1013 88 10000 4.1 260 08:36 06.07.2020
436 Clouds 18 1013 88 10000 3.6 240 08:18 06.07.2020
437 Clouds 18 1013 88 10000 3.6 240 08:18 06.07.2020
438 Rain 17 1013 93 10000 4.1 220 07:40 06.07.2020
439 Rain 17 1013 93 10000 3.1 220 07:22 06.07.2020
440 Clouds 17 1013 93 10000 3.1 240 06:39 06.07.2020
441 Rain 18 1013 82 10000 4.6 270 06:20 06.07.2020
442 Rain 18 1013 82 10000 4.6 270 06:20 06.07.2020
443 Rain 19 1013 77 10000 6.7 290 05:33 06.07.2020
444 Clouds 20 1013 72 10000 2.6 240 04:52 06.07.2020
445 Rain 20 1013 72 10000 2.6 200 03:25 06.07.2020
446 Clear 20 1013 72 10000 2.1 210 02:21 06.07.2020
447 Clear 20 1014 68 10000 2.6 190 01:22 06.07.2020
448 Clear 20 1014 64 0 2.1 220 00:33 06.07.2020
449 Clear 20 1014 68 10000 2.1 220 23:59 05.07.2020
450 Clear 20 1014 68 10000 2.1 220 23:40 05.07.2020
451 Clear 21 1014 68 10000 2.1 240 23:22 05.07.2020
452 Clouds 22 1014 64 10000 2.1 250 22:58 05.07.2020
453 Clouds 22 1014 64 10000 2.1 250 22:39 05.07.2020
454 Clouds 22 1014 64 10000 2.1 270 22:19 05.07.2020
455 Clouds 23 1014 53 10000 3.1 260 21:57 05.07.2020
456 Clouds 23 1014 53 10000 3.1 260 21:37 05.07.2020
457 Clouds 24 1014 50 10000 5.1 270 21:18 05.07.2020
458 Clouds 25 1014 50 10000 4.6 260 20:56 05.07.2020
459 Clouds 25 1014 50 10000 4.6 260 20:38 05.07.2020
460 Clouds 25 1014 50 10000 6.2 250 20:19 05.07.2020
461 Clouds 25 1014 54 10000 5.1 240 19:42 05.07.2020
462 Clouds 26 1014 47 10000 5.7 250 19:21 05.07.2020
463 Clouds 25 1015 54 10000 3.6 220 18:55 05.07.2020
464 Clouds 25 1015 54 10000 3.6 220 18:37 05.07.2020
465 Clouds 25 1015 53 10000 5.7 230 18:18 05.07.2020
466 Clouds 25 1015 53 10000 5.1 260 17:42 05.07.2020
467 Clouds 25 1015 53 10000 6.2 260 17:19 05.07.2020
468 Clouds 25 1015 53 10000 6.2 260 16:58 05.07.2020
469 Clouds 24 1016 53 10000 5.7 260 16:40 05.07.2020
470 Clouds 24 1016 57 10000 6.7 260 16:20 05.07.2020
471 Clouds 24 1016 57 10000 6.7 250 15:40 05.07.2020
472 Clouds 24 1016 57 10000 6.7 250 15:40 05.07.2020
473 Clouds 24 1016 57 10000 6.7 260 15:20 05.07.2020
474 Clouds 25 1016 53 10000 7.7 260 14:43 05.07.2020
475 Clouds 24 1017 53 10000 8.2 250 14:23 05.07.2020
476 Clouds 24 1017 57 10000 8.7 250 13:59 05.07.2020
477 Clouds 24 1017 57 10000 8.7 250 13:40 05.07.2020
478 Clouds 23 1017 53 10000 8.2 260 13:20 05.07.2020
479 Clouds 23 1017 53 10000 7.2 260 12:42 05.07.2020
480 Clouds 23 1017 53 10000 6.7 260 12:20 05.07.2020
481 Clouds 24 1017 53 10000 5.1 260 11:55 05.07.2020
482 Clouds 24 1017 53 10000 5.1 260 11:37 05.07.2020
483 Clouds 24 1017 53 10000 6.7 240 11:18 05.07.2020
484 Clouds 23 1017 53 10000 5.7 240 10:42 05.07.2020
485 Clouds 23 1017 56 10000 3.6 210 10:21 05.07.2020
486 Clouds 22 1017 56 10000 3.6 210 09:59 05.07.2020
487 Clouds 21 1017 60 10000 3.6 180 09:41 05.07.2020
488 Clouds 20 1017 64 10000 3.6 180 09:20 05.07.2020
489 Clouds 19 1017 64 10000 3.1 190 08:55 05.07.2020
490 Clouds 19 1017 64 10000 3.1 190 08:36 05.07.2020
491 Clouds 19 1017 68 10000 3.1 180 07:51 05.07.2020
492 Clouds 18 1017 63 10000 3.1 180 07:30 05.07.2020
493 Clouds 17 1017 68 10000 2.6 170 06:54 05.07.2020
494 Clouds 17 1017 72 10000 2.1 160 06:20 05.07.2020
495 Clouds 17 1017 67 10000 2.1 160 03:54 05.07.2020
496 Clouds 17 1018 67 10000 3.1 170 02:47 05.07.2020
497 Clouds 17 1018 63 10000 2.1 160 02:29 05.07.2020
498 Clouds 18 1018 63 10000 2.1 180 01:42 05.07.2020
499 Clouds 19 1018 56 10000 2.1 220 01:20 05.07.2020
500 Clouds 19 1018 56 10000 2.1 230 00:42 05.07.2020
501 Clouds 19 1018 56 10000 2.6 180 00:24 05.07.2020
502 Clouds 20 1018 56 10000 2.1 180 23:53 04.07.2020
503 Clouds 20 1018 56 10000 2.1 180 23:31 04.07.2020
504 Clouds 21 1018 52 10000 2.1 220 22:58 04.07.2020
505 Clouds 20 1018 52 10000 2.1 220 22:40 04.07.2020
506 Clouds 20 1018 52 10000 2.1 220 22:40 04.07.2020
507 Clouds 21 1017 49 10000 2.6 230 22:21 04.07.2020
508 Clouds 22 1018 49 10000 2.6 240 21:55 04.07.2020
509 Clouds 22 1018 49 10000 2.6 240 21:36 04.07.2020
510 Clouds 22 1017 46 10000 3.1 260 21:18 04.07.2020
511 Clouds 23 1017 46 10000 3.1 280 20:41 04.07.2020
512 Clouds 24 1017 38 10000 4.6 260 20:20 04.07.2020
513 Clouds 25 1017 38 10000 4.6 250 19:55 04.07.2020
514 Clouds 25 1017 38 10000 4.6 250 19:36 04.07.2020
515 Clouds 25 1017 38 10000 5.7 250 19:18 04.07.2020
516 Clouds 25 1017 36 10000 5.7 250 18:42 04.07.2020
517 Clouds 25 1018 41 10000 6.2 220 18:22 04.07.2020
518 Clouds 24 1018 38 10000 4.6 240 17:44 04.07.2020
519 Clouds 25 1018 39 10000 4.6 220 17:26 04.07.2020
520 Clouds 24 1018 38 10000 6.2 220 16:58 04.07.2020
521 Clouds 24 1018 38 10000 6.2 220 16:39 04.07.2020
522 Clouds 25 1018 38 10000 5.1 220 16:20 04.07.2020
523 Clouds 24 1018 38 10000 5.7 230 15:56 04.07.2020
524 Clouds 25 1018 38 10000 5.7 230 15:37 04.07.2020
525 Clouds 24 1019 41 10000 4.1 230 15:19 04.07.2020
526 Clouds 25 1019 41 10000 5.1 230 14:38 04.07.2020
527 Clouds 24 1019 41 10000 5.1 240 14:20 04.07.2020
528 Clouds 24 1019 43 10000 4.6 230 13:59 04.07.2020
529 Clouds 24 1019 43 10000 4.6 230 13:40 04.07.2020
530 Clouds 24 1020 44 10000 6.2 220 13:18 04.07.2020
531 Clouds 24 1020 44 10000 6.2 220 13:18 04.07.2020
532 Clouds 23 1020 43 10000 5.7 240 12:43 04.07.2020
533 Clouds 23 1020 40 10000 5.7 250 12:21 04.07.2020
534 Clouds 23 1020 43 10000 5.1 240 11:56 04.07.2020
535 Clouds 22 1020 43 10000 5.1 240 11:38 04.07.2020
536 Clouds 22 1020 46 10000 4.6 270 11:19 04.07.2020
537 Clouds 21 1020 46 10000 4.6 250 10:42 04.07.2020
538 Clouds 20 1021 56 10000 1 0 10:22 04.07.2020
539 Clouds 20 1021 56 10000 1 0 09:59 04.07.2020
540 Clouds 20 1021 59 10000 1.5 170 09:37 04.07.2020
541 Clouds 18 1020 59 10000 1.5 190 09:19 04.07.2020
542 Clouds 16 1020 67 10000 1 0 08:47 04.07.2020
543 Clouds 15 1020 77 10000 2.1 110 08:28 04.07.2020
544 Clouds 15 1020 82 10000 2.1 100 07:49 04.07.2020
545 Clouds 13 1020 87 10000 3.1 100 07:31 04.07.2020
546 Clouds 13 1020 87 10000 3.1 100 06:55 04.07.2020
547 Clouds 10 1020 93 10000 3.6 100 06:23 04.07.2020
548 Clouds 12 1020 93 10000 3.6 100 05:36 04.07.2020
549 Clouds 10 1020 93 10000 2.6 110 04:44 04.07.2020
550 Clouds 12 1020 87 10000 3.6 100 03:18 04.07.2020
551 Clear 13 1020 82 10000 3.1 100 02:23 04.07.2020
552 Clear 13 1020 82 10000 3.6 100 01:31 04.07.2020
553 Clear 14 1020 76 10000 3.6 100 00:44 04.07.2020
554 Clear 15 1020 76 10000 3.1 100 00:24 04.07.2020
555 Clear 14 1020 82 10000 1 100 23:40 03.07.2020
556 Clear 15 1019 72 10000 1 0 23:19 03.07.2020
557 Clear 16 1019 63 10000 1.5 110 22:58 03.07.2020
558 Clear 16 1019 63 10000 1.5 110 22:39 03.07.2020
559 Clear 17 1019 63 10000 0.5 0 22:20 03.07.2020
560 Clear 19 1019 55 10000 1 0 21:41 03.07.2020
561 Clear 20 1019 46 10000 2.6 320 21:20 03.07.2020
562 Clear 20 1018 46 10000 2.6 320 20:55 03.07.2020
563 Clear 20 1018 46 10000 2.6 320 20:55 03.07.2020
564 Clear 21 1018 46 10000 2.6 320 20:37 03.07.2020
565 Clear 21 1018 43 10000 4.1 290 20:19 03.07.2020
566 Clear 22 1018 43 10000 3.1 320 19:41 03.07.2020
567 Clear 22 1018 43 10000 3.1 320 19:19 03.07.2020
568 Clear 22 1018 38 10000 5.7 290 18:56 03.07.2020
569 Clear 23 1018 38 10000 5.7 290 18:38 03.07.2020
570 Clear 23 1018 40 10000 3.6 300 18:19 03.07.2020
571 Clear 23 1018 43 10000 4.1 290 17:42 03.07.2020
572 Clear 23 1018 38 10000 5.7 270 17:22 03.07.2020
573 Clear 23 1018 40 10000 3.6 290 16:46 03.07.2020
574 Clear 23 1018 38 10000 5.7 270 16:27 03.07.2020
575 Clear 22 1019 43 10000 4.6 270 15:48 03.07.2020
576 Clear 22 1019 43 10000 4.6 290 15:25 03.07.2020
577 Clear 22 1019 43 10000 4.6 290 14:59 03.07.2020
578 Clear 22 1019 43 10000 5.1 260 14:41 03.07.2020
579 Clear 22 1019 43 10000 5.1 300 14:22 03.07.2020
580 Clouds 21 1019 43 10000 4.6 260 13:48 03.07.2020
581 Clouds 21 1019 46 10000 4.6 270 13:29 03.07.2020
582 Clouds 21 1019 46 10000 5.1 280 12:59 03.07.2020
583 Clouds 21 1019 46 10000 5.1 280 12:40 03.07.2020
584 Clouds 21 1019 49 10000 4.6 270 12:20 03.07.2020
585 Clouds 20 1019 48 10000 4.6 270 11:44 03.07.2020
586 Clouds 19 1019 55 10000 5.7 270 11:25 03.07.2020
587 Clouds 19 1019 55 10000 3.6 270 10:59 03.07.2020
588 Clouds 19 1019 55 10000 3.6 270 10:40 03.07.2020
589 Clouds 19 1019 59 10000 4.1 270 10:21 03.07.2020
590 Clouds 18 1019 63 10000 3.1 300 09:56 03.07.2020
591 Clouds 18 1019 63 10000 3.1 300 09:37 03.07.2020
592 Clouds 17 1018 68 10000 3.6 300 09:18 03.07.2020
593 Clouds 17 1018 72 10000 3.6 290 08:40 03.07.2020
594 Clouds 16 1018 77 10000 3.6 270 08:19 03.07.2020
595 Clouds 15 1018 77 10000 3.6 270 07:49 03.07.2020
596 Clouds 15 1018 77 10000 2.1 260 07:27 03.07.2020
597 Clouds 15 1017 82 10000 0.5 0 06:54 03.07.2020
598 Clouds 14 1017 87 10000 0.5 0 06:19 03.07.2020
599 Clouds 15 1016 82 10000 1 0 04:55 03.07.2020
600 Clouds 15 1016 82 10000 3.1 310 03:32 03.07.2020
601 Clouds 16 1016 77 10000 2.6 300 02:47 03.07.2020
602 Clouds 16 1016 77 10000 2.1 290 02:27 03.07.2020
603 Clouds 17 1015 72 10000 2.6 290 01:28 03.07.2020
604 Clouds 17 1015 72 10000 2.6 280 00:50 03.07.2020
605 Clouds 17 1015 72 10000 2.6 280 00:32 03.07.2020
606 Clouds 18 1014 59 10000 3.1 240 23:47 02.07.2020
607 Clouds 19 1014 68 10000 2.6 230 23:20 02.07.2020
608 Clouds 19 1014 68 10000 2.6 230 22:58 02.07.2020
609 Clouds 19 1014 68 10000 2.6 220 22:40 02.07.2020
610 Clouds 19 1013 64 10000 2.6 210 22:20 02.07.2020
611 Clouds 19 1013 64 10000 2.6 210 21:55 02.07.2020
612 Clouds 20 1013 64 10000 2.6 210 21:37 02.07.2020
613 Clouds 20 1013 60 10000 3.6 230 21:18 02.07.2020
614 Clouds 21 1013 56 10000 4.1 220 20:57 02.07.2020
615 Clouds 21 1013 56 10000 4.1 220 20:39 02.07.2020
616 Clouds 21 1012 56 10000 4.6 240 20:18 02.07.2020
617 Clouds 22 1012 56 10000 4.6 250 19:41 02.07.2020
618 Clouds 22 1012 49 10000 5.7 240 19:22 02.07.2020
619 Clouds 23 1012 53 10000 5.7 250 18:57 02.07.2020
620 Clouds 23 1012 56 10000 5.7 260 18:39 02.07.2020
621 Clouds 23 1012 56 10000 5.7 260 18:20 02.07.2020
622 Clouds 23 1012 60 10000 5.1 270 17:41 02.07.2020
623 Clouds 23 1012 56 10000 4.1 250 17:20 02.07.2020
624 Clouds 24 1012 56 10000 4.6 290 16:58 02.07.2020
625 Clouds 24 1012 56 10000 4.6 290 16:40 02.07.2020
626 Clouds 24 1013 56 10000 4.6 280 16:20 02.07.2020
627 Clouds 24 1013 56 10000 3.6 260 15:55 02.07.2020
628 Clouds 24 1013 56 10000 3.6 260 15:36 02.07.2020
629 Clouds 24 1013 56 10000 3.6 260 15:36 02.07.2020
630 Clouds 23 1013 60 10000 3.1 210 15:18 02.07.2020
631 Clouds 23 1013 68 10000 2.6 180 14:43 02.07.2020
632 Clouds 22 1013 64 10000 2.1 220 14:19 02.07.2020
633 Clouds 21 1013 73 10000 2.1 240 13:56 02.07.2020
634 Clouds 21 1013 73 10000 2.1 240 13:36 02.07.2020
635 Clouds 21 1013 72 10000 2.6 260 13:18 02.07.2020
636 Clouds 20 1013 77 10000 2.1 350 12:41 02.07.2020
637 Rain 19 1014 82 10000 3.1 320 12:22 02.07.2020
638 Rain 20 1013 77 10000 2.6 320 11:45 02.07.2020
639 Clouds 20 1013 77 10000 3.1 300 11:27 02.07.2020
640 Clouds 21 1013 72 10000 4.1 300 10:58 02.07.2020
641 Clouds 20 1013 72 10000 4.1 300 10:39 02.07.2020
642 Clouds 20 1013 68 10000 3.1 310 10:21 02.07.2020
643 Rain 20 1013 77 10000 4.6 310 09:43 02.07.2020
644 Clouds 20 1012 77 10000 5.1 310 09:22 02.07.2020
645 Clouds 20 1012 77 10000 3.1 280 08:58 02.07.2020
646 Clouds 19 1012 77 10000 3.1 280 08:39 02.07.2020
647 Clouds 19 1012 82 10000 3.6 240 08:19 02.07.2020
648 Clouds 19 1012 82 10000 2.1 200 07:41 02.07.2020
649 Clouds 19 1012 88 10000 2.1 190 07:20 02.07.2020
650 Clouds 18 1012 93 10000 2.1 140 06:41 02.07.2020
651 Clouds 18 1012 93 10000 2.1 140 06:41 02.07.2020
652 Clouds 17 1011 100 10000 2.1 130 06:20 02.07.2020
653 Clear 17 1011 100 10000 3.1 130 05:47 02.07.2020
654 Clouds 18 1011 93 10000 3.1 130 04:49 02.07.2020
655 Clouds 18 1011 93 10000 2.6 120 03:33 02.07.2020
656 Clouds 19 1011 82 10000 3.6 130 01:48 02.07.2020
657 Thunderstorm 21 1010 83 10000 1.5 200 00:27 02.07.2020
658 Thunderstorm 21 1009 77 10000 3.1 190 23:55 01.07.2020
659 Thunderstorm 22 1009 77 10000 3.1 190 23:37 01.07.2020
660 Thunderstorm 22 1009 73 10000 0.5 0 23:18 01.07.2020
661 Clouds 23 1009 64 10000 1.5 320 22:54 01.07.2020
662 Clouds 23 1009 64 10000 1.5 320 22:36 01.07.2020
663 Rain 23 1009 69 10000 1.5 290 22:18 01.07.2020
664 Rain 23 1009 69 10000 1.5 290 22:18 01.07.2020
665 Rain 25 1009 53 10000 2.1 290 21:54 01.07.2020
666 Rain 25 1009 53 10000 2.1 290 21:36 01.07.2020
667 Rain 26 1009 50 10000 3.1 280 21:18 01.07.2020
668 Rain 26 1008 47 10000 4.1 280 20:43 01.07.2020
669 Rain 27 1008 45 10000 4.6 280 20:25 01.07.2020
670 Rain 28 1008 42 10000 4.6 250 19:56 01.07.2020
671 Rain 28 1008 39 10000 4.1 250 19:38 01.07.2020
672 Rain 28 1008 39 10000 4.1 250 19:19 01.07.2020
673 Rain 28 1008 39 10000 4.6 230 18:42 01.07.2020
674 Clear 29 1008 39 10000 4.6 240 18:21 01.07.2020
675 Clear 29 1009 39 10000 4.6 260 17:59 01.07.2020
676 Clear 29 1009 39 10000 4.6 260 17:39 01.07.2020
677 Clear 28 1009 42 10000 4.6 260 17:19 01.07.2020
678 Clear 29 1009 40 10000 4.6 250 16:47 01.07.2020
679 Clouds 29 1009 39 10000 4.6 250 16:28 01.07.2020
680 Clouds 28 1009 42 10000 3.6 270 15:56 01.07.2020
681 Clouds 28 1009 42 10000 3.6 270 15:38 01.07.2020
682 Clouds 28 1009 42 10000 3.6 250 15:20 01.07.2020
683 Clouds 29 1010 48 10000 4.1 220 14:44 01.07.2020
684 Clouds 28 1010 45 10000 3.6 230 14:22 01.07.2020
685 Clouds 28 1010 45 10000 3.6 0 13:58 01.07.2020
686 Clouds 28 1010 45 10000 3.6 0 13:39 01.07.2020
687 Clouds 27 1010 50 10000 4.6 210 13:20 01.07.2020
688 Clouds 27 1011 50 10000 4.6 210 12:57 01.07.2020
689 Clouds 26 1011 50 10000 4.6 210 12:38 01.07.2020
690 Clouds 26 1011 50 10000 5.1 230 12:20 01.07.2020
691 Clouds 25 1011 53 10000 4.6 220 11:42 01.07.2020
692 Clouds 24 1011 57 10000 4.1 200 11:23 01.07.2020
693 Clouds 24 1011 57 10000 4.1 200 10:58 01.07.2020
694 Clouds 24 1012 56 10000 4.1 200 10:40 01.07.2020
695 Clouds 23 1012 56 10000 4.6 200 10:21 01.07.2020
696 Clear 22 1012 60 10000 3.6 180 09:40 01.07.2020
697 Clear 20 1012 64 10000 3.1 180 09:21 01.07.2020
698 Clouds 20 1012 64 10000 2.6 170 08:59 01.07.2020
699 Clouds 19 1012 64 10000 2.6 170 08:40 01.07.2020
700 Clear 18 1012 68 10000 2.1 120 08:21 01.07.2020
701 Clear 15 1012 82 10000 2.1 110 07:44 01.07.2020
702 Clear 15 1012 82 10000 2.6 100 07:25 01.07.2020
703 Clear 13 1012 82 0 2.6 100 06:59 01.07.2020
704 Clear 13 1012 82 0 2.6 100 06:59 01.07.2020
705 Clear 13 1012 82 0 2.6 100 06:40 01.07.2020
706 Clear 13 1012 87 10000 3.1 100 06:20 01.07.2020
707 Clear 13 1012 87 10000 3.1 110 04:30 01.07.2020
708 Clear 13 1012 82 10000 2.6 100 03:44 01.07.2020
709 Clear 13 1012 82 10000 2.1 100 03:22 01.07.2020
710 Clear 14 1012 77 10000 1.5 160 02:19 01.07.2020
711 Clear 15 1013 77 10000 1 0 01:23 01.07.2020
712 Clear 16 1013 72 10000 1 200 00:38 01.07.2020
713 Clear 16 1013 72 10000 1.5 180 00:19 01.07.2020
714 Clear 16 1013 72 10000 1.5 250 23:40 30.06.2020
715 Clear 17 1013 68 10000 1.5 220 23:20 30.06.2020
716 Clear 18 1013 68 10000 1.5 270 22:42 30.06.2020
717 Clear 18 1012 68 10000 1.5 270 22:19 30.06.2020
718 Clear 19 1012 63 10000 2.1 280 21:54 30.06.2020
719 Clear 20 1012 63 10000 2.1 280 21:36 30.06.2020
720 Clouds 20 1012 60 10000 2.6 280 21:18 30.06.2020
721 Clouds 21 1012 52 10000 5.1 270 20:42 30.06.2020
722 Clouds 21 1012 52 10000 4.1 270 20:21 30.06.2020
723 Clouds 21 1012 52 10000 4.6 280 19:44 30.06.2020
724 Clouds 21 1012 52 10000 4.6 280 19:21 30.06.2020
725 Clouds 21 1012 49 10000 5.1 280 18:58 30.06.2020
726 Clouds 21 1012 49 10000 5.1 280 18:40 30.06.2020
727 Clouds 21 1012 52 10000 4.6 280 18:20 30.06.2020
728 Clouds 22 1012 49 10000 5.1 280 17:39 30.06.2020
729 Clouds 22 1012 49 10000 5.1 270 17:20 30.06.2020
730 Clouds 22 1013 46 10000 6.2 270 16:57 30.06.2020
731 Clouds 22 1013 46 10000 6.2 270 16:39 30.06.2020
732 Clouds 22 1013 46 0 6.7 260 16:19 30.06.2020
733 Clouds 22 1013 46 10000 5.7 230 15:56 30.06.2020
734 Clouds 22 1013 46 10000 5.7 250 15:37 30.06.2020
735 Clouds 22 1013 46 10000 5.7 250 15:19 30.06.2020
736 Clouds 22 1013 43 10000 6.2 260 14:43 30.06.2020
737 Clouds 22 1013 43 10000 5.1 270 14:21 30.06.2020
738 Clouds 22 1013 46 10000 5.1 220 13:54 30.06.2020
739 Clouds 22 1013 46 10000 5.1 220 13:36 30.06.2020
740 Clouds 22 1013 46 10000 5.7 240 13:18 30.06.2020
741 Clouds 21 1014 49 10000 4.6 250 12:54 30.06.2020
742 Clouds 21 1014 49 10000 4.6 250 12:36 30.06.2020
743 Clouds 21 1014 49 10000 6.2 270 12:18 30.06.2020
744 Clouds 20 1014 45 10000 7.2 250 11:39 30.06.2020
745 Clouds 20 1014 48 10000 6.7 260 11:20 30.06.2020
746 Clouds 20 1014 48 10000 6.7 260 11:20 30.06.2020
747 Clouds 20 1014 52 10000 5.1 240 11:00 30.06.2020
748 Thunderstorm 22 1016 83 10000 1.5 0 16:46 28.06.2020
749 Thunderstorm 23 1015 73 10000 4.6 300 16:27 28.06.2020
750 Rain 22 1015 73 10000 4.6 300 15:59 28.06.2020
751 Thunderstorm 23 1015 73 10000 5.1 300 15:39 28.06.2020
752 Rain 23 1015 69 10000 3.6 150 15:20 28.06.2020
753 Clouds 23 1016 73 10000 2.6 150 14:55 28.06.2020
754 Clouds 23 1016 73 10000 2.6 150 14:37 28.06.2020
755 Clouds 23 1016 69 10000 2.1 190 14:19 28.06.2020
756 Clouds 22 1016 73 10000 2.1 250 13:38 28.06.2020
757 Rain 22 1017 77 10000 2.6 240 13:20 28.06.2020
758 Clouds 22 1017 73 10000 2.1 220 12:57 28.06.2020
759 Clouds 21 1017 73 10000 2.1 220 12:38 28.06.2020
760 Clouds 21 1017 77 10000 3.1 270 12:19 28.06.2020
761 Clouds 22 1016 73 10000 1.5 260 11:57 28.06.2020
762 Clouds 22 1016 73 10000 1.5 260 11:57 28.06.2020
763 Clouds 21 1016 73 10000 1.5 260 11:39 28.06.2020
764 Clouds 21 1016 77 10000 0.5 0 11:20 28.06.2020
765 Clouds 20 1016 82 10000 1.5 170 10:55 28.06.2020
766 Clouds 20 1016 82 10000 1.5 170 10:36 28.06.2020
767 Clouds 20 1016 82 10000 1.5 170 10:36 28.06.2020
768 Clouds 20 1016 82 10000 1.5 170 10:36 28.06.2020
769 Rain 20 1016 82 10000 1.5 150 10:18 28.06.2020
770 Rain 19 1016 82 10000 2.1 170 09:39 28.06.2020
771 Rain 19 1016 82 10000 1.5 170 09:21 28.06.2020
772 Rain 20 1015 82 10000 2.6 140 08:48 28.06.2020
773 Rain 20 1015 77 10000 4.1 140 08:26 28.06.2020
774 Rain 19 1015 82 10000 3.1 120 07:49 28.06.2020
775 Rain 18 1015 82 10000 2.1 140 07:29 28.06.2020
776 Rain 17 1015 88 10000 2.6 110 06:43 28.06.2020
777 Clouds 16 1015 93 10000 3.6 100 06:24 28.06.2020
778 Clouds 16 1015 93 10000 4.1 100 05:26 28.06.2020
779 Clouds 17 1015 88 10000 3.1 120 03:32 28.06.2020
780 Clouds 17 1015 93 10000 2.6 100 02:39 28.06.2020
781 Clouds 18 1015 88 10000 2.6 110 01:53 28.06.2020
782 Clouds 19 1015 88 10000 2.1 140 01:26 28.06.2020
783 Clouds 19 1015 88 10000 2.1 150 00:46 28.06.2020
784 Clouds 19 1015 88 10000 2.1 150 00:46 28.06.2020
785 Clouds 19 1015 82 10000 2.6 160 00:24 28.06.2020
786 Clouds 20 1015 82 10000 3.1 160 23:41 27.06.2020
787 Clouds 21 1015 82 10000 3.1 160 23:23 27.06.2020
788 Clouds 21 1014 73 10000 3.1 180 22:58 27.06.2020
789 Clouds 21 1014 73 10000 3.1 180 22:40 27.06.2020
790 Clouds 22 1014 68 10000 2.6 200 22:19 27.06.2020
791 Clouds 23 1013 69 10000 2.6 200 21:43 27.06.2020
792 Clouds 24 1013 69 10000 3.1 210 21:21 27.06.2020
793 Clouds 24 1013 69 10000 4.1 210 20:57 27.06.2020
794 Clouds 24 1013 69 10000 4.1 210 20:57 27.06.2020
795 Clouds 25 1013 69 10000 4.1 210 20:37 27.06.2020
796 Clouds 26 1013 54 10000 4.6 250 20:18 27.06.2020
797 Clouds 26 1013 54 10000 4.6 250 19:54 27.06.2020
798 Clouds 26 1013 54 10000 4.6 250 19:36 27.06.2020
799 Clouds 26 1013 54 10000 4.6 270 19:18 27.06.2020
800 Clouds 27 1013 54 10000 2.6 280 18:43 27.06.2020
801 Rain 26 1013 54 10000 2.6 280 18:22 27.06.2020
802 Clouds 26 1013 57 10000 3.1 260 17:55 27.06.2020
803 Clouds 26 1013 57 10000 3.1 260 17:37 27.06.2020
804 Thunderstorm 26 1013 61 10000 4.1 210 17:18 27.06.2020
805 Thunderstorm 27 1012 47 10000 5.1 230 16:42 27.06.2020
806 Clouds 28 1012 45 10000 6.2 240 16:24 27.06.2020
807 Clouds 29 1013 45 10000 5.1 210 15:46 27.06.2020
808 Clouds 29 1013 42 10000 4.6 220 15:26 27.06.2020
809 Clouds 29 1013 42 10000 3.1 220 14:59 27.06.2020
810 Clouds 29 1013 42 10000 3.1 220 14:41 27.06.2020
811 Rain 28 1013 45 10000 4.1 200 14:22 27.06.2020
812 Rain 28 1013 48 10000 3.6 190 13:57 27.06.2020
813 Rain 28 1013 48 10000 3.6 190 13:37 27.06.2020
814 Rain 27 1014 45 10000 3.6 220 13:19 27.06.2020
815 Clouds 27 1014 45 10000 2.6 230 12:43 27.06.2020
816 Clouds 26 1014 51 10000 1.5 0 12:22 27.06.2020
817 Clouds 26 1014 57 10000 2.1 330 11:59 27.06.2020
818 Clouds 26 1014 57 10000 2.1 330 11:40 27.06.2020
819 Clouds 25 1014 61 10000 1.5 0 11:22 27.06.2020
820 Clouds 25 1014 61 10000 2.1 230 10:42 27.06.2020
821 Clouds 24 1014 64 10000 2.1 150 10:20 27.06.2020
822 Clouds 24 1014 64 10000 2.1 150 09:59 27.06.2020
823 Clear 23 1014 69 10000 1.5 180 09:39 27.06.2020
824 Clear 22 1014 64 10000 1.5 180 09:21 27.06.2020
825 Clear 21 1014 68 10000 1.5 170 08:44 27.06.2020
826 Clouds 20 1014 77 10000 2.1 150 08:23 27.06.2020
827 Clouds 18 1014 82 10000 2.6 110 07:48 27.06.2020
828 Clouds 17 1013 88 10000 3.1 110 07:27 27.06.2020
829 Clouds 17 1013 88 10000 3.1 110 06:53 27.06.2020
830 Clouds 17 1013 93 10000 3.1 110 06:33 27.06.2020
831 Clouds 17 1013 82 10000 1.5 130 04:55 27.06.2020
832 Clouds 17 1013 82 10000 1.5 130 04:18 27.06.2020
833 Clouds 17 1013 82 10000 1 0 03:51 27.06.2020
834 Rain 18 1013 77 10000 2.1 190 02:45 27.06.2020
835 Clouds 18 1013 82 10000 2.1 200 02:26 27.06.2020
836 Rain 19 1013 77 10000 2.1 200 01:37 27.06.2020
837 Clouds 19 1013 72 10000 2.6 110 00:49 27.06.2020
838 Clouds 20 1013 72 10000 1 0 23:56 26.06.2020
839 Clouds 20 1013 72 10000 1 0 23:37 26.06.2020
840 Clouds 21 1013 64 10000 1.5 90 23:19 26.06.2020
841 Clouds 21 1013 60 10000 0.5 0 22:42 26.06.2020
842 Clouds 22 1013 60 10000 1 0 22:24 26.06.2020
843 Clouds 22 1013 60 10000 1 0 21:58 26.06.2020
844 Clouds 23 1012 53 10000 0.5 0 21:40 26.06.2020
845 Clouds 23 1012 53 10000 2.1 40 21:21 26.06.2020
846 Clouds 25 1012 41 10000 1.5 20 20:58 26.06.2020
847 Clouds 25 1012 41 10000 1.5 20 20:38 26.06.2020
848 Clouds 25 1012 41 10000 1.5 20 20:18 26.06.2020
849 Clouds 26 1012 39 10000 1.5 0 19:40 26.06.2020
850 Clear 26 1012 39 10000 1.5 330 19:20 26.06.2020
851 Clear 27 1012 39 10000 1.5 0 18:43 26.06.2020
852 Clear 27 1013 42 10000 1.5 0 18:25 26.06.2020
853 Clear 28 1013 37 10000 1.5 0 17:54 26.06.2020
854 Clear 28 1013 37 10000 1.5 0 17:36 26.06.2020
855 Clear 28 1013 39 10000 1.5 0 17:18 26.06.2020
856 Clear 28 1013 39 10000 2.1 0 16:42 26.06.2020
857 Clear 27 1013 41 10000 2.1 0 16:23 26.06.2020
858 Clear 27 1014 36 10000 2.6 0 15:41 26.06.2020
859 Clear 27 1014 36 10000 2.6 0 15:41 26.06.2020
860 Clear 26 1014 39 10000 2.6 0 15:22 26.06.2020
861 Clear 26 1014 39 10000 2.6 0 14:58 26.06.2020
862 Clear 26 1014 47 10000 2.1 60 14:40 26.06.2020
863 Clear 26 1014 47 10000 2.1 60 14:21 26.06.2020
864 Clouds 25 1015 44 10000 2.1 0 13:47 26.06.2020
865 Clouds 25 1015 47 10000 2.1 0 13:25 26.06.2020
866 Clouds 25 1015 47 10000 1.5 0 12:59 26.06.2020
867 Clouds 24 1015 47 10000 1.5 0 12:40 26.06.2020
868 Clouds 23 1015 53 10000 1 0 12:22 26.06.2020
869 Clouds 23 1015 53 10000 1.5 0 11:57 26.06.2020
870 Clouds 23 1015 53 10000 1.5 0 11:38 26.06.2020
871 Clouds 22 1015 56 10000 2.6 140 11:20 26.06.2020
872 Clouds 22 1016 60 10000 2.1 120 10:57 26.06.2020
873 Clouds 21 1016 60 10000 2.1 120 10:37 26.06.2020
874 Clear 21 1016 60 10000 1.5 0 10:18 26.06.2020
875 Clear 20 1016 64 10000 2.1 110 09:42 26.06.2020
876 Clear 19 1016 63 10000 1.5 0 09:22 26.06.2020
877 Clear 18 1016 68 10000 1.5 120 08:49 26.06.2020
878 Clear 17 1016 72 10000 3.1 90 08:28 26.06.2020
879 Clear 15 1016 82 10000 2.6 90 07:49 26.06.2020
880 Clear 14 1017 82 10000 2.1 80 07:24 26.06.2020
881 Clear 12 1017 93 10000 2.6 110 06:57 26.06.2020
882 Clear 12 1017 87 10000 2.1 90 06:35 26.06.2020
883 Clear 12 1017 93 10000 1.5 100 05:57 26.06.2020
884 Clear 12 1017 87 10000 0.5 0 05:30 26.06.2020
885 Clear 13 1017 87 10000 1 0 02:41 26.06.2020
886 Clear 14 1018 82 10000 1.5 120 02:21 26.06.2020
887 Clear 16 1018 72 10000 4.1 100 00:55 26.06.2020
888 Clear 16 1018 72 10000 4.1 100 00:32 26.06.2020
889 Clear 17 1018 67 10000 3.6 90 23:48 25.06.2020
890 Clear 17 1018 72 10000 2.1 90 23:23 25.06.2020
891 Clear 17 1018 67 10000 1.5 70 22:59 25.06.2020
892 Clear 18 1018 67 10000 1.5 70 22:39 25.06.2020
893 Clear 19 1018 68 10000 1.5 80 22:20 25.06.2020
894 Clear 19 1018 68 10000 1.5 80 21:58 25.06.2020
895 Clear 20 1018 56 10000 2.1 90 21:40 25.06.2020
896 Clear 21 1018 49 10000 2.6 80 21:21 25.06.2020
897 Clear 21 1018 46 10000 3.6 80 20:57 25.06.2020
898 Clear 22 1018 46 10000 3.6 80 20:39 25.06.2020
899 Clear 23 1018 46 10000 4.1 90 20:21 25.06.2020
900 Clear 23 1018 46 10000 4.6 100 19:41 25.06.2020
901 Clear 24 1018 49 10000 5.7 90 19:21 25.06.2020
902 Clear 24 1018 41 10000 4.1 100 19:21 25.06.2020
903 Clear 24 1018 41 10000 4.1 100 19:00 25.06.2020
904 Clear 24 1018 41 10000 4.1 100 18:59 25.06.2020
905 Clear 24 1018 41 10000 4.1 100 18:39 25.06.2020
906 Clear 25 1018 41 10000 4.6 100 18:20 25.06.2020
907 Clouds 24 1018 44 10000 4.1 90 17:45 25.06.2020
908 Clouds 25 1018 38 10000 3.1 110 17:20 25.06.2020
909 Clouds 25 1018 44 10000 4.6 100 16:58 25.06.2020
910 Clouds 24 1019 44 10000 3.6 90 16:38 25.06.2020
911 Clouds 24 1019 44 10000 3.6 90 16:19 25.06.2020
912 Clouds 23 1019 49 10000 3.6 90 15:43 25.06.2020
913 Clouds 22 1019 49 10000 3.6 90 15:25 25.06.2020
914 Clouds 23 1019 53 10000 2.6 90 14:55 25.06.2020
915 Clouds 23 1019 53 10000 2.6 90 14:37 25.06.2020
916 Clouds 23 1019 53 10000 2.1 0 14:18 25.06.2020
917 Clouds 23 1019 60 10000 2.1 0 13:42 25.06.2020
918 Clouds 23 1020 60 10000 2.1 0 13:20 25.06.2020
919 Clouds 21 1020 68 10000 2.6 70 12:58 25.06.2020
920 Clouds 21 1020 64 10000 1.5 0 12:40 25.06.2020
921 Clouds 21 1020 64 10000 1.5 0 12:19 25.06.2020
922 Clouds 20 1020 68 10000 1.5 20 11:42 25.06.2020
923 Clouds 20 1020 68 10000 1 0 11:22 25.06.2020
924 Clouds 19 1020 68 10000 1 0 10:44 25.06.2020
925 Clouds 19 1020 68 10000 2.1 140 10:26 25.06.2020
926 Clouds 19 1020 68 10000 2.1 140 09:58 25.06.2020
927 Clouds 19 1020 68 10000 2.1 140 09:40 25.06.2020
928 Clouds 18 1020 77 10000 1 0 09:19 25.06.2020
929 Clouds 16 1020 77 10000 1.5 70 08:43 25.06.2020
930 Clouds 16 1020 77 10000 1.5 30 08:19 25.06.2020
931 Clouds 16 1020 77 10000 1.5 350 07:44 25.06.2020
932 Clouds 15 1020 87 10000 1.5 360 07:26 25.06.2020
933 Clouds 15 1020 87 10000 1.5 360 07:26 25.06.2020
934 Clouds 14 1021 87 10000 0.5 0 06:46 25.06.2020
935 Clouds 13 1021 87 10000 0.5 0 06:26 25.06.2020
936 Clouds 13 1021 87 10000 1 360 05:40 25.06.2020
937 Clear 14 1022 87 10000 1 30 03:55 25.06.2020
938 Clear 14 1022 82 10000 1 40 03:25 25.06.2020
939 Clear 15 1022 77 10000 2.6 60 02:41 25.06.2020
940 Clouds 16 1022 67 10000 2.1 70 01:43 25.06.2020
941 Clouds 17 1022 67 10000 1 40 00:59 25.06.2020
942 Clouds 17 1022 67 10000 1 40 00:40 25.06.2020
943 Clouds 18 1022 59 10000 1 0 00:18 25.06.2020
944 Clouds 19 1022 55 10000 4.1 90 23:41 24.06.2020
945 Clouds 19 1022 52 10000 2.6 70 23:23 24.06.2020
946 Clouds 19 1022 49 10000 2.6 80 22:56 24.06.2020
947 Clouds 20 1022 49 10000 2.6 80 22:37 24.06.2020
948 Clouds 21 1022 46 10000 3.1 70 22:18 24.06.2020
949 Clouds 21 1021 49 10000 3.1 60 21:55 24.06.2020
950 Clouds 21 1021 49 10000 3.1 60 21:36 24.06.2020
951 Clouds 22 1021 49 10000 3.1 40 21:18 24.06.2020
952 Clouds 23 1021 43 10000 3.1 40 20:55 24.06.2020
953 Clouds 23 1021 43 10000 3.1 40 20:37 24.06.2020
954 Clouds 23 1021 43 10000 3.1 40 20:37 24.06.2020
955 Clouds 24 1021 43 10000 3.1 40 20:18 24.06.2020
956 Clear 24 1021 41 10000 2.6 40 19:39 24.06.2020
957 Clear 24 1021 41 10000 2.6 40 19:21 24.06.2020
958 Clear 25 1021 41 10000 3.6 30 18:59 24.06.2020
959 Clear 25 1021 36 10000 4.1 10 18:41 24.06.2020
960 Clear 25 1021 36 10000 4.1 10 18:23 24.06.2020
961 Clear 25 1021 33 10000 4.6 40 17:58 24.06.2020
962 Clear 25 1021 33 10000 4.6 40 17:40 24.06.2020
963 Clear 26 1021 31 10000 3.6 30 17:19 24.06.2020
964 Clear 25 1021 36 10000 4.1 50 16:56 24.06.2020
965 Clear 26 1021 36 10000 4.1 50 16:38 24.06.2020
966 Clear 26 1021 36 10000 4.1 50 16:38 24.06.2020
967 Clear 25 1021 33 10000 3.1 20 16:20 24.06.2020
968 Clear 25 1022 33 10000 3.6 360 15:56 24.06.2020
969 Clear 25 1022 33 10000 3.6 360 15:37 24.06.2020
970 Clouds 25 1022 33 10000 2.6 360 15:19 24.06.2020
971 Clouds 25 1022 33 10000 3.1 0 14:42 24.06.2020
972 Clear 25 1022 33 10000 4.1 10 14:24 24.06.2020
973 Clear 25 1022 38 10000 2.6 40 13:43 24.06.2020
974 Clear 24 1023 38 10000 4.6 40 13:22 24.06.2020
975 Clear 24 1023 38 10000 2.6 100 12:56 24.06.2020
976 Clear 23 1023 38 10000 4.6 40 12:37 24.06.2020
977 Clear 23 1023 38 10000 4.6 40 12:18 24.06.2020
978 Clear 23 1023 40 10000 3.1 50 11:54 24.06.2020
979 Clear 23 1023 40 10000 3.1 50 11:36 24.06.2020
980 Clear 23 1023 40 10000 3.1 50 11:36 24.06.2020
981 Clear 22 1023 40 10000 3.1 0 11:18 24.06.2020
982 Clear 21 1024 49 10000 3.1 40 10:41 24.06.2020
983 Clear 21 1024 49 10000 3.1 40 10:18 24.06.2020
984 Clear 19 1024 49 10000 3.1 70 09:42 24.06.2020
985 Clear 18 1024 55 10000 2.1 0 09:21 24.06.2020
986 Clear 17 1023 59 10000 1 0 08:43 24.06.2020
987 Clear 16 1023 67 10000 1 0 08:21 24.06.2020
988 Clear 15 1023 72 10000 1.5 310 07:51 24.06.2020
989 Clear 14 1023 76 10000 1.5 10 07:31 24.06.2020
990 Clear 12 1023 76 10000 0.5 140 06:51 24.06.2020
991 Clear 11 1023 81 10000 0.5 0 06:25 24.06.2020
992 Clear 11 1024 93 10000 1 0 05:56 24.06.2020
993 Clear 11 1023 93 10000 1 0 04:46 24.06.2020
994 Clear 12 1024 87 10000 0.5 0 04:27 24.06.2020
995 Clear 13 1024 81 10000 0.5 0 03:34 24.06.2020
996 Clear 13 1024 87 10000 1 340 02:45 24.06.2020
997 Clear 15 1024 76 10000 0.5 0 01:35 24.06.2020
998 Clear 16 1024 77 10000 1 350 00:47 24.06.2020
999 Clear 17 1024 72 10000 1 0 00:27 24.06.2020
1000 Clear 17 1024 67 10000 0.5 0 23:44 23.06.2020
1001 Clear 18 1024 59 10000 1.5 50 23:19 23.06.2020
1002 Clear 19 1024 52 10000 2.1 30 22:42 23.06.2020
1003 Clear 20 1024 52 10000 2.1 30 22:19 23.06.2020
1004 Clear 21 1023 49 10000 3.6 40 21:59 23.06.2020
1005 Clear 21 1023 49 10000 3.6 40 21:40 23.06.2020
1006 Clear 22 1023 46 10000 1.5 350 21:19 23.06.2020
1007 Clear 23 1023 41 10000 3.1 350 20:55 23.06.2020
1008 Clear 24 1023 36 10000 2.6 350 20:37 23.06.2020
1009 Clear 24 1023 36 10000 2.6 350 20:18 23.06.2020
1010 Clear 24 1023 36 10000 2.6 350 20:18 23.06.2020
1011 Clear 25 1023 36 10000 3.1 340 19:44 23.06.2020
1012 Clear 25 1023 36 10000 3.6 340 19:25 23.06.2020
1013 Clear 25 1023 36 10000 4.1 40 18:42 23.06.2020
1014 Clear 25 1023 38 10000 3.1 350 18:42 23.06.2020
1015 Clear 25 1023 36 10000 4.1 40 18:19 23.06.2020
1016 Clear 25 1023 36 10000 4.6 330 17:56 23.06.2020
1017 Clear 25 1023 36 10000 4.6 330 17:38 23.06.2020
1018 Clear 25 1023 33 10000 3.6 340 17:19 23.06.2020
1019 Clear 26 1023 33 10000 1.5 0 16:55 23.06.2020
1020 Clear 26 1023 33 10000 1.5 0 16:36 23.06.2020
1021 Clear 26 1024 33 10000 2.1 360 16:18 23.06.2020
1022 Clear 25 1024 33 10000 3.6 360 15:43 23.06.2020
1023 Clear 25 1024 38 10000 2.6 80 15:24 23.06.2020
1024 Clear 25 1024 44 10000 2.6 0 14:56 23.06.2020
1025 Clear 25 1024 41 10000 3.1 0 14:37 23.06.2020
1026 Clear 24 1024 41 10000 3.1 0 14:18 23.06.2020
1027 Clear 24 1025 41 10000 4.1 320 13:45 23.06.2020
1028 Clear 25 1025 41 10000 1.5 0 13:25 23.06.2020
1029 Clear 24 1025 43 10000 1.5 0 12:55 23.06.2020
1030 Clear 23 1025 43 10000 1.5 0 12:37 23.06.2020
1031 Clear 23 1025 46 10000 2.6 20 12:18 23.06.2020
1032 Clear 22 1025 46 10000 3.6 350 11:42 23.06.2020
1033 Clear 22 1025 46 10000 2.6 0 11:22 23.06.2020
1034 Clouds 23 1025 53 10000 1.5 0 10:58 23.06.2020
1035 Clouds 22 1025 53 10000 1.5 0 10:40 23.06.2020
1036 Clear 22 1025 53 10000 1.5 0 10:22 23.06.2020
1037 Clear 21 1025 60 10000 2.6 50 09:56 23.06.2020
1038 Clear 20 1025 60 10000 2.6 50 09:38 23.06.2020
1039 Clear 18 1025 68 10000 2.1 300 09:18 23.06.2020
1040 Clear 18 1025 72 10000 2.1 320 08:42 23.06.2020
1041 Clouds 18 1025 77 10000 2.1 340 08:22 23.06.2020
1042 Clouds 16 1025 82 10000 1 0 07:45 23.06.2020
1043 Clouds 15 1025 87 10000 0.5 0 07:24 23.06.2020
1044 Clouds 14 1025 93 10000 1 0 06:52 23.06.2020
1045 Clouds 14 1025 93 10000 1.5 330 06:32 23.06.2020
1046 Clouds 14 1025 100 10000 1.5 350 05:48 23.06.2020
1047 Clouds 14 1024 93 10000 0.5 0 04:41 23.06.2020
1048 Clear 15 1025 93 10000 0.5 0 03:20 23.06.2020
1049 Clear 16 1024 93 10000 1.5 10 02:46 23.06.2020
1050 Clouds 16 1025 93 10000 1 340 02:27 23.06.2020
1051 Clouds 16 1025 93 10000 1 0 01:44 23.06.2020
1052 Clouds 16 1025 87 10000 1.5 350 01:21 23.06.2020
1053 Clouds 17 1024 82 10000 1 360 00:38 23.06.2020
1054 Clouds 18 1024 77 10000 1.5 360 00:18 23.06.2020
1055 Clouds 19 1024 72 10000 2.6 350 23:39 22.06.2020
1056 Clouds 19 1024 72 10000 2.1 350 23:19 22.06.2020
1057 Clouds 19 1024 68 10000 3.1 340 22:58 22.06.2020
1058 Clouds 20 1024 64 10000 3.6 340 22:40 22.06.2020
1059 Clouds 20 1024 64 10000 3.6 340 22:20 22.06.2020
1060 Clouds 21 1023 60 10000 2.6 360 21:58 22.06.2020
1061 Clouds 22 1023 60 10000 2.6 360 21:40 22.06.2020
1062 Clouds 22 1023 60 10000 2.6 360 21:21 22.06.2020
1063 Clouds 22 1023 56 10000 4.6 360 20:54 22.06.2020
1064 Clouds 23 1023 53 10000 4.1 340 20:36 22.06.2020
1065 Clouds 23 1023 53 10000 4.1 340 20:18 22.06.2020
1066 Clouds 23 1023 53 10000 5.1 320 19:42 22.06.2020
1067 Clouds 24 1023 53 10000 5.1 320 19:19 22.06.2020
1068 Clouds 24 1023 53 10000 5.1 320 18:56 22.06.2020
1069 Clouds 24 1023 50 10000 5.1 310 18:36 22.06.2020
1070 Clouds 24 1023 53 10000 4.1 310 18:18 22.06.2020
1071 Clouds 25 1023 50 10000 5.7 310 17:39 22.06.2020
1072 Clouds 25 1023 50 10000 5.7 310 17:21 22.06.2020
1073 Clouds 24 1023 56 10000 5.1 310 16:59 22.06.2020
1074 Rain 24 1023 50 10000 5.1 320 16:41 22.06.2020
1075 Rain 24 1023 50 10000 5.1 320 16:18 22.06.2020
1076 Rain 25 1023 47 10000 5.1 280 15:54 22.06.2020
1077 Clouds 25 1023 47 10000 5.7 300 15:36 22.06.2020
1078 Clouds 25 1023 53 10000 5.7 290 15:18 22.06.2020
1079 Clouds 25 1023 50 10000 3.6 320 14:39 22.06.2020
1080 Clouds 24 1023 50 10000 3.6 320 14:20 22.06.2020
1081 Clouds 23 1023 56 10000 5.7 300 13:54 22.06.2020
1082 Clouds 24 1023 53 10000 4.6 290 13:36 22.06.2020
1083 Clouds 24 1023 56 10000 5.1 290 13:18 22.06.2020
1084 Clouds 23 1023 56 10000 4.1 290 12:41 22.06.2020
1085 Clouds 22 1023 56 10000 5.1 280 12:22 22.06.2020
1086 Clouds 22 1023 56 10000 5.1 280 12:22 22.06.2020
1087 Clouds 22 1023 56 10000 4.6 300 11:38 22.06.2020
1088 Clouds 22 1023 56 10000 4.6 300 11:38 22.06.2020
1089 Clouds 23 1023 56 10000 4.6 300 11:20 22.06.2020
1090 Clouds 22 1023 56 10000 4.6 290 10:57 22.06.2020
1091 Clouds 22 1023 56 10000 4.6 290 10:57 22.06.2020
1092 Clouds 22 1023 60 10000 4.1 290 10:39 22.06.2020
1093 Clouds 22 1023 60 10000 4.1 290 10:19 22.06.2020
1094 Rain 21 1023 60 10000 4.1 270 09:58 22.06.2020
1095 Rain 21 1023 64 10000 3.6 290 09:40 22.06.2020
1096 Clouds 19 1023 64 10000 3.6 290 09:19 22.06.2020
1097 Clouds 18 1023 68 10000 1 0 08:57 22.06.2020
1098 Clouds 16 1022 82 10000 1.5 100 08:38 22.06.2020
1099 Clouds 16 1022 82 10000 1.5 100 08:19 22.06.2020
1100 Clouds 15 1022 87 10000 3.1 100 07:49 22.06.2020
1101 Clouds 15 1022 87 10000 3.1 100 07:30 22.06.2020
1102 Clouds 14 1022 87 10000 2.1 90 06:43 22.06.2020
1103 Clouds 14 1022 87 10000 2.1 90 06:24 22.06.2020
1104 Clouds 13 1021 93 10000 3.6 100 05:43 22.06.2020
1105 Clouds 14 1021 87 10000 3.1 100 03:48 22.06.2020
1106 Clear 14 1022 87 10000 2.1 90 02:23 22.06.2020
1107 Clear 14 1022 87 0 1 110 01:18 22.06.2020
1108 Clear 15 1021 82 10000 0.5 0 00:39 22.06.2020
1109 Clear 15 1021 82 10000 1.5 100 23:58 21.06.2020
1110 Clear 16 1021 72 10000 0.5 0 23:39 21.06.2020
1111 Clear 16 1021 72 10000 0.5 0 23:39 21.06.2020
1112 Clear 17 1021 72 10000 0.5 0 23:20 21.06.2020
1113 Clear 17 1021 63 10000 0.5 0 22:56 21.06.2020
1114 Clear 19 1021 68 10000 2.1 280 22:37 21.06.2020
1115 Clear 19 1021 68 10000 2.1 280 22:19 21.06.2020
1116 Clear 19 1020 64 10000 1.5 290 21:56 21.06.2020
1117 Clear 19 1020 64 10000 1.5 290 21:56 21.06.2020
1118 Clear 21 1020 56 10000 3.1 270 21:37 21.06.2020
1119 Clear 21 1020 56 10000 3.1 270 21:19 21.06.2020
1120 Clear 21 1020 53 10000 3.6 280 20:57 21.06.2020
1121 Clear 22 1020 46 10000 2.6 290 20:36 21.06.2020
1122 Clear 22 1020 46 10000 2.6 290 20:18 21.06.2020
1123 Clear 23 1020 49 10000 4.1 290 19:41 21.06.2020
1124 Clear 23 1020 44 10000 3.6 270 19:23 21.06.2020
1125 Clear 23 1020 44 10000 3.6 270 18:59 21.06.2020
1126 Clear 23 1020 46 10000 4.6 290 18:40 21.06.2020
1127 Clouds 23 1020 46 10000 3.1 320 18:21 21.06.2020
1128 Clouds 23 1020 46 10000 3.1 320 17:57 21.06.2020
1129 Clouds 23 1020 46 10000 3.1 320 17:38 21.06.2020
1130 Clouds 24 1020 46 10000 3.1 320 17:19 21.06.2020
1131 Clouds 24 1020 44 10000 3.1 290 17:19 21.06.2020
1132 Clouds 23 1020 46 10000 4.1 280 16:41 21.06.2020
1133 Clear 23 1020 46 10000 3.6 330 16:22 21.06.2020
1134 Clear 24 1020 46 10000 3.6 330 15:56 21.06.2020
1135 Clear 24 1020 46 10000 4.1 300 15:36 21.06.2020
1136 Clear 24 1020 46 10000 4.1 290 15:18 21.06.2020
1137 Clouds 23 1020 49 10000 4.6 330 14:39 21.06.2020
1138 Clouds 23 1020 49 10000 4.6 330 14:20 21.06.2020
1139 Clouds 23 1021 49 10000 4.6 320 13:56 21.06.2020
1140 Clouds 23 1021 49 10000 4.6 320 13:56 21.06.2020
1141 Clouds 23 1021 49 10000 3.6 340 13:38 21.06.2020
1142 Clouds 22 1021 49 10000 3.6 340 13:19 21.06.2020
1143 Clouds 22 1021 52 10000 4.1 320 12:44 21.06.2020
1144 Clouds 21 1021 52 10000 4.1 320 12:25 21.06.2020
1145 Clouds 21 1021 60 10000 4.6 310 11:58 21.06.2020
1146 Clouds 21 1021 64 10000 4.6 310 11:39 21.06.2020
1147 Clouds 21 1021 64 10000 4.6 310 11:21 21.06.2020
1148 Clouds 20 1021 72 10000 3.1 320 10:55 21.06.2020
1149 Clouds 19 1021 72 10000 2.6 310 10:36 21.06.2020
1150 Clouds 19 1021 72 10000 2.6 310 10:18 21.06.2020
1151 Clouds 17 1021 77 10000 2.6 330 09:41 21.06.2020
1152 Clouds 17 1021 82 10000 2.6 330 09:19 21.06.2020
1153 Clouds 16 1021 82 10000 2.6 330 08:56 21.06.2020
1154 Clouds 15 1021 87 10000 1.5 280 08:37 21.06.2020
1155 Fog 15 1020 93 10000 1 0 08:19 21.06.2020
1156 Fog 14 1020 93 8000 0.5 0 07:41 21.06.2020
1157 Fog 14 1020 93 8000 0.5 0 07:22 21.06.2020
1158 Fog 13 1020 100 2000 0.5 0 06:49 21.06.2020
1159 Fog 13 1020 100 8000 0.5 20 05:59 21.06.2020
1160 Fog 14 1020 93 8000 0.5 0 05:31 21.06.2020
1161 Clouds 14 1020 100 10000 0.5 20 03:40 21.06.2020
1162 Clouds 14 1020 100 10000 0.5 20 03:18 21.06.2020
1163 Clouds 14 1020 100 10000 1.5 50 02:19 21.06.2020
1164 Rain 15 1021 93 10000 1.5 100 01:24 21.06.2020
1165 Rain 15 1021 93 10000 2.1 320 00:56 21.06.2020
1166 Rain 15 1021 93 8000 2.1 10 00:38 21.06.2020
1167 Rain 15 1021 93 8000 2.1 10 00:19 21.06.2020
1168 Clouds 16 1020 93 10000 2.1 100 23:44 20.06.2020
1169 Clouds 16 1020 93 10000 2.1 100 23:22 20.06.2020
1170 Clouds 16 1020 87 10000 1.5 100 22:56 20.06.2020
1171 Clouds 16 1020 87 10000 1.5 100 22:37 20.06.2020
1172 Clouds 16 1020 87 10000 1.5 100 22:18 20.06.2020
1173 Clouds 17 1020 82 10000 1.5 220 21:56 20.06.2020
1174 Clouds 17 1020 82 10000 1 200 21:38 20.06.2020
1175 Clouds 18 1020 82 10000 1 200 21:19 20.06.2020
1176 Clouds 18 1019 72 10000 2.1 230 20:56 20.06.2020
1177 Clouds 19 1019 72 10000 2.6 240 20:38 20.06.2020
1178 Clouds 19 1019 72 10000 2.6 240 20:19 20.06.2020
1179 Clouds 19 1019 72 10000 2.6 240 20:19 20.06.2020
1180 Clouds 19 1019 77 10000 2.1 190 19:43 20.06.2020
1181 Clouds 19 1019 77 10000 2.1 190 19:23 20.06.2020
1182 Clouds 19 1020 88 10000 1.5 170 18:55 20.06.2020
1183 Thunderstorm 19 1020 87 10000 5.1 30 18:37 20.06.2020
1184 Thunderstorm 19 1020 87 10000 5.1 30 18:18 20.06.2020
1185 Thunderstorm 21 1019 64 10000 5.7 270 17:55 20.06.2020
1186 Clouds 20 1019 56 10000 2.6 240 17:37 20.06.2020
1187 Clouds 20 1019 56 10000 2.6 240 17:18 20.06.2020
1188 Clouds 20 1020 68 10000 1 0 16:39 20.06.2020
1189 Clouds 21 1020 68 10000 1 0 16:18 20.06.2020
1190 Rain 20 1020 72 10000 4.1 280 15:42 20.06.2020
1191 Clouds 21 1020 60 10000 3.6 300 15:19 20.06.2020
1192 Clouds 21 1020 60 10000 3.6 300 14:57 20.06.2020
1193 Clouds 20 1020 52 10000 4.6 340 14:39 20.06.2020
1194 Clouds 21 1020 52 10000 4.6 340 14:19 20.06.2020
1195 Clouds 20 1020 64 10000 3.6 310 13:41 20.06.2020
1196 Clouds 20 1020 64 10000 3.6 310 13:20 20.06.2020
1197 Clouds 20 1020 64 10000 3.6 300 12:55 20.06.2020
1198 Clouds 19 1021 72 10000 2.1 290 12:36 20.06.2020
1199 Clouds 19 1021 82 10000 2.6 310 12:18 20.06.2020
1200 Clouds 18 1021 82 10000 3.1 280 11:38 20.06.2020
1201 Clouds 16 1021 82 10000 3.1 280 11:20 20.06.2020
1202 Clouds 16 1020 82 10000 2.6 270 10:57 20.06.2020
1203 Clouds 16 1020 87 10000 1.5 280 10:38 20.06.2020
1204 Clouds 16 1020 87 10000 1.5 280 10:18 20.06.2020
1205 Clouds 15 1020 87 10000 1.5 300 09:40 20.06.2020
1206 Clouds 14 1020 87 10000 1.5 300 09:22 20.06.2020
1207 Clouds 14 1020 87 10000 2.1 270 08:56 20.06.2020
1208 Rain 14 1020 93 10000 2.6 290 08:38 20.06.2020
1209 Rain 14 1020 93 10000 2.6 290 08:20 20.06.2020
1210 Clouds 14 1020 82 10000 0.5 240 07:44 20.06.2020
1211 Clouds 14 1020 82 10000 0.5 240 07:25 20.06.2020
1212 Clouds 14 1019 87 10000 0.5 0 06:24 20.06.2020
1213 Clouds 14 1019 87 10000 1.5 270 05:59 20.06.2020
1214 Clouds 14 1019 87 10000 1 0 05:40 20.06.2020
1215 Clouds 14 1019 82 10000 1 0 03:21 20.06.2020
1216 Rain 15 1019 82 10000 0.5 0 01:52 20.06.2020
1217 Rain 15 1019 77 10000 2.6 260 01:33 20.06.2020
1218 Thunderstorm 15 1019 77 10000 1 0 00:22 20.06.2020
1219 Thunderstorm 16 1019 72 10000 1.5 50 23:58 19.06.2020
1220 Thunderstorm 16 1018 72 10000 2.6 240 23:39 19.06.2020
1221 Clouds 17 1018 68 10000 2.6 230 23:19 19.06.2020
1222 Clouds 17 1018 68 10000 2.6 230 22:54 19.06.2020
1223 Clouds 17 1018 68 10000 2.1 240 22:36 19.06.2020
1224 Clouds 17 1018 68 10000 2.1 240 22:18 19.06.2020
1225 Clouds 18 1017 63 10000 3.6 250 21:40 19.06.2020
1226 Rain 19 1017 60 10000 5.1 260 21:19 19.06.2020
1227 Rain 19 1017 60 10000 5.1 260 20:59 19.06.2020
1228 Rain 19 1017 56 10000 4.6 270 20:40 19.06.2020
1229 Clouds 19 1017 56 10000 4.6 270 20:21 19.06.2020
1230 Clouds 19 1017 56 10000 4.6 270 20:21 19.06.2020
1231 Clouds 19 1017 56 10000 4.6 270 20:21 19.06.2020
1232 Clouds 19 1017 56 10000 4.6 270 20:21 19.06.2020
1233 Clouds 19 1016 56 10000 4.6 270 19:59 19.06.2020
1234 Rain 19 1016 63 10000 4.1 280 19:41 19.06.2020
1235 Rain 19 1016 63 10000 4.1 280 19:23 19.06.2020
1236 Rain 19 1016 60 10000 5.7 260 18:57 19.06.2020
1237 Clouds 19 1016 60 10000 5.1 260 18:38 19.06.2020
1238 Clouds 20 1016 60 10000 5.1 260 18:20 19.06.2020
1239 Clouds 21 1016 60 10000 5.7 260 17:41 19.06.2020
1240 Clouds 21 1016 60 10000 5.7 260 17:23 19.06.2020
1241 Clouds 21 1016 56 10000 5.7 260 16:57 19.06.2020
1242 Clouds 21 1016 60 10000 5.7 270 16:38 19.06.2020
1243 Clouds 21 1016 60 10000 5.7 270 16:20 19.06.2020
1244 Clouds 21 1016 56 10000 8.7 280 15:44 19.06.2020
1245 Clouds 21 1016 56 10000 8.7 280 15:25 19.06.2020
1246 Clouds 21 1016 60 10000 6.2 270 14:57 19.06.2020
1247 Rain 21 1015 52 10000 6.2 300 14:38 19.06.2020
1248 Rain 22 1015 52 10000 6.2 300 14:20 19.06.2020
1249 Clouds 22 1015 49 10000 5.7 280 13:55 19.06.2020
1250 Clouds 22 1015 52 10000 5.1 300 13:37 19.06.2020
1251 Clouds 22 1015 53 10000 4.6 300 13:18 19.06.2020
1252 Clouds 21 1016 52 10000 5.7 290 12:40 19.06.2020
1253 Clouds 21 1016 56 10000 4.6 290 12:18 19.06.2020
1254 Clouds 21 1015 56 10000 4.1 280 11:40 19.06.2020
1255 Clouds 21 1015 56 10000 4.1 280 11:19 19.06.2020
1256 Clouds 21 1015 64 10000 2.1 240 10:59 19.06.2020
1257 Clouds 20 1015 68 10000 2.1 0 10:41 19.06.2020
1258 Clouds 20 1015 68 10000 2.1 0 10:41 19.06.2020
1259 Clouds 20 1015 68 10000 2.1 0 10:19 19.06.2020
1260 Rain 19 1015 77 10000 1.5 280 09:44 19.06.2020
1261 Clouds 17 1015 77 10000 1.5 280 09:25 19.06.2020
1262 Clouds 16 1015 72 10000 1 0 08:58 19.06.2020
1263 Clouds 16 1015 77 10000 1 0 08:38 19.06.2020
1264 Clouds 15 1015 77 10000 1 0 08:20 19.06.2020
1265 Clouds 13 1015 93 10000 2.1 100 07:40 19.06.2020
1266 Clouds 12 1015 93 10000 2.1 100 07:21 19.06.2020
1267 Clouds 11 1015 93 10000 2.6 90 06:44 19.06.2020
1268 Clouds 11 1015 93 10000 2.6 90 06:20 19.06.2020
1269 Clear 10 1014 93 10000 3.1 100 04:30 19.06.2020
1270 Clear 11 1015 93 10000 2.6 90 03:29 19.06.2020
1271 Clear 12 1015 93 10000 2.6 100 01:23 19.06.2020
1272 Clear 13 1014 87 10000 1 110 00:42 19.06.2020
1273 Clear 13 1014 87 10000 1 110 00:22 19.06.2020
1274 Clear 13 1014 93 10000 0.5 0 23:55 18.06.2020
1275 Clear 13 1014 87 10000 0.5 100 23:36 18.06.2020
1276 Clear 13 1014 87 10000 0.5 100 23:36 18.06.2020
1277 Clear 14 1014 77 10000 0.5 0 23:18 18.06.2020
1278 Clear 14 1014 77 10000 0.5 0 23:18 18.06.2020
1279 Clear 17 1014 67 10000 0.5 0 22:39 18.06.2020
1280 Clear 17 1014 67 10000 0.5 0 22:19 18.06.2020
1281 Clear 17 1013 68 10000 0.5 0 21:55 18.06.2020
1282 Clear 18 1013 63 10000 2.1 360 21:36 18.06.2020
1283 Clear 19 1013 63 10000 2.1 360 21:18 18.06.2020
1284 Clouds 19 1013 60 10000 3.1 340 20:40 18.06.2020
1285 Clouds 19 1013 60 10000 3.1 340 20:20 18.06.2020
1286 Clouds 20 1013 60 10000 3.6 350 19:56 18.06.2020
1287 Clouds 20 1013 64 10000 3.6 350 19:37 18.06.2020
1288 Clouds 20 1013 64 10000 3.6 350 19:18 18.06.2020
1289 Clouds 21 1013 64 10000 4.1 330 18:38 18.06.2020
1290 Clouds 20 1013 64 10000 4.1 330 18:19 18.06.2020
1291 Clouds 20 1013 60 10000 4.1 330 17:45 18.06.2020
1292 Clouds 20 1013 60 10000 3.6 330 17:26 18.06.2020
1293 Clouds 20 1013 60 10000 4.1 310 16:57 18.06.2020
1294 Clouds 20 1013 64 10000 4.1 290 16:39 18.06.2020
1295 Clouds 20 1013 64 10000 4.1 290 16:20 18.06.2020
1296 Clouds 19 1014 68 10000 4.1 270 15:57 18.06.2020
1297 Clouds 20 1014 68 10000 4.1 270 15:38 18.06.2020
1298 Clouds 19 1014 63 10000 4.6 280 15:19 18.06.2020
1299 Clouds 19 1014 63 10000 4.6 280 14:55 18.06.2020
1300 Clouds 19 1014 63 10000 5.1 260 14:37 18.06.2020
1301 Clouds 19 1014 63 10000 5.1 260 14:18 18.06.2020
1302 Clouds 18 1014 68 10000 4.1 270 13:41 18.06.2020
1303 Clouds 18 1014 68 10000 4.1 270 13:23 18.06.2020
1304 Clouds 18 1014 68 10000 4.6 280 12:56 18.06.2020
1305 Clouds 18 1014 68 10000 4.6 280 12:56 18.06.2020
1306 Clouds 17 1014 72 10000 3.1 260 12:37 18.06.2020
1307 Clouds 17 1014 72 10000 3.1 260 12:19 18.06.2020
1308 Clouds 17 1014 72 10000 3.6 290 11:47 18.06.2020
1309 Clouds 16 1014 77 10000 5.1 270 11:21 18.06.2020
1310 Clouds 16 1013 72 10000 4.6 270 10:56 18.06.2020
1311 Clouds 16 1013 77 10000 4.1 260 10:38 18.06.2020
1312 Clouds 15 1013 82 10000 4.1 250 10:18 18.06.2020
1313 Clouds 14 1013 82 10000 4.1 260 09:42 18.06.2020
1314 Clouds 14 1013 82 10000 4.1 260 09:23 18.06.2020
1315 Clouds 13 1013 87 10000 3.6 240 08:42 18.06.2020
1316 Clouds 13 1013 87 10000 3.6 240 08:24 18.06.2020
1317 Clouds 13 1013 93 10000 3.6 240 07:59 18.06.2020
1318 Clouds 13 1013 87 10000 2.6 230 07:40 18.06.2020
1319 Clouds 13 1013 87 10000 2.6 230 07:21 18.06.2020
1320 Clouds 13 1013 93 10000 2.1 240 06:29 18.06.2020
1321 Clouds 14 1012 93 10000 3.6 250 04:27 18.06.2020
1322 Rain 14 1012 87 10000 5.1 250 03:26 18.06.2020
1323 Rain 15 1012 93 7000 4.1 260 01:40 18.06.2020
1324 Rain 15 1012 93 7000 4.1 260 01:18 18.06.2020
1325 Rain 15 1012 93 7000 4.1 260 01:18 18.06.2020
1326 Rain 15 1012 100 7000 5.7 250 00:49 18.06.2020
1327 Rain 16 1012 87 8000 5.1 240 00:24 18.06.2020
1328 Clouds 17 1011 93 10000 4.1 250 23:47 17.06.2020
1329 Clouds 17 1011 93 10000 4.1 250 23:23 17.06.2020
1330 Clouds 17 1011 88 10000 1.5 280 22:59 17.06.2020
1331 Rain 18 1010 93 10000 1.5 250 22:40 17.06.2020
1332 Rain 18 1010 93 10000 1.5 250 22:21 17.06.2020
1333 Rain 18 1010 88 10000 2.6 220 21:58 17.06.2020
1334 Rain 18 1010 88 10000 2.1 210 21:39 17.06.2020
1335 Rain 19 1010 88 10000 2.1 210 21:20 17.06.2020
1336 Rain 20 1009 72 10000 2.6 270 20:39 17.06.2020
1337 Rain 20 1009 72 10000 2.6 270 20:20 17.06.2020
1338 Rain 20 1009 72 10000 3.1 250 19:59 17.06.2020
1339 Rain 20 1009 72 10000 3.1 250 19:59 17.06.2020
1340 Rain 20 1009 77 10000 2.6 270 19:39 17.06.2020
1341 Rain 21 1009 77 10000 2.6 270 19:19 17.06.2020
1342 Rain 22 1009 68 10000 3.1 240 18:45 17.06.2020
1343 Rain 23 1009 68 10000 3.1 240 18:27 17.06.2020
1344 Rain 23 1009 68 10000 3.1 240 18:27 17.06.2020
1345 Rain 22 1009 64 10000 2.1 260 17:47 17.06.2020
1346 Rain 22 1009 64 10000 2.1 260 17:23 17.06.2020
1347 Rain 22 1009 64 10000 1 0 16:58 17.06.2020
1348 Clouds 24 1010 68 10000 3.1 220 16:40 17.06.2020
1349 Clouds 23 1010 68 10000 3.1 220 16:21 17.06.2020
1350 Rain 23 1010 64 10000 4.6 200 15:58 17.06.2020
1351 Rain 23 1010 64 10000 5.7 140 15:39 17.06.2020
1352 Rain 23 1010 64 10000 5.7 140 15:20 17.06.2020
1353 Clouds 23 1009 49 10000 4.1 80 14:58 17.06.2020
1354 Clouds 23 1010 50 10000 3.1 50 14:39 17.06.2020
1355 Clouds 23 1010 50 10000 3.1 50 14:19 17.06.2020
1356 Clouds 23 1010 50 10000 4.6 100 13:56 17.06.2020
1357 Clouds 23 1010 53 10000 3.6 90 13:37 17.06.2020
1358 Clouds 23 1010 53 10000 3.6 90 13:19 17.06.2020
1359 Clouds 23 1011 57 10000 3.1 130 12:42 17.06.2020
1360 Clouds 23 1011 57 10000 3.1 130 12:23 17.06.2020
1361 Clouds 23 1011 60 10000 2.1 0 11:57 17.06.2020
1362 Clouds 22 1011 64 10000 1.5 0 11:37 17.06.2020
1363 Clouds 22 1011 64 10000 1.5 0 11:18 17.06.2020
1364 Clouds 21 1011 73 10000 2.6 350 10:38 17.06.2020
1365 Clouds 21 1011 73 10000 2.6 350 10:19 17.06.2020
1366 Clouds 21 1011 73 10000 2.6 350 10:19 17.06.2020
1367 Clouds 20 1012 82 10000 2.1 330 09:57 17.06.2020
1368 Clouds 19 1012 82 10000 2.1 360 09:39 17.06.2020
1369 Clouds 18 1012 93 10000 3.1 360 09:20 17.06.2020
1370 Clouds 17 1012 93 10000 3.1 360 08:45 17.06.2020
1371 Clouds 17 1012 93 8000 2.6 340 08:20 17.06.2020
1372 Clouds 16 1012 93 6000 1.5 290 07:55 17.06.2020
1373 Fog 16 1012 93 6000 1.5 320 07:37 17.06.2020
1374 Fog 16 1012 93 6000 1 310 07:19 17.06.2020
1375 Mist 15 1012 100 4200 1 310 06:41 17.06.2020
1376 Mist 15 1012 100 4200 1 310 06:23 17.06.2020
1377 Mist 15 1012 100 4200 1 300 05:59 17.06.2020
1378 Mist 15 1012 93 4500 1 290 04:39 17.06.2020
1379 Clouds 16 1013 93 10000 0.5 0 02:48 17.06.2020
1380 Clouds 16 1014 88 10000 1.5 290 01:28 17.06.2020
1381 Clouds 17 1014 88 10000 2.1 280 00:37 17.06.2020
1382 Clouds 17 1014 88 10000 2.1 280 00:19 17.06.2020
1383 Clouds 17 1014 82 10000 1.5 300 23:55 16.06.2020
1384 Clouds 17 1014 82 10000 1.5 300 23:37 16.06.2020
1385 Rain 17 1014 82 10000 1.5 300 23:18 16.06.2020
1386 Rain 18 1014 82 10000 1.5 300 22:39 16.06.2020
1387 Rain 18 1014 82 10000 1.5 300 22:19 16.06.2020
1388 Rain 18 1014 77 10000 1.5 280 21:58 16.06.2020
1389 Rain 18 1013 77 10000 2.1 290 21:40 16.06.2020
1390 Clouds 19 1014 72 10000 3.1 280 21:22 16.06.2020
1391 Clouds 20 1014 72 10000 3.1 280 20:55 16.06.2020
1392 Clouds 20 1014 72 10000 2.6 270 20:36 16.06.2020
1393 Clouds 20 1014 68 10000 3.1 270 20:18 16.06.2020
1394 Clouds 20 1014 68 10000 3.1 270 19:56 16.06.2020
1395 Clouds 21 1014 64 10000 3.1 290 19:37 16.06.2020
1396 Clouds 21 1014 64 10000 3.1 290 19:18 16.06.2020
1397 Clouds 21 1014 68 10000 3.6 260 18:41 16.06.2020
1398 Clouds 21 1014 68 10000 3.6 260 18:21 16.06.2020
1399 Clouds 21 1014 64 10000 3.1 250 17:57 16.06.2020
1400 Clouds 21 1015 68 10000 3.1 260 17:38 16.06.2020
1401 Clouds 21 1015 68 10000 3.1 260 17:19 16.06.2020
1402 Clouds 21 1015 72 10000 3.1 270 16:56 16.06.2020
1403 Clouds 21 1015 72 10000 4.1 260 16:38 16.06.2020
1404 Clouds 21 1015 72 10000 4.1 260 16:19 16.06.2020
1405 Clouds 20 1015 72 10000 3.1 270 15:56 16.06.2020
1406 Clouds 20 1015 77 10000 2.6 250 15:38 16.06.2020
1407 Clouds 20 1015 77 10000 2.6 250 15:20 16.06.2020
1408 Clouds 20 1016 77 10000 3.6 270 14:43 16.06.2020
1409 Clouds 19 1016 77 10000 3.6 270 14:25 16.06.2020
1410 Clouds 19 1016 82 9000 3.6 290 13:58 16.06.2020
1411 Clouds 18 1016 82 8000 3.6 270 13:40 16.06.2020
1412 Clouds 18 1016 82 8000 3.6 270 13:22 16.06.2020
1413 Clouds 17 1016 82 10000 2.1 340 12:42 16.06.2020
1414 Clouds 17 1016 82 10000 2.1 340 12:21 16.06.2020
1415 Clouds 17 1016 82 10000 3.1 360 11:56 16.06.2020
1416 Clouds 17 1016 88 10000 3.1 340 11:38 16.06.2020
1417 Clouds 17 1016 88 10000 3.1 340 11:19 16.06.2020
1418 Clouds 16 1016 93 9000 2.6 340 10:55 16.06.2020
1419 Clouds 16 1016 87 9000 2.6 320 10:37 16.06.2020
1420 Clouds 16 1016 87 8000 2.1 330 10:18 16.06.2020
1421 Clouds 16 1017 97 0 0.94 329 09:42 16.06.2020
1422 Clouds 15 1016 93 8000 2.1 330 09:22 16.06.2020
1423 Clouds 15 1016 93 6000 2.6 330 08:48 16.06.2020
1424 Clouds 15 1016 93 6000 2.6 330 08:30 16.06.2020
1425 Mist 15 1016 93 4200 3.1 340 07:51 16.06.2020
1426 Mist 15 1016 93 3500 2.6 320 07:28 16.06.2020
1427 Mist 15 1016 93 3700 3.1 320 06:55 16.06.2020
1428 Mist 14 1016 100 3000 2.1 310 06:29 16.06.2020
1429 Drizzle 14 1016 100 2700 3.1 320 05:46 16.06.2020
1430 Clouds 14 1017 100 7000 1.5 300 04:42 16.06.2020
1431 Clouds 14 1017 100 9000 1.5 290 03:31 16.06.2020
1432 Clouds 14 1017 100 10000 3.1 270 02:18 16.06.2020
1433 Clouds 14 1017 100 10000 3.1 270 01:31 16.06.2020
1434 Clouds 15 1017 93 10000 2.6 270 00:52 16.06.2020
1435 Clouds 15 1017 93 10000 2.6 270 00:22 16.06.2020
1436 Clouds 15 1017 93 10000 2.6 280 23:43 15.06.2020
1437 Clouds 15 1017 93 10000 2.6 280 23:23 15.06.2020
1438 Clouds 15 1017 93 10000 3.1 270 22:56 15.06.2020
1439 Drizzle 15 1017 93 10000 3.1 290 22:38 15.06.2020
1440 Drizzle 15 1017 93 10000 3.6 290 22:19 15.06.2020
1441 Drizzle 15 1017 93 10000 3.6 290 21:56 15.06.2020
1442 Drizzle 15 1017 93 10000 4.1 290 21:37 15.06.2020
1443 Drizzle 15 1017 93 10000 4.1 290 21:19 15.06.2020
1444 Drizzle 15 1017 93 10000 4.1 280 20:56 15.06.2020
1445 Drizzle 15 1016 93 9000 4.6 270 20:37 15.06.2020
1446 Drizzle 15 1016 93 9000 4.6 270 20:19 15.06.2020
1447 Drizzle 15 1016 100 8000 3.1 270 19:55 15.06.2020
1448 Drizzle 15 1016 100 6000 3.1 280 19:37 15.06.2020
1449 Drizzle 15 1016 100 6000 3.1 280 19:18 15.06.2020
1450 Drizzle 16 1016 93 6000 3.6 290 18:44 15.06.2020
1451 Drizzle 16 1016 93 6000 3.6 290 18:22 15.06.2020
1452 Drizzle 16 1016 93 8000 3.1 290 17:59 15.06.2020
1453 Drizzle 16 1016 93 8000 4.1 290 17:41 15.06.2020
1454 Drizzle 15 1016 93 8000 4.1 290 17:20 15.06.2020
1455 Drizzle 15 1016 93 7000 3.6 290 16:58 15.06.2020
1456 Drizzle 16 1016 93 8000 3.6 300 16:39 15.06.2020
1457 Drizzle 15 1016 93 8000 3.6 300 16:18 15.06.2020
1458 Drizzle 16 1016 93 7000 3.6 300 15:55 15.06.2020
1459 Drizzle 15 1016 100 6000 3.1 300 15:36 15.06.2020
1460 Drizzle 15 1016 93 6000 4.1 290 15:18 15.06.2020
1461 Drizzle 15 1016 93 8000 4.1 290 14:41 15.06.2020
1462 Drizzle 15 1016 93 8000 4.1 290 14:20 15.06.2020
1463 Drizzle 15 1016 93 8000 4.1 290 14:20 15.06.2020
1464 Rain 15 1016 93 8000 3.6 290 13:58 15.06.2020
1465 Rain 15 1016 93 8000 4.1 280 13:38 15.06.2020
1466 Rain 15 1016 93 8000 3.6 310 13:19 15.06.2020
1467 Rain 15 1016 93 8000 4.1 290 12:43 15.06.2020
1468 Rain 15 1016 93 8000 4.1 290 12:23 15.06.2020
1469 Rain 15 1016 93 8000 5.7 290 12:00 15.06.2020
1470 Rain 15 1016 93 8000 4.6 290 11:41 15.06.2020
1471 Rain 15 1016 93 8000 4.6 290 11:23 15.06.2020
1472 Rain 15 1015 93 8000 4.6 280 10:43 15.06.2020
1473 Rain 15 1015 93 8000 4.6 280 10:22 15.06.2020
1474 Rain 15 1015 93 8000 4.1 280 09:45 15.06.2020
1475 Rain 15 1015 93 8000 4.1 280 09:23 15.06.2020
1476 Rain 15 1015 93 4700 3.6 280 08:55 15.06.2020
1477 Rain 15 1015 93 4500 3.1 280 08:36 15.06.2020
1478 Rain 15 1015 93 4500 3.1 280 08:18 15.06.2020
1479 Rain 15 1014 93 10000 4.1 290 07:41 15.06.2020
1480 Rain 15 1014 93 10000 4.1 290 07:20 15.06.2020
1481 Rain 15 1014 93 10000 5.1 280 06:29 15.06.2020
1482 Rain 15 1014 93 10000 5.1 280 05:51 15.06.2020
1483 Rain 15 1014 93 10000 5.7 270 05:30 15.06.2020
1484 Rain 15 1014 87 10000 4.1 260 04:22 15.06.2020
1485 Rain 15 1014 87 10000 4.6 270 03:49 15.06.2020
1486 Clouds 16 1014 87 10000 5.1 270 02:58 15.06.2020
1487 Clouds 16 1014 87 10000 4.6 270 02:32 15.06.2020
1488 Clouds 16 1014 87 10000 3.6 270 01:47 15.06.2020
1489 Clouds 16 1014 87 10000 3.6 270 01:27 15.06.2020
1490 Rain 15 1014 93 10000 3.1 270 00:45 15.06.2020
1491 Rain 15 1014 93 10000 3.1 270 00:23 15.06.2020
1492 Rain 16 1014 82 10000 4.6 270 23:58 14.06.2020
1493 Clouds 16 1014 82 10000 4.1 270 23:40 14.06.2020
1494 Clouds 16 1014 82 10000 4.1 270 23:22 14.06.2020
1495 Clouds 16 1014 82 10000 4.1 260 22:57 14.06.2020
1496 Clouds 16 1014 82 10000 4.1 270 22:38 14.06.2020
1497 Clouds 16 1014 82 10000 4.1 270 22:18 14.06.2020
1498 Clouds 16 1014 77 10000 5.1 270 21:56 14.06.2020
1499 Clouds 16 1014 82 10000 5.1 270 21:38 14.06.2020
1500 Clouds 17 1014 82 10000 5.1 270 21:18 14.06.2020
1501 Clouds 17 1014 82 10000 5.7 270 20:57 14.06.2020
1502 Clouds 17 1013 77 10000 6.2 270 20:38 14.06.2020
1503 Clouds 17 1013 77 10000 6.2 270 20:18 14.06.2020
1504 Clouds 18 1013 77 10000 6.7 270 19:56 14.06.2020
1505 Clouds 18 1013 77 10000 6.7 270 19:37 14.06.2020
1506 Clouds 18 1013 77 10000 6.7 270 19:18 14.06.2020
1507 Clouds 18 1013 82 10000 7.2 270 18:55 14.06.2020
1508 Rain 18 1013 77 10000 6.7 280 18:37 14.06.2020
1509 Rain 18 1013 77 10000 6.7 280 18:18 14.06.2020
1510 Clouds 18 1013 77 10000 6.2 270 18:18 14.06.2020
1511 Clouds 19 1013 77 10000 6.2 270 17:55 14.06.2020
1512 Clouds 19 1012 82 10000 5.7 280 17:36 14.06.2020
1513 Clouds 19 1012 82 10000 6.7 260 17:18 14.06.2020
1514 Clouds 19 1013 82 10000 6.7 270 16:40 14.06.2020
1515 Clouds 19 1013 82 10000 6.7 270 16:20 14.06.2020
1516 Clouds 19 1013 82 10000 6.7 270 16:20 14.06.2020
1517 Clouds 19 1012 82 10000 7.7 260 15:57 14.06.2020
1518 Clouds 19 1012 82 10000 7.2 260 15:39 14.06.2020
1519 Clouds 20 1012 82 10000 6.2 270 15:18 14.06.2020
1520 Clouds 19 1012 82 10000 6.2 270 14:55 14.06.2020
1521 Clouds 19 1012 82 10000 5.7 250 14:36 14.06.2020
1522 Clouds 19 1012 82 10000 5.1 260 14:18 14.06.2020
1523 Clouds 19 1012 88 10000 5.1 270 13:41 14.06.2020
1524 Clouds 19 1012 88 10000 5.1 270 13:22 14.06.2020
1525 Clouds 19 1012 88 10000 5.1 260 12:59 14.06.2020
1526 Clouds 18 1012 93 10000 6.2 240 12:40 14.06.2020
1527 Clouds 18 1012 93 10000 6.2 240 12:21 14.06.2020
1528 Clouds 18 1012 93 10000 4.1 270 11:58 14.06.2020
1529 Clouds 18 1012 93 10000 3.1 290 11:39 14.06.2020
1530 Clouds 18 1012 93 10000 3.1 290 11:20 14.06.2020
1531 Rain 17 1011 93 10000 3.6 290 10:43 14.06.2020
1532 Rain 17 1011 93 10000 3.6 290 10:21 14.06.2020
1533 Rain 17 1011 93 10000 4.1 290 09:58 14.06.2020
1534 Rain 17 1011 93 10000 6.7 300 09:40 14.06.2020
1535 Rain 17 1011 93 10000 6.7 300 09:21 14.06.2020
1536 Thunderstorm 16 1011 100 10000 4.6 280 08:42 14.06.2020
1537 Thunderstorm 16 1011 100 6000 5.1 250 08:21 14.06.2020
1538 Thunderstorm 16 1011 100 5000 3.6 190 07:52 14.06.2020
1539 Thunderstorm 16 1011 100 5000 3.6 190 07:34 14.06.2020
1540 Rain 17 1009 93 8000 4.1 290 06:40 14.06.2020
1541 Clouds 17 1009 93 10000 5.7 280 05:49 14.06.2020
1542 Clouds 17 1009 93 10000 5.7 280 05:21 14.06.2020
1543 Clouds 17 1009 88 10000 4.1 270 04:36 14.06.2020
1544 Clouds 17 1009 88 10000 4.1 290 03:44 14.06.2020
1545 Rain 17 1009 88 10000 2.1 280 02:34 14.06.2020
1546 Clouds 18 1009 88 10000 3.6 290 01:49 14.06.2020
1547 Clouds 18 1008 82 10000 3.6 270 01:26 14.06.2020
1548 Thunderstorm 19 1008 77 10000 6.7 280 00:42 14.06.2020
1549 Thunderstorm 19 1008 77 10000 6.7 280 00:20 14.06.2020
1550 Thunderstorm 20 1009 77 7000 3.6 200 23:44 13.06.2020
1551 Thunderstorm 21 1009 77 7000 3.6 200 23:25 13.06.2020
1552 Thunderstorm 22 1008 69 10000 3.6 260 22:58 13.06.2020
1553 Thunderstorm 23 1008 69 10000 3.1 250 22:37 13.06.2020
1554 Clouds 23 1008 64 10000 3.1 270 22:18 13.06.2020
1555 Clouds 23 1008 64 10000 3.1 270 21:56 13.06.2020
1556 Clouds 23 1007 64 10000 3.1 270 21:37 13.06.2020
1557 Clouds 24 1007 64 10000 4.1 270 21:19 13.06.2020
1558 Clouds 25 1007 57 10000 3.1 280 20:42 13.06.2020
1559 Clouds 25 1007 57 10000 3.1 280 20:42 13.06.2020
1560 Clouds 25 1007 57 10000 3.1 280 20:19 13.06.2020
1561 Clouds 26 1006 47 10000 4.1 280 19:57 13.06.2020
1562 Clouds 27 1007 42 10000 2.6 280 19:36 13.06.2020
1563 Clouds 27 1007 42 10000 2.6 280 19:18 13.06.2020
1564 Clouds 28 1007 39 10000 1 0 18:55 13.06.2020
1565 Clouds 28 1007 39 10000 1 0 18:37 13.06.2020
1566 Rain 28 1007 42 10000 0.5 0 18:18 13.06.2020
1567 Rain 28 1008 42 10000 1.5 310 17:42 13.06.2020
1568 Rain 29 1008 42 10000 1.5 0 17:23 13.06.2020
1569 Rain 29 1008 42 10000 1.5 0 16:58 13.06.2020
1570 Rain 29 1008 42 10000 1.5 0 16:39 13.06.2020
1571 Rain 29 1008 42 10000 1.5 0 16:19 13.06.2020
1572 Rain 29 1009 39 10000 1.5 0 15:54 13.06.2020
1573 Rain 28 1009 48 10000 3.1 0 15:36 13.06.2020
1574 Rain 28 1009 48 10000 3.1 0 15:18 13.06.2020
1575 Rain 28 1009 47 10000 3.6 80 14:43 13.06.2020
1576 Rain 27 1009 47 10000 3.6 80 14:21 13.06.2020
1577 Clouds 27 1010 50 10000 3.1 0 13:45 13.06.2020
1578 Clouds 27 1010 50 10000 3.1 0 13:26 13.06.2020
1579 Clouds 26 1010 54 10000 3.6 290 12:57 13.06.2020
1580 Clouds 26 1010 53 10000 2.6 0 12:37 13.06.2020
1581 Clouds 26 1010 53 10000 2.6 0 12:19 13.06.2020
1582 Clouds 26 1010 53 10000 2.6 0 12:19 13.06.2020
1583 Clouds 25 1010 60 10000 2.1 0 11:40 13.06.2020
1584 Clouds 24 1010 64 10000 2.1 270 11:19 13.06.2020
1585 Clouds 24 1010 64 10000 2.1 270 10:58 13.06.2020
1586 Clear 24 1010 68 10000 1.5 330 10:40 13.06.2020
1587 -273 0 0 0 0 0 10:22 13.06.2020
1588 Clear 23 1010 68 10000 1.5 340 09:52 13.06.2020
1589 Clear 21 1010 68 10000 2.1 320 09:32 13.06.2020
1590 Clear 20 1010 72 10000 2.1 330 08:56 13.06.2020
1591 Clear 20 1010 77 10000 1.5 350 08:37 13.06.2020
1592 Clear 19 1010 77 10000 1.5 350 08:19 13.06.2020
1593 Clear 18 1010 87 10000 1 0 07:42 13.06.2020
1594 Clear 17 1010 87 10000 1 0 07:23 13.06.2020
1595 Clear 16 1009 93 10000 1.5 300 06:44 13.06.2020
1596 Clear 14 1009 93 10000 1.5 300 06:24 13.06.2020
1597 Clear 14 1009 93 10000 1 350 05:27 13.06.2020
1598 Clear 14 1008 87 10000 0.5 10 04:34 13.06.2020
1599 Clear 16 1008 82 10000 1 340 02:55 13.06.2020
1600 Clear 16 1008 82 10000 1 0 02:37 13.06.2020
1601 Clear 17 1008 77 10000 0.5 0 01:47 13.06.2020
1602 Clear 17 1008 72 10000 1 0 01:22 13.06.2020
1603 Clear 18 1007 60 10000 2.6 80 00:45 13.06.2020
1604 Clear 18 1007 60 10000 2.6 80 00:26 13.06.2020
1605 Clear 18 1007 63 10000 1.5 60 23:55 12.06.2020
1606 Clear 19 1007 56 10000 1.5 50 23:37 12.06.2020
1607 Clear 20 1007 52 10000 2.1 60 23:18 12.06.2020
1608 Clear 21 1007 46 10000 3.1 70 22:41 12.06.2020
1609 Clear 22 1007 41 10000 3.1 70 22:19 12.06.2020
1610 Clear 23 1007 41 10000 3.1 70 21:50 12.06.2020
1611 Clear 24 1007 38 10000 3.6 70 21:27 12.06.2020
1612 Clear 25 1006 39 10000 3.6 90 20:59 12.06.2020
1613 Clear 25 1006 41 10000 4.6 90 20:41 12.06.2020
1614 Clear 25 1006 41 10000 4.6 90 20:22 12.06.2020
1615 Clear 26 1006 36 10000 4.6 90 19:57 12.06.2020
1616 Clear 26 1006 36 10000 4.6 90 19:57 12.06.2020
1617 Clear 27 1006 36 10000 4.6 80 19:38 12.06.2020
1618 Clear 27 1006 39 10000 5.7 90 19:18 12.06.2020
1619 Clear 26 1006 42 10000 4.1 80 18:39 12.06.2020
1620 Clear 28 1006 39 10000 4.1 100 18:19 12.06.2020
1621 Clear 28 1006 39 10000 4.1 100 17:58 12.06.2020
1622 Clear 27 1006 42 10000 6.2 90 17:38 12.06.2020
1623 Clear 27 1006 42 10000 6.2 90 17:18 12.06.2020
1624 Clear 27 1007 39 10000 4.6 90 16:41 12.06.2020
1625 Clear 28 1007 39 10000 4.6 90 16:20 12.06.2020
1626 Clear 28 1007 39 10000 5.7 110 15:48 12.06.2020
1627 Clear 27 1007 39 10000 5.7 110 15:25 12.06.2020
1628 Clear 26 1007 39 10000 5.7 100 14:56 12.06.2020
1629 Clear 27 1007 41 10000 6.7 110 14:38 12.06.2020
1630 Clear 26 1007 41 10000 6.7 110 14:20 12.06.2020
1631 Clear 26 1008 47 10000 4.6 0 13:42 12.06.2020
1632 Clouds 25 1008 47 10000 5.1 80 13:21 12.06.2020
1633 Clouds 24 1008 50 10000 4.6 100 12:41 12.06.2020
1634 Clouds 24 1008 56 10000 4.6 90 12:20 12.06.2020
1635 Clouds 24 1008 56 10000 4.6 90 11:58 12.06.2020
1636 Clouds 23 1009 56 10000 4.6 100 11:38 12.06.2020
1637 Clouds 23 1009 56 10000 4.6 100 11:19 12.06.2020
1638 Clouds 22 1009 64 10000 3.1 70 10:45 12.06.2020
1639 Clouds 21 1009 64 10000 3.1 70 10:24 12.06.2020
1640 Clear 20 1010 68 10000 3.1 90 09:46 12.06.2020
1641 Clear 18 1010 68 10000 3.1 100 09:21 12.06.2020
1642 Clear 17 1009 82 10000 1 0 08:44 12.06.2020
1643 Clear 16 1009 82 10000 1 0 08:25 12.06.2020
1644 Fog 15 1009 93 10000 1 0 07:44 12.06.2020
1645 Fog 15 1009 93 10000 1 0 07:44 12.06.2020
1646 Fog 14 1009 93 10000 1 0 07:25 12.06.2020
1647 Fog 12 1009 93 10000 0.5 0 06:55 12.06.2020
1648 Fog 11 1009 100 10000 0.5 0 06:30 12.06.2020
1649 Fog 10 1009 100 10000 1.5 350 05:53 12.06.2020
1650 Fog 10 1009 100 9000 0.5 0 05:30 12.06.2020
1651 Fog 11 1009 100 10000 1.5 350 04:55 12.06.2020
1652 Fog 12 1010 100 10000 1 0 03:20 12.06.2020
1653 Fog 12 1010 100 10000 0.5 0 01:53 12.06.2020
1654 Fog 13 1010 93 10000 0.5 120 01:26 12.06.2020
1655 Clouds 13 1010 93 10000 1 0 00:42 12.06.2020
1656 Clouds 14 1010 93 10000 1 0 00:24 12.06.2020
1657 Clouds 14 1010 87 10000 1 0 23:59 11.06.2020
1658 Clouds 15 1010 82 10000 1.5 40 23:40 11.06.2020
1659 Clouds 15 1010 82 10000 2.1 70 23:21 11.06.2020
1660 Clouds 15 1010 82 10000 2.1 70 22:57 11.06.2020
1661 Clouds 16 1009 77 10000 2.1 20 22:38 11.06.2020
1662 Clouds 17 1009 77 10000 2.1 10 22:19 11.06.2020
1663 Clouds 18 1009 68 10000 1.5 360 21:55 11.06.2020
1664 Clouds 18 1009 68 10000 1.5 360 21:37 11.06.2020
1665 Clouds 19 1009 64 10000 1.5 360 21:19 11.06.2020
1666 Clouds 19 1009 64 10000 1.5 10 20:43 11.06.2020
1667 Clouds 19 1009 64 10000 1.5 10 20:21 11.06.2020
1668 Clouds 19 1009 60 10000 2.1 300 19:45 11.06.2020
1669 Clouds 19 1009 60 10000 2.1 300 19:23 11.06.2020
1670 Clouds 19 1009 63 10000 2.1 320 18:59 11.06.2020
1671 Clouds 19 1009 63 10000 2.1 320 18:41 11.06.2020
1672 Clouds 20 1009 60 10000 2.6 340 18:20 11.06.2020
1673 Clouds 20 1009 64 10000 3.6 20 17:56 11.06.2020
1674 Clouds 20 1009 64 10000 3.6 20 17:37 11.06.2020
1675 Clouds 21 1009 63 10000 1.5 350 17:19 11.06.2020
1676 Clouds 20 1009 63 10000 2.1 20 16:46 11.06.2020
1677 Clouds 20 1009 68 10000 1.5 60 16:28 11.06.2020
1678 Clouds 19 1010 68 10000 1 0 15:59 11.06.2020
1679 Clouds 19 1010 68 10000 1 0 15:41 11.06.2020
1680 Clouds 19 1009 68 10000 1.5 0 15:23 11.06.2020
1681 Clouds 19 1010 68 10000 1.5 110 14:55 11.06.2020
1682 Clouds 19 1010 68 10000 1.5 110 14:36 11.06.2020
1683 Clouds 18 1009 68 10000 1.5 70 14:18 11.06.2020
1684 Clouds 19 1010 68 10000 1 0 13:54 11.06.2020
1685 Clouds 19 1010 68 10000 1 0 13:36 11.06.2020
1686 Clouds 18 1010 77 10000 0.5 0 13:18 11.06.2020
1687 Clouds 17 1010 82 10000 1.5 70 12:39 11.06.2020
1688 Clouds 17 1010 82 10000 1.5 70 12:20 11.06.2020
1689 Clouds 17 1009 77 10000 1 0 11:59 11.06.2020
1690 Clouds 17 1009 77 10000 1 0 11:40 11.06.2020
1691 Clouds 16 1009 82 10000 1 0 11:22 11.06.2020
1692 Clouds 15 1009 87 10000 1.5 190 10:57 11.06.2020
1693 Clouds 15 1009 87 10000 1.5 190 10:38 11.06.2020
1694 Clouds 14 1009 93 10000 1.5 40 10:18 11.06.2020
1695 Clouds 14 1009 87 9000 1 0 09:42 11.06.2020
1696 Clouds 13 1009 93 8000 1 0 09:23 11.06.2020
1697 Clouds 13 1010 93 8000 1 0 08:44 11.06.2020
1698 Clouds 12 1009 100 6000 1.5 340 08:20 11.06.2020
1699 Mist 12 1009 100 5000 2.1 350 07:58 11.06.2020
1700 Mist 12 1009 100 5000 2.1 350 07:40 11.06.2020
1701 Mist 12 1009 100 4800 1.5 330 07:20 11.06.2020
1702 Drizzle 12 1009 100 3500 2.1 330 06:29 11.06.2020
1703 Drizzle 12 1009 100 2500 1.5 320 05:39 11.06.2020
1704 Mist 12 1010 93 4700 2.6 330 03:54 11.06.2020
1705 Mist 12 1010 93 5000 2.6 320 03:23 11.06.2020
1706 Drizzle 12 1010 93 4000 2.1 320 02:32 11.06.2020
1707 Mist 12 1011 93 4000 2.1 310 01:51 11.06.2020
1708 Drizzle 12 1011 93 4000 2.1 310 01:25 11.06.2020
1709 Drizzle 12 1011 93 4500 2.6 320 00:50 11.06.2020
1710 Mist 12 1011 100 4700 2.6 320 00:29 11.06.2020
1711 Drizzle 12 1011 100 5000 2.1 320 23:47 10.06.2020
1712 Drizzle 12 1011 100 6000 2.6 320 23:27 10.06.2020
1713 Drizzle 12 1012 93 8000 2.6 320 22:57 10.06.2020
1714 Drizzle 12 1012 93 8000 2.6 320 22:38 10.06.2020
1715 Rain 12 1011 93 10000 2.6 330 22:19 10.06.2020
1716 Rain 12 1011 93 10000 2.6 330 21:56 10.06.2020
1717 Rain 12 1011 93 10000 2.6 330 21:38 10.06.2020
1718 Rain 12 1011 93 10000 3.1 340 21:18 10.06.2020
1719 Rain 12 1011 93 10000 3.6 340 20:56 10.06.2020
1720 Drizzle 12 1012 87 10000 4.1 350 20:38 10.06.2020
1721 Drizzle 12 1012 87 10000 4.1 350 20:20 10.06.2020
1722 Drizzle 13 1012 87 10000 3.6 350 19:41 10.06.2020
1723 Drizzle 13 1012 82 10000 3.6 350 19:20 10.06.2020
1724 Rain 13 1012 82 10000 4.6 360 18:58 10.06.2020
1725 Rain 14 1012 82 10000 4.6 360 18:40 10.06.2020
1726 Rain 14 1012 77 10000 4.1 360 18:19 10.06.2020
1727 Clouds 14 1012 77 10000 4.1 360 17:56 10.06.2020
1728 Clouds 15 1012 77 10000 4.1 360 17:37 10.06.2020
1729 Clouds 15 1012 82 10000 4.1 360 17:19 10.06.2020
1730 Clouds 15 1012 77 10000 4.6 10 16:57 10.06.2020
1731 Clouds 15 1012 77 10000 4.6 10 16:39 10.06.2020
1732 Clouds 15 1012 77 10000 4.1 10 16:19 10.06.2020
1733 Rain 15 1012 82 10000 3.1 340 15:41 10.06.2020
1734 Rain 15 1012 82 10000 3.1 340 15:22 10.06.2020
1735 Clouds 15 1012 82 10000 2.1 330 14:56 10.06.2020
1736 Clouds 15 1012 82 10000 2.1 330 14:38 10.06.2020
1737 Clouds 15 1012 82 10000 4.1 350 14:20 10.06.2020
1738 Clouds 15 1012 82 10000 4.1 350 13:41 10.06.2020
1739 Clouds 15 1012 82 10000 4.6 350 13:21 10.06.2020
1740 Clouds 14 1012 87 10000 4.1 340 12:45 10.06.2020
1741 Clouds 14 1012 87 10000 4.1 340 12:23 10.06.2020
1742 Clouds 14 1013 87 10000 3.1 340 11:58 10.06.2020
1743 Rain 13 1013 93 10000 3.1 350 11:40 10.06.2020
1744 Rain 13 1013 93 10000 3.1 350 11:19 10.06.2020
1745 Rain 13 1013 87 10000 2.6 10 10:57 10.06.2020
1746 Rain 13 1013 93 10000 3.1 350 10:39 10.06.2020
1747 Rain 13 1013 93 10000 3.1 350 10:20 10.06.2020
1748 Clouds 13 1013 93 10000 3.6 360 09:42 10.06.2020
1749 Clouds 13 1013 93 10000 3.6 360 09:23 10.06.2020
1750 Clouds 13 1013 93 10000 3.6 340 08:57 10.06.2020
1751 Clouds 13 1013 93 10000 3.1 350 08:38 10.06.2020
1752 Clouds 13 1013 93 10000 3.1 350 08:20 10.06.2020
1753 Clouds 12 1013 100 8000 2.6 340 07:39 10.06.2020
1754 Clouds 12 1013 100 8000 2.6 340 07:20 10.06.2020
1755 Clouds 12 1013 93 8000 2.6 350 06:44 10.06.2020
1756 Rain 12 1013 93 8000 3.1 330 06:23 10.06.2020
1757 Clouds 12 1013 93 9000 3.6 330 05:56 10.06.2020
1758 Rain 12 1013 93 8000 3.1 350 05:26 10.06.2020
1759 Clouds 12 1013 93 10000 3.1 340 04:35 10.06.2020
1760 Rain 12 1014 93 10000 2.1 340 02:56 10.06.2020
1761 Clouds 12 1014 87 10000 2.6 340 02:20 10.06.2020
1762 Clouds 12 1014 87 10000 2.6 330 01:36 10.06.2020
1763 Clouds 13 1014 87 10000 3.1 340 00:39 10.06.2020
1764 Clouds 13 1014 93 10000 3.1 340 00:21 10.06.2020
1765 Clouds 13 1014 93 10000 3.1 340 23:56 09.06.2020
1766 Clouds 13 1014 93 10000 3.1 340 23:37 09.06.2020
1767 Clouds 13 1014 93 10000 2.6 340 23:19 09.06.2020
1768 Clouds 13 1014 93 10000 2.6 340 22:55 09.06.2020
1769 Clouds 13 1014 93 10000 2.6 340 22:37 09.06.2020
1770 Rain 13 1014 93 10000 2.1 340 22:18 09.06.2020
1771 Clouds 13 1014 93 10000 2.6 340 21:55 09.06.2020
1772 Clouds 13 1014 93 10000 2.6 340 21:37 09.06.2020
1773 Clouds 13 1014 87 10000 2.6 340 21:19 09.06.2020
1774 Clouds 13 1014 87 10000 2.1 10 20:56 09.06.2020
1775 Clouds 14 1014 87 10000 2.1 10 20:38 09.06.2020
1776 Rain 14 1014 93 10000 2.6 360 20:18 09.06.2020
1777 Rain 14 1014 87 10000 3.1 350 19:55 09.06.2020
1778 Rain 14 1014 87 10000 3.1 360 19:37 09.06.2020
1779 Rain 14 1014 87 10000 3.1 360 19:18 09.06.2020
1780 Rain 15 1014 93 10000 3.6 350 18:45 09.06.2020
1781 Rain 15 1014 87 10000 3.6 350 18:26 09.06.2020
1782 Rain 14 1014 87 10000 2.6 350 17:57 09.06.2020
1783 Drizzle 15 1014 87 10000 3.6 350 17:39 09.06.2020
1784 Drizzle 15 1014 87 10000 3.6 350 17:21 09.06.2020
1785 Rain 15 1014 87 10000 3.1 20 16:56 09.06.2020
1786 Rain 15 1014 87 10000 3.1 20 16:56 09.06.2020
1787 Rain 15 1014 87 10000 3.1 20 16:37 09.06.2020
1788 Rain 15 1014 93 10000 4.1 350 16:19 09.06.2020
1789 Rain 15 1014 87 10000 5.1 360 15:40 09.06.2020
1790 Rain 15 1014 87 10000 3.6 360 15:21 09.06.2020
1791 Rain 15 1015 87 10000 3.1 360 14:57 09.06.2020
1792 Rain 15 1015 87 10000 3.1 360 14:38 09.06.2020
1793 Rain 14 1015 87 10000 3.1 20 14:19 09.06.2020
1794 Rain 14 1015 87 10000 2.6 20 13:54 09.06.2020
1795 Rain 14 1015 87 10000 2.6 20 13:36 09.06.2020
1796 Rain 14 1015 87 10000 2.6 20 13:36 09.06.2020
1797 Rain 14 1015 93 10000 1.5 30 13:18 09.06.2020
1798 Rain 14 1015 93 10000 2.1 10 12:41 09.06.2020
1799 Rain 14 1015 87 10000 3.6 350 12:20 09.06.2020
1800 Rain 14 1015 87 10000 3.1 350 11:56 09.06.2020
1801 Rain 14 1015 87 10000 3.1 350 11:37 09.06.2020
1802 Rain 14 1015 93 10000 3.1 350 11:37 09.06.2020
1803 Rain 13 1015 93 10000 3.1 350 11:19 09.06.2020
1804 Rain 13 1015 93 10000 3.1 350 11:19 09.06.2020
1805 Rain 13 1014 93 10000 4.1 350 10:45 09.06.2020
1806 Rain 13 1014 87 10000 3.1 350 10:27 09.06.2020
1807 Rain 13 1014 87 10000 3.6 350 09:59 09.06.2020
1808 Rain 13 1014 87 10000 3.6 350 09:39 09.06.2020
1809 Clouds 12 1014 93 10000 3.1 350 09:19 09.06.2020
1810 Rain 12 1014 93 10000 2.6 340 08:39 09.06.2020
1811 Rain 12 1014 93 10000 2.6 340 08:39 09.06.2020
1812 Rain 12 1014 93 10000 2.6 350 08:21 09.06.2020
1813 Rain 11 1014 93 10000 2.6 350 08:21 09.06.2020
1814 Rain 11 1014 93 10000 1.5 320 07:42 09.06.2020
1815 Rain 11 1014 93 10000 1.5 320 07:22 09.06.2020
1816 Rain 11 1014 93 10000 1 290 06:55 09.06.2020
1817 Rain 11 1014 93 10000 1.5 260 06:36 09.06.2020
1818 Rain 12 1014 87 10000 1 220 05:37 09.06.2020
1819 Clouds 12 1013 81 10000 2.6 350 03:53 09.06.2020
1820 Clouds 12 1014 87 10000 0.5 280 02:20 09.06.2020
1821 Clouds 12 1014 81 10000 2.1 330 01:36 09.06.2020
1822 Clouds 12 1014 81 10000 2.1 330 01:18 09.06.2020
1823 Clouds 12 1014 93 10000 1.5 360 00:40 09.06.2020
1824 Clouds 12 1014 93 10000 1.5 360 00:19 09.06.2020
1825 Clouds 12 1014 93 10000 0.5 0 23:41 08.06.2020
1826 Clouds 12 1014 81 10000 0.5 20 23:21 08.06.2020
1827 Clouds 13 1014 71 10000 1.5 70 22:56 08.06.2020
1828 Clouds 13 1014 71 10000 1.5 70 22:56 08.06.2020
1829 Clouds 13 1014 71 10000 1.5 70 22:38 08.06.2020
1830 Clouds 13 1014 67 10000 2.1 70 22:19 08.06.2020
1831 Clouds 14 1014 62 10000 2.1 80 21:55 08.06.2020
1832 Clouds 14 1014 62 10000 2.1 80 21:55 08.06.2020
1833 Clouds 16 1014 59 10000 2.6 80 21:36 08.06.2020
1834 Clouds 15 1014 59 10000 2.6 80 21:18 08.06.2020
1835 Clouds 16 1014 55 10000 2.6 70 20:54 08.06.2020
1836 Clouds 16 1014 51 10000 1.5 60 20:36 08.06.2020
1837 Clouds 16 1014 51 10000 1.5 60 20:18 08.06.2020
1838 Clouds 17 1013 59 10000 2.1 60 19:43 08.06.2020
1839 Clouds 17 1013 63 10000 1.5 70 19:21 08.06.2020
1840 Clouds 17 1013 63 10000 1.5 60 18:43 08.06.2020
1841 Clouds 17 1013 59 10000 2.1 30 18:21 08.06.2020
1842 Clouds 17 1013 55 10000 2.1 360 17:57 08.06.2020
1843 Clouds 18 1013 55 10000 2.1 360 17:39 08.06.2020
1844 Clouds 18 1013 55 10000 2.1 360 17:39 08.06.2020
1845 Clouds 18 1013 51 10000 2.6 320 17:21 08.06.2020
1846 Clouds 17 1014 51 10000 2.1 280 16:58 08.06.2020
1847 Clouds 17 1014 51 10000 2.1 280 16:58 08.06.2020
1848 Clouds 18 1014 51 10000 2.1 280 16:39 08.06.2020
1849 Clouds 18 1014 55 10000 1.5 260 16:21 08.06.2020
1850 Clouds 18 1014 51 10000 1 0 15:42 08.06.2020
1851 Clouds 18 1014 55 10000 1 0 15:21 08.06.2020
1852 Clouds 18 1014 59 10000 1.5 170 14:58 08.06.2020
1853 Clouds 18 1014 59 10000 1.5 170 14:38 08.06.2020
1854 Clouds 18 1014 55 10000 2.1 120 14:18 08.06.2020
1855 Clouds 18 1014 55 10000 2.1 120 14:18 08.06.2020
1856 Clouds 18 1014 55 10000 2.6 110 13:42 08.06.2020
1857 Clouds 18 1014 55 10000 2.6 110 13:42 08.06.2020
1858 Clouds 18 1014 51 10000 3.6 110 13:23 08.06.2020
1859 Clouds 17 1014 59 10000 3.6 90 12:42 08.06.2020
1860 Clouds 17 1014 59 10000 2.6 100 12:20 08.06.2020
1861 Clouds 16 1014 63 10000 2.6 70 11:59 08.06.2020
1862 Clouds 17 1014 59 10000 1.5 0 11:40 08.06.2020
1863 Clouds 17 1014 59 10000 1.5 0 11:21 08.06.2020
1864 Clouds 16 1014 63 10000 1 0 10:57 08.06.2020
1865 Clouds 16 1014 63 10000 1 0 10:38 08.06.2020
1866 Clouds 15 1014 72 10000 1 0 10:20 08.06.2020
1867 Clouds 14 1014 76 10000 1 0 09:48 08.06.2020
1868 Clouds 13 1014 76 10000 1.5 100 09:23 08.06.2020
1869 Clouds 12 1014 81 10000 2.1 100 08:57 08.06.2020
1870 Clouds 12 1014 81 10000 2.1 100 08:39 08.06.2020
1871 Clouds 11 1014 81 10000 1.5 100 08:19 08.06.2020
1872 Clouds 9 1013 87 10000 2.1 130 07:40 08.06.2020
1873 Clouds 9 1013 87 10000 2.1 130 07:21 08.06.2020
1874 Clouds 7 1013 93 10000 2.1 110 06:41 08.06.2020
1875 Clouds 7 1013 100 10000 3.1 100 06:21 08.06.2020
1876 Fog 6 1013 100 10000 3.1 100 05:42 08.06.2020
1877 Clouds 7 1013 100 10000 3.1 100 03:29 08.06.2020
1878 Clouds 8 1013 100 10000 3.1 90 02:26 08.06.2020
1879 Clouds 8 1013 93 10000 3.6 100 01:44 08.06.2020
1880 Clouds 9 1013 100 10000 2.6 100 00:58 08.06.2020
1881 Clouds 10 1013 100 10000 2.6 120 00:25 08.06.2020
1882 Clouds 10 1013 93 10000 3.1 110 23:40 07.06.2020
1883 Clouds 11 1013 93 10000 2.6 120 23:19 07.06.2020
1884 Clouds 11 1012 93 10000 2.6 150 22:58 07.06.2020
1885 Clouds 11 1012 93 10000 2.6 150 22:38 07.06.2020
1886 Clouds 12 1012 87 10000 2.6 160 22:18 07.06.2020
1887 Clouds 12 1012 87 10000 2.1 140 21:58 07.06.2020
1888 Clouds 12 1012 87 10000 2.1 140 21:37 07.06.2020
1889 Clouds 13 1011 76 10000 2.6 180 21:19 07.06.2020
1890 Clouds 14 1011 82 10000 3.1 160 20:40 07.06.2020
1891 Clouds 14 1011 82 10000 3.1 160 20:21 07.06.2020
1892 Clouds 14 1011 82 10000 2.1 170 19:59 07.06.2020
1893 Clouds 14 1011 82 10000 2.1 170 19:41 07.06.2020
1894 Clouds 14 1011 82 10000 3.1 160 19:21 07.06.2020
1895 Clouds 14 1010 82 10000 3.6 130 19:00 07.06.2020
1896 Clouds 14 1010 82 10000 3.1 140 18:39 07.06.2020
1897 Clouds 14 1010 82 10000 3.1 140 18:21 07.06.2020
1898 Clouds 13 1010 87 10000 3.1 130 17:58 07.06.2020
1899 Clouds 13 1010 87 10000 3.1 130 17:38 07.06.2020
1900 Clouds 13 1010 87 10000 3.6 150 17:20 07.06.2020
1901 Clouds 13 1010 87 10000 3.1 150 16:43 07.06.2020
1902 Clouds 13 1010 87 10000 3.1 150 16:22 07.06.2020
1903 Clouds 14 1010 76 10000 2.6 150 15:44 07.06.2020
1904 Clouds 14 1010 76 10000 2.6 150 15:44 07.06.2020
1905 Clouds 13 1010 76 10000 2.6 150 15:44 07.06.2020
1906 Clouds 13 1010 82 10000 2.6 140 15:22 07.06.2020
1907 Clouds 13 1010 82 10000 3.1 180 14:41 07.06.2020
1908 Clouds 13 1010 76 10000 2.1 170 14:23 07.06.2020
1909 Clouds 13 1010 76 10000 2.1 170 14:23 07.06.2020
1910 Clouds 13 1010 76 10000 2.1 170 14:23 07.06.2020
1911 Clouds 13 1010 76 10000 2.1 170 14:23 07.06.2020
1912 Clouds 13 1009 82 10000 2.1 190 13:59 07.06.2020
1913 Clouds 13 1009 82 10000 2.1 190 13:41 07.06.2020
1914 Clouds 13 1009 82 10000 2.1 190 13:39 07.06.2020
1915 Clouds 13 1009 82 10000 2.1 190 13:39 07.06.2020
1916 Clouds 13 1009 82 10000 2.1 190 13:39 07.06.2020
1917 Clouds 13 1009 82 10000 2.1 190 13:37 07.06.2020
1918 Rain 12 1009 81 10000 2.1 180 13:19 07.06.2020
1919 Rain 12 1009 81 10000 1.5 140 12:43 07.06.2020
1920 Rain 12 1009 87 10000 2.1 140 12:24 07.06.2020
1921 Rain 11 1009 93 10000 1.5 180 11:55 07.06.2020
1922 Rain 11 1009 93 10000 1.5 180 11:55 07.06.2020
1923 Rain 11 1009 93 10000 1.5 180 11:37 07.06.2020
1924 Rain 12 1009 87 10000 0.5 0 11:19 07.06.2020
1925 Rain 12 1009 81 10000 1 0 10:54 07.06.2020
1926 Rain 12 1009 81 10000 1 0 10:36 07.06.2020
1927 Rain 12 1008 87 10000 1 0 10:18 07.06.2020
1928 Rain 12 1008 81 10000 1 0 09:41 07.06.2020
1929 Rain 12 1008 81 10000 0.5 0 09:21 07.06.2020
1930 Rain 12 1008 81 10000 0.5 0 08:59 07.06.2020
1931 Rain 11 1008 87 10000 2.6 330 08:40 07.06.2020
1932 Rain 11 1008 87 10000 3.6 310 08:22 07.06.2020
1933 Rain 12 1007 87 10000 3.1 300 07:41 07.06.2020
1934 Rain 12 1007 93 10000 1.5 310 06:56 07.06.2020
1935 Rain 12 1007 93 10000 1.5 200 06:21 07.06.2020
1936 Rain 11 1006 93 10000 3.6 100 04:25 07.06.2020
1937 Rain 11 1006 87 10000 2.6 100 03:50 07.06.2020
1938 Clouds 12 1006 87 10000 2.6 100 02:26 07.06.2020
1939 Clouds 11 1007 87 10000 2.1 140 01:39 07.06.2020
1940 Clouds 11 1007 87 10000 2.1 140 01:21 07.06.2020
1941 Clouds 12 1006 87 10000 1.5 160 00:39 07.06.2020
1942 Clouds 12 1006 81 10000 3.6 160 00:18 07.06.2020
1943 Clouds 13 1006 76 10000 3.1 160 23:38 06.06.2020
1944 Clouds 13 1006 76 10000 3.1 160 23:20 06.06.2020
1945 Rain 13 1006 76 10000 3.6 160 22:58 06.06.2020
1946 Rain 13 1006 76 10000 3.6 160 22:40 06.06.2020
1947 Clouds 13 1006 71 10000 3.6 180 22:20 06.06.2020
1948 Clouds 13 1006 71 10000 3.6 170 21:58 06.06.2020
1949 Clouds 13 1006 71 10000 3.6 170 21:39 06.06.2020
1950 Clear 14 1006 71 10000 3.1 180 21:20 06.06.2020
1951 Clouds 14 1006 67 10000 3.1 190 20:40 06.06.2020
1952 Clouds 14 1006 67 10000 3.6 180 20:21 06.06.2020
1953 Rain 15 1006 72 10000 2.6 220 19:58 06.06.2020
1954 Clouds 15 1006 67 10000 3.6 210 19:40 06.06.2020
1955 Clouds 15 1006 67 10000 3.6 210 19:22 06.06.2020
1956 Clouds 15 1005 63 10000 4.1 200 18:56 06.06.2020
1957 Clouds 15 1006 63 10000 4.6 190 18:38 06.06.2020
1958 Clouds 15 1006 63 10000 4.6 190 18:20 06.06.2020
1959 Clouds 15 1006 62 10000 5.1 190 17:43 06.06.2020
1960 Clouds 15 1006 62 10000 4.1 210 17:20 06.06.2020
1961 Clouds 15 1006 62 10000 4.6 220 16:57 06.06.2020
1962 Clouds 15 1006 62 10000 4.6 220 16:38 06.06.2020
1963 Clouds 15 1006 62 10000 4.1 210 16:20 06.06.2020
1964 Clouds 15 1006 62 10000 4.1 210 16:20 06.06.2020
1965 Clouds 14 1006 67 10000 4.1 210 15:44 06.06.2020
1966 Clouds 14 1006 67 10000 5.7 240 15:20 06.06.2020
1967 Clouds 13 1006 67 10000 5.7 240 14:58 06.06.2020
1968 Clouds 13 1006 71 10000 5.7 230 14:37 06.06.2020
1969 Rain 13 1006 71 10000 4.1 210 14:19 06.06.2020
1970 Rain 13 1006 71 10000 4.1 210 14:19 06.06.2020
1971 Rain 13 1006 76 10000 3.6 200 13:47 06.06.2020
1972 Rain 13 1006 76 10000 4.1 240 13:19 06.06.2020
1973 Clouds 13 1005 82 10000 3.6 240 12:57 06.06.2020
1974 Clouds 13 1005 82 10000 3.6 240 12:38 06.06.2020
1975 Rain 12 1005 87 10000 3.1 200 12:18 06.06.2020
1976 Rain 12 1005 87 10000 2.1 180 11:54 06.06.2020
1977 Rain 12 1005 87 10000 2.1 180 11:36 06.06.2020
1978 Rain 12 1005 87 10000 2.1 180 11:36 06.06.2020
1979 Rain 11 1004 87 10000 2.6 160 11:18 06.06.2020
1980 Rain 11 1004 87 10000 3.1 140 10:55 06.06.2020
1981 Rain 10 1004 93 10000 1 0 10:36 06.06.2020
1982 Rain 10 1004 93 10000 1 0 10:18 06.06.2020
1983 Drizzle 9 1004 93 4500 0.5 0 09:41 06.06.2020
1984 Drizzle 9 1004 93 4500 0.5 0 09:22 06.06.2020
1985 Rain 9 1004 93 9000 0.5 0 08:47 06.06.2020
1986 Drizzle 9 1004 87 6000 1 0 08:24 06.06.2020
1987 Drizzle 9 1003 93 4000 2.1 150 07:56 06.06.2020
1988 Drizzle 9 1003 93 4000 2.1 150 07:37 06.06.2020
1989 Rain 9 1003 93 7000 3.1 160 07:19 06.06.2020
1990 Rain 9 1003 93 7000 3.1 160 06:43 06.06.2020
1991 Rain 9 1003 87 8000 2.1 0 06:24 06.06.2020
1992 Rain 9 1003 87 10000 3.1 170 05:32 06.06.2020
1993 Rain 10 1003 87 10000 3.1 160 04:49 06.06.2020
1994 Rain 10 1003 81 10000 2.1 210 03:29 06.06.2020
1995 Rain 10 1003 87 10000 3.1 210 01:59 06.06.2020
1996 Clouds 10 1002 87 10000 3.1 210 01:21 06.06.2020
1997 Clouds 10 1003 87 10000 3.6 230 00:56 06.06.2020
1998 Rain 10 1002 81 10000 5.1 240 00:38 06.06.2020
1999 Rain 10 1002 81 10000 5.1 240 00:20 06.06.2020
2000 Rain 11 1002 81 10000 4.1 240 23:39 05.06.2020
2001 Rain 11 1002 87 10000 4.6 240 23:19 05.06.2020
2002 Rain 11 1001 76 8000 9.8 260 22:56 05.06.2020
2003 Rain 12 1001 76 8000 9.8 260 22:37 05.06.2020
2004 Rain 13 1000 67 10000 6.7 230 22:19 05.06.2020
2005 Rain 13 1000 67 10000 6.7 230 22:19 05.06.2020
2006 Clouds 13 999 67 10000 5.7 210 21:43 05.06.2020
2007 Clouds 14 999 67 10000 6.2 210 21:23 05.06.2020
2008 Clouds 14 999 67 10000 7.2 220 20:58 05.06.2020
2009 Clouds 14 999 67 10000 7.2 220 20:39 05.06.2020
2010 Clouds 14 999 62 10000 8.2 230 20:21 05.06.2020
2011 Clouds 14 999 62 10000 7.2 220 19:44 05.06.2020
2012 Clouds 14 999 62 10000 5.7 210 19:24 05.06.2020
2013 Rain 14 999 67 10000 5.7 210 18:58 05.06.2020
2014 Rain 14 999 67 10000 5.7 210 18:39 05.06.2020
2015 Clouds 14 999 71 10000 4.1 190 18:20 05.06.2020
2016 Rain 13 999 76 10000 5.1 200 17:58 05.06.2020
2017 Rain 13 999 76 10000 5.1 200 17:39 05.06.2020
2018 Clouds 13 999 76 10000 4.6 190 17:19 05.06.2020
2019 Clouds 13 1000 81 10000 4.6 170 16:39 05.06.2020
2020 Clouds 12 1000 81 10000 3.6 160 16:20 05.06.2020
2021 Rain 11 1000 81 10000 3.1 220 15:56 05.06.2020
2022 Rain 11 1000 81 10000 3.1 220 15:37 05.06.2020
2023 Rain 12 1000 76 10000 4.6 240 15:19 05.06.2020
2024 Rain 13 1000 66 10000 6.2 240 14:41 05.06.2020
2025 Clouds 13 999 58 10000 5.7 220 14:22 05.06.2020
2026 Clouds 14 999 67 10000 4.6 230 13:59 05.06.2020
2027 Clouds 14 999 67 10000 4.6 230 13:40 05.06.2020
2028 Clouds 14 999 62 10000 3.6 230 13:22 05.06.2020
2029 Clouds 14 1000 62 10000 4.6 250 12:42 05.06.2020
2030 Clouds 13 1000 66 10000 5.1 250 12:20 05.06.2020
2031 Clouds 13 1000 66 10000 4.1 240 11:56 05.06.2020
2032 Clouds 13 1000 66 10000 4.1 240 11:56 05.06.2020
2033 Clouds 13 1000 66 10000 4.1 240 11:38 05.06.2020
2034 Clouds 13 1000 76 10000 4.1 270 11:20 05.06.2020
2035 Rain 12 1000 71 10000 5.7 270 10:54 05.06.2020
2036 Rain 12 1000 71 10000 5.7 270 10:36 05.06.2020
2037 Clouds 12 1000 71 10000 5.1 270 10:18 05.06.2020
2038 Clouds 12 1000 76 10000 4.1 250 09:54 05.06.2020
2039 Clouds 12 1000 76 10000 4.1 250 09:36 05.06.2020
2040 Clouds 12 1000 76 0 3.6 260 09:18 05.06.2020
2041 Clouds 12 999 76 10000 3.6 260 08:41 05.06.2020
2042 Clouds 11 999 81 10000 4.1 260 08:19 05.06.2020
2043 Clouds 11 999 81 10000 3.6 260 07:53 05.06.2020
2044 Clouds 11 998 81 10000 4.1 270 07:35 05.06.2020
2045 Clouds 11 998 87 10000 4.6 270 06:51 05.06.2020
2046 Clouds 11 997 81 10000 4.1 280 05:24 05.06.2020
2047 Rain 12 997 87 10000 5.7 290 04:31 05.06.2020
2048 Rain 12 997 87 10000 4.1 270 03:49 05.06.2020
2049 Clouds 13 996 87 10000 2.6 240 02:37 05.06.2020
2050 Clouds 13 997 87 10000 2.6 240 02:18 05.06.2020
2051 Clouds 13 996 87 10000 2.6 220 01:34 05.06.2020
2052 Clouds 13 996 87 10000 3.6 230 00:55 05.06.2020
2053 Clouds 13 996 87 10000 3.6 230 00:36 05.06.2020
2054 Rain 13 996 87 10000 3.1 240 00:18 05.06.2020
2055 Rain 13 996 82 10000 3.1 230 23:42 04.06.2020
2056 Clouds 13 996 87 10000 2.1 220 23:24 04.06.2020
2057 Clouds 14 996 87 10000 2.6 190 22:42 04.06.2020
2058 Clouds 14 995 93 10000 2.1 150 22:22 04.06.2020
2059 Rain 14 995 93 10000 3.1 160 21:58 04.06.2020
2060 Rain 14 995 93 10000 3.1 160 21:39 04.06.2020
2061 Rain 14 995 93 10000 3.1 160 21:21 04.06.2020
2062 Rain 14 995 93 10000 2.6 170 20:57 04.06.2020
2063 Clouds 14 995 87 10000 2.6 170 20:39 04.06.2020
2064 Clouds 15 995 87 10000 2.6 170 20:20 04.06.2020
2065 Clouds 14 995 87 10000 3.1 170 19:55 04.06.2020
2066 Clouds 14 995 87 10000 3.1 160 19:37 04.06.2020
2067 Clouds 14 995 87 10000 3.1 160 19:19 04.06.2020
2068 Clouds 16 995 87 10000 3.6 180 18:39 04.06.2020
2069 Thunderstorm 15 995 87 8000 5.1 230 18:21 04.06.2020
2070 Thunderstorm 16 995 82 10000 2.6 200 17:58 04.06.2020
2071 Thunderstorm 17 995 82 10000 2.6 200 17:40 04.06.2020
2072 Rain 17 995 77 10000 2.1 230 17:19 04.06.2020
2073 Clouds 17 995 82 10000 3.1 280 16:41 04.06.2020
2074 Clouds 17 995 82 10000 4.6 270 16:20 04.06.2020
2075 Rain 17 995 87 10000 4.6 260 15:46 04.06.2020
2076 Rain 18 995 77 10000 5.7 170 15:27 04.06.2020
2077 Clouds 18 995 82 10000 4.1 180 14:56 04.06.2020
2078 Clouds 18 995 82 10000 4.1 180 14:37 04.06.2020
2079 Rain 18 996 82 10000 3.1 180 14:18 04.06.2020
2080 Rain 18 996 72 10000 3.1 160 13:41 04.06.2020
2081 Clouds 18 996 72 10000 4.6 150 13:21 04.06.2020
2082 Clouds 18 996 72 10000 3.1 160 12:59 04.06.2020
2083 Rain 18 997 77 10000 4.6 160 12:41 04.06.2020
2084 Rain 17 997 77 10000 4.6 160 12:22 04.06.2020
2085 Rain 17 997 77 10000 3.6 140 11:56 04.06.2020
2086 Rain 17 997 77 10000 3.6 140 11:38 04.06.2020
2087 Clouds 16 997 82 10000 4.1 170 11:19 04.06.2020
2088 Rain 16 997 82 10000 3.1 130 10:42 04.06.2020
2089 Rain 16 997 77 10000 1.5 140 10:23 04.06.2020
2090 Rain 16 997 77 10000 2.1 160 09:58 04.06.2020
2091 Rain 16 997 77 10000 2.1 160 09:40 04.06.2020
2092 Rain 16 998 77 10000 2.1 190 09:21 04.06.2020
2093 Rain 16 997 63 10000 2.1 160 08:44 04.06.2020
2094 Clouds 16 997 67 10000 2.1 140 08:25 04.06.2020
2095 Clouds 14 997 76 10000 3.6 100 07:47 04.06.2020
2096 Clouds 14 997 76 10000 3.6 100 07:23 04.06.2020
2097 Clouds 13 998 76 10000 2.6 100 06:42 04.06.2020
2098 Clouds 13 998 76 10000 2.6 100 06:24 04.06.2020
2099 Clouds 13 998 76 10000 1 120 05:34 04.06.2020
2100 Clouds 13 999 76 10000 3.1 110 03:55 04.06.2020
2101 Clouds 14 1000 72 10000 4.1 110 02:56 04.06.2020
2102 Rain 14 1000 76 10000 2.6 110 01:42 04.06.2020
2103 Rain 14 1001 71 10000 2.1 60 01:19 04.06.2020
2104 Rain 16 1001 67 10000 1 0 00:36 04.06.2020
2105 Rain 17 1002 63 10000 1 320 23:41 03.06.2020
2106 Rain 17 1002 59 10000 2.1 280 23:20 03.06.2020
2107 Clouds 18 1002 52 10000 1.5 240 22:57 03.06.2020
2108 Clouds 19 1002 52 10000 1.5 240 22:38 03.06.2020
2109 Clouds 20 1002 49 10000 2.1 290 22:18 03.06.2020
2110 Clouds 20 1002 49 10000 2.1 360 21:56 03.06.2020
2111 Clouds 20 1002 46 10000 2.6 60 21:37 03.06.2020
2112 Clouds 20 1002 46 10000 2.6 60 21:19 03.06.2020
2113 Clouds 21 1002 49 10000 1.5 0 20:43 03.06.2020
2114 Thunderstorm 22 1002 40 10000 5.1 270 20:22 03.06.2020
2115 Thunderstorm 22 1001 36 10000 3.6 30 19:58 03.06.2020
2116 Clouds 24 1001 36 10000 3.1 50 19:40 03.06.2020
2117 Clouds 24 1001 36 10000 3.1 50 19:21 03.06.2020
2118 Clouds 24 1002 33 10000 3.6 60 18:59 03.06.2020
2119 Clouds 24 1002 33 10000 3.6 60 18:41 03.06.2020
2120 Clouds 25 1002 29 10000 4.1 260 18:20 03.06.2020
2121 Thunderstorm 26 1002 29 10000 4.1 210 17:45 03.06.2020
2122 Rain 25 1002 31 10000 6.7 200 17:24 03.06.2020
2123 Rain 25 1002 31 10000 6.7 200 16:59 03.06.2020
2124 Clouds 26 1003 33 10000 6.7 220 16:41 03.06.2020
2125 Clouds 26 1003 26 10000 3.6 250 16:20 03.06.2020
2126 Clouds 27 1003 24 10000 2.6 0 15:55 03.06.2020
2127 Clouds 26 1003 24 10000 2.6 0 15:37 03.06.2020
2128 Clouds 27 1004 26 10000 2.6 300 15:18 03.06.2020
2129 Clouds 27 1004 26 10000 2.6 130 14:44 03.06.2020
2130 Clouds 27 1004 28 10000 2.6 290 14:24 03.06.2020
2131 Clouds 27 1005 27 10000 1.5 0 13:41 03.06.2020
2132 Rain 26 1005 27 10000 2.6 0 13:22 03.06.2020
2133 Rain 26 1006 31 10000 2.6 0 12:57 03.06.2020
2134 Rain 26 1006 31 10000 2.6 0 12:39 03.06.2020
2135 Rain 25 1006 29 10000 1.5 0 12:19 03.06.2020
2136 Rain 24 1006 37 0 0.45 267 11:44 03.06.2020
2137 Rain 24 1007 33 10000 1.5 0 11:25 03.06.2020
2138 Rain 23 1007 38 10000 1.5 0 10:44 03.06.2020
2139 Clouds 22 1008 43 10000 1.5 0 10:25 03.06.2020
2140 Clouds 21 1008 49 10000 2.1 120 09:58 03.06.2020
2141 Clouds 20 1008 49 10000 2.1 120 09:37 03.06.2020
2142 Clouds 19 1008 48 10000 2.6 130 09:18 03.06.2020
2143 Clouds 18 1008 52 10000 3.1 120 08:47 03.06.2020
2144 Clouds 16 1009 59 10000 2.6 100 08:22 03.06.2020
2145 Clouds 15 1009 62 10000 2.6 90 07:50 03.06.2020
2146 Rain 14 1009 67 10000 2.1 100 07:24 03.06.2020
2147 Rain 13 1009 71 10000 2.6 110 06:59 03.06.2020
2148 Rain 13 1009 71 10000 2.6 110 06:41 03.06.2020
2149 Rain 11 1009 71 10000 2.6 90 06:21 03.06.2020
2150 Rain 11 1009 66 10000 2.6 90 05:44 03.06.2020
2151 Clouds 12 1010 71 10000 1.5 110 04:19 03.06.2020
2152 Clouds 12 1010 71 10000 2.1 90 03:41 03.06.2020
2153 Clouds 13 1011 66 10000 1.5 110 02:33 03.06.2020
2154 Clouds 13 1011 66 10000 1 0 01:34 03.06.2020
2155 Clouds 15 1012 54 10000 1.5 100 00:38 03.06.2020
2156 Clouds 15 1012 54 10000 1.5 100 00:19 03.06.2020
2157 Clouds 16 1012 48 10000 1.5 80 23:43 02.06.2020
2158 Clouds 16 1012 48 10000 1.5 80 23:43 02.06.2020
2159 Clouds 16 1012 58 10000 1.5 50 23:24 02.06.2020
2160 Clouds 18 1013 51 10000 1 0 22:40 02.06.2020
2161 Clouds 19 1013 45 10000 2.1 360 22:19 02.06.2020
2162 Clouds 20 1012 42 10000 1.5 350 21:57 02.06.2020
2163 Clouds 20 1012 42 10000 1.5 350 21:39 02.06.2020
2164 Clouds 21 1012 35 10000 1.5 10 21:21 02.06.2020
2165 Clouds 21 1012 35 10000 1.5 10 21:21 02.06.2020
2166 Clouds 21 1012 35 10000 1.5 10 21:21 02.06.2020
2167 Clouds 23 1012 27 10000 2.1 20 20:59 02.06.2020
2168 Clouds 23 1012 27 10000 2.1 20 20:40 02.06.2020
2169 Clouds 24 1013 25 10000 3.1 350 20:22 02.06.2020
2170 Clouds 24 1013 25 10000 3.1 10 19:46 02.06.2020
2171 Clouds 25 1013 23 10000 3.1 350 19:26 02.06.2020
2172 Clouds 25 1013 23 10000 3.1 340 18:59 02.06.2020
2173 Clouds 25 1013 23 10000 3.1 340 18:40 02.06.2020
2174 Clouds 25 1013 23 10000 3.1 340 18:40 02.06.2020
2175 Clear 26 1014 26 10000 3.1 10 18:21 02.06.2020
2176 Clear 26 1014 24 10000 3.1 290 17:59 02.06.2020
2177 Clear 26 1014 24 10000 3.1 290 17:40 02.06.2020
2178 Clear 26 1014 24 10000 3.1 290 17:40 02.06.2020
2179 Clear 26 1014 26 10000 3.1 30 17:21 02.06.2020
2180 Clear 26 1015 27 10000 2.6 0 16:56 02.06.2020
2181 Clear 26 1015 27 10000 2.6 0 16:37 02.06.2020
2182 Clear 26 1015 27 10000 2.6 20 16:19 02.06.2020
2183 Clear 26 1015 27 10000 3.1 280 15:41 02.06.2020
2184 Clear 25 1016 29 10000 2.6 0 15:22 02.06.2020
2185 Clear 26 1016 27 10000 3.6 40 14:48 02.06.2020
2186 Clear 25 1017 27 10000 1.5 0 14:28 02.06.2020
2187 Clear 25 1017 27 10000 3.1 310 13:57 02.06.2020
2188 Clear 25 1017 27 10000 3.1 310 13:37 02.06.2020
2189 Clear 24 1017 28 10000 1.5 0 13:19 02.06.2020
2190 Clear 24 1018 29 10000 3.1 320 12:57 02.06.2020
2191 Clear 23 1018 31 10000 3.6 340 12:38 02.06.2020
2192 Clear 23 1018 31 10000 3.6 340 12:20 02.06.2020
2193 Clear 22 1018 33 10000 4.1 360 11:43 02.06.2020
2194 Clear 22 1019 33 10000 3.1 0 11:24 02.06.2020
2195 Clear 22 1019 33 10000 2.6 0 10:59 02.06.2020
2196 Clear 22 1019 33 10000 2.6 0 10:41 02.06.2020
2197 Clear 22 1019 33 10000 2.6 0 10:41 02.06.2020
2198 Clear 21 1019 35 10000 2.1 0 10:22 02.06.2020
2199 Clear 20 1019 42 10000 1 0 09:43 02.06.2020
2200 Clear 18 1019 52 10000 1.5 270 09:22 02.06.2020
2201 Clear 17 1019 55 10000 1 0 08:57 02.06.2020
2202 Clear 16 1019 59 10000 0.5 0 08:29 02.06.2020
2203 Clear 15 1019 67 10000 1 0 07:59 02.06.2020
2204 Clear 14 1019 71 10000 0.5 0 07:39 02.06.2020
2205 Clear 13 1019 71 10000 0.5 0 07:19 02.06.2020
2206 Clear 11 1019 76 10000 0.5 0 06:43 02.06.2020
2207 Clear 10 1019 81 10000 1 10 05:45 02.06.2020
2208 Clear 10 1019 81 10000 1.61 84 04:52 02.06.2020
2209 Clear 12 1019 76 10000 1 360 03:19 02.06.2020
2210 Clear 13 1020 71 10000 1 340 02:18 02.06.2020
2211 Clear 15 1020 59 10000 0.5 0 00:53 02.06.2020
2212 Clear 15 1020 55 10000 1.5 110 00:22 02.06.2020
2213 Clear 17 1020 52 10000 4.1 40 23:39 01.06.2020
2214 Clear 17 1020 52 10000 4.1 40 23:39 01.06.2020
2215 Clear 17 1020 52 10000 4.1 40 23:20 01.06.2020
2216 Clear 17 1019 52 10000 3.1 30 22:58 01.06.2020
2217 Clear 17 1019 52 10000 3.1 30 22:58 01.06.2020
2218 Clear 18 1019 52 10000 3.1 30 22:39 01.06.2020
2219 Clear 18 1019 52 10000 3.1 30 22:39 01.06.2020
2220 Clear 18 1019 48 10000 3.6 20 22:19 01.06.2020
2221 Clear 18 1019 48 10000 3.6 20 22:19 01.06.2020
2222 Clear 20 1019 45 10000 3.6 20 21:54 01.06.2020
2223 Clear 20 1019 45 10000 3.6 20 21:36 01.06.2020
2224 Clear 21 1019 40 10000 3.1 20 21:18 01.06.2020
2225 Clear 22 1019 37 10000 4.1 10 20:42 01.06.2020
2226 Clear 23 1019 33 10000 5.1 10 20:21 01.06.2020
2227 Clear 23 1019 33 10000 5.1 10 20:21 01.06.2020
2228 Clear 23 1019 33 10000 5.1 10 19:59 01.06.2020
2229 Clear 23 1018 31 10000 4.6 20 19:41 01.06.2020
2230 Clear 23 1018 31 10000 4.6 20 19:20 01.06.2020
2231 Clear 23 1018 31 10000 4.6 20 19:20 01.06.2020
2232 Clear 24 1018 29 10000 4.1 10 18:58 01.06.2020
2233 Clear 24 1019 29 10000 3.6 20 18:38 01.06.2020
2234 Clear 24 1019 29 10000 3.6 20 18:19 01.06.2020
2235 Clear 25 1019 31 10000 3.1 30 17:42 01.06.2020
2236 Clear 24 1019 29 10000 3.6 350 17:22 01.06.2020
2237 Clear 25 1019 29 10000 5.1 360 16:58 01.06.2020
2238 Clear 25 1019 29 10000 5.1 360 16:39 01.06.2020
2239 Clear 25 1019 29 10000 3.1 0 16:19 01.06.2020
2240 Clear 25 1020 29 10000 4.1 60 15:54 01.06.2020
2241 Clear 25 1020 31 10000 3.6 40 15:36 01.06.2020
2242 Clear 25 1020 31 10000 3.6 40 15:18 01.06.2020
2243 Clear 24 1020 33 10000 2.6 30 14:41 01.06.2020
2244 Clouds 24 1020 33 10000 3.1 0 14:23 01.06.2020
2245 Clouds 24 1021 35 10000 2.6 50 13:58 01.06.2020
2246 Clouds 23 1021 35 10000 2.6 50 13:39 01.06.2020
2247 Clouds 23 1021 35 10000 5.7 10 13:20 01.06.2020
2248 Clouds 23 1021 35 10000 5.7 10 12:57 01.06.2020
2249 Clouds 22 1021 37 10000 4.1 40 12:39 01.06.2020
2250 Clear 22 1021 37 10000 4.1 40 12:39 01.06.2020
2251 Clear 22 1021 37 10000 4.1 40 12:20 01.06.2020
2252 Clear 21 1022 43 10000 3.1 40 11:41 01.06.2020
2253 Clear 21 1022 43 10000 3.1 40 11:23 01.06.2020
2254 Clear 19 1022 45 10000 3.6 80 10:59 01.06.2020
2255 Clear 19 1022 48 10000 3.1 80 10:39 01.06.2020
2256 Clear 18 1022 48 10000 3.1 80 10:20 01.06.2020
2257 Clear 18 1022 52 10000 0.5 0 09:56 01.06.2020
2258 Clear 17 1022 59 10000 1 0 09:38 01.06.2020
2259 Clear 14 1022 67 10000 1.5 330 09:19 01.06.2020
2260 Clear 14 1022 66 10000 0.5 0 08:46 01.06.2020
2261 Clear 13 1022 66 10000 0.5 0 08:25 01.06.2020
2262 Clear 11 1022 71 10000 0.5 0 07:45 01.06.2020
2263 Clear 10 1022 76 10000 0.5 0 07:27 01.06.2020
2264 Clear 9 1022 81 10000 0.5 0 06:57 01.06.2020
2265 Clear 7 1022 87 10000 0.5 0 06:20 01.06.2020
2266 Clear 7 1021 87 10000 0.5 10 05:50 01.06.2020
2267 Clear 8 1021 87 10000 0.5 10 04:23 01.06.2020
2268 Clear 9 1021 81 10000 0.5 0 03:46 01.06.2020
2269 Clear 10 1022 76 10000 0.5 0 03:18 01.06.2020
2270 Clouds 13 1022 62 10000 0.5 110 01:47 01.06.2020
2271 Clouds 13 1022 62 10000 0.5 110 01:29 01.06.2020
2272 Clouds 14 1022 62 10000 1 80 00:57 01.06.2020
2273 Clouds 14 1022 58 10000 0.5 70 00:39 01.06.2020
2274 Clouds 14 1022 58 10000 0.5 70 00:21 01.06.2020
2275 Clouds 14 1022 58 10000 1 80 23:55 31.05.2020
2276 Clouds 14 1022 54 10000 1 0 23:37 31.05.2020
2277 Clouds 14 1022 54 10000 1 0 23:19 31.05.2020
2278 Clouds 15 1022 54 10000 1.5 50 22:43 31.05.2020
2279 Clouds 15 1022 54 10000 1.5 50 22:43 31.05.2020
2280 Clouds 15 1022 54 10000 1.5 50 22:25 31.05.2020
2281 Clouds 15 1022 54 10000 2.1 50 21:58 31.05.2020
2282 Clouds 16 1022 48 10000 3.1 40 21:39 31.05.2020
2283 Clouds 16 1022 48 10000 3.1 40 21:39 31.05.2020
2284 Clouds 15 1021 48 10000 4.1 30 21:21 31.05.2020
2285 Clouds 15 1022 48 10000 3.1 40 21:21 31.05.2020
2286 Clouds 15 1021 48 10000 4.1 30 21:21 31.05.2020
2287 Clouds 15 1022 48 10000 3.1 40 21:21 31.05.2020
2288 Clouds 15 1021 48 10000 4.1 30 20:48 31.05.2020
2289 Clouds 15 1021 48 10000 2.6 50 20:25 31.05.2020
2290 Clouds 16 1021 42 10000 3.6 30 19:58 31.05.2020
2291 Clouds 17 1021 45 10000 4.1 40 19:39 31.05.2020
2292 Clouds 17 1021 45 10000 4.1 40 19:21 31.05.2020
2293 Clouds 18 1020 42 10000 3.6 10 18:58 31.05.2020
2294 Clouds 18 1020 42 10000 4.6 20 18:40 31.05.2020
2295 Clouds 18 1020 42 10000 4.6 20 18:21 31.05.2020
2296 Clouds 18 1020 37 10000 3.1 0 17:43 31.05.2020
2297 Clouds 19 1020 37 10000 3.1 0 17:24 31.05.2020
2298 Clouds 19 1020 32 10000 4.1 50 16:42 31.05.2020
2299 Clouds 19 1020 32 10000 4.1 50 16:22 31.05.2020
2300 Clouds 19 1020 39 10000 4.6 10 15:57 31.05.2020
2301 Clouds 19 1020 39 10000 4.6 10 15:57 31.05.2020
2302 Clouds 19 1020 42 10000 4.6 20 15:37 31.05.2020
2303 Clouds 18 1020 42 10000 4.6 20 15:19 31.05.2020
2304 Clouds 18 1021 42 10000 4.6 10 14:44 31.05.2020
2305 Clouds 17 1020 45 10000 6.2 360 14:20 31.05.2020
2306 Clouds 17 1020 39 10000 4.1 360 13:56 31.05.2020
2307 Clouds 17 1020 39 10000 5.7 360 13:37 31.05.2020
2308 Clouds 17 1020 39 10000 5.7 360 13:19 31.05.2020
2309 Clouds 18 1020 36 10000 3.6 50 12:55 31.05.2020
2310 Clouds 18 1020 36 10000 3.6 0 12:36 31.05.2020
2311 Clouds 17 1020 39 10000 4.1 350 12:18 31.05.2020
2312 Clouds 17 1020 36 10000 3.6 0 12:18 31.05.2020
2313 Clouds 17 1021 41 10000 4.1 50 11:42 31.05.2020
2314 Clouds 16 1021 41 10000 4.1 50 11:21 31.05.2020
2315 Clouds 16 1021 54 10000 1.5 0 10:46 31.05.2020
2316 Clouds 16 1021 54 10000 1.5 0 10:28 31.05.2020
2317 Clouds 14 1021 58 10000 1.5 340 09:59 31.05.2020
2318 Clouds 14 1021 66 10000 1.5 330 09:41 31.05.2020
2319 Clouds 12 1021 66 10000 1.5 330 09:21 31.05.2020
2320 Clouds 10 1020 70 10000 1.5 350 08:43 31.05.2020
2321 Clouds 10 1020 70 10000 1.5 350 08:25 31.05.2020
2322 Clouds 9 1020 81 10000 1 0 07:52 31.05.2020
2323 Clouds 8 1020 81 10000 1 0 07:22 31.05.2020
2324 Clouds 8 1020 81 10000 1 0 07:22 31.05.2020
2325 Clouds 8 1020 86 10000 1.5 350 06:58 31.05.2020
2326 Clouds 6 1020 86 10000 1 340 06:36 31.05.2020
2327 Clouds 6 1020 86 10000 1.5 350 05:56 31.05.2020
2328 Clouds 6 1020 86 10000 1 340 05:37 31.05.2020
2329 Clouds 7 1020 81 10000 0.5 310 04:20 31.05.2020
2330 Clouds 7 1021 81 10000 1 10 03:45 31.05.2020
2331 Clouds 8 1021 75 10000 1 350 02:50 31.05.2020
2332 Clouds 9 1021 75 10000 1.5 330 01:46 31.05.2020
2333 Clouds 10 1021 70 10000 1.5 350 00:46 31.05.2020
2334 Clouds 10 1021 70 10000 1.5 350 00:28 31.05.2020
2335 Clouds 10 1021 66 10000 1.5 350 23:42 30.05.2020
2336 Clouds 11 1021 66 10000 1.5 350 23:24 30.05.2020
2337 Clouds 11 1021 54 10000 1.5 10 22:57 30.05.2020
2338 Clouds 12 1021 50 10000 2.1 10 22:39 30.05.2020
2339 Clouds 12 1021 50 10000 2.1 10 22:21 30.05.2020
2340 Clouds 14 1021 41 10000 5.1 30 21:43 30.05.2020
2341 Clouds 15 1021 41 10000 5.1 30 21:23 30.05.2020
2342 Clouds 15 1021 41 10000 4.6 20 20:58 30.05.2020
2343 Clouds 15 1021 38 10000 5.7 20 20:40 30.05.2020
2344 Clouds 16 1021 38 10000 5.7 20 20:21 30.05.2020
2345 Clouds 16 1020 38 10000 4.6 40 19:58 30.05.2020
2346 Clouds 17 1020 36 10000 3.6 10 19:40 30.05.2020
2347 Clouds 17 1020 36 10000 3.6 10 19:20 30.05.2020
2348 Clouds 18 1020 34 10000 5.7 360 18:43 30.05.2020
2349 Clouds 18 1020 34 10000 5.7 360 18:20 30.05.2020
2350 Clouds 17 1020 36 10000 4.6 40 17:43 30.05.2020
2351 Clouds 17 1020 36 10000 4.6 40 17:25 30.05.2020
2352 Clouds 18 1020 34 10000 4.1 20 16:59 30.05.2020
2353 Clouds 17 1021 36 10000 5.1 30 16:40 30.05.2020
2354 Clouds 18 1021 36 10000 5.1 30 16:21 30.05.2020
2355 Clouds 18 1021 36 10000 4.1 40 15:44 30.05.2020
2356 Clouds 17 1021 36 10000 4.1 40 15:26 30.05.2020
2357 Clouds 17 1021 39 10000 5.7 350 14:45 30.05.2020
2358 Clouds 17 1021 39 10000 5.7 350 14:26 30.05.2020
2359 Clouds 17 1021 44 10000 4.6 30 13:44 30.05.2020
2360 Clouds 17 1021 39 10000 5.1 20 13:25 30.05.2020
2361 Clouds 17 1021 36 10000 5.1 30 12:42 30.05.2020
2362 Clouds 17 1021 36 10000 5.1 30 12:22 30.05.2020
2363 Clouds 17 1021 36 10000 5.7 350 11:58 30.05.2020
2364 Clouds 16 1022 44 10000 5.7 360 11:40 30.05.2020
2365 Clouds 16 1022 44 10000 5.7 360 11:22 30.05.2020
2366 Clouds 16 1022 47 10000 5.1 360 10:54 30.05.2020
2367 Clouds 15 1022 51 10000 5.7 350 10:36 30.05.2020
2368 Clouds 15 1022 51 10000 5.7 350 10:18 30.05.2020
2369 Clouds 15 1022 51 10000 4.6 10 09:41 30.05.2020
2370 Clouds 15 1022 51 10000 4.6 10 09:23 30.05.2020
2371 Clouds 13 1022 58 10000 2.1 340 08:40 30.05.2020
2372 Clouds 13 1022 58 10000 2.1 340 08:21 30.05.2020
2373 Clouds 11 1023 71 10000 1 0 07:38 30.05.2020
2374 Clouds 11 1022 71 10000 0.5 0 07:18 30.05.2020
2375 Clouds 9 1022 76 10000 0.5 0 06:25 30.05.2020
2376 Clouds 9 1023 70 10000 0.5 10 05:49 30.05.2020
2377 Clouds 9 1023 66 10000 0.5 0 04:33 30.05.2020
2378 Clouds 10 1024 57 10000 2.1 60 02:34 30.05.2020
2379 Clouds 10 1024 57 10000 2.6 40 01:56 30.05.2020
2380 Clouds 12 1024 50 10000 2.6 50 00:44 30.05.2020
2381 Clear 12 1024 50 10000 2.6 50 00:23 30.05.2020
2382 Clear 12 1024 50 10000 2.1 50 23:59 29.05.2020
2383 Clear 13 1023 47 10000 2.1 50 23:38 29.05.2020
2384 Clear 13 1023 47 10000 2.1 50 23:19 29.05.2020
2385 Clear 14 1023 44 10000 2.6 40 22:42 29.05.2020
2386 Clouds 14 1023 44 10000 2.6 40 22:21 29.05.2020
2387 Clouds 15 1023 38 10000 1.5 40 21:59 29.05.2020
2388 Clouds 16 1023 36 10000 2.1 50 21:39 29.05.2020
2389 Clear 17 1023 36 10000 1.5 70 21:20 29.05.2020
2390 Clear 17 1023 36 10000 1.5 70 20:55 29.05.2020
2391 Clear 17 1023 36 10000 2.6 70 20:37 29.05.2020
2392 Clouds 18 1023 36 10000 2.6 70 20:18 29.05.2020
2393 Clouds 18 1023 34 10000 3.1 40 19:42 29.05.2020
2394 Clouds 18 1023 34 10000 3.1 40 19:23 29.05.2020
2395 Clouds 19 1024 34 10000 2.6 0 18:47 29.05.2020
2396 Clouds 19 1024 34 10000 2.6 0 18:22 29.05.2020
2397 Clouds 19 1024 34 10000 3.1 80 17:57 29.05.2020
2398 Clouds 19 1024 37 10000 3.6 0 17:38 29.05.2020
2399 Clouds 19 1024 37 10000 3.6 0 17:20 29.05.2020
2400 Clouds 18 1025 39 10000 4.1 30 16:46 29.05.2020
2401 Clouds 19 1025 39 10000 4.1 30 16:28 29.05.2020
2402 Clouds 19 1025 42 10000 5.7 80 15:58 29.05.2020
2403 Clouds 19 1025 45 10000 5.1 40 15:40 29.05.2020
2404 Clouds 19 1025 45 10000 5.1 40 15:20 29.05.2020
2405 Clouds 18 1025 39 10000 4.1 60 14:52 29.05.2020
2406 Clouds 19 1025 36 10000 3.6 60 14:25 29.05.2020
2407 Clouds 19 1026 36 10000 4.1 30 13:59 29.05.2020
2408 Clouds 19 1026 36 10000 5.1 30 13:41 29.05.2020
2409 Clear 19 1026 34 10000 3.1 0 13:21 29.05.2020
2410 Clear 19 1026 34 10000 3.1 0 12:45 29.05.2020
2411 Clear 18 1027 36 10000 3.6 10 12:26 29.05.2020
2412 Clear 18 1027 39 10000 4.1 50 11:58 29.05.2020
2413 Clouds 17 1027 45 10000 4.1 360 11:40 29.05.2020
2414 Clouds 17 1027 45 10000 4.1 360 11:22 29.05.2020
2415 Clouds 17 1027 51 10000 3.1 0 10:42 29.05.2020
2416 Clouds 16 1027 51 10000 3.1 0 10:21 29.05.2020
2417 Clouds 15 1027 51 10000 3.1 80 09:55 29.05.2020
2418 Clouds 15 1027 51 10000 3.1 80 09:55 29.05.2020
2419 Clouds 14 1027 58 10000 1 0 09:37 29.05.2020
2420 Clouds 14 1027 58 10000 1 0 09:18 29.05.2020
2421 Clear 12 1027 66 10000 0.5 0 08:44 29.05.2020
2422 Clouds 11 1027 66 10000 0.5 0 08:21 29.05.2020
2423 Clouds 10 1027 71 10000 1 0 07:46 29.05.2020
2424 Clouds 9 1027 75 10000 0.5 0 07:27 29.05.2020
2425 Clouds 7 1027 87 10000 1 0 06:49 29.05.2020
2426 Clouds 6 1027 86 10000 1 0 06:29 29.05.2020
2427 Clouds 5 1027 86 10000 1 100 05:56 29.05.2020
2428 Clouds 7 1027 81 10000 1.5 340 03:55 29.05.2020
2429 Clouds 8 1028 81 10000 0.5 0 01:47 29.05.2020
2430 Clouds 8 1028 75 10000 1 0 01:25 29.05.2020
2431 Clouds 8 1028 75 10000 1 0 01:25 29.05.2020
2432 Clouds 9 1028 70 10000 1 0 00:47 29.05.2020
2433 Clouds 9 1028 70 10000 1 0 00:22 29.05.2020
2434 Clouds 10 1028 57 10000 1.5 70 23:41 28.05.2020
2435 Clouds 11 1028 57 10000 1.5 70 23:19 28.05.2020
2436 Clouds 12 1028 50 10000 2.1 80 22:45 28.05.2020
2437 Clouds 13 1028 44 10000 2.1 70 22:27 28.05.2020
2438 Clouds 14 1028 41 10000 3.6 40 21:59 28.05.2020
2439 Clouds 14 1028 41 10000 3.1 30 21:40 28.05.2020
2440 Clouds 15 1028 41 10000 3.1 30 21:21 28.05.2020
2441 Clouds 16 1027 38 10000 4.1 30 20:58 28.05.2020
2442 Clouds 16 1027 33 10000 4.6 20 20:40 28.05.2020
2443 Clouds 16 1027 33 10000 4.6 20 20:19 28.05.2020
2444 Clouds 17 1027 31 10000 4.6 20 19:57 28.05.2020
2445 Clouds 17 1027 31 10000 4.6 20 19:57 28.05.2020
2446 Clouds 17 1027 31 10000 4.1 20 19:39 28.05.2020
2447 Clouds 17 1027 31 10000 4.1 20 19:39 28.05.2020
2448 Clouds 17 1027 31 10000 4.1 20 19:20 28.05.2020
2449 Clouds 18 1027 29 10000 5.1 20 18:43 28.05.2020
2450 Clouds 19 1027 29 10000 5.1 20 18:25 28.05.2020
2451 Clouds 19 1027 42 10000 5.1 20 17:57 28.05.2020
2452 Clouds 19 1027 31 10000 4.6 20 17:39 28.05.2020
2453 Clear 19 1027 31 10000 4.6 20 17:19 28.05.2020
2454 Clear 19 1027 32 10000 5.7 360 16:45 28.05.2020
2455 Clear 19 1028 32 10000 5.7 330 16:21 28.05.2020
2456 Clear 19 1028 37 10000 5.1 350 15:47 28.05.2020
2457 Clear 19 1028 37 10000 5.1 350 15:25 28.05.2020
2458 Clear 19 1028 34 10000 6.2 350 14:59 28.05.2020
2459 Clear 18 1028 39 10000 5.1 30 14:40 28.05.2020
2460 Clouds 19 1028 39 10000 5.1 30 14:22 28.05.2020
2461 Clouds 19 1028 39 10000 5.1 30 14:22 28.05.2020
2462 Clouds 18 1029 39 10000 5.1 340 13:45 28.05.2020
2463 Clouds 18 1029 39 10000 5.1 340 13:27 28.05.2020
2464 Clouds 17 1029 45 10000 5.1 10 12:43 28.05.2020
2465 Clouds 18 1029 45 10000 5.1 10 12:20 28.05.2020
2466 Clouds 17 1029 59 10000 3.6 10 11:54 28.05.2020
2467 Clouds 16 1029 59 10000 3.6 360 11:36 28.05.2020
2468 Clouds 16 1029 59 10000 3.6 360 11:36 28.05.2020
2469 Clouds 16 1029 59 10000 3.6 360 11:36 28.05.2020
2470 Clouds 16 1029 59 10000 3.6 360 11:18 28.05.2020
2471 Clouds 15 1029 67 10000 5.7 30 10:42 28.05.2020
2472 Clouds 15 1029 67 10000 5.7 30 10:42 28.05.2020
2473 Clouds 15 1029 67 10000 5.7 30 10:24 28.05.2020
2474 Clouds 14 1029 67 10000 4.1 30 09:41 28.05.2020
2475 Clouds 14 1029 67 10000 4.1 30 09:22 28.05.2020
2476 Rain 14 1029 67 10000 3.1 10 08:57 28.05.2020
2477 Rain 13 1029 76 10000 3.1 360 08:39 28.05.2020
2478 Rain 13 1029 76 10000 3.1 360 08:20 28.05.2020
2479 Rain 12 1029 76 10000 2.1 330 07:41 28.05.2020
2480 Rain 12 1029 76 10000 2.1 330 07:23 28.05.2020
2481 Clouds 11 1028 81 10000 0.5 0 06:44 28.05.2020
2482 Clouds 11 1028 81 10000 0.5 0 06:26 28.05.2020
2483 Clouds 11 1028 81 10000 1 140 05:38 28.05.2020
2484 Clouds 11 1028 81 10000 0.5 0 04:36 28.05.2020
2485 Clouds 11 1028 76 10000 1 100 04:18 28.05.2020
2486 Clouds 12 1029 76 10000 0.5 0 02:56 28.05.2020
2487 Clouds 12 1029 71 10000 1 110 02:28 28.05.2020
2488 Clouds 11 1029 76 10000 1 110 01:45 28.05.2020
2489 Clouds 12 1029 76 10000 0.5 360 00:47 28.05.2020
2490 Clouds 12 1030 76 10000 0.5 0 00:19 28.05.2020
2491 Clouds 12 1030 76 10000 0.5 0 23:56 27.05.2020
2492 Clouds 13 1030 71 10000 0.5 0 23:37 27.05.2020
2493 Clouds 14 1030 62 10000 1 0 23:19 27.05.2020
2494 Clouds 15 1030 54 10000 0.5 0 22:41 27.05.2020
2495 Clouds 15 1030 54 10000 0.5 0 22:23 27.05.2020
2496 Clouds 16 1030 59 10000 0.5 0 21:56 27.05.2020
2497 Clouds 18 1029 52 10000 1 0 21:37 27.05.2020
2498 Clouds 18 1029 52 10000 1 0 21:19 27.05.2020
2499 Clouds 19 1029 42 10000 1.5 20 20:57 27.05.2020
2500 Clouds 19 1030 40 10000 2.6 10 20:38 27.05.2020
2501 Clouds 20 1030 40 10000 2.6 10 20:18 27.05.2020
2502 Clouds 20 1030 37 10000 2.1 50 19:43 27.05.2020
2503 Clouds 20 1030 40 10000 2.1 10 19:20 27.05.2020
2504 Clouds 20 1030 40 10000 2.1 10 18:45 27.05.2020
2505 Clouds 21 1030 32 10000 2.1 350 18:20 27.05.2020
2506 Clouds 21 1030 32 10000 2.1 350 17:59 27.05.2020
2507 Clouds 21 1031 37 10000 2.1 0 17:40 27.05.2020
2508 Clouds 21 1031 37 10000 2.1 0 17:21 27.05.2020
2509 Clouds 21 1031 37 10000 1.5 320 16:56 27.05.2020
2510 Clouds 20 1031 34 10000 2.6 190 16:38 27.05.2020
2511 Clouds 20 1031 34 10000 2.6 190 16:19 27.05.2020
2512 Clouds 21 1031 32 10000 2.6 90 15:47 27.05.2020
2513 Clouds 21 1032 37 10000 2.6 0 15:22 27.05.2020
2514 Clouds 20 1032 35 10000 1.5 0 14:46 27.05.2020
2515 Clouds 20 1032 35 10000 1.5 0 14:46 27.05.2020
2516 Clouds 20 1032 35 10000 1.5 0 14:46 27.05.2020
2517 Clouds 20 1032 42 10000 2.1 20 14:22 27.05.2020
2518 Clouds 20 1033 39 10000 2.1 0 13:58 27.05.2020
2519 Clouds 20 1033 40 10000 1.5 0 13:39 27.05.2020
2520 Clouds 20 1033 40 10000 1.5 0 13:39 27.05.2020
2521 Clear 20 1033 40 10000 1.5 0 13:21 27.05.2020
2522 Clear 19 1033 45 10000 1.5 0 12:42 27.05.2020
2523 Clear 18 1033 45 10000 1.5 0 12:23 27.05.2020
2524 Clear 18 1033 48 10000 2.1 340 11:56 27.05.2020
2525 Clear 18 1034 42 10000 1.5 0 11:36 27.05.2020
2526 Clear 18 1034 42 10000 1.5 0 11:18 27.05.2020
2527 Clear 17 1034 55 10000 1 0 10:43 27.05.2020
2528 Clear 17 1034 55 10000 1 0 10:24 27.05.2020
2529 Clear 14 1034 66 10000 1 0 09:56 27.05.2020
2530 Clear 14 1034 66 10000 1 0 09:38 27.05.2020
2531 Clear 13 1034 66 10000 1 0 09:20 27.05.2020
2532 Clear 12 1034 71 10000 1 0 08:42 27.05.2020
2533 Clouds 11 1034 71 10000 1 0 08:24 27.05.2020
2534 Clouds 10 1034 81 10000 0.5 0 07:53 27.05.2020
2535 Clouds 9 1034 81 10000 0.5 0 07:34 27.05.2020
2536 Clouds 6 1034 86 10000 1 0 06:55 27.05.2020
2537 Clouds 6 1034 86 10000 2.1 100 06:30 27.05.2020
2538 Clouds 6 1034 93 10000 1 110 05:50 27.05.2020
2539 Clouds 5 1034 93 10000 0.5 0 05:25 27.05.2020
2540 Clear 7 1034 87 10000 1 80 03:21 27.05.2020
2541 Clear 7 1034 81 10000 0.5 0 02:27 27.05.2020
2542 Clear 8 1034 87 10000 1 360 01:32 27.05.2020
2543 Clear 9 1034 87 10000 1 330 00:50 27.05.2020
2544 Clear 9 1034 81 10000 0.5 0 00:24 27.05.2020
2545 Clear 10 1034 66 10000 2.1 50 23:59 26.05.2020
2546 Clear 11 1034 62 10000 2.1 50 23:40 26.05.2020
2547 Clear 11 1034 62 10000 2.1 50 23:22 26.05.2020
2548 Clear 12 1034 62 10000 1.5 30 22:58 26.05.2020
2549 Clear 13 1034 62 10000 1.5 20 22:37 26.05.2020
2550 Clear 13 1034 62 10000 1.5 20 22:19 26.05.2020
2551 Clear 13 1034 54 10000 2.1 10 21:55 26.05.2020
2552 Clear 13 1034 54 10000 2.1 10 21:55 26.05.2020
2553 Clear 14 1033 48 10000 2.1 10 21:36 26.05.2020
2554 Clear 15 1033 48 10000 2.1 10 21:18 26.05.2020
2555 Clear 16 1033 45 10000 3.6 360 20:42 26.05.2020
2556 Clear 16 1033 45 10000 3.6 360 20:42 26.05.2020
2557 Clouds 16 1033 45 10000 3.6 360 20:20 26.05.2020
2558 Clouds 17 1033 39 10000 2.6 20 19:55 26.05.2020
2559 Clouds 18 1033 39 10000 3.6 40 19:36 26.05.2020
2560 Clouds 18 1033 39 10000 3.6 10 19:18 26.05.2020
2561 Clouds 18 1033 39 10000 2.1 30 18:40 26.05.2020
2562 Clouds 18 1033 39 10000 4.1 20 18:21 26.05.2020
2563 Clouds 18 1033 42 10000 2.6 20 17:42 26.05.2020
2564 Clouds 18 1033 42 10000 2.6 20 17:24 26.05.2020
2565 Clouds 18 1033 45 10000 3.1 60 16:57 26.05.2020
2566 Clouds 18 1033 39 10000 2.1 50 16:39 26.05.2020
2567 Clouds 18 1033 39 10000 2.1 50 16:18 26.05.2020
2568 Clouds 18 1034 45 10000 3.1 360 15:42 26.05.2020
2569 Clouds 17 1034 45 10000 3.1 360 15:20 26.05.2020
2570 Clouds 17 1034 42 10000 2.6 330 14:56 26.05.2020
2571 Clouds 16 1034 44 10000 3.1 330 14:37 26.05.2020
2572 Clouds 16 1034 44 10000 3.1 330 14:19 26.05.2020
2573 Clouds 16 1034 47 10000 2.6 360 13:41 26.05.2020
2574 Clouds 16 1034 47 10000 2.6 360 13:23 26.05.2020
2575 Clouds 16 1034 44 10000 2.6 330 12:56 26.05.2020
2576 Clouds 15 1034 51 10000 2.1 0 12:37 26.05.2020
2577 Clouds 15 1034 51 10000 2.1 0 12:19 26.05.2020
2578 Clouds 15 1034 54 10000 1.5 0 11:41 26.05.2020
2579 Clouds 15 1034 54 10000 1.5 0 11:20 26.05.2020
2580 Clouds 14 1034 62 10000 1.5 0 10:47 26.05.2020
2581 Clouds 14 1034 62 10000 1.5 0 10:20 26.05.2020
2582 Clouds 13 1034 66 10000 2.1 330 09:59 26.05.2020
2583 Clear 12 1034 71 10000 1.5 350 09:37 26.05.2020
2584 Clear 12 1034 71 10000 1.5 350 09:18 26.05.2020
2585 Clear 11 1034 76 10000 1.5 350 08:41 26.05.2020
2586 Clear 11 1034 76 10000 1.5 350 08:22 26.05.2020
2587 Clear 8 1033 87 10000 0.5 0 07:43 26.05.2020
2588 Clear 8 1033 87 10000 0.5 0 07:23 26.05.2020
2589 Clear 6 1033 93 10000 0.5 100 06:53 26.05.2020
2590 Clouds 5 1033 93 10000 1 330 06:28 26.05.2020
2591 Clouds 5 1033 93 10000 0.5 0 05:43 26.05.2020
2592 Clouds 6 1033 93 10000 0.5 0 05:20 26.05.2020
2593 Clear 6 1033 93 10000 0.5 0 04:48 26.05.2020
2594 Clear 6 1032 93 10000 0.5 0 04:29 26.05.2020
2595 Clear 7 1033 93 10000 0.5 0 03:46 26.05.2020
2596 Clouds 8 1033 81 10000 0.5 0 02:35 26.05.2020
2597 Clouds 9 1033 81 10000 1 0 01:47 26.05.2020
2598 Clouds 10 1032 76 10000 0.5 340 00:43 26.05.2020
2599 Clouds 10 1032 76 10000 0.5 340 00:23 26.05.2020
2600 Clouds 11 1032 62 10000 1.5 50 23:59 25.05.2020
2601 Clouds 11 1032 62 10000 1 0 23:39 25.05.2020
2602 Clouds 12 1032 62 10000 1 0 23:20 25.05.2020
2603 Clouds 13 1032 58 10000 2.6 30 22:56 25.05.2020
2604 Clouds 13 1032 58 10000 2.6 30 22:56 25.05.2020
2605 Clouds 13 1031 54 10000 2.1 350 22:37 25.05.2020
2606 Clouds 13 1031 54 10000 2.1 350 22:19 25.05.2020
2607 Clouds 15 1031 44 10000 4.6 330 21:58 25.05.2020
2608 Clouds 15 1030 44 10000 4.6 330 21:38 25.05.2020
2609 Clouds 16 1030 42 10000 5.1 320 21:19 25.05.2020
2610 Clouds 16 1030 42 10000 5.1 320 21:19 25.05.2020
2611 Clouds 16 1030 42 10000 5.1 320 20:58 25.05.2020
2612 Clouds 16 1030 42 10000 7.7 340 20:40 25.05.2020
2613 Clouds 16 1030 42 10000 7.7 340 20:20 25.05.2020
2614 Clouds 17 1030 45 10000 7.2 340 19:55 25.05.2020
2615 Clouds 17 1029 45 10000 6.2 340 19:37 25.05.2020
2616 Clear 18 1029 45 10000 7.7 320 19:18 25.05.2020
2617 Clouds 18 1029 39 10000 7.2 340 18:42 25.05.2020
2618 Clouds 19 1029 39 10000 7.2 340 18:21 25.05.2020
2619 Clouds 19 1029 45 10000 8.2 310 17:54 25.05.2020
2620 Clouds 19 1029 48 10000 6.2 330 17:36 25.05.2020
2621 Clouds 18 1029 48 10000 7.2 320 17:18 25.05.2020
2622 Clouds 18 1029 48 10000 8.7 300 16:40 25.05.2020
2623 Clouds 19 1029 48 10000 8.7 300 16:22 25.05.2020
2624 Clouds 18 1029 48 10000 9.3 300 15:58 25.05.2020
2625 Clouds 18 1029 48 10000 9.3 300 15:58 25.05.2020
2626 Clouds 18 1029 48 10000 6.7 320 15:40 25.05.2020
2627 Clouds 18 1029 48 10000 6.7 320 15:18 25.05.2020
2628 Clouds 17 1029 59 10000 6.2 320 14:43 25.05.2020
2629 Clouds 17 1029 59 10000 6.2 320 14:24 25.05.2020
2630 Clouds 16 1029 59 10000 8.2 290 13:57 25.05.2020
2631 Clouds 16 1029 63 10000 6.7 300 13:37 25.05.2020
2632 Clouds 16 1029 63 10000 6.7 300 13:19 25.05.2020
2633 Clouds 15 1030 76 10000 6.2 290 12:40 25.05.2020
2634 Clouds 14 1030 76 10000 6.2 290 12:21 25.05.2020
2635 Rain 14 1030 76 10000 6.2 310 11:58 25.05.2020
2636 Clouds 14 1030 62 10000 6.2 280 11:38 25.05.2020
2637 Clouds 14 1030 62 10000 6.2 280 11:18 25.05.2020
2638 Clouds 15 1030 67 10000 5.7 280 10:43 25.05.2020
2639 Clouds 15 1030 67 10000 5.7 280 10:21 25.05.2020
2640 Clouds 14 1030 71 10000 5.7 290 09:57 25.05.2020
2641 Clouds 13 1030 76 10000 5.1 290 09:38 25.05.2020
2642 Clouds 13 1030 76 10000 5.1 290 09:19 25.05.2020
2643 Clouds 13 1030 76 10000 5.1 290 08:57 25.05.2020
2644 Clouds 12 1030 81 10000 4.6 290 08:36 25.05.2020
2645 Clouds 13 1030 81 10000 4.6 290 08:36 25.05.2020
2646 Clouds 12 1030 81 10000 4.6 290 08:36 25.05.2020
2647 Clouds 12 1030 81 10000 4.6 290 08:18 25.05.2020
2648 Clouds 12 1030 81 10000 3.6 280 07:43 25.05.2020
2649 Clouds 12 1030 81 10000 3.6 280 07:20 25.05.2020
2650 Clouds 12 1030 81 10000 3.6 280 06:49 25.05.2020
2651 Clouds 11 1030 81 10000 4.6 290 06:31 25.05.2020
2652 Clouds 12 1029 76 10000 4.6 280 03:48 25.05.2020
2653 Clouds 12 1030 71 10000 4.1 280 03:22 25.05.2020
2654 Clouds 12 1030 71 10000 5.1 280 02:45 25.05.2020
2655 Clouds 13 1030 71 10000 5.1 280 01:46 25.05.2020
2656 Clouds 13 1030 71 10000 5.1 280 01:28 25.05.2020
2657 Rain 13 1030 66 10000 6.7 290 00:36 25.05.2020
2658 Clouds 13 1030 66 10000 5.1 280 00:18 25.05.2020
2659 Clouds 13 1030 62 10000 4.1 280 23:43 24.05.2020
2660 Clouds 13 1030 62 10000 4.1 280 23:23 24.05.2020
2661 Rain 13 1030 62 10000 3.6 280 22:58 24.05.2020
2662 Rain 13 1030 62 10000 3.1 280 22:40 24.05.2020
2663 Rain 13 1030 62 10000 3.1 280 22:19 24.05.2020
2664 Rain 14 1029 58 10000 3.6 280 21:55 24.05.2020
2665 Rain 14 1029 58 10000 4.1 280 21:37 24.05.2020
2666 Rain 14 1029 58 10000 4.1 280 21:19 24.05.2020
2667 Clouds 15 1029 51 10000 5.1 290 20:43 24.05.2020
2668 Clouds 15 1029 51 10000 5.1 290 20:43 24.05.2020
2669 Clouds 15 1029 51 10000 5.1 290 20:22 24.05.2020
2670 Clouds 15 1029 44 10000 6.2 290 19:59 24.05.2020
2671 Clouds 15 1029 44 10000 6.2 290 19:59 24.05.2020
2672 Clouds 16 1029 44 10000 6.2 290 19:40 24.05.2020
2673 Clouds 16 1029 44 10000 6.2 290 19:19 24.05.2020
2674 Clouds 16 1028 44 10000 7.7 280 18:54 24.05.2020
2675 Clouds 17 1028 42 10000 7.7 270 18:36 24.05.2020
2676 Clouds 17 1028 42 10000 7.7 270 18:18 24.05.2020
2677 Clouds 17 1028 39 10000 8.2 270 17:40 24.05.2020
2678 Clouds 17 1028 39 10000 8.2 270 17:21 24.05.2020
2679 Clouds 17 1028 39 10000 8.2 280 16:57 24.05.2020
2680 Clouds 17 1029 39 10000 7.7 270 16:38 24.05.2020
2681 Rain 17 1029 39 10000 7.7 270 16:20 24.05.2020
2682 Rain 16 1029 44 10000 8.2 270 15:56 24.05.2020
2683 Rain 16 1028 44 10000 7.2 280 15:38 24.05.2020
2684 Clouds 17 1028 44 10000 7.2 280 15:18 24.05.2020
2685 Clouds 16 1028 47 10000 7.2 260 14:45 24.05.2020
2686 Clouds 16 1028 47 10000 7.2 260 14:24 24.05.2020
2687 Clear 15 1028 44 10000 8.7 250 13:58 24.05.2020
2688 Clouds 16 1028 42 10000 8.2 260 13:39 24.05.2020
2689 Clouds 16 1028 42 10000 8.2 260 13:21 24.05.2020
2690 Clouds 16 1028 48 10000 7.2 250 12:59 24.05.2020
2691 Clouds 16 1028 48 10000 8.2 250 12:40 24.05.2020
2692 Clouds 16 1028 48 10000 8.2 250 12:22 24.05.2020
2693 -273 0 0 0 0 0 11:59 24.05.2020
2694 Clouds 15 1029 58 10000 6.7 250 11:40 24.05.2020
2695 Clouds 15 1029 58 10000 6.7 250 11:22 24.05.2020
2696 Clouds 14 1029 62 10000 6.7 270 10:55 24.05.2020
2697 Clouds 14 1029 66 10000 5.7 260 10:37 24.05.2020
2698 Clouds 13 1029 66 10000 5.7 260 10:18 24.05.2020
2699 Clouds 13 1029 71 10000 4.6 260 09:41 24.05.2020
2700 Clouds 12 1029 71 10000 4.6 260 09:18 24.05.2020
2701 Clouds 12 1029 71 10000 4.1 250 08:56 24.05.2020
2702 Clouds 11 1029 81 10000 3.6 240 08:37 24.05.2020
2703 Clouds 10 1029 81 10000 2.6 230 08:19 24.05.2020
2704 Clouds 9 1029 87 10000 1 0 07:42 24.05.2020
2705 Clouds 9 1029 87 10000 1 0 07:24 24.05.2020
2706 Clouds 7 1029 93 10000 1.5 110 06:48 24.05.2020
2707 Clouds 7 1029 93 10000 1.5 110 06:25 24.05.2020
2708 Clouds 7 1029 93 10000 2.1 120 04:52 24.05.2020
2709 Clouds 7 1029 93 10000 2.6 130 03:41 24.05.2020
2710 Clouds 7 1029 93 10000 2.6 100 02:31 24.05.2020
2711 Clouds 8 1028 93 10000 1.5 80 01:46 24.05.2020
2712 Clouds 8 1028 87 10000 2.6 250 00:39 24.05.2020
2713 Clouds 8 1028 87 10000 2.6 250 00:21 24.05.2020
2714 Clouds 9 1028 87 10000 2.1 240 23:43 23.05.2020
2715 Clouds 9 1028 87 10000 2.1 240 23:23 23.05.2020
2716 Clouds 9 1028 81 10000 1.5 260 22:57 23.05.2020
2717 Clouds 9 1028 81 10000 2.6 270 22:38 23.05.2020
2718 Clouds 10 1028 81 10000 2.6 270 22:20 23.05.2020
2719 Clouds 10 1028 81 10000 4.6 270 21:57 23.05.2020
2720 Clouds 10 1027 76 10000 5.1 270 21:37 23.05.2020
2721 Clouds 10 1027 76 10000 5.1 270 21:19 23.05.2020
2722 Clouds 10 1027 76 10000 5.1 270 21:19 23.05.2020
2723 Clouds 11 1027 76 10000 6.2 270 20:57 23.05.2020
2724 Clouds 11 1027 81 10000 5.1 270 20:38 23.05.2020
2725 Clouds 11 1027 81 10000 5.1 270 20:18 23.05.2020
2726 Clouds 11 1026 81 10000 4.6 260 19:41 23.05.2020
2727 Clouds 11 1026 87 10000 5.1 270 19:20 23.05.2020
2728 Clouds 11 1026 87 10000 5.1 270 18:57 23.05.2020
2729 Clouds 11 1026 81 10000 5.7 260 18:39 23.05.2020
2730 Clouds 11 1026 81 10000 5.7 260 18:21 23.05.2020
2731 Rain 11 1025 87 10000 5.1 270 17:55 23.05.2020
2732 Rain 11 1024 87 10000 5.7 300 17:37 23.05.2020
2733 Rain 11 1024 87 10000 5.7 300 17:18 23.05.2020
2734 Rain 12 1024 87 10000 3.1 270 16:55 23.05.2020
2735 Rain 11 1024 81 10000 2.1 290 16:37 23.05.2020
2736 Rain 11 1024 81 10000 2.1 290 16:18 23.05.2020
2737 Rain 11 1024 62 10000 5.1 320 15:42 23.05.2020
2738 Rain 11 1024 62 10000 5.1 320 15:23 23.05.2020
2739 Clouds 12 1023 62 10000 7.7 320 14:55 23.05.2020
2740 Rain 13 1022 71 10000 8.7 300 14:36 23.05.2020
2741 Rain 13 1022 71 10000 8.7 300 14:18 23.05.2020
2742 Drizzle 14 1022 72 10000 4.6 300 13:39 23.05.2020
2743 Drizzle 15 1022 72 10000 4.6 300 13:19 23.05.2020
2744 Drizzle 15 1022 67 10000 3.6 320 12:43 23.05.2020
2745 Drizzle 16 1022 67 10000 3.6 320 12:20 23.05.2020
2746 Drizzle 16 1022 67 10000 3.6 330 11:59 23.05.2020
2747 Drizzle 16 1022 67 10000 2.6 300 11:41 23.05.2020
2748 Drizzle 16 1022 67 10000 2.6 300 11:19 23.05.2020
2749 Clouds 16 1022 67 10000 3.1 270 10:56 23.05.2020
2750 Clouds 16 1022 72 10000 4.1 290 10:38 23.05.2020
2751 Clouds 16 1022 72 10000 4.1 290 10:19 23.05.2020
2752 Clouds 16 1022 77 10000 3.1 300 09:55 23.05.2020
2753 Clouds 16 1022 82 10000 2.1 330 09:37 23.05.2020
2754 Clouds 16 1022 82 10000 2.1 330 09:18 23.05.2020
2755 Clouds 15 1022 87 10000 2.6 350 08:41 23.05.2020
2756 Clouds 15 1022 87 10000 2.6 350 08:19 23.05.2020
2757 Clouds 16 1021 82 10000 5.7 320 07:45 23.05.2020
2758 Clouds 16 1021 82 10000 5.7 320 07:27 23.05.2020
2759 Clouds 16 1021 93 10000 0.5 0 06:43 23.05.2020
2760 Clouds 16 1021 93 10000 1 0 05:59 23.05.2020
2761 Clouds 15 1020 87 10000 2.1 90 04:25 23.05.2020
2762 Clouds 16 1020 87 10000 1 0 03:26 23.05.2020
2763 Clouds 16 1020 87 10000 1 0 03:26 23.05.2020
2764 Rain 16 1020 82 10000 2.1 110 02:40 23.05.2020
2765 Rain 17 1020 72 10000 1.5 90 01:50 23.05.2020
2766 Rain 17 1020 82 10000 1.5 130 01:18 23.05.2020
2767 Clouds 19 1021 52 10000 1.5 190 00:42 23.05.2020
2768 Clouds 19 1021 52 10000 1.5 190 00:19 23.05.2020
2769 Rain 19 1020 49 10000 0.5 0 23:44 22.05.2020
2770 Rain 19 1020 49 10000 0.5 0 23:22 22.05.2020
2771 Rain 20 1020 43 10000 1 100 22:58 22.05.2020
2772 Rain 20 1020 43 10000 1 100 22:58 22.05.2020
2773 Rain 20 1020 43 10000 2.1 130 22:40 22.05.2020
2774 Clouds 20 1020 40 10000 1.5 210 22:20 22.05.2020
2775 Clouds 22 1020 40 10000 1 0 21:47 22.05.2020
2776 Clouds 21 1020 40 10000 1 0 21:23 22.05.2020
2777 Clouds 21 1020 40 10000 1 0 21:23 22.05.2020
2778 Clouds 22 1020 35 10000 1 0 20:59 22.05.2020
2779 Clouds 22 1020 35 10000 1 0 20:59 22.05.2020
2780 Clouds 22 1019 35 10000 3.1 90 20:40 22.05.2020
2781 Rain 22 1019 35 10000 3.1 90 20:20 22.05.2020
2782 Rain 23 1020 31 10000 0.5 0 19:44 22.05.2020
2783 Rain 24 1020 27 10000 3.6 300 19:25 22.05.2020
2784 Clouds 24 1020 33 0 3.6 250 18:54 22.05.2020
2785 Clouds 25 1021 36 10000 5.1 270 18:36 22.05.2020
2786 Clouds 25 1021 36 10000 5.1 270 18:18 22.05.2020
2787 Clouds 25 1021 38 10000 4.1 270 17:40 22.05.2020
2788 Clouds 25 1021 38 10000 4.1 270 17:20 22.05.2020
2789 Clouds 26 1021 36 10000 4.1 250 16:56 22.05.2020
2790 Clouds 26 1021 36 10000 5.1 240 16:37 22.05.2020
2791 Clouds 26 1021 36 10000 5.1 240 16:19 22.05.2020
2792 Clouds 26 1021 41 10000 3.6 260 15:42 22.05.2020
2793 Clouds 26 1021 41 10000 3.6 260 15:22 22.05.2020
2794 Clouds 25 1021 41 10000 3.6 250 14:46 22.05.2020
2795 Clouds 25 1021 41 10000 3.6 250 14:26 22.05.2020
2796 Clouds 25 1021 38 10000 2.1 220 13:56 22.05.2020
2797 Clouds 25 1021 44 10000 2.6 210 13:37 22.05.2020
2798 Clouds 24 1022 44 10000 2.6 140 13:19 22.05.2020
2799 Clouds 24 1022 41 10000 2.1 230 12:40 22.05.2020
2800 Clouds 23 1022 43 10000 2.1 170 12:21 22.05.2020
2801 Clouds 23 1022 43 10000 1.5 200 11:45 22.05.2020
2802 Clouds 23 1022 43 10000 1.5 200 11:22 22.05.2020
2803 Clouds 21 1022 43 10000 2.1 170 10:58 22.05.2020
2804 Clouds 21 1022 49 10000 2.1 140 10:38 22.05.2020
2805 Clouds 20 1022 49 10000 2.1 140 10:20 22.05.2020
2806 Clouds 19 1022 55 10000 2.6 130 09:48 22.05.2020
2807 Clouds 17 1022 55 10000 2.6 130 09:21 22.05.2020
2808 Clouds 16 1022 62 10000 3.1 120 08:58 22.05.2020
2809 Clouds 15 1022 67 10000 2.1 110 08:39 22.05.2020
2810 Clouds 14 1022 67 10000 2.1 110 08:19 22.05.2020
2811 Clouds 13 1022 71 10000 1.5 110 07:52 22.05.2020
2812 Clouds 10 1022 81 10000 2.6 120 07:23 22.05.2020
2813 Clouds 11 1022 81 10000 2.6 120 06:52 22.05.2020
2814 Clouds 9 1022 81 10000 2.6 100 06:29 22.05.2020
2815 Clouds 10 1022 76 10000 1.5 110 05:37 22.05.2020
2816 Clouds 10 1022 81 10000 1.5 120 04:49 22.05.2020
2817 Clouds 10 1022 81 10000 2.1 110 03:52 22.05.2020
2818 Clear 11 1022 81 10000 2.1 100 03:33 22.05.2020
2819 Clear 11 1022 76 10000 1 0 02:35 22.05.2020
2820 Clouds 12 1022 76 10000 0.5 0 01:43 22.05.2020
2821 Clouds 12 1022 76 10000 0.5 0 01:21 22.05.2020
2822 Clouds 13 1022 71 10000 1 0 00:34 22.05.2020
2823 Clouds 14 1022 71 10000 1.5 110 23:57 21.05.2020
2824 Clouds 14 1022 71 10000 1 320 23:39 21.05.2020
2825 Clear 15 1022 71 10000 1 320 23:21 21.05.2020
2826 Clear 16 1022 59 10000 0.5 0 22:57 21.05.2020
2827 Clear 16 1022 55 10000 0.5 0 22:37 21.05.2020
2828 Clear 17 1022 55 10000 0.5 0 22:19 21.05.2020
2829 Clear 18 1021 48 10000 1 20 21:47 21.05.2020
2830 Clouds 19 1021 45 10000 1 0 21:27 21.05.2020
2831 Clouds 21 1021 37 10000 2.6 290 20:57 21.05.2020
2832 Clouds 21 1021 37 10000 3.1 290 20:39 21.05.2020
2833 Clouds 22 1021 37 10000 3.1 290 20:20 21.05.2020
2834 Clouds 23 1021 33 10000 3.6 290 19:40 21.05.2020
2835 Clouds 23 1021 33 10000 3.6 290 19:19 21.05.2020
2836 Clouds 23 1021 33 10000 3.1 310 18:56 21.05.2020
2837 Clouds 24 1021 31 10000 2.1 0 18:36 21.05.2020
2838 Clouds 24 1021 31 10000 2.1 0 18:18 21.05.2020
2839 Clouds 23 1021 35 10000 4.1 300 17:43 21.05.2020
2840 Clear 23 1021 35 10000 4.1 300 17:25 21.05.2020
2841 Clear 23 1021 35 10000 3.1 0 16:47 21.05.2020
2842 Clear 24 1021 35 10000 1 0 16:27 21.05.2020
2843 Clear 23 1021 33 10000 2.6 0 15:57 21.05.2020
2844 Clear 23 1021 35 10000 2.6 0 15:38 21.05.2020
2845 Clear 23 1021 35 10000 2.6 0 15:38 21.05.2020
2846 Clear 23 1021 35 10000 2.6 0 15:20 21.05.2020
2847 Clear 23 1022 37 10000 2.6 350 14:41 21.05.2020
2848 Clear 23 1022 37 10000 2.6 350 14:19 21.05.2020
2849 Clear 22 1022 43 10000 2.1 0 13:42 21.05.2020
2850 Clouds 22 1022 43 10000 2.1 0 13:23 21.05.2020
2851 Clouds 21 1023 42 0 2.6 0 12:59 21.05.2020
2852 Clouds 21 1023 45 10000 2.1 0 12:38 21.05.2020
2853 Clear 21 1023 45 10000 2.1 0 12:19 21.05.2020
2854 Clouds 19 1023 48 10000 2.1 0 11:42 21.05.2020
2855 Clouds 19 1023 48 10000 2.1 0 11:24 21.05.2020
2856 Clouds 18 1023 52 10000 2.1 140 10:59 21.05.2020
2857 Clouds 18 1023 52 10000 2.1 120 10:39 21.05.2020
2858 Clouds 18 1023 52 10000 2.1 120 10:20 21.05.2020
2859 Clear 17 1023 55 10000 2.1 120 09:55 21.05.2020
2860 Clear 16 1023 59 10000 2.6 100 09:37 21.05.2020
2861 Clear 16 1023 59 10000 2.6 100 09:19 21.05.2020
2862 Clear 15 1023 67 0 0.5 0 08:45 21.05.2020
2863 Clouds 14 1023 67 0 0.5 0 08:26 21.05.2020
2864 Clouds 14 1023 67 0 0.5 0 08:26 21.05.2020
2865 Clouds 11 1022 87 10000 1 350 07:48 21.05.2020
2866 Clouds 11 1022 87 10000 1 350 07:27 21.05.2020
2867 Clouds 10 1022 87 0 1 350 06:52 21.05.2020
2868 Clouds 9 1022 93 10000 0.5 360 06:22 21.05.2020
2869 Clouds 10 1022 93 10000 0.5 0 05:34 21.05.2020
2870 Clouds 12 1022 87 10000 0.5 0 03:22 21.05.2020
2871 Clouds 12 1022 81 10000 1 360 03:22 21.05.2020
2872 Clouds 12 1022 87 10000 0.5 0 02:45 21.05.2020
2873 Clouds 13 1022 82 10000 1 0 02:26 21.05.2020
2874 Clouds 13 1022 76 10000 1.5 30 01:45 21.05.2020
2875 Clouds 14 1022 76 10000 1.5 30 01:21 21.05.2020
2876 Clouds 14 1022 72 10000 1.5 60 00:51 21.05.2020
2877 Clouds 15 1022 72 10000 1.5 60 00:23 21.05.2020
2878 Clouds 15 1022 67 10000 2.6 30 23:43 20.05.2020
2879 Clouds 15 1022 67 10000 2.6 30 23:20 20.05.2020
2880 Clouds 16 1021 67 10000 2.1 20 22:58 20.05.2020
2881 Clouds 17 1021 63 10000 2.6 20 22:39 20.05.2020
2882 Clouds 17 1021 63 10000 2.6 20 22:21 20.05.2020
2883 Clouds 18 1021 63 10000 2.1 20 21:40 20.05.2020
2884 Clouds 18 1021 63 10000 2.1 20 21:22 20.05.2020
2885 Clouds 19 1020 55 10000 2.1 20 20:45 20.05.2020
2886 Clouds 19 1020 55 10000 2.1 20 20:26 20.05.2020
2887 Clouds 19 1020 52 10000 3.1 30 19:58 20.05.2020
2888 Clouds 19 1020 52 10000 3.6 50 19:38 20.05.2020
2889 Clouds 20 1020 52 10000 3.6 50 19:20 20.05.2020
2890 Clouds 20 1020 46 10000 3.6 360 18:47 20.05.2020
2891 Clouds 21 1020 46 10000 3.6 360 18:28 20.05.2020
2892 Clouds 21 1020 49 10000 3.6 330 17:46 20.05.2020
2893 Clouds 21 1020 46 10000 4.6 330 17:24 20.05.2020
2894 Clouds 22 1020 46 10000 3.1 330 16:59 20.05.2020
2895 Clouds 20 1021 52 10000 2.1 0 16:41 20.05.2020
2896 Clouds 20 1021 49 10000 2.1 360 16:22 20.05.2020
2897 Clouds 20 1021 49 10000 2.1 360 15:56 20.05.2020
2898 Clouds 20 1021 52 10000 2.6 20 15:36 20.05.2020
2899 Clouds 21 1021 49 10000 2.1 310 15:18 20.05.2020
2900 Clouds 20 1021 52 10000 2.1 340 14:41 20.05.2020
2901 Clouds 20 1021 52 10000 2.1 340 14:20 20.05.2020
2902 Clouds 20 1021 55 10000 2.1 0 13:40 20.05.2020
2903 Clouds 20 1021 55 10000 2.1 0 13:19 20.05.2020
2904 Clouds 20 1021 55 10000 2.1 0 13:19 20.05.2020
2905 Clouds 18 1021 55 10000 1.5 50 12:43 20.05.2020
2906 Clouds 18 1021 55 10000 1.5 50 12:21 20.05.2020
2907 Clouds 18 1021 55 10000 1.5 50 12:21 20.05.2020
2908 Clouds 18 1021 52 10000 2.6 30 11:58 20.05.2020
2909 Clouds 18 1021 55 10000 2.1 0 11:36 20.05.2020
2910 Clouds 18 1021 55 10000 2.1 0 11:18 20.05.2020
2911 Clouds 17 1021 59 10000 1 0 10:42 20.05.2020
2912 Clouds 17 1021 59 10000 1 0 10:20 20.05.2020
2913 Clouds 16 1021 67 10000 0.5 0 09:44 20.05.2020
2914 Clouds 15 1021 67 10000 0.5 0 09:21 20.05.2020
2915 Clouds 15 1021 67 10000 0.5 0 09:21 20.05.2020
2916 Clouds 15 1021 76 10000 2.1 350 08:54 20.05.2020
2917 Clouds 14 1021 76 10000 0.5 0 08:36 20.05.2020
2918 Clouds 14 1021 76 10000 0.5 0 08:18 20.05.2020
2919 Clouds 13 1021 82 10000 1.09 25 07:41 20.05.2020
2920 Clear 13 1021 82 10000 1.06 21 07:19 20.05.2020
2921 Clear 12 1020 81 10000 0.5 0 06:34 20.05.2020
2922 Clear 12 1020 81 10000 1 350 05:22 20.05.2020
2923 Clear 12 1020 81 10000 2.1 10 04:26 20.05.2020
2924 Clear 12 1020 76 10000 0.5 0 03:38 20.05.2020
2925 Clear 14 1020 67 10000 0.5 0 01:58 20.05.2020
2926 Clear 15 1020 59 10000 1 0 01:26 20.05.2020
2927 Clear 16 1020 59 10000 2.1 20 00:42 20.05.2020
2928 Clear 16 1020 59 10000 2.1 20 00:23 20.05.2020
2929 Clear 17 1020 59 10000 2.1 20 23:40 19.05.2020
2930 Clear 17 1020 59 10000 2.1 20 23:19 19.05.2020
2931 Clear 18 1020 59 10000 2.1 10 22:56 19.05.2020
2932 Clear 19 1019 55 10000 2.1 10 22:38 19.05.2020
2933 Clouds 19 1019 55 10000 2.1 10 22:18 19.05.2020
2934 Clouds 20 1019 49 10000 3.6 350 21:55 19.05.2020
2935 Clouds 20 1019 46 10000 3.6 350 21:37 19.05.2020
2936 Clouds 20 1019 46 10000 3.6 350 21:37 19.05.2020
2937 Clouds 20 1019 46 10000 3.6 350 21:37 19.05.2020
2938 Clear 20 1019 46 10000 4.6 350 21:18 19.05.2020
2939 Clear 21 1019 46 10000 4.6 350 20:56 19.05.2020
2940 Clear 21 1019 43 10000 4.6 360 20:38 19.05.2020
2941 Clear 21 1019 43 10000 4.6 360 20:38 19.05.2020
2942 Clear 22 1019 43 10000 4.6 360 20:19 19.05.2020
2943 Clear 22 1019 43 10000 4.6 360 20:19 19.05.2020
2944 Clear 23 1018 38 10000 5.7 360 19:39 19.05.2020
2945 Clear 23 1018 38 10000 5.7 360 19:21 19.05.2020
2946 Clear 24 1018 31 10000 4.1 350 18:55 19.05.2020
2947 Clear 24 1018 29 10000 4.1 320 18:36 19.05.2020
2948 Clear 24 1018 29 10000 4.1 320 18:18 19.05.2020
2949 Clear 25 1018 27 10000 5.7 310 17:40 19.05.2020
2950 Clear 25 1018 27 10000 5.7 310 17:20 19.05.2020
2951 Clear 24 1018 29 10000 4.6 300 16:56 19.05.2020
2952 Clear 24 1019 27 10000 6.2 290 16:37 19.05.2020
2953 Clear 24 1019 27 10000 6.2 290 16:19 19.05.2020
2954 Clear 24 1019 31 10000 4.1 320 15:44 19.05.2020
2955 Clear 24 1019 31 10000 4.1 320 15:21 19.05.2020
2956 Clear 24 1019 35 10000 4.6 340 14:55 19.05.2020
2957 Clear 24 1020 33 10000 3.6 330 14:37 19.05.2020
2958 Clear 23 1020 35 10000 4.6 300 14:19 19.05.2020
2959 Clear 23 1020 35 10000 4.6 300 13:56 19.05.2020
2960 Clear 23 1020 35 10000 4.6 300 13:37 19.05.2020
2961 Clear 23 1020 35 10000 4.6 300 13:37 19.05.2020
2962 Clear 23 1020 35 10000 4.6 300 13:18 19.05.2020
2963 Clear 22 1021 40 10000 3.6 280 12:55 19.05.2020
2964 Clear 22 1021 43 10000 3.6 290 12:36 19.05.2020
2965 Clear 22 1021 43 10000 3.6 290 12:18 19.05.2020
2966 Clouds 21 1021 49 10000 3.6 0 11:41 19.05.2020
2967 Clouds 21 1021 49 10000 3.6 0 11:22 19.05.2020
2968 Clear 20 1021 52 10000 2.1 280 10:56 19.05.2020
2969 Clear 19 1021 55 10000 2.1 290 10:38 19.05.2020
2970 Clear 19 1021 55 10000 2.1 290 10:18 19.05.2020
2971 Clear 17 1021 59 10000 1.5 310 09:43 19.05.2020
2972 Clear 16 1021 59 10000 1.5 310 09:24 19.05.2020
2973 Clear 15 1021 62 10000 1 0 08:47 19.05.2020
2974 Clear 14 1021 67 10000 0.5 0 08:25 19.05.2020
2975 Clear 13 1021 76 10000 1 120 07:48 19.05.2020
2976 Clear 12 1021 81 10000 0.5 350 07:28 19.05.2020
2977 Clear 10 1021 87 10000 1.5 110 06:55 19.05.2020
2978 Clear 8 1021 87 10000 2.6 100 06:31 19.05.2020
2979 Clear 10 1021 81 10000 3.1 100 05:43 19.05.2020
2980 Clear 10 1021 81 10000 3.1 100 05:19 19.05.2020
2981 Clear 10 1021 87 10000 3.6 100 04:36 19.05.2020
2982 Clear 10 1022 81 10000 1 0 02:24 19.05.2020
2983 Clear 12 1022 76 10000 2.1 120 00:48 19.05.2020
2984 Clear 12 1022 76 10000 0.5 0 00:29 19.05.2020
2985 Clear 13 1022 71 10000 1 120 23:59 18.05.2020
2986 Clear 13 1022 67 10000 1 350 23:40 18.05.2020
2987 Clear 14 1022 67 10000 1 350 23:20 18.05.2020
2988 Clear 15 1022 62 10000 0.5 30 22:54 18.05.2020
2989 Clear 15 1022 62 10000 0.5 30 22:36 18.05.2020
2990 Clear 16 1022 62 10000 0.5 30 22:18 18.05.2020
2991 Clear 18 1021 48 10000 1 320 21:41 18.05.2020
2992 Clear 18 1021 48 10000 1 320 21:20 18.05.2020
2993 Clouds 20 1021 40 10000 2.6 320 20:57 18.05.2020
2994 Clouds 20 1021 40 10000 2.6 320 20:37 18.05.2020
2995 Clouds 21 1022 37 10000 3.6 300 20:18 18.05.2020
2996 Clouds 21 1021 37 10000 3.6 300 19:41 18.05.2020
2997 Clouds 21 1021 37 10000 4.1 330 19:19 18.05.2020
2998 Clouds 22 1021 37 10000 4.1 330 18:55 18.05.2020
2999 Clouds 21 1022 37 10000 2.6 320 18:37 18.05.2020
3000 Clouds 22 1022 37 10000 2.6 320 18:19 18.05.2020
3001 Clear 22 1022 33 10000 4.1 280 17:38 18.05.2020
3002 Clouds 22 1022 33 10000 4.1 280 17:18 18.05.2020
3003 Clear 22 1022 33 10000 4.1 280 17:18 18.05.2020
3004 Clear 22 1022 33 10000 4.1 280 17:18 18.05.2020
3005 Clear 22 1022 33 10000 4.1 310 16:55 18.05.2020
3006 Clear 22 1022 33 10000 3.6 290 16:36 18.05.2020
3007 Clear 22 1022 33 10000 3.6 290 16:18 18.05.2020
3008 Clear 22 1023 33 10000 3.6 250 15:42 18.05.2020
3009 Clear 22 1023 33 10000 3.6 250 15:24 18.05.2020
3010 Clear 22 1023 32 10000 3.6 280 14:59 18.05.2020
3011 Clear 22 1023 35 10000 4.1 320 14:39 18.05.2020
3012 Clear 22 1023 35 10000 4.1 320 14:21 18.05.2020
3013 Clear 21 1024 37 10000 3.1 0 13:42 18.05.2020
3014 Clear 21 1024 37 10000 3.1 0 13:22 18.05.2020
3015 Clear 20 1024 34 10000 1.5 0 12:58 18.05.2020
3016 Clear 20 1024 39 10000 2.1 240 12:40 18.05.2020
3017 Clear 19 1024 39 10000 1 0 12:20 18.05.2020
3018 Clear 19 1024 39 10000 1 0 11:59 18.05.2020
3019 Clear 19 1024 39 10000 1.5 0 11:41 18.05.2020
3020 Clear 18 1024 39 10000 1.5 0 11:22 18.05.2020
3021 Clear 17 1024 48 10000 0.5 0 10:46 18.05.2020
3022 Clear 16 1024 48 10000 0.5 0 10:24 18.05.2020
3023 Clear 14 1024 62 10000 1.5 140 09:46 18.05.2020
3024 Clear 13 1024 62 10000 1.5 140 09:27 18.05.2020
3025 Clear 11 1024 71 10000 1 0 08:59 18.05.2020
3026 Clear 10 1024 71 10000 0.5 0 08:39 18.05.2020
3027 Clear 10 1024 71 10000 0.5 0 08:21 18.05.2020
3028 Clear 7 1024 87 10000 0.5 0 07:43 18.05.2020
3029 Clear 7 1024 87 10000 0.5 0 07:23 18.05.2020
3030 Clear 6 1023 86 10000 1.5 70 06:47 18.05.2020
3031 Clear 5 1023 93 10000 1.5 90 06:23 18.05.2020
3032 Clear 6 1023 86 10000 2.1 100 05:43 18.05.2020
3033 Clear 6 1023 86 10000 0.5 0 03:39 18.05.2020
3034 Clear 7 1023 87 10000 0.5 10 02:56 18.05.2020
3035 Clear 8 1023 81 10000 1.5 80 01:45 18.05.2020
3036 Clear 9 1023 81 10000 0.5 0 00:41 18.05.2020
3037 Clear 9 1023 76 10000 0.5 10 00:18 18.05.2020
3038 Clear 9 1023 81 10000 0.5 0 00:18 18.05.2020
3039 Clear 10 1023 66 10000 0.5 0 23:42 17.05.2020
3040 Clear 10 1023 66 10000 0.5 0 23:42 17.05.2020
3041 Clear 10 1023 66 10000 0.5 0 23:21 17.05.2020
3042 Clear 11 1023 66 10000 0.5 0 22:59 17.05.2020
3043 Clear 12 1023 58 10000 0.5 0 22:39 17.05.2020
3044 Clear 13 1023 58 10000 0.5 0 22:21 17.05.2020
3045 Clear 14 1022 54 10000 1.5 30 21:59 17.05.2020
3046 Clear 15 1022 48 10000 1.5 20 21:41 17.05.2020
3047 Clear 15 1022 48 10000 1.5 20 21:19 17.05.2020
3048 Clear 17 1022 39 10000 2.6 340 20:55 17.05.2020
3049 Clear 17 1022 39 10000 2.6 340 20:55 17.05.2020
3050 Clear 17 1022 39 10000 3.6 320 20:36 17.05.2020
3051 Clouds 17 1022 39 10000 3.6 320 20:18 17.05.2020
3052 Clouds 18 1022 37 10000 3.1 300 19:42 17.05.2020
3053 Clouds 19 1022 37 10000 3.1 300 19:23 17.05.2020
3054 Clouds 19 1022 37 10000 2.1 300 18:55 17.05.2020
3055 Clouds 19 1022 37 10000 4.1 320 18:37 17.05.2020
3056 Clouds 19 1022 37 10000 4.1 320 18:19 17.05.2020
3057 Clouds 19 1022 39 10000 4.6 320 17:40 17.05.2020
3058 Clouds 19 1022 37 10000 4.6 340 17:21 17.05.2020
3059 Clouds 19 1022 37 10000 4.6 340 17:21 17.05.2020
3060 Clouds 19 1022 37 10000 4.6 340 17:21 17.05.2020
3061 Clouds 19 1022 37 10000 4.6 340 16:56 17.05.2020
3062 Clouds 19 1022 37 10000 4.1 290 16:37 17.05.2020
3063 Clouds 19 1022 37 10000 4.1 290 16:19 17.05.2020
3064 Clouds 20 1022 37 10000 4.6 310 15:45 17.05.2020
3065 Clouds 20 1022 37 10000 4.6 310 15:24 17.05.2020
3066 Clouds 20 1022 37 10000 3.1 310 14:57 17.05.2020
3067 Clouds 19 1022 39 10000 4.6 310 14:38 17.05.2020
3068 Clear 19 1022 39 10000 4.6 310 14:19 17.05.2020
3069 Clear 19 1022 39 10000 4.6 310 14:19 17.05.2020
3070 Clear 18 1022 42 10000 3.1 320 13:41 17.05.2020
3071 Clear 18 1022 42 10000 3.1 320 13:20 17.05.2020
3072 Clear 6 1020 86 10000 2.1 100 05:22 17.05.2020
3073 Clear 6 1019 86 10000 0.5 0 03:31 17.05.2020
3074 Clouds 7 1019 81 10000 0.5 0 02:26 17.05.2020
3075 Clouds 8 1019 75 10000 2.1 90 01:53 17.05.2020
3076 Clouds 9 1019 66 10000 1 0 00:46 17.05.2020
3077 Clouds 9 1019 66 10000 1 0 00:26 17.05.2020
3078 Clouds 10 1019 66 10000 0.5 10 23:42 16.05.2020
3079 Clear 10 1019 66 10000 0.5 10 23:23 16.05.2020
3080 Clear 11 1019 66 10000 1.5 360 22:59 16.05.2020
3081 Clear 12 1019 58 10000 2.1 360 22:41 16.05.2020
3082 Clear 12 1019 58 10000 2.1 360 22:22 16.05.2020
3083 Clear 13 1019 58 10000 1.5 340 21:56 16.05.2020
3084 Clear 15 1019 58 10000 1.5 350 21:37 16.05.2020
3085 Clear 15 1019 58 10000 1.5 350 21:19 16.05.2020
3086 Clear 16 1019 39 10000 1.5 340 20:55 16.05.2020
3087 Clear 17 1019 36 10000 2.1 340 20:36 16.05.2020
3088 Clear 18 1019 36 10000 2.1 340 20:18 16.05.2020
3089 Clear 18 1019 34 10000 2.1 0 19:42 16.05.2020
3090 Clear 18 1019 34 10000 2.1 0 19:23 16.05.2020
3091 Clear 18 1019 34 10000 2.1 0 19:23 16.05.2020
3092 Clear 18 1019 32 10000 2.1 270 18:57 16.05.2020
3093 Clear 19 1019 34 10000 1.5 0 18:38 16.05.2020
3094 Clear 19 1019 34 10000 1.5 0 18:20 16.05.2020
3095 Clear 19 1020 32 10000 2.1 0 17:41 16.05.2020
3096 Clear 19 1020 32 10000 2.1 0 17:21 16.05.2020
3097 Clear 19 1020 36 10000 2.1 0 16:44 16.05.2020
3098 Clear 20 1020 36 10000 2.1 0 16:25 16.05.2020
3099 Clear 19 1020 34 10000 2.1 0 15:59 16.05.2020
3100 Clear 19 1021 36 10000 3.1 290 15:41 16.05.2020
3101 Clear 19 1021 36 10000 2.1 0 15:21 16.05.2020
3102 Clear 19 1021 36 10000 2.1 0 14:56 16.05.2020
3103 Clear 19 1021 34 10000 2.1 0 14:38 16.05.2020
3104 Clear 18 1021 34 10000 2.1 0 14:19 16.05.2020
3105 Clear 18 1022 39 10000 3.1 300 13:42 16.05.2020
3106 Clear 18 1022 39 10000 3.1 300 13:23 16.05.2020
3107 Clear 17 1022 41 10000 2.6 0 12:58 16.05.2020
3108 Clouds 16 1022 48 10000 2.6 0 12:39 16.05.2020
3109 Clouds 16 1022 48 10000 2.6 0 12:18 16.05.2020
3110 Clouds 14 1022 58 10000 1.5 260 11:41 16.05.2020
3111 Clouds 14 1022 58 10000 1.5 260 11:23 16.05.2020
3112 Clear 14 1023 62 10000 2.1 200 10:58 16.05.2020
3113 Clear 13 1023 66 10000 1 0 10:39 16.05.2020
3114 Clear 13 1023 66 10000 1 0 10:20 16.05.2020
3115 Clear 12 1023 66 10000 2.1 130 09:46 16.05.2020
3116 Clear 10 1023 66 10000 1 0 09:28 16.05.2020
3117 Clear 9 1022 66 10000 0.5 0 08:46 16.05.2020
3118 Clear 8 1022 75 10000 0.5 0 08:24 16.05.2020
3119 Clear 7 1022 75 10000 0.5 0 07:59 16.05.2020
3120 Clouds 6 1022 86 10000 0.5 0 07:40 16.05.2020
3121 Clouds 4 1022 93 10000 0.5 0 07:21 16.05.2020
3122 Fog 4 1022 78 10000 0.5 0 06:47 16.05.2020
3123 Fog 3 1022 85 10000 0.5 0 06:19 16.05.2020
3124 Fog 3 1021 93 10000 1 330 05:42 16.05.2020
3125 Fog 4 1021 93 10000 1 330 05:20 16.05.2020
3126 Clear 5 1021 86 10000 1.5 40 03:27 16.05.2020
3127 Clear 5 1021 93 10000 0.5 0 02:42 16.05.2020
3128 Clear 5 1021 93 10000 0.5 0 02:18 16.05.2020
3129 Clear 5 1021 86 10000 2.1 340 01:40 16.05.2020
3130 Clear 6 1021 75 10000 2.1 120 00:57 16.05.2020
3131 Clear 7 1021 81 10000 3.6 100 00:39 16.05.2020
3132 Clear 7 1021 81 10000 3.6 100 00:19 16.05.2020
3133 Clear 7 1021 81 10000 0.5 0 23:39 15.05.2020
3134 Clear 8 1021 81 10000 0.5 0 23:19 15.05.2020
3135 Clear 9 1020 61 10000 0.5 0 22:42 15.05.2020
3136 Clear 10 1020 61 10000 0.5 0 22:20 15.05.2020
3137 Clear 10 1020 62 10000 0.5 0 21:57 15.05.2020
3138 Clear 12 1019 54 10000 2.1 300 21:39 15.05.2020
3139 Clouds 13 1019 44 10000 3.1 300 21:20 15.05.2020
3140 Clouds 14 1019 44 10000 3.1 300 20:55 15.05.2020
3141 Clouds 14 1019 41 10000 2.1 300 20:37 15.05.2020
3142 Clouds 15 1019 44 10000 1.5 310 20:18 15.05.2020
3143 Clouds 15 1019 41 10000 2.6 300 19:43 15.05.2020
3144 Clouds 15 1019 41 10000 2.6 300 19:23 15.05.2020
3145 Clouds 16 1019 38 10000 2.6 300 18:54 15.05.2020
3146 Clouds 16 1019 38 10000 2.6 300 18:54 15.05.2020
3147 Clouds 15 1018 41 10000 3.1 310 18:36 15.05.2020
3148 Clouds 15 1018 41 10000 4.6 310 18:18 15.05.2020
3149 Clouds 15 1018 41 10000 3.1 290 17:37 15.05.2020
3150 Clouds 15 1018 41 10000 3.1 290 17:19 15.05.2020
3151 Clouds 16 1018 38 10000 3.1 320 16:56 15.05.2020
3152 Clouds 16 1018 41 10000 2.6 310 16:37 15.05.2020
3153 Clouds 16 1018 41 10000 2.6 310 16:18 15.05.2020
3154 Clouds 16 1017 38 10000 3.6 0 15:41 15.05.2020
3155 Clouds 16 1017 38 10000 3.6 0 15:41 15.05.2020
3156 Clouds 15 1017 38 10000 3.6 0 15:21 15.05.2020
3157 Clouds 16 1017 38 10000 1.5 0 14:58 15.05.2020
3158 Clouds 15 1017 41 10000 3.1 320 14:40 15.05.2020
3159 Clouds 15 1017 41 10000 3.1 320 14:22 15.05.2020
3160 Clouds 14 1016 41 10000 3.1 0 13:42 15.05.2020
3161 Clouds 14 1016 41 10000 3.1 0 13:22 15.05.2020
3162 Clouds 15 1016 41 10000 5.1 360 12:56 15.05.2020
3163 Clouds 14 1016 41 10000 3.1 30 12:37 15.05.2020
3164 Clouds 14 1016 44 10000 4.6 70 12:18 15.05.2020
3165 Clouds 14 1016 44 10000 4.6 70 11:56 15.05.2020
3166 Clouds 14 1015 44 10000 4.1 50 11:37 15.05.2020
3167 Clouds 14 1015 47 10000 4.1 60 11:19 15.05.2020
3168 Clouds 13 1015 47 10000 4.1 60 10:56 15.05.2020
3169 Clouds 13 1015 54 10000 4.1 40 10:37 15.05.2020
3170 Clouds 12 1015 54 10000 4.1 40 10:19 15.05.2020
3171 Clouds 11 1015 57 10000 4.6 40 09:40 15.05.2020
3172 Clouds 10 1015 57 10000 4.6 40 09:20 15.05.2020
3173 Clouds 10 1014 61 10000 4.6 40 08:58 15.05.2020
3174 Clouds 10 1014 61 10000 4.6 40 08:58 15.05.2020
3175 Clouds 9 1014 66 10000 3.6 40 08:38 15.05.2020
3176 Clouds 9 1014 66 10000 3.6 40 08:19 15.05.2020
3177 Clouds 9 1014 66 10000 1.5 20 07:44 15.05.2020
3178 Clouds 8 1014 66 10000 1.5 20 07:25 15.05.2020
3179 Clouds 8 1014 65 10000 3.1 20 06:56 15.05.2020
3180 Clouds 8 1014 66 10000 2.1 20 05:53 15.05.2020
3181 Clouds 9 1014 66 10000 2.6 30 04:29 15.05.2020
3182 Clouds 9 1014 66 10000 3.1 30 03:48 15.05.2020
3183 Clouds 10 1014 66 10000 3.1 40 02:40 15.05.2020
3184 Clouds 10 1014 66 10000 3.6 30 01:31 15.05.2020
3185 Clouds 10 1015 66 10000 3.6 30 00:56 15.05.2020
3186 Clouds 10 1015 62 10000 3.6 30 00:37 15.05.2020
3187 Clouds 11 1015 62 10000 3.6 30 00:19 15.05.2020
3188 Clouds 11 1015 62 10000 4.1 30 23:40 14.05.2020
3189 Clouds 11 1015 62 10000 3.6 20 23:18 14.05.2020
3190 Clouds 11 1015 58 10000 3.6 30 22:41 14.05.2020
3191 Clouds 12 1015 58 10000 3.6 30 22:20 14.05.2020
3192 Clouds 12 1015 58 10000 3.1 30 21:58 14.05.2020
3193 Clouds 12 1015 62 10000 1.5 30 21:39 14.05.2020
3194 Clouds 12 1015 62 10000 1.5 30 21:19 14.05.2020
3195 Clouds 13 1014 58 10000 2.6 10 20:55 14.05.2020
3196 Clouds 13 1014 54 10000 2.6 10 20:37 14.05.2020
3197 Clouds 13 1014 54 10000 2.6 10 20:37 14.05.2020
3198 Clouds 13 1014 54 10000 2.6 10 20:18 14.05.2020
3199 Clouds 13 1014 58 10000 2.1 30 19:41 14.05.2020
3200 Clouds 13 1014 58 10000 2.1 30 19:21 14.05.2020
3201 Clouds 14 1014 54 10000 3.6 60 18:59 14.05.2020
3202 Clouds 14 1014 50 10000 4.1 60 18:38 14.05.2020
3203 Clouds 14 1014 50 10000 4.1 60 18:20 14.05.2020
3204 Clouds 14 1014 50 10000 3.1 30 17:59 14.05.2020
3205 Clouds 14 1014 50 10000 3.6 30 17:38 14.05.2020
3206 Clouds 14 1014 50 10000 3.6 30 17:19 14.05.2020
3207 Clouds 14 1014 50 10000 3.1 0 16:59 14.05.2020
3208 Clouds 15 1014 47 10000 3.6 20 16:39 14.05.2020
3209 Clouds 15 1014 47 10000 3.6 20 16:20 14.05.2020
3210 Clouds 14 1015 54 10000 3.6 350 15:56 14.05.2020
3211 Clouds 14 1015 54 10000 3.6 350 15:38 14.05.2020
3212 Clouds 14 1015 54 10000 3.6 350 15:19 14.05.2020
3213 Clouds 14 1015 54 10000 3.6 350 15:19 14.05.2020
3214 Clouds 13 1015 54 10000 1.5 30 14:55 14.05.2020
3215 Clouds 13 1015 54 10000 2.1 40 14:36 14.05.2020
3216 Clouds 13 1015 54 10000 2.1 40 14:18 14.05.2020
3217 Clouds 13 1015 50 10000 3.1 60 13:44 14.05.2020
3218 Clouds 13 1015 50 10000 3.1 60 13:20 14.05.2020
3219 Clouds 13 1015 58 10000 2.1 40 12:59 14.05.2020
3220 Clouds 13 1015 58 10000 3.1 20 12:40 14.05.2020
3221 Clouds 13 1015 62 10000 3.1 80 12:20 14.05.2020
3222 Clouds 13 1015 62 10000 3.1 80 11:59 14.05.2020
3223 Clouds 13 1015 62 10000 3.1 80 11:59 14.05.2020
3224 Clouds 12 1015 66 10000 2.6 0 11:39 14.05.2020
3225 Clouds 12 1015 66 10000 2.6 0 11:21 14.05.2020
3226 Clouds 11 1015 71 10000 2.6 0 10:56 14.05.2020
3227 Clouds 11 1015 71 10000 2.1 90 10:38 14.05.2020
3228 Clouds 10 1015 71 10000 2.1 90 10:20 14.05.2020
3229 Clouds 9 1014 81 10000 2.6 360 09:42 14.05.2020
3230 Clouds 9 1014 81 10000 2.6 360 09:23 14.05.2020
3231 Clouds 8 1014 87 10000 2.6 350 08:42 14.05.2020
3232 Clouds 8 1014 87 10000 2.6 350 08:21 14.05.2020
3233 Clouds 8 1014 87 9000 2.1 330 07:46 14.05.2020
3234 Clouds 7 1013 100 9000 0.5 0 07:25 14.05.2020
3235 Clouds 7 1013 93 9000 0.5 0 06:55 14.05.2020
3236 Clouds 7 1013 93 9000 1 10 06:31 14.05.2020
3237 Clouds 7 1012 93 10000 1 0 05:56 14.05.2020
3238 Clouds 7 1012 93 10000 0.5 0 05:35 14.05.2020
3239 Drizzle 7 1012 93 10000 0.5 0 04:32 14.05.2020
3240 Clouds 7 1011 93 10000 1 0 03:28 14.05.2020
3241 Clouds 7 1011 93 10000 1 0 02:42 14.05.2020
3242 Rain 7 1011 93 10000 1.5 350 01:56 14.05.2020
3243 Rain 7 1010 93 10000 1.5 330 01:24 14.05.2020
3244 Rain 7 1010 93 10000 1.5 310 00:48 14.05.2020
3245 Rain 7 1010 93 10000 1 40 00:24 14.05.2020
3246 Clouds 7 1010 93 10000 0.5 0 23:44 13.05.2020
3247 Clouds 7 1010 93 10000 0.5 0 23:21 13.05.2020
3248 Clouds 7 1009 93 10000 1 70 22:54 13.05.2020
3249 Clouds 7 1009 93 10000 1 70 22:54 13.05.2020
3250 Clouds 8 1009 93 10000 1 70 22:54 13.05.2020
3251 Clouds 8 1009 93 10000 1 70 22:54 13.05.2020
3252 Clouds 8 1010 93 10000 1 80 22:36 13.05.2020
3253 Clouds 8 1010 93 10000 1 80 22:18 13.05.2020
3254 Rain 8 1009 87 10000 0.5 0 21:55 13.05.2020
3255 Rain 8 1009 87 10000 2.1 140 21:37 13.05.2020
3256 Rain 8 1009 87 10000 2.1 130 21:18 13.05.2020
3257 Rain 8 1009 81 10000 3.1 140 20:41 13.05.2020
3258 Rain 9 1009 81 10000 3.1 140 20:22 13.05.2020
3259 Rain 9 1009 76 10000 3.6 170 19:43 13.05.2020
3260 Rain 9 1009 76 10000 3.6 170 19:24 13.05.2020
3261 Rain 10 1009 71 10000 4.6 150 18:56 13.05.2020
3262 Rain 13 1009 71 10000 4.6 160 18:37 13.05.2020
3263 Rain 13 1009 71 10000 4.6 160 18:18 13.05.2020
3264 Clouds 14 1009 62 10000 4.6 160 17:39 13.05.2020
3265 Clouds 12 1009 62 10000 4.6 160 17:19 13.05.2020
3266 Clouds 13 1009 58 10000 6.7 180 16:55 13.05.2020
3267 Clouds 13 1009 58 10000 6.7 180 16:55 13.05.2020
3268 Clouds 13 1009 47 10000 2.6 170 16:37 13.05.2020
3269 Clouds 14 1009 47 10000 2.6 170 16:18 13.05.2020
3270 Clouds 14 1009 41 10000 1.5 0 15:42 13.05.2020
3271 Clouds 15 1009 41 10000 1.5 0 15:19 13.05.2020
3272 Clouds 14 1010 41 10000 2.1 90 14:57 13.05.2020
3273 Clouds 15 1010 35 10000 1.5 0 14:39 13.05.2020
3274 Clouds 14 1010 33 10000 1.5 0 14:21 13.05.2020
3275 Clouds 14 1010 41 10000 1.5 0 13:56 13.05.2020
3276 Clouds 14 1010 41 10000 2.1 0 13:38 13.05.2020
3277 Clouds 14 1010 41 10000 2.1 0 13:19 13.05.2020
3278 Clouds 13 1011 47 10000 1.5 0 12:43 13.05.2020
3279 Clouds 13 1011 47 10000 1.5 0 12:22 13.05.2020
3280 Clouds 13 1012 43 10000 2.1 0 11:57 13.05.2020
3281 Clouds 13 1012 47 10000 2.1 0 11:38 13.05.2020
3282 Clouds 12 1012 47 10000 2.1 0 11:20 13.05.2020
3283 Clouds 12 1012 50 10000 2.1 310 10:59 13.05.2020
3284 Clouds 11 1013 50 10000 1.5 0 10:39 13.05.2020
3285 Clouds 12 1013 50 10000 1.5 0 10:20 13.05.2020
3286 Clouds 10 1013 61 10000 0.5 0 09:57 13.05.2020
3287 Clouds 9 1013 61 10000 1 0 09:38 13.05.2020
3288 Clouds 8 1013 61 10000 1 0 09:20 13.05.2020
3289 Clouds 6 1013 70 10000 0.5 0 08:40 13.05.2020
3290 Clouds 6 1013 70 10000 0.5 0 08:21 13.05.2020
3291 Clouds 5 1013 75 10000 0.5 0 07:58 13.05.2020
3292 Clouds 4 1013 86 10000 2.1 350 07:36 13.05.2020
3293 Clouds 2 1013 66 10000 1 40 06:55 13.05.2020
3294 Clouds 2 1013 66 10000 1 350 06:36 13.05.2020
3295 Clouds 2 1012 73 10000 1 0 05:48 13.05.2020
3296 Clouds 2 1013 73 10000 1.5 100 04:21 13.05.2020
3297 Clouds 3 1013 86 10000 0.5 0 02:58 13.05.2020
3298 Clouds 3 1014 69 10000 0.5 0 01:47 13.05.2020
3299 Clouds 3 1014 86 10000 1 0 01:20 13.05.2020
3300 Clouds 4 1014 80 10000 0.5 0 00:39 13.05.2020
3301 Clouds 4 1014 80 10000 0.5 0 00:18 13.05.2020
3302 Clouds 5 1014 70 10000 1.5 40 23:39 12.05.2020
3303 Clouds 6 1014 70 10000 1.5 40 23:20 12.05.2020
3304 Clouds 6 1015 75 10000 1.5 30 22:55 12.05.2020
3305 Clouds 6 1015 75 10000 2.1 10 22:36 12.05.2020
3306 Clouds 8 1015 70 10000 2.1 360 22:18 12.05.2020
3307 Clouds 8 1015 70 10000 2.1 360 21:54 12.05.2020
3308 Clouds 8 1014 61 10000 1.5 350 21:36 12.05.2020
3309 Clouds 9 1014 61 10000 1.5 350 21:18 12.05.2020
3310 Clouds 10 1015 40 10000 2.6 350 20:41 12.05.2020
3311 Clouds 11 1015 40 10000 2.6 350 20:23 12.05.2020
3312 Clouds 12 1015 43 10000 3.6 350 19:59 12.05.2020
3313 Clouds 12 1015 40 10000 3.1 320 19:41 12.05.2020
3314 Clouds 12 1015 40 10000 3.1 320 19:22 12.05.2020
3315 Clouds 12 1015 40 10000 3.1 330 18:58 12.05.2020
3316 Clouds 12 1015 35 10000 1.5 0 18:40 12.05.2020
3317 Clouds 12 1015 35 10000 1.5 0 18:21 12.05.2020
3318 Clouds 13 1016 37 10000 3.1 320 17:44 12.05.2020
3319 Clear 13 1016 37 10000 3.1 320 17:25 12.05.2020
3320 Clear 12 1016 40 10000 3.1 0 16:58 12.05.2020
3321 Clear 13 1017 38 10000 2.6 260 16:40 12.05.2020
3322 Clear 12 1017 40 10000 2.6 0 16:19 12.05.2020
3323 Clear 12 1017 40 10000 2.6 0 15:54 12.05.2020
3324 Clear 12 1017 40 10000 2.6 0 15:36 12.05.2020
3325 Clear 12 1017 37 10000 2.1 0 15:18 12.05.2020
3326 Clear 12 1017 37 10000 2.1 0 14:54 12.05.2020
3327 Clear 12 1017 40 10000 2.1 240 14:36 12.05.2020
3328 Clear 12 1017 40 10000 2.1 240 14:18 12.05.2020
3329 Clear 11 1018 43 10000 2.6 0 13:54 12.05.2020
3330 Clear 11 1018 47 0 0.49 325 13:36 12.05.2020
3331 Clear 11 1018 47 0 0.45 119 13:36 12.05.2020
3332 Clear 11 1018 47 0 0.45 119 13:18 12.05.2020
3333 Clear 11 1018 54 0 0.45 78 12:54 12.05.2020
3334 Clear 10 1019 51 0 0.22 47 12:36 12.05.2020
3335 Clear 9 1021 60 0 0.89 321 12:18 12.05.2020
3336 Clouds 8 1019 41 10000 1.5 0 11:55 12.05.2020
3337 Clouds 7 1019 41 10000 1.5 0 11:36 12.05.2020
3338 Clouds 7 1019 47 10000 1.5 0 11:18 12.05.2020
3339 Clouds 6 1019 75 10000 1 0 10:42 12.05.2020
3340 Clouds 5 1019 75 10000 1 0 10:22 12.05.2020
3341 Clouds 4 1019 80 10000 1 0 09:59 12.05.2020
3342 Clouds 3 1019 56 6000 1 0 09:40 12.05.2020
3343 Clouds 3 1019 63 6000 1 0 09:21 12.05.2020
3344 Fog 2 1019 64 800 1.5 330 08:57 12.05.2020
3345 Fog 1 1019 64 800 2.1 330 08:38 12.05.2020
3346 Fog 1 1018 74 3000 2.6 340 08:19 12.05.2020
3347 Fog 1 1018 86 6000 0.5 50 07:42 12.05.2020
3348 Fog 0 1018 86 6000 0.5 50 07:22 12.05.2020
3349 Fog 0 1018 86 6000 0.5 0 06:49 12.05.2020
3350 Fog -1 1017 100 10000 1 120 06:27 12.05.2020
3351 Clear 0 1017 100 10000 0.5 0 05:50 12.05.2020
3352 Fog 0 1017 96 10000 0.5 0 05:30 12.05.2020
3353 Clear 1 1016 93 10000 1.5 340 03:27 12.05.2020
3354 Clear 1 1015 93 10000 1.5 320 02:44 12.05.2020
3355 Clouds 1 1015 93 10000 1.5 320 02:24 12.05.2020
3356 Clouds 2 1014 86 10000 3.6 320 01:27 12.05.2020
3357 Clouds 3 1013 93 10000 4.1 320 00:27 12.05.2020
3358 Clouds 3 1013 86 10000 4.1 320 23:58 11.05.2020
3359 Clouds 4 1012 93 10000 4.6 320 23:40 11.05.2020
3360 Clouds 4 1012 93 10000 4.6 320 23:20 11.05.2020
3361 Clouds 4 1011 93 10000 3.6 330 22:59 11.05.2020
3362 Drizzle 4 1011 93 10000 4.1 320 22:40 11.05.2020
3363 Drizzle 4 1011 93 10000 4.1 320 22:20 11.05.2020
3364 Rain 4 1010 93 10000 4.1 330 21:58 11.05.2020
3365 Rain 4 1009 93 10000 4.6 330 21:40 11.05.2020
3366 Rain 4 1009 93 10000 4.6 330 21:19 11.05.2020
3367 Rain 4 1009 93 10000 5.1 340 20:58 11.05.2020
3368 Rain 4 1008 93 10000 6.2 340 20:40 11.05.2020
3369 Rain 4 1008 93 10000 6.2 340 20:20 11.05.2020
3370 Rain 4 1007 93 10000 7.2 350 19:55 11.05.2020
3371 Rain 4 1006 86 10000 7.2 340 19:36 11.05.2020
3372 Rain 5 1006 93 10000 5.7 350 19:18 11.05.2020
3373 Rain 5 1006 93 10000 5.7 350 18:55 11.05.2020
3374 Rain 5 1005 93 10000 6.2 340 18:36 11.05.2020
3375 Rain 5 1004 87 10000 6.2 340 18:18 11.05.2020
3376 Rain 6 1003 93 10000 6.2 350 17:41 11.05.2020
3377 Rain 6 1003 93 10000 6.2 350 17:22 11.05.2020
3378 Rain 6 1002 93 10000 5.7 340 16:59 11.05.2020
3379 Rain 6 1002 93 10000 6.2 350 16:40 11.05.2020
3380 Rain 6 1002 93 10000 6.2 350 16:21 11.05.2020
3381 Rain 6 1002 93 9000 7.7 360 15:57 11.05.2020
3382 Rain 6 1001 93 6000 6.7 340 15:39 11.05.2020
3383 Rain 6 1001 93 6000 6.7 340 15:18 11.05.2020
3384 Rain 7 1001 93 7000 5.7 340 14:42 11.05.2020
3385 Rain 7 1001 93 7000 5.7 340 14:42 11.05.2020
3386 Rain 7 1001 93 7000 5.7 340 14:23 11.05.2020
3387 Rain 7 1000 93 10000 5.7 350 13:59 11.05.2020
3388 Rain 8 1000 93 10000 6.7 350 13:41 11.05.2020
3389 Rain 9 1000 93 10000 6.7 350 13:19 11.05.2020
3390 Drizzle 9 1000 87 10000 8.2 360 12:58 11.05.2020
3391 Rain 9 999 87 10000 7.2 360 12:39 11.05.2020
3392 Drizzle 11 999 87 10000 7.2 360 12:21 11.05.2020
3393 Rain 13 999 93 10000 7.2 360 11:56 11.05.2020
3394 Drizzle 14 999 87 10000 6.7 360 11:37 11.05.2020
3395 Drizzle 14 999 87 10000 6.7 360 11:19 11.05.2020
3396 Clouds 14 999 82 10000 5.7 10 10:54 11.05.2020
3397 Clouds 15 999 77 10000 4.1 20 10:36 11.05.2020
3398 Clouds 15 999 77 10000 4.1 20 10:36 11.05.2020
3399 Clouds 16 999 77 10000 4.1 20 10:18 11.05.2020
3400 Clouds 17 999 82 10000 4.1 40 09:42 11.05.2020
3401 Clouds 16 999 82 10000 4.1 40 09:22 11.05.2020
3402 Clouds 16 999 82 10000 3.1 40 08:59 11.05.2020
3403 Clouds 15 1000 87 10000 1.5 10 08:39 11.05.2020
3404 Clouds 15 1000 87 10000 1.5 10 08:19 11.05.2020
3405 Clouds 14 1000 93 10000 1.5 320 07:50 11.05.2020
3406 Clouds 14 1000 87 10000 1 0 07:32 11.05.2020
3407 Clouds 13 1000 93 10000 2.1 50 06:53 11.05.2020
3408 Clouds 12 1000 93 10000 2.6 60 06:19 11.05.2020
3409 Clouds 12 1001 100 10000 1 50 05:30 11.05.2020
3410 Clouds 12 1001 100 10000 1.5 50 04:43 11.05.2020
3411 Clouds 13 1002 93 10000 1.5 110 03:35 11.05.2020
3412 Clouds 13 1003 93 10000 2.6 100 02:34 11.05.2020
3413 Clouds 14 1003 87 10000 0.5 0 01:46 11.05.2020
3414 Clouds 15 1004 82 10000 0.5 0 00:53 11.05.2020
3415 Clouds 16 1004 77 10000 1.5 360 00:22 11.05.2020
3416 Clouds 17 1003 72 10000 3.6 130 23:45 10.05.2020
3417 Clouds 17 1003 72 10000 3.6 130 23:26 10.05.2020
3418 Clouds 17 1004 77 10000 3.6 110 22:57 10.05.2020
3419 Clouds 17 1004 82 10000 2.6 100 22:39 10.05.2020
3420 Rain 17 1004 82 10000 2.6 100 22:20 10.05.2020
3421 Clouds 19 1004 64 10000 2.1 70 21:44 10.05.2020
3422 Clouds 19 1004 60 10000 2.1 80 21:20 10.05.2020
3423 Clouds 20 1004 60 10000 2.1 80 20:56 10.05.2020
3424 Rain 20 1004 60 10000 2.1 70 20:38 10.05.2020
3425 Rain 20 1004 60 10000 2.1 70 20:19 10.05.2020
3426 Rain 21 1004 56 10000 1.5 70 19:41 10.05.2020
3427 Rain 21 1004 56 10000 1.5 70 19:23 10.05.2020
3428 Clouds 21 1004 56 10000 2.6 70 18:57 10.05.2020
3429 Clouds 21 1004 53 10000 2.6 50 18:37 10.05.2020
3430 Clouds 22 1004 53 10000 2.6 50 18:19 10.05.2020
3431 Clouds 21 1005 56 10000 2.6 20 17:59 10.05.2020
3432 Rain 21 1005 56 10000 4.6 340 17:40 10.05.2020
3433 Rain 21 1005 56 10000 4.6 340 17:22 10.05.2020
3434 Rain 23 1005 47 10000 3.1 140 16:58 10.05.2020
3435 Rain 23 1006 47 10000 5.1 150 16:40 10.05.2020
3436 Rain 23 1006 47 10000 5.1 150 16:19 10.05.2020
3437 Clouds 23 1006 49 10000 2.6 0 15:44 10.05.2020
3438 Clouds 23 1006 49 10000 2.6 0 15:25 10.05.2020
3439 Clouds 22 1007 53 10000 3.6 160 14:59 10.05.2020
3440 Clouds 21 1007 60 10000 2.6 0 14:38 10.05.2020
3441 Clouds 21 1007 60 10000 2.6 0 14:20 10.05.2020
3442 Clouds 21 1007 60 10000 2.6 0 14:20 10.05.2020
3443 Clouds 21 1007 64 10000 2.1 170 13:59 10.05.2020
3444 Rain 20 1007 72 10000 2.1 140 13:38 10.05.2020
3445 Rain 19 1007 72 10000 2.1 140 13:20 10.05.2020
3446 Rain 19 1008 72 10000 1 0 12:57 10.05.2020
3447 Rain 18 1008 77 10000 2.1 190 12:39 10.05.2020
3448 Rain 17 1008 77 10000 2.1 190 12:21 10.05.2020
3449 Rain 17 1008 77 10000 2.6 190 11:57 10.05.2020
3450 Rain 17 1008 77 10000 2.1 200 11:39 10.05.2020
3451 Rain 17 1008 77 10000 2.1 200 11:19 10.05.2020
3452 Rain 16 1008 82 10000 1.5 150 10:46 10.05.2020
3453 Rain 15 1008 82 10000 1.5 150 10:28 10.05.2020
3454 Rain 15 1008 82 10000 1.5 180 09:58 10.05.2020
3455 Clouds 15 1008 77 10000 1.5 190 09:39 10.05.2020
3456 Rain 14 1007 82 10000 1.5 200 09:20 10.05.2020
3457 Clouds 14 1007 82 10000 1.5 130 08:48 10.05.2020
3458 Clouds 14 1007 82 10000 1.5 130 08:24 10.05.2020
3459 Clouds 12 1007 87 10000 0.5 0 07:45 10.05.2020
3460 Clouds 12 1007 87 10000 0.5 0 07:21 10.05.2020
3461 Clouds 11 1007 93 10000 0.5 0 06:57 10.05.2020
3462 Clouds 11 1007 81 10000 1.5 120 06:30 10.05.2020
3463 Clouds 12 1007 87 10000 1 60 05:51 10.05.2020
3464 Clouds 13 1008 81 10000 1.5 140 04:54 10.05.2020
3465 Clouds 13 1008 87 10000 0.5 0 04:34 10.05.2020
3466 Clouds 12 1008 87 10000 0.5 280 03:54 10.05.2020
3467 Clouds 12 1008 81 10000 1 40 03:36 10.05.2020
3468 Clouds 13 1008 76 10000 1 60 02:48 10.05.2020
3469 Clouds 13 1009 76 10000 1 150 02:19 10.05.2020
3470 Clouds 13 1009 76 10000 0.5 0 01:42 10.05.2020
3471 Clouds 13 1009 76 10000 1.5 10 01:19 10.05.2020
3472 Clouds 13 1009 76 10000 1.5 10 00:54 10.05.2020
3473 Clouds 14 1010 71 10000 1.5 360 00:24 10.05.2020
3474 Clouds 14 1010 71 10000 1 340 23:59 09.05.2020
3475 Clouds 14 1010 62 10000 1 0 23:39 09.05.2020
3476 Clouds 14 1010 62 10000 1 0 23:20 09.05.2020
3477 Clouds 16 1010 55 10000 1.5 70 22:42 09.05.2020
3478 Clouds 16 1010 55 10000 1.5 70 22:24 09.05.2020
3479 Clouds 17 1010 52 10000 1.5 70 21:58 09.05.2020
3480 Clouds 18 1010 52 10000 2.1 80 21:40 09.05.2020
3481 Clouds 18 1010 52 10000 2.1 80 21:21 09.05.2020
3482 Clouds 18 1010 52 10000 1.5 50 20:58 09.05.2020
3483 Clouds 18 1010 52 10000 2.6 30 20:38 09.05.2020
3484 Clouds 18 1010 52 10000 2.6 30 20:20 09.05.2020
3485 Rain 18 1011 52 10000 3.6 20 19:56 09.05.2020
3486 Clouds 19 1011 52 10000 3.6 40 19:37 09.05.2020
3487 Clouds 19 1011 52 10000 3.6 40 19:18 09.05.2020
3488 Clouds 19 1011 52 10000 3.6 40 19:18 09.05.2020
3489 Clouds 19 1011 52 10000 5.1 360 18:43 09.05.2020
3490 Clouds 21 1011 52 10000 5.1 360 18:24 09.05.2020
3491 Clouds 21 1011 56 10000 6.7 340 17:46 09.05.2020
3492 Clouds 20 1011 56 10000 6.7 340 17:23 09.05.2020
3493 Rain 22 1011 49 10000 5.1 340 16:57 09.05.2020
3494 Clouds 21 1011 35 10000 1 0 16:38 09.05.2020
3495 Clouds 21 1011 35 10000 1 0 16:38 09.05.2020
3496 Clouds 22 1011 33 10000 2.1 50 16:19 09.05.2020
3497 Clouds 22 1011 31 10000 2.1 0 15:43 09.05.2020
3498 Clouds 23 1012 31 10000 2.6 10 15:22 09.05.2020
3499 Clouds 23 1012 31 10000 2.6 10 14:56 09.05.2020
3500 Clouds 23 1012 29 10000 1 0 14:37 09.05.2020
3501 Clouds 24 1012 29 10000 1 0 14:18 09.05.2020
3502 Clouds 23 1012 33 10000 1.5 0 13:55 09.05.2020
3503 Clouds 23 1012 38 10000 2.1 0 13:37 09.05.2020
3504 Clouds 22 1013 38 10000 1.5 0 13:18 09.05.2020
3505 Clouds 21 1013 35 10000 1.5 0 12:39 09.05.2020
3506 Clouds 21 1013 35 10000 1.5 0 12:21 09.05.2020
3507 Clouds 20 1014 45 10000 1.5 110 11:45 09.05.2020
3508 Clouds 19 1014 45 10000 1.5 110 11:20 09.05.2020
3509 Clouds 18 1014 48 10000 1.5 140 10:55 09.05.2020
3510 Clouds 17 1014 48 10000 2.1 130 10:37 09.05.2020
3511 Clouds 17 1014 48 10000 2.1 130 10:19 09.05.2020
3512 Clouds 15 1014 67 10000 1 0 09:44 09.05.2020
3513 Clouds 14 1014 67 10000 1 0 09:20 09.05.2020
3514 Clouds 13 1014 66 10000 0.5 0 08:57 09.05.2020
3515 Clouds 12 1014 76 10000 0.5 0 08:38 09.05.2020
3516 Clouds 12 1014 76 10000 0.5 0 08:20 09.05.2020
3517 Clouds 11 1014 81 10000 1 0 07:44 09.05.2020
3518 Clouds 10 1014 81 10000 1 0 07:25 09.05.2020
3519 Clouds 9 1014 81 10000 0.5 0 06:40 09.05.2020
3520 Clouds 9 1014 81 10000 0.5 0 06:18 09.05.2020
3521 Clouds 10 1014 87 10000 0.5 0 05:39 09.05.2020
3522 Clouds 10 1014 81 10000 1 0 03:40 09.05.2020
3523 Clouds 11 1014 76 10000 0.5 0 02:54 09.05.2020
3524 Clouds 11 1015 76 10000 0.5 0 02:30 09.05.2020
3525 Clouds 11 1015 71 10000 0.5 110 01:50 09.05.2020
3526 Clouds 11 1015 66 10000 1 0 01:22 09.05.2020
3527 Clouds 12 1015 62 10000 0.5 0 00:43 09.05.2020
3528 Clouds 12 1015 62 10000 0.5 0 00:19 09.05.2020
3529 Clouds 13 1015 54 10000 0.5 0 23:44 08.05.2020
3530 Clouds 14 1015 54 10000 0.5 0 23:25 08.05.2020
3531 Clouds 14 1015 54 10000 0.5 170 22:56 08.05.2020
3532 Clouds 15 1015 48 10000 0.5 0 22:38 08.05.2020
3533 Clouds 16 1015 48 10000 0.5 0 22:19 08.05.2020
3534 Clouds 17 1015 39 10000 0.5 360 21:55 08.05.2020
3535 Clouds 18 1015 39 10000 1.5 340 21:36 08.05.2020
3536 Clouds 18 1015 39 10000 1.5 340 21:18 08.05.2020
3537 Clouds 20 1015 32 10000 3.1 330 20:55 08.05.2020
3538 Clouds 20 1015 30 10000 3.1 300 20:37 08.05.2020
3539 Clouds 22 1015 27 10000 3.6 300 20:19 08.05.2020
3540 Clouds 23 1015 23 10000 4.1 290 19:42 08.05.2020
3541 Clouds 23 1015 23 10000 4.1 290 19:21 08.05.2020
3542 Clouds 23 1015 27 10000 3.6 310 18:46 08.05.2020
3543 Clouds 23 1015 27 10000 3.6 310 18:46 08.05.2020
3544 Clouds 24 1015 27 10000 3.1 280 18:28 08.05.2020
3545 Clouds 24 1015 23 10000 3.6 290 17:43 08.05.2020
3546 Clouds 25 1015 23 10000 3.6 290 17:20 08.05.2020
3547 Clouds 24 1015 27 10000 3.6 330 16:56 08.05.2020
3548 Clouds 25 1016 25 10000 4.1 300 16:38 08.05.2020
3549 Clouds 25 1016 25 10000 4.1 300 16:19 08.05.2020
3550 Clouds 25 1016 25 10000 4.1 300 15:43 08.05.2020
3551 Clouds 25 1016 25 10000 4.1 300 15:22 08.05.2020
3552 Clouds 24 1016 27 10000 2.1 0 14:57 08.05.2020
3553 Clear 24 1017 31 10000 3.1 280 14:39 08.05.2020
3554 Clouds 24 1017 31 10000 3.1 280 14:19 08.05.2020
3555 Clouds 24 1017 31 10000 1.5 0 13:56 08.05.2020
3556 Clouds 24 1017 31 10000 2.1 10 13:37 08.05.2020
3557 Clouds 23 1017 31 10000 2.1 10 13:18 08.05.2020
3558 Clouds 22 1018 30 10000 1.5 0 12:42 08.05.2020
3559 Clouds 22 1018 30 10000 1.5 0 12:23 08.05.2020
3560 Clouds 21 1018 32 10000 2.1 210 11:54 08.05.2020
3561 Clouds 20 1018 32 0 2.1 210 11:36 08.05.2020
3562 Clouds 20 1018 37 10000 2.1 0 11:18 08.05.2020
3563 Clouds 18 1018 45 10000 2.1 140 10:42 08.05.2020
3564 Clouds 17 1018 45 10000 2.1 140 10:20 08.05.2020
3565 Clouds 17 1019 42 10000 2.6 130 09:58 08.05.2020
3566 Clouds 15 1019 47 10000 1.5 140 09:39 08.05.2020
3567 Clouds 14 1019 54 10000 2.1 130 09:18 08.05.2020
3568 Clouds 12 1019 58 10000 2.1 110 08:45 08.05.2020
3569 Clouds 11 1019 58 10000 2.1 110 08:23 08.05.2020
3570 Clouds 8 1019 75 10000 3.6 100 07:44 08.05.2020
3571 Clouds 7 1019 75 10000 3.6 100 07:25 08.05.2020
3572 Clouds 6 1019 81 10000 3.1 100 06:51 08.05.2020
3573 Clouds 6 1019 75 10000 3.1 100 06:24 08.05.2020
3574 Clouds 7 1019 81 10000 2.1 100 05:58 08.05.2020
3575 Clouds 7 1019 75 10000 2.6 110 04:44 08.05.2020
3576 Clouds 8 1020 70 10000 2.6 100 02:38 08.05.2020
3577 Clouds 8 1020 70 10000 3.6 100 01:56 08.05.2020
3578 Clouds 9 1020 66 10000 4.1 100 01:29 08.05.2020
3579 Clouds 9 1021 66 10000 2.6 130 00:58 08.05.2020
3580 Clouds 9 1021 66 10000 2.1 120 00:39 08.05.2020
3581 Clouds 9 1021 66 10000 2.1 120 00:21 08.05.2020
3582 Clouds 10 1021 66 10000 0.5 0 23:42 07.05.2020
3583 Clouds 10 1021 66 10000 0.5 0 23:23 07.05.2020
3584 Clouds 11 1021 62 10000 0.5 0 22:57 07.05.2020
3585 Clouds 12 1021 54 10000 0.5 0 22:39 07.05.2020
3586 Clouds 12 1021 54 10000 0.5 0 22:19 07.05.2020
3587 Clouds 14 1021 50 10000 1.5 70 21:55 07.05.2020
3588 Clouds 15 1021 44 10000 1.5 60 21:37 07.05.2020
3589 Clear 15 1021 44 10000 1.5 60 21:19 07.05.2020
3590 Clear 18 1021 30 10000 1.5 350 20:42 07.05.2020
3591 Clear 19 1021 30 10000 1.5 350 20:23 07.05.2020
3592 Clear 20 1021 26 10000 2.1 360 19:58 07.05.2020
3593 Clear 20 1021 28 10000 2.6 320 19:38 07.05.2020
3594 Clear 20 1021 28 10000 2.6 320 19:20 07.05.2020
3595 Clear 21 1021 28 10000 2.6 310 18:45 07.05.2020
3596 Clear 21 1021 28 10000 2.6 310 18:26 07.05.2020
3597 Clear 21 1022 26 10000 2.1 0 17:57 07.05.2020
3598 Clear 21 1022 26 10000 2.1 0 17:36 07.05.2020
3599 Clear 21 1022 26 10000 2.1 0 17:18 07.05.2020
3600 Clear 21 1022 26 10000 1.5 0 16:40 07.05.2020
3601 Clear 21 1023 28 10000 3.6 310 16:18 07.05.2020
3602 Clear 21 1023 28 10000 3.6 310 15:56 07.05.2020
3603 Clear 20 1023 29 10000 2.6 320 15:37 07.05.2020
3604 Clear 20 1023 29 10000 2.6 320 15:37 07.05.2020
3605 Clear 20 1023 29 10000 2.6 320 15:18 07.05.2020
3606 Clear 19 1023 35 10000 2.6 290 14:44 07.05.2020
3607 Clear 19 1023 35 10000 2.6 290 14:21 07.05.2020
3608 Clear 18 1024 36 10000 2.1 320 13:45 07.05.2020
3609 Clear 18 1024 36 10000 2.1 320 13:26 07.05.2020
3610 Clear 18 1024 33 10000 1.5 340 12:55 07.05.2020
3611 Clear 17 1024 36 10000 2.6 0 12:37 07.05.2020
3612 Clear 17 1024 36 10000 2.6 0 12:18 07.05.2020
3613 Clear 15 1024 41 10000 1.5 0 11:39 07.05.2020
3614 Clear 15 1024 44 10000 1.5 0 11:21 07.05.2020
3615 Clear 13 1025 50 10000 0.5 0 10:44 07.05.2020
3616 Clear 13 1025 50 10000 0.5 0 10:25 07.05.2020
3617 Clear 11 1025 53 10000 1 0 09:57 07.05.2020
3618 Clear 10 1025 61 10000 0.5 0 09:38 07.05.2020
3619 Clear 8 1025 70 10000 1 0 09:18 07.05.2020
3620 Clear 7 1025 70 10000 1.5 100 08:43 07.05.2020
3621 Clear 6 1025 70 10000 1.5 100 08:22 07.05.2020
3622 Clear 4 1025 75 10000 1.5 100 07:58 07.05.2020
3623 Clear 3 1025 86 10000 2.6 90 07:39 07.05.2020
3624 Clear 5 1025 86 10000 2.6 90 07:19 07.05.2020
3625 Clear 2 1024 76 10000 3.1 100 06:37 07.05.2020
3626 Clear 1 1024 82 10000 2.6 100 05:56 07.05.2020
3627 Clear 3 1024 86 10000 2.6 100 04:27 07.05.2020
3628 Clear 3 1024 86 10000 3.1 100 03:29 07.05.2020
3629 Clear 3 1024 86 10000 1.5 90 02:59 07.05.2020
3630 Clear 4 1024 80 10000 2.1 100 02:26 07.05.2020
3631 Clear 4 1024 80 10000 2.1 90 01:25 07.05.2020
3632 Clear 5 1024 80 10000 1.5 90 00:51 07.05.2020
3633 Clear 5 1024 80 10000 1 0 00:31 07.05.2020
3634 Clear 6 1024 75 10000 1 0 23:58 06.05.2020
3635 Clear 6 1024 75 10000 0.5 100 23:38 06.05.2020
3636 Clear 6 1024 75 10000 0.5 100 23:19 06.05.2020
3637 Clear 7 1024 70 10000 0.5 80 22:55 06.05.2020
3638 Clear 8 1023 61 10000 1.5 100 22:37 06.05.2020
3639 Clear 9 1023 61 10000 1.5 100 22:37 06.05.2020
3640 Clear 8 1023 61 10000 1.5 100 22:18 06.05.2020
3641 Clear 8 1023 61 10000 1.5 100 22:18 06.05.2020
3642 Clear 10 1023 50 10000 0.5 40 21:42 06.05.2020
3643 Clear 12 1023 43 10000 1 0 21:23 06.05.2020
3644 Clear 12 1023 43 10000 1 0 20:57 06.05.2020
3645 Clear 13 1023 41 10000 2.6 340 20:38 06.05.2020
3646 Clouds 13 1023 41 10000 2.6 340 20:20 06.05.2020
3647 Clouds 13 1023 61 10000 3.6 350 19:56 06.05.2020
3648 Clouds 13 1023 61 10000 4.1 340 19:37 06.05.2020
3649 Clouds 13 1023 61 10000 4.1 340 19:37 06.05.2020
3650 Clouds 14 1023 50 10000 4.1 340 19:18 06.05.2020
3651 Clouds 14 1023 38 10000 3.1 340 18:55 06.05.2020
3652 Clouds 15 1023 38 10000 1.5 0 18:37 06.05.2020
3653 Clouds 15 1023 38 10000 1.5 0 18:18 06.05.2020
3654 Clouds 15 1023 38 10000 3.6 320 17:54 06.05.2020
3655 Clouds 15 1023 38 10000 3.6 320 17:36 06.05.2020
3656 Clear 15 1023 38 10000 3.6 320 17:18 06.05.2020
3657 Clear 15 1023 38 10000 3.6 320 17:18 06.05.2020
3658 Clear 15 1023 38 10000 4.1 30 16:57 06.05.2020
3659 Clear 15 1023 37 10000 3.6 350 16:39 06.05.2020
3660 Clear 14 1023 34 10000 3.6 350 16:19 06.05.2020
3661 Clear 15 1023 34 10000 2.6 350 15:45 06.05.2020
3662 Clear 15 1023 36 10000 3.1 330 15:22 06.05.2020
3663 Clear 14 1023 33 10000 3.1 290 14:56 06.05.2020
3664 Clear 14 1023 37 10000 3.1 330 14:38 06.05.2020
3665 Clear 14 1023 37 10000 3.1 330 14:19 06.05.2020
3666 Clear 14 1023 35 10000 2.6 0 13:57 06.05.2020
3667 Clear 14 1023 37 10000 3.1 0 13:37 06.05.2020
3668 Clear 14 1023 37 10000 3.1 0 13:19 06.05.2020
3669 Clear 13 1023 37 10000 2.1 0 12:42 06.05.2020
3670 Clear 13 1023 37 10000 2.1 0 12:24 06.05.2020
3671 Clouds 11 1024 40 10000 3.1 10 11:42 06.05.2020
3672 Clouds 11 1024 40 10000 3.1 10 11:42 06.05.2020
3673 Clouds 11 1024 40 10000 3.1 10 11:22 06.05.2020
3674 Clouds 10 1024 46 10000 4.1 30 10:58 06.05.2020
3675 Clouds 10 1024 43 10000 3.1 20 10:39 06.05.2020
3676 Clouds 10 1024 49 10000 3.1 20 10:19 06.05.2020
3677 Clouds 9 1024 57 10000 2.1 290 09:56 06.05.2020
3678 Clouds 8 1024 61 10000 1.5 310 09:36 06.05.2020
3679 Clouds 8 1024 61 10000 1.5 310 09:18 06.05.2020
3680 Clear 6 1024 57 10000 1 0 08:41 06.05.2020
3681 Clouds 5 1024 65 10000 1 0 08:20 06.05.2020
3682 Clouds 3 1023 65 10000 0.5 0 07:55 06.05.2020
3683 Clouds 2 1023 80 10000 1.5 100 07:36 06.05.2020
3684 Clouds 1 1023 77 10000 1 0 07:18 06.05.2020
3685 Clouds 1 1023 77 10000 1 0 07:18 06.05.2020
3686 Clouds 1 1023 77 10000 1.5 110 06:43 06.05.2020
3687 Clouds 0 1023 85 10000 1.5 110 06:19 06.05.2020
3688 Clouds 1 1022 85 10000 0.5 0 05:37 06.05.2020
3689 Clouds 1 1022 80 10000 1 0 04:49 06.05.2020
3690 Clouds 2 1022 79 10000 1 0 03:49 06.05.2020
3691 Clouds 2 1022 78 10000 1 0 03:24 06.05.2020
3692 Clouds 3 1022 80 10000 1 10 02:38 06.05.2020
3693 Clear 3 1022 80 10000 1 10 02:20 06.05.2020
3694 Clear 3 1022 74 10000 0.5 10 01:41 06.05.2020
3695 Clear 4 1021 73 10000 1 0 00:56 06.05.2020
3696 Clear 5 1021 70 10000 1.5 30 00:31 06.05.2020
3697 Clear 6 1021 56 10000 1.5 80 23:58 05.05.2020
3698 Clear 7 1020 52 10000 1 0 23:39 05.05.2020
3699 Clear 8 1020 49 10000 2.6 40 23:19 05.05.2020
3700 Clear 8 1020 49 10000 2.6 40 23:19 05.05.2020
3701 Clear 8 1019 49 10000 3.6 30 22:42 05.05.2020
3702 Clear 9 1019 43 10000 3.6 30 22:20 05.05.2020
3703 Clear 9 1019 43 10000 3.6 30 21:59 05.05.2020
3704 Clear 10 1018 40 10000 3.1 10 21:40 05.05.2020
3705 Clear 11 1018 40 10000 3.1 10 21:21 05.05.2020
3706 Clouds 12 1018 37 10000 3.6 340 20:59 05.05.2020
3707 Clouds 12 1018 35 10000 4.6 330 20:39 05.05.2020
3708 Clouds 13 1018 35 10000 4.6 330 20:19 05.05.2020
3709 Clouds 13 1017 30 10000 5.7 310 19:57 05.05.2020
3710 Clouds 14 1017 30 10000 5.1 310 19:37 05.05.2020
3711 Clouds 14 1017 30 10000 5.1 310 19:18 05.05.2020
3712 Clouds 14 1017 30 10000 5.1 310 19:18 05.05.2020
3713 Clouds 14 1017 28 10000 5.7 320 18:54 05.05.2020
3714 Clouds 15 1017 28 10000 4.1 310 18:36 05.05.2020
3715 Clouds 15 1017 28 10000 4.1 310 18:18 05.05.2020
3716 Clouds 15 1017 38 10000 3.1 350 17:41 05.05.2020
3717 Clouds 15 1017 38 10000 3.1 350 17:23 05.05.2020
3718 Clouds 15 1017 41 10000 4.6 330 16:57 05.05.2020
3719 Clouds 15 1017 38 10000 5.7 330 16:36 05.05.2020
3720 Clouds 15 1017 38 10000 5.7 330 16:18 05.05.2020
3721 Clouds 15 1017 44 10000 5.7 330 15:54 05.05.2020
3722 Clouds 15 1017 41 10000 5.1 330 15:36 05.05.2020
3723 Clouds 15 1017 41 10000 5.1 330 15:36 05.05.2020
3724 Clouds 15 1017 41 10000 5.1 330 15:18 05.05.2020
3725 Clouds 14 1017 44 10000 3.6 310 14:42 05.05.2020
3726 Clouds 14 1017 44 10000 3.6 310 14:24 05.05.2020
3727 Clouds 13 1018 54 10000 4.1 360 13:58 05.05.2020
3728 Clouds 14 1018 50 10000 2.6 320 13:40 05.05.2020
3729 Clouds 13 1018 50 10000 2.6 320 13:21 05.05.2020
3730 Clouds 13 1018 50 10000 2.6 320 13:21 05.05.2020
3731 Clouds 12 1018 54 10000 4.6 340 12:59 05.05.2020
3732 Clouds 12 1018 54 10000 4.1 330 12:39 05.05.2020
3733 Clouds 12 1018 54 10000 4.1 330 12:20 05.05.2020
3734 Clouds 12 1018 54 10000 4.1 330 12:20 05.05.2020
3735 Clouds 12 1018 58 10000 3.6 350 11:55 05.05.2020
3736 Clouds 12 1018 58 10000 3.6 350 11:36 05.05.2020
3737 Clouds 11 1017 62 10000 2.6 30 11:18 05.05.2020
3738 Clouds 11 1018 62 10000 2.6 30 10:39 05.05.2020
3739 Clouds 10 1018 62 10000 2.6 30 10:19 05.05.2020
3740 Clouds 10 1018 66 10000 3.1 30 09:59 05.05.2020
3741 Clouds 10 1018 66 10000 3.1 30 09:59 05.05.2020
3742 Clouds 9 1018 76 10000 2.6 350 09:40 05.05.2020
3743 Clouds 8 1018 87 10000 2.6 360 09:22 05.05.2020
3744 Clouds 7 1018 93 10000 3.6 350 08:41 05.05.2020
3745 Clouds 7 1018 93 10000 3.6 350 08:20 05.05.2020
3746 Clouds 6 1018 87 10000 3.1 350 07:58 05.05.2020
3747 Clouds 4 1018 93 10000 2.6 360 07:38 05.05.2020
3748 Clouds 4 1018 100 10000 1.5 20 07:19 05.05.2020
3749 Clouds 4 1018 100 10000 1.5 20 06:49 05.05.2020
3750 Clouds 3 1018 93 9000 1.5 350 06:22 05.05.2020
3751 Clouds 3 1018 100 9000 0.5 30 05:37 05.05.2020
3752 Clouds 6 1017 87 10000 1.5 360 03:35 05.05.2020
3753 Clouds 8 1018 87 10000 2.1 360 01:42 05.05.2020
3754 Clouds 8 1018 87 10000 2.1 320 00:52 05.05.2020
3755 Clouds 9 1017 87 10000 2.1 330 00:21 05.05.2020
3756 Clouds 9 1017 93 10000 4.1 360 23:45 04.05.2020
3757 Clouds 10 1017 87 10000 4.1 350 23:21 04.05.2020
3758 Clouds 10 1017 87 10000 3.1 360 22:56 04.05.2020
3759 Clouds 10 1017 87 10000 3.1 360 22:56 04.05.2020
3760 Clouds 10 1016 93 10000 3.1 360 22:38 04.05.2020
3761 Clouds 10 1016 93 10000 3.1 360 22:19 04.05.2020
3762 Rain 11 1016 87 10000 5.7 350 21:53 04.05.2020
3763 Clouds 11 1016 93 10000 3.6 350 21:33 04.05.2020
3764 Clouds 11 1016 93 10000 3.6 350 21:33 04.05.2020
3765 Clouds 12 1015 93 10000 3.1 330 20:56 04.05.2020
3766 Clouds 12 1015 87 10000 3.6 330 20:38 04.05.2020
3767 Clouds 12 1015 87 10000 3.6 330 20:38 04.05.2020
3768 Clouds 12 1015 87 10000 3.6 330 20:38 04.05.2020
3769 Clouds 12 1015 87 10000 3.6 330 20:38 04.05.2020
3770 Clouds 12 1015 87 10000 3.6 330 20:38 04.05.2020
3771 Rain 12 1015 87 10000 3.6 330 20:18 04.05.2020
3772 Rain 12 1015 87 8000 5.1 300 19:41 04.05.2020
3773 Rain 12 1015 87 8000 5.1 300 19:21 04.05.2020
3774 Rain 12 1015 87 8000 5.1 300 19:21 04.05.2020
3775 Rain 13 1015 93 10000 2.6 250 18:56 04.05.2020
3776 Rain 13 1015 82 10000 2.6 260 18:38 04.05.2020
3777 Clouds 14 1014 82 10000 2.1 220 18:18 04.05.2020
3778 Clouds 14 1014 82 10000 2.1 220 17:55 04.05.2020
3779 Clouds 14 1015 76 10000 1.5 250 17:37 04.05.2020
3780 Rain 13 1015 87 10000 1.5 320 17:18 04.05.2020
3781 Clouds 13 1015 93 10000 2.6 320 16:42 04.05.2020
3782 Clouds 13 1015 93 10000 2.6 320 16:42 04.05.2020
3783 Clouds 13 1015 93 10000 2.6 320 16:21 04.05.2020
3784 Thunderstorm 13 1016 93 4500 5.7 320 15:46 04.05.2020
3785 Thunderstorm 13 1016 93 4500 5.7 320 15:46 04.05.2020
3786 Rain 17 1014 55 10000 4.6 220 15:25 04.05.2020
3787 Rain 17 1014 55 10000 4.6 220 15:25 04.05.2020
3788 Clouds 18 1014 45 10000 5.1 220 14:57 04.05.2020
3789 Clouds 18 1014 45 10000 5.1 220 14:57 04.05.2020
3790 Rain 19 1015 42 10000 5.1 220 14:38 04.05.2020
3791 Rain 19 1015 42 10000 5.1 220 14:38 04.05.2020
3792 Rain 19 1015 42 10000 5.1 220 14:38 04.05.2020
3793 Rain 19 1015 42 10000 5.1 220 14:38 04.05.2020
3794 Rain 19 1015 42 10000 5.1 220 14:38 04.05.2020
3795 Rain 19 1015 42 10000 5.7 220 13:59 04.05.2020
3796 Rain 19 1015 42 10000 5.7 220 13:59 04.05.2020
3797 Rain 19 1015 42 10000 5.7 220 13:59 04.05.2020
3798 Rain 19 1015 42 10000 5.7 220 13:59 04.05.2020
3799 Rain 19 1015 42 10000 5.7 220 13:59 04.05.2020
3800 Clouds 18 1016 39 10000 3.6 200 12:48 04.05.2020
3801 Clouds 18 1016 39 10000 3.6 200 12:48 04.05.2020
3802 Clouds 18 1016 39 10000 3.6 200 12:48 04.05.2020
3803 Clouds 18 1016 39 10000 3.6 200 12:48 04.05.2020
3804 Clouds 18 1016 39 10000 3.6 200 12:48 04.05.2020
3805 Clouds 17 1016 39 10000 4.1 210 12:23 04.05.2020
3806 Clouds 17 1016 39 10000 4.1 240 12:22 04.05.2020
3807 Clouds 17 1016 39 10000 4.1 210 12:22 04.05.2020
3808 Clouds 17 1016 39 10000 4.1 210 12:22 04.05.2020
3809 Clouds 17 1016 39 10000 4.1 210 12:22 04.05.2020
3810 Clouds 13 1017 54 10000 2.1 170 09:33 04.05.2020
3811 Clouds 12 1017 62 10000 1.5 130 08:57 04.05.2020
3812 Clouds 12 1017 62 10000 1.5 130 08:57 04.05.2020
3813 Clouds 12 1017 62 10000 1.5 130 08:57 04.05.2020
3814 Clouds 12 1017 62 10000 1.5 130 08:57 04.05.2020
3815 Clouds 12 1017 62 10000 1.5 130 08:57 04.05.2020
3816 Clouds 9 1017 76 10000 2.1 110 07:50 04.05.2020
3817 Clouds 9 1017 76 10000 2.1 110 07:50 04.05.2020
3818 Clouds 9 1017 76 10000 2.1 110 07:49 04.05.2020
3819 Clouds 9 1017 76 10000 2.1 110 07:48 04.05.2020
3820 Clouds 8 1017 75 10000 2.6 100 07:24 04.05.2020
3821 Clouds 7 1017 81 10000 2.1 100 04:55 04.05.2020
3822 Clouds 8 1017 75 10000 3.1 100 03:20 04.05.2020
3823 Clouds 8 1017 75 10000 3.1 100 03:20 04.05.2020
3824 Clouds 8 1018 75 10000 3.6 110 02:31 04.05.2020
3825 Clouds 8 1018 75 10000 2.6 100 00:38 04.05.2020
3826 Clouds 8 1018 66 10000 2.6 100 23:46 03.05.2020
3827 Clouds 9 1018 66 10000 2.6 100 23:25 03.05.2020
3828 Clouds 9 1018 61 10000 3.1 100 22:57 03.05.2020
3829 Clouds 9 1018 66 10000 2.1 120 22:38 03.05.2020
3830 Clouds 9 1018 66 10000 2.1 120 22:38 03.05.2020
3831 Clouds 9 1018 66 10000 2.1 120 22:38 03.05.2020
3832 Clouds 10 1018 66 10000 2.1 120 22:20 03.05.2020
3833 Clouds 11 1018 54 10000 1.5 60 21:41 03.05.2020
3834 Clouds 12 1018 54 10000 1.5 60 21:20 03.05.2020
3835 Clouds 13 1018 54 10000 1.5 40 20:47 03.05.2020
3836 Clouds 14 1018 41 10000 1.5 360 20:23 03.05.2020
3837 Clouds 15 1018 41 10000 2.6 340 19:55 03.05.2020
3838 Clouds 15 1018 41 10000 2.6 310 19:37 03.05.2020
3839 Clouds 15 1018 38 10000 2.1 320 19:18 03.05.2020
3840 Clouds 16 1018 38 10000 1 0 18:39 03.05.2020
3841 Clouds 16 1018 38 10000 1 0 18:39 03.05.2020
3842 Clouds 16 1018 38 10000 1 0 18:20 03.05.2020
3843 Clouds 16 1018 38 10000 2.6 300 17:42 03.05.2020
3844 Clouds 16 1018 38 10000 2.6 300 17:22 03.05.2020
3845 Clouds 16 1018 41 10000 3.6 300 16:58 03.05.2020
3846 Clouds 16 1018 36 10000 3.6 310 16:39 03.05.2020
3847 Clouds 16 1019 38 10000 1.5 0 16:18 03.05.2020
3848 Clouds 16 1019 38 10000 1.5 0 15:56 03.05.2020
3849 Clouds 16 1019 44 10000 1.5 0 15:37 03.05.2020
3850 Clouds 16 1019 44 10000 1.5 0 15:37 03.05.2020
3851 Clouds 16 1019 44 10000 1.5 0 15:37 03.05.2020
3852 Clouds 16 1019 44 10000 1.5 0 15:37 03.05.2020
3853 Clouds 15 1019 44 10000 1.5 0 15:19 03.05.2020
3854 Clouds 15 1019 44 10000 1.5 0 14:43 03.05.2020
3855 Clouds 15 1019 44 10000 1.5 0 14:23 03.05.2020
3856 Clouds 14 1019 54 10000 3.1 270 14:23 03.05.2020
3857 Clouds 15 1019 44 10000 1.5 0 14:23 03.05.2020
3858 Clouds 14 1019 54 10000 3.1 270 14:02 03.05.2020
3859 Rain 14 1019 50 10000 3.1 300 13:36 03.05.2020
3860 Rain 14 1019 50 10000 3.1 300 13:36 03.05.2020
3861 Rain 14 1019 50 10000 3.1 300 13:36 03.05.2020
3862 Clouds 14 1019 44 10000 3.1 290 12:48 03.05.2020
3863 Clouds 13 1019 50 10000 3.1 0 12:26 03.05.2020
3864 Clouds 13 1019 50 10000 3.1 0 12:26 03.05.2020
3865 Clouds 13 1019 58 10000 2.6 0 11:57 03.05.2020
3866 Clouds 12 1019 62 10000 2.6 250 11:39 03.05.2020
3867 Clouds 12 1019 62 10000 2.6 250 11:20 03.05.2020
3868 Clouds 12 1019 66 10000 2.6 280 10:54 03.05.2020
3869 Clouds 11 1019 66 10000 2.6 280 10:24 03.05.2020
3870 Clouds 10 1018 76 10000 2.6 260 09:39 03.05.2020
3871 Clouds 9 1018 70 10000 2.6 270 08:57 03.05.2020
3872 Clouds 8 1018 76 10000 1.5 270 08:33 03.05.2020
3873 Clouds 7 1017 81 10000 1 0 07:41 03.05.2020
3874 Clouds 7 1017 81 10000 1 0 07:41 03.05.2020
3875 Clouds 7 1017 81 10000 1 0 07:41 03.05.2020
3876 Clouds 7 1017 81 10000 1 0 07:41 03.05.2020
3877 Clouds 7 1017 81 10000 1 0 07:41 03.05.2020
3878 Clouds 6 1017 81 10000 1.5 260 06:36 03.05.2020
3879 Clouds 6 1016 81 10000 2.1 250 05:49 03.05.2020
3880 Clouds 6 1016 81 10000 1.5 270 05:31 03.05.2020
3881 Clouds 6 1016 81 10000 1 0 04:27 03.05.2020
3882 Clouds 6 1015 87 10000 1 0 03:31 03.05.2020
3883 Clear 6 1015 81 10000 2.1 240 02:31 03.05.2020
3884 Clouds 7 1015 81 10000 1 0 01:49 03.05.2020
3885 Clouds 7 1015 81 10000 2.1 250 01:27 03.05.2020
3886 Clouds 6 1015 87 10000 1.5 200 01:01 03.05.2020
3887 Clouds 6 1015 87 10000 1.5 200 01:01 03.05.2020
3888 Clouds 6 1015 87 10000 1.5 200 01:01 03.05.2020
3889 Clouds 6 1015 81 10000 1 0 00:38 03.05.2020
3890 Clouds 7 1014 75 10000 1.5 240 00:20 03.05.2020
3891 Clouds 7 1014 75 10000 1.5 240 23:44 02.05.2020
3892 Clear 7 1014 75 10000 1.5 270 23:26 02.05.2020
3893 Clear 7 1014 75 10000 3.1 270 22:56 02.05.2020
3894 Clouds 8 1013 70 10000 3.1 260 22:37 02.05.2020
3895 Clouds 8 1013 70 10000 3.1 260 22:18 02.05.2020
3896 Clouds 9 1012 66 10000 5.1 280 21:40 02.05.2020
3897 Clouds 9 1012 66 10000 5.1 280 21:19 02.05.2020
3898 Clouds 10 1012 61 10000 6.2 300 20:57 02.05.2020
3899 Clouds 10 1011 61 10000 6.2 300 20:38 02.05.2020
3900 Clouds 10 1011 61 10000 6.2 300 20:19 02.05.2020
3901 Clouds 11 1011 57 10000 5.7 300 19:57 02.05.2020
3902 Clouds 11 1010 57 10000 5.7 320 19:39 02.05.2020
3903 Clouds 11 1010 57 10000 5.7 320 19:19 02.05.2020
3904 Clouds 11 1010 57 10000 9.3 320 18:56 02.05.2020
3905 Clouds 12 1009 47 10000 8.7 290 18:37 02.05.2020
3906 Clouds 13 1009 47 10000 8.7 290 18:19 02.05.2020
3907 Clouds 12 1010 50 10000 8.7 310 17:54 02.05.2020
3908 Rain 12 1009 54 10000 9.8 310 17:36 02.05.2020
3909 Clouds 12 1009 47 10000 7.7 300 17:18 02.05.2020
3910 Rain 13 1009 43 10000 12.9 280 16:41 02.05.2020
3911 Rain 13 1009 43 10000 12.9 280 16:23 02.05.2020
3912 Rain 15 1009 47 10000 8.2 260 15:44 02.05.2020
3913 Rain 14 1009 39 10000 8.2 260 15:21 02.05.2020
3914 Rain 14 1009 47 10000 8.7 250 14:59 02.05.2020
3915 Rain 14 1009 41 10000 9.3 260 14:40 02.05.2020
3916 Clear 14 1009 37 10000 9.3 260 14:22 02.05.2020
3917 Rain 14 1009 37 10000 8.2 250 13:40 02.05.2020
3918 Clear 14 1009 39 10000 8.2 250 13:22 02.05.2020
3919 Clear 13 1009 39 10000 8.2 240 12:56 02.05.2020
3920 Clouds 13 1009 43 10000 8.2 260 12:38 02.05.2020
3921 Clouds 13 1009 43 10000 8.2 260 12:19 02.05.2020
3922 Clouds 12 1009 53 10000 9.3 260 11:42 02.05.2020
3923 Clouds 12 1009 53 10000 9.3 260 11:23 02.05.2020
3924 Clouds 12 1009 57 10000 8.2 260 10:59 02.05.2020
3925 Clouds 11 1009 62 10000 7.2 260 10:39 02.05.2020
3926 Clouds 11 1009 62 10000 7.2 260 10:21 02.05.2020
3927 Clouds 10 1009 66 10000 8.7 260 09:57 02.05.2020
3928 Clouds 9 1009 66 10000 8.7 260 09:38 02.05.2020
3929 Clouds 9 1009 66 10000 8.7 260 09:20 02.05.2020
3930 Clouds 9 1009 71 10000 7.7 250 08:50 02.05.2020
3931 Clouds 9 1009 76 10000 7.2 250 08:30 02.05.2020
3932 Clouds 8 1008 81 10000 3.6 250 07:49 02.05.2020
3933 Clouds 8 1008 81 10000 4.1 240 07:29 02.05.2020
3934 Clouds 8 1008 87 10000 4.1 230 06:52 02.05.2020
3935 Clouds 7 1007 93 10000 3.1 230 05:30 02.05.2020
3936 Clouds 7 1006 93 10000 2.1 190 04:59 02.05.2020
3937 Rain 7 1006 93 10000 2.1 170 04:25 02.05.2020
3938 Clouds 7 1006 87 10000 2.6 200 03:18 02.05.2020
3939 Clouds 8 1006 81 10000 4.1 240 02:37 02.05.2020
3940 Clouds 8 1006 87 10000 2.6 200 01:50 02.05.2020
3941 Clouds 8 1006 81 10000 2.6 170 00:58 02.05.2020
3942 Clouds 8 1005 81 10000 2.6 170 00:36 02.05.2020
3943 Clouds 8 1006 81 10000 2.6 190 00:18 02.05.2020
3944 Clouds 8 1006 81 10000 2.6 190 23:39 01.05.2020
3945 Clouds 8 1006 81 10000 2.6 190 23:20 01.05.2020
3946 Clouds 8 1005 87 10000 2.6 190 22:56 01.05.2020
3947 Clouds 8 1005 81 10000 3.1 180 22:37 01.05.2020
3948 Clouds 8 1005 81 10000 3.1 180 22:18 01.05.2020
3949 Clouds 8 1005 81 10000 3.1 180 22:18 01.05.2020
3950 Clouds 9 1005 87 10000 2.6 180 21:55 01.05.2020
3951 Clouds 9 1005 81 10000 3.1 180 21:37 01.05.2020
3952 Rain 9 1005 81 10000 3.1 180 21:18 01.05.2020
3953 Clouds 9 1005 81 10000 2.6 180 20:55 01.05.2020
3954 Clouds 10 1005 81 10000 3.6 190 20:37 01.05.2020
3955 Clouds 10 1005 81 10000 3.6 190 20:37 01.05.2020
3956 Clouds 10 1005 81 10000 3.1 200 20:18 01.05.2020
3957 Clouds 10 1004 76 10000 2.1 230 19:41 01.05.2020
3958 Clouds 10 1004 76 10000 2.1 230 19:22 01.05.2020
3959 Rain 10 1004 76 10000 3.1 260 18:57 01.05.2020
3960 Rain 10 1004 87 10000 6.2 290 18:38 01.05.2020
3961 Rain 9 1004 87 10000 6.2 290 18:19 01.05.2020
3962 Rain 11 1004 76 10000 10.3 280 17:56 01.05.2020
3963 Clouds 12 1003 51 10000 7.2 270 17:37 01.05.2020
3964 Clouds 12 1003 51 10000 7.2 270 17:37 01.05.2020
3965 Clouds 12 1003 51 10000 7.2 270 17:19 01.05.2020
3966 Clouds 13 1003 54 10000 5.1 280 16:55 01.05.2020
3967 Clouds 14 1004 62 10000 6.2 280 16:37 01.05.2020
3968 Clouds 14 1004 62 10000 6.2 280 16:18 01.05.2020
3969 Clouds 14 1004 51 10000 5.7 220 15:42 01.05.2020
3970 Clouds 14 1004 51 10000 5.7 220 15:24 01.05.2020
3971 Clouds 15 1004 44 10000 5.7 230 14:58 01.05.2020
3972 Clouds 16 1004 44 10000 4.6 230 14:39 01.05.2020
3973 Clouds 15 1004 44 10000 4.6 230 14:20 01.05.2020
3974 Rain 15 1004 48 10000 5.1 220 13:40 01.05.2020
3975 Rain 14 1005 54 10000 6.2 240 13:22 01.05.2020
3976 Rain 14 1005 54 10000 6.2 240 12:57 01.05.2020
3977 Clouds 14 1005 47 10000 5.7 220 12:39 01.05.2020
3978 Clouds 13 1005 47 10000 5.7 220 12:19 01.05.2020
3979 Clouds 14 1005 54 10000 6.7 230 11:47 01.05.2020
3980 Clouds 14 1005 54 10000 6.7 230 11:26 01.05.2020
3981 Clouds 13 1005 54 10000 5.7 220 10:59 01.05.2020
3982 Clouds 13 1005 54 10000 6.2 210 10:40 01.05.2020
3983 Clouds 13 1005 54 10000 6.2 210 10:20 01.05.2020
3984 Clouds 13 1006 62 10000 5.1 200 09:44 01.05.2020
3985 Clouds 12 1006 62 10000 5.1 200 09:20 01.05.2020
3986 Clouds 11 1006 71 10000 3.6 190 08:59 01.05.2020
3987 Clouds 10 1006 76 10000 4.6 190 08:41 01.05.2020
3988 Clouds 9 1006 81 10000 3.1 180 08:22 01.05.2020
3989 Clouds 8 1006 81 10000 3.1 180 07:46 01.05.2020
3990 Clouds 8 1006 81 10000 3.6 170 07:23 01.05.2020
3991 Clouds 7 1006 87 10000 3.1 180 06:50 01.05.2020
3992 Clouds 8 1006 81 10000 3.1 190 05:36 01.05.2020
3993 Clouds 8 1006 87 10000 2.6 180 04:47 01.05.2020
3994 Clouds 9 1006 81 10000 3.6 180 03:24 01.05.2020
3995 Clouds 9 1006 87 10000 3.6 170 02:45 01.05.2020
3996 Clouds 9 1007 81 10000 3.1 170 02:19 01.05.2020
3997 Clouds 10 1006 81 10000 3.1 180 01:28 01.05.2020
3998 Clouds 10 1006 76 10000 3.6 190 00:59 01.05.2020
3999 Clouds 11 1006 76 10000 4.1 170 00:37 01.05.2020
4000 Clouds 11 1006 76 10000 4.1 170 00:37 01.05.2020
4001 Clouds 11 1006 76 10000 4.1 170 00:18 01.05.2020
4002 Clouds 11 1006 76 10000 4.1 180 23:54 30.04.2020
4003 Clouds 11 1006 81 10000 4.6 190 23:36 30.04.2020
4004 Clouds 11 1006 81 10000 4.6 190 23:18 30.04.2020
4005 Clouds 11 1006 76 10000 4.6 170 22:41 30.04.2020
4006 Clouds 12 1006 76 10000 4.6 170 22:20 30.04.2020
4007 Clouds 12 1005 76 10000 5.1 170 21:55 30.04.2020
4008 Clouds 12 1005 76 10000 4.6 170 21:37 30.04.2020
4009 Clouds 12 1005 76 10000 4.6 170 21:18 30.04.2020
4010 Clouds 12 1005 71 10000 5.1 180 20:42 30.04.2020
4011 Clouds 13 1005 71 10000 5.1 180 20:19 30.04.2020
4012 Clouds 13 1005 71 10000 6.2 180 19:58 30.04.2020
4013 Clouds 13 1005 67 10000 4.6 190 19:39 30.04.2020
4014 Clouds 13 1005 67 10000 4.6 190 19:20 30.04.2020
4015 Clouds 14 1005 67 10000 6.2 180 18:55 30.04.2020
4016 Clouds 14 1005 62 10000 6.2 180 18:36 30.04.2020
4017 Clouds 15 1005 59 10000 5.1 180 18:18 30.04.2020
4018 Clouds 15 1005 63 10000 4.6 180 17:41 30.04.2020
4019 Clouds 15 1005 63 10000 4.6 180 17:22 30.04.2020
4020 Clouds 15 1005 72 10000 2.1 200 16:59 30.04.2020
4021 Clouds 15 1006 72 10000 2.1 140 16:40 30.04.2020
4022 Rain 15 1006 72 10000 2.1 140 16:20 30.04.2020
4023 Rain 14 1006 76 10000 3.6 170 15:54 30.04.2020
4024 Rain 14 1006 67 10000 4.6 200 15:36 30.04.2020
4025 Clouds 14 1006 62 10000 5.1 200 15:18 30.04.2020
4026 Clouds 15 1007 62 10000 4.1 210 14:40 30.04.2020
4027 Clouds 15 1007 62 10000 4.1 210 14:19 30.04.2020
4028 Clouds 15 1007 62 10000 3.6 200 13:56 30.04.2020
4029 Clouds 14 1007 67 10000 4.1 210 13:38 30.04.2020
4030 Clouds 14 1007 67 10000 4.1 210 13:20 30.04.2020
4031 Clouds 14 1007 62 10000 7.2 210 12:42 30.04.2020
4032 Clouds 14 1007 62 10000 7.2 210 12:21 30.04.2020
4033 Clouds 14 1007 71 10000 5.1 180 11:59 30.04.2020
4034 Clouds 13 1007 76 10000 4.6 160 11:37 30.04.2020
4035 Rain 12 1007 81 10000 4.1 170 11:18 30.04.2020
4036 Rain 12 1007 81 10000 4.1 170 10:54 30.04.2020
4037 Clouds 12 1007 76 10000 4.1 160 10:36 30.04.2020
4038 Rain 12 1007 81 10000 4.6 170 10:18 30.04.2020
4039 Clouds 11 1007 81 10000 3.6 160 09:41 30.04.2020
4040 Clouds 11 1007 81 10000 3.6 160 09:22 30.04.2020
4041 Rain 11 1007 81 10000 3.1 130 08:49 30.04.2020
4042 Rain 10 1007 87 10000 3.6 120 08:27 30.04.2020
4043 Rain 9 1007 93 10000 3.1 120 07:58 30.04.2020
4044 Rain 9 1007 93 10000 3.1 120 07:58 30.04.2020
4045 Rain 9 1007 93 10000 3.6 110 07:40 30.04.2020
4046 Rain 9 1007 93 10000 3.6 110 07:21 30.04.2020
4047 Clouds 8 1007 93 10000 3.6 100 06:38 30.04.2020
4048 Clouds 8 1008 87 10000 2.6 110 05:49 30.04.2020
4049 Clouds 7 1008 93 10000 3.1 110 05:27 30.04.2020
4050 Clouds 8 1008 87 10000 3.6 110 04:29 30.04.2020
4051 Clouds 8 1009 93 10000 2.6 110 02:57 30.04.2020
4052 Clouds 8 1009 93 10000 2.6 110 02:57 30.04.2020
4053 Clouds 9 1009 87 10000 3.6 110 02:29 30.04.2020
4054 Clouds 9 1009 87 10000 2.1 120 01:48 30.04.2020
4055 Clouds 10 1009 87 10000 2.6 160 00:58 30.04.2020
4056 Clouds 10 1009 87 10000 2.6 180 00:36 30.04.2020
4057 Clouds 11 1009 87 10000 2.6 180 00:18 30.04.2020
4058 Clouds 11 1009 81 10000 2.6 170 23:42 29.04.2020
4059 Clouds 11 1009 81 10000 2.6 170 23:23 29.04.2020
4060 Clouds 11 1009 81 10000 3.6 180 22:58 29.04.2020
4061 Clouds 12 1009 76 10000 3.1 180 22:39 29.04.2020
4062 Clouds 12 1009 76 10000 3.1 180 22:20 29.04.2020
4063 Clouds 12 1009 71 10000 3.6 190 21:39 29.04.2020
4064 Clouds 13 1009 71 10000 3.6 190 21:21 29.04.2020
4065 Clouds 14 1008 67 10000 3.6 200 20:59 29.04.2020
4066 Clouds 15 1008 62 10000 4.6 200 20:40 29.04.2020
4067 Clouds 15 1008 62 10000 4.6 200 20:19 29.04.2020
4068 Clouds 16 1008 51 10000 5.1 230 19:57 29.04.2020
4069 Clouds 16 1008 45 10000 6.2 260 19:39 29.04.2020
4070 Clouds 16 1008 45 10000 6.2 260 19:18 29.04.2020
4071 Clouds 17 1008 51 10000 3.6 280 18:42 29.04.2020
4072 Clouds 17 1008 42 10000 7.2 260 18:20 29.04.2020
4073 Clouds 17 1008 42 10000 7.2 260 17:56 29.04.2020
4074 Clouds 17 1008 51 10000 5.1 240 17:37 29.04.2020
4075 Clouds 17 1008 48 10000 5.7 240 17:19 29.04.2020
4076 Clouds 16 1008 55 10000 7.7 230 16:37 29.04.2020
4077 Clouds 16 1008 55 10000 7.7 230 16:19 29.04.2020
4078 Rain 16 1008 59 10000 2.6 300 15:57 29.04.2020
4079 Clouds 16 1008 54 10000 5.7 320 15:38 29.04.2020
4080 Clouds 16 1008 54 10000 5.7 320 15:20 29.04.2020
4081 Rain 16 1008 63 10000 1 0 14:45 29.04.2020
4082 Rain 16 1008 63 10000 1 0 14:26 29.04.2020
4083 Rain 15 1008 76 10000 4.1 320 13:58 29.04.2020
4084 Clouds 15 1008 55 10000 5.1 270 13:40 29.04.2020
4085 Clouds 15 1008 55 10000 5.1 270 13:20 29.04.2020
4086 Clouds 15 1008 59 10000 4.6 260 12:56 29.04.2020
4087 Clouds 15 1008 59 10000 4.1 260 12:37 29.04.2020
4088 Clouds 15 1008 62 10000 4.1 280 12:18 29.04.2020
4089 Clouds 15 1008 71 10000 4.6 280 11:39 29.04.2020
4090 Clouds 14 1008 71 10000 4.6 280 11:39 29.04.2020
4091 Clouds 14 1008 71 10000 4.6 280 11:20 29.04.2020
4092 Clouds 14 1008 71 10000 5.7 270 10:55 29.04.2020
4093 Clouds 13 1008 76 10000 4.6 270 10:37 29.04.2020
4094 Clouds 13 1008 76 10000 4.6 270 10:18 29.04.2020
4095 Clouds 13 1007 82 10000 2.6 240 09:41 29.04.2020
4096 Clouds 12 1007 82 10000 2.6 240 09:21 29.04.2020
4097 Rain 12 1007 87 10000 2.1 230 08:44 29.04.2020
4098 Rain 11 1007 87 10000 2.1 230 08:26 29.04.2020
4099 Rain 11 1007 87 10000 2.1 230 08:26 29.04.2020
4100 Rain 11 1007 87 10000 2.6 220 07:56 29.04.2020
4101 Rain 11 1007 87 10000 2.6 220 07:37 29.04.2020
4102 Rain 11 1006 87 10000 2.6 220 07:18 29.04.2020
4103 Rain 11 1006 87 10000 2.6 220 06:45 29.04.2020
4104 Rain 11 1006 87 10000 3.6 230 06:26 29.04.2020
4105 Clouds 11 1006 76 10000 2.1 250 05:20 29.04.2020
4106 Clouds 10 1006 87 10000 0.5 0 04:20 29.04.2020
4107 Clouds 10 1006 87 10000 0.5 0 03:55 29.04.2020
4108 Clouds 10 1006 87 10000 0.5 0 02:32 29.04.2020
4109 Clouds 11 1006 87 10000 1 0 01:44 29.04.2020
4110 Clouds 11 1006 87 10000 1 0 01:20 29.04.2020
4111 Clouds 11 1006 93 10000 0.5 0 00:39 29.04.2020
4112 Clouds 12 1006 93 10000 0.5 0 00:18 29.04.2020
4113 Clouds 12 1006 87 10000 2.1 260 23:47 28.04.2020
4114 Clouds 13 1006 87 10000 1.5 270 23:22 28.04.2020
4115 Clouds 14 1006 82 10000 2.6 230 22:40 28.04.2020
4116 Clouds 13 1006 82 10000 2.6 230 22:22 28.04.2020
4117 Clouds 13 1006 82 10000 2.6 230 22:22 28.04.2020
4118 Clouds 14 1006 82 10000 2.6 220 21:59 28.04.2020
4119 Clouds 14 1006 82 10000 2.6 220 21:59 28.04.2020
4120 Clouds 14 1006 82 10000 2.1 220 21:41 28.04.2020
4121 Clouds 14 1006 82 10000 2.1 220 21:41 28.04.2020
4122 Clouds 14 1006 77 10000 2.6 210 21:23 28.04.2020
4123 Clouds 14 1006 77 10000 2.6 210 20:59 28.04.2020
4124 Clouds 15 1005 77 10000 2.6 220 20:40 28.04.2020
4125 Clouds 15 1005 77 10000 2.6 220 20:20 28.04.2020
4126 Clouds 15 1005 82 10000 2.1 220 19:57 28.04.2020
4127 Rain 15 1005 72 10000 4.1 250 19:39 28.04.2020
4128 Rain 15 1005 72 10000 5.1 250 19:20 28.04.2020
4129 Rain 15 1005 72 10000 5.1 250 18:57 28.04.2020
4130 Clouds 16 1005 63 10000 5.7 270 18:38 28.04.2020
4131 Clouds 16 1005 63 10000 5.7 270 18:18 28.04.2020
4132 Clouds 18 1005 49 10000 4.6 220 17:37 28.04.2020
4133 Clouds 17 1005 49 10000 4.6 220 17:19 28.04.2020
4134 Clouds 17 1005 49 10000 4.6 220 17:19 28.04.2020
4135 Rain 18 1005 59 10000 4.1 190 16:58 28.04.2020
4136 Rain 18 1005 59 10000 4.1 200 16:39 28.04.2020
4137 Rain 19 1005 59 10000 4.1 200 16:21 28.04.2020
4138 Rain 18 1006 63 0 3.1 200 15:56 28.04.2020
4139 Rain 18 1006 63 10000 5.1 250 15:38 28.04.2020
4140 Rain 17 1006 63 10000 5.1 250 15:20 28.04.2020
4141 Rain 18 1006 59 10000 5.1 230 14:54 28.04.2020
4142 Rain 19 1006 55 10000 3.1 250 14:36 28.04.2020
4143 Rain 19 1006 59 10000 3.1 270 14:18 28.04.2020
4144 Rain 18 1006 59 10000 3.1 270 13:55 28.04.2020
4145 Clouds 19 1006 48 10000 4.6 250 13:36 28.04.2020
4146 Clouds 19 1006 48 10000 4.1 230 13:18 28.04.2020
4147 Clouds 18 1006 55 10000 2.6 190 12:41 28.04.2020
4148 Clouds 17 1006 55 10000 2.6 190 12:22 28.04.2020
4149 Clouds 16 1006 55 10000 2.6 130 11:42 28.04.2020
4150 Clouds 16 1006 55 10000 2.6 130 11:22 28.04.2020
4151 Clouds 16 1006 55 10000 3.1 120 10:57 28.04.2020
4152 Clouds 16 1006 58 10000 2.6 130 10:38 28.04.2020
4153 Clouds 15 1006 62 10000 2.6 170 10:18 28.04.2020
4154 Clouds 15 1006 58 10000 3.1 160 09:43 28.04.2020
4155 Clouds 15 1006 58 10000 3.1 160 09:25 28.04.2020
4156 Clouds 13 1006 66 10000 2.6 150 08:55 28.04.2020
4157 Clouds 13 1006 66 10000 3.1 130 08:36 28.04.2020
4158 Clouds 12 1006 66 10000 3.1 130 08:18 28.04.2020
4159 Clouds 9 1006 87 10000 2.6 100 07:41 28.04.2020
4160 Clear 8 1006 87 10000 2.6 100 07:18 28.04.2020
4161 Clear 8 1006 93 10000 0.5 0 06:40 28.04.2020
4162 Clear 8 1006 87 10000 1.5 110 05:51 28.04.2020
4163 Clear 8 1006 81 10000 2.1 110 05:33 28.04.2020
4164 Clouds 9 1007 76 10000 1.5 100 04:33 28.04.2020
4165 Clouds 9 1007 76 10000 1.5 100 04:33 28.04.2020
4166 Clouds 11 1007 66 10000 3.1 110 02:38 28.04.2020
4167 Clouds 11 1007 66 10000 3.1 100 01:37 28.04.2020
4168 Clouds 11 1007 66 10000 3.1 100 01:18 28.04.2020
4169 Clouds 12 1007 62 10000 2.6 100 00:31 28.04.2020
4170 Clouds 12 1007 58 10000 2.1 100 23:56 27.04.2020
4171 Clouds 12 1007 58 10000 2.6 110 23:38 27.04.2020
4172 Clouds 12 1007 58 10000 2.6 110 23:19 27.04.2020
4173 Clouds 13 1007 50 10000 2.1 90 22:42 27.04.2020
4174 Clear 13 1007 50 10000 2.1 90 22:23 27.04.2020
4175 Clear 14 1007 47 10000 1.5 90 21:57 27.04.2020
4176 Clear 15 1007 44 10000 1 0 21:38 27.04.2020
4177 Clouds 16 1007 37 10000 0.5 30 21:19 27.04.2020
4178 Clouds 17 1007 37 10000 0.5 30 20:56 27.04.2020
4179 Clouds 18 1007 32 10000 2.1 300 20:38 27.04.2020
4180 Clouds 20 1007 30 10000 3.1 250 20:19 27.04.2020
4181 Clouds 20 1007 28 10000 2.1 270 19:40 27.04.2020
4182 Clouds 21 1007 32 10000 1 0 19:22 27.04.2020
4183 Clouds 21 1007 32 10000 1 0 18:59 27.04.2020
4184 Clouds 21 1007 32 10000 2.6 280 18:40 27.04.2020
4185 Rain 21 1008 30 10000 4.6 250 18:19 27.04.2020
4186 Rain 21 1008 30 10000 4.6 250 18:19 27.04.2020
4187 Rain 22 1008 30 10000 4.6 250 17:58 27.04.2020
4188 Rain 22 1008 32 10000 2.6 220 17:39 27.04.2020
4189 Clouds 21 1008 32 10000 3.6 200 17:19 27.04.2020
4190 Clouds 21 1008 30 10000 3.6 170 16:40 27.04.2020
4191 Clouds 21 1008 30 10000 3.6 170 16:22 27.04.2020
4192 Clouds 21 1008 32 10000 6.7 270 15:57 27.04.2020
4193 Rain 21 1009 32 10000 3.6 0 15:38 27.04.2020
4194 Rain 21 1009 32 10000 3.6 0 15:19 27.04.2020
4195 Rain 21 1009 32 10000 2.6 210 14:58 27.04.2020
4196 Rain 21 1009 40 10000 2.6 260 14:39 27.04.2020
4197 Clouds 20 1009 40 10000 2.6 260 14:18 27.04.2020
4198 Clouds 19 1010 39 10000 2.6 0 13:42 27.04.2020
4199 Clouds 19 1010 39 10000 2.6 0 13:22 27.04.2020
4200 Clouds 18 1010 42 10000 2.1 0 12:58 27.04.2020
4201 Clouds 18 1010 42 10000 1 0 12:40 27.04.2020
4202 Clouds 15 1011 51 10000 1.5 80 12:20 27.04.2020
4203 Clouds 15 1011 58 10000 2.1 90 11:41 27.04.2020
4204 Clouds 13 1011 58 10000 2.1 90 11:21 27.04.2020
4205 Clouds 15 1011 58 10000 2.6 110 10:58 27.04.2020
4206 Clouds 15 1011 58 10000 1.5 120 10:39 27.04.2020
4207 Clouds 14 1011 58 10000 1.5 120 10:20 27.04.2020
4208 Clouds 10 1011 70 10000 2.6 140 09:44 27.04.2020
4209 Clouds 9 1011 70 10000 2.6 140 09:21 27.04.2020
4210 Clouds 8 1011 65 10000 1 0 08:59 27.04.2020
4211 Rain 6 1010 70 10000 1.5 0 08:41 27.04.2020
4212 Rain 6 1010 70 10000 1.5 0 08:23 27.04.2020
4213 Clouds 6 1010 52 10000 2.6 100 07:44 27.04.2020
4214 Clouds 5 1010 52 10000 2.1 130 07:21 27.04.2020
4215 Clouds 4 1010 52 10000 2.1 130 06:56 27.04.2020
4216 Clouds 4 1010 52 10000 2.1 130 06:56 27.04.2020
4217 Clouds 5 1010 69 10000 2.1 110 06:27 27.04.2020
4218 Clouds 5 1010 69 10000 2.1 110 06:27 27.04.2020
4219 Clouds 4 1010 69 10000 2.1 100 05:50 27.04.2020
4220 Clouds 4 1010 69 10000 2.1 90 04:49 27.04.2020
4221 Clouds 5 1010 69 10000 2.1 100 03:59 27.04.2020
4222 Clouds 5 1010 69 10000 2.1 100 03:59 27.04.2020
4223 Clouds 5 1010 69 10000 2.1 100 03:35 27.04.2020
4224 Clouds 6 1010 60 10000 1 0 01:41 27.04.2020
4225 Clouds 7 1010 54 10000 0.5 0 00:59 27.04.2020
4226 Clear 7 1010 56 10000 1 50 00:20 27.04.2020
4227 Clear 8 1010 61 10000 0.5 0 23:56 26.04.2020
4228 Clear 8 1010 56 10000 1 0 23:38 26.04.2020
4229 Clear 8 1010 56 10000 1 0 23:19 26.04.2020
4230 Clear 9 1009 53 10000 0.5 0 22:58 26.04.2020
4231 Clear 10 1009 53 10000 1.5 50 22:39 26.04.2020
4232 Clear 10 1009 53 10000 1.5 50 22:39 26.04.2020
4233 Clear 10 1009 53 10000 1.5 50 22:20 26.04.2020
4234 Clear 11 1009 43 10000 2.1 40 21:57 26.04.2020
4235 Clear 12 1009 37 10000 1.5 10 21:38 26.04.2020
4236 Clear 13 1009 37 10000 1.5 10 21:18 26.04.2020
4237 Clear 17 1009 23 10000 2.1 330 20:42 26.04.2020
4238 Clear 17 1009 23 10000 2.1 330 20:23 26.04.2020
4239 Clear 17 1009 23 10000 2.6 310 19:59 26.04.2020
4240 Clear 17 1009 24 10000 2.1 320 19:38 26.04.2020
4241 Clear 18 1009 24 10000 2.1 320 19:20 26.04.2020
4242 Clear 19 1009 22 10000 2.6 320 18:55 26.04.2020
4243 Clear 18 1009 24 10000 2.6 320 18:36 26.04.2020
4244 Clear 19 1009 22 10000 2.6 0 18:18 26.04.2020
4245 Clear 19 1009 24 10000 1 0 17:41 26.04.2020
4246 Clear 19 1009 24 10000 1 0 17:22 26.04.2020
4247 Clear 19 1009 22 10000 3.6 240 16:55 26.04.2020
4248 Clear 19 1009 22 10000 3.6 240 16:55 26.04.2020
4249 Clear 20 1010 20 10000 2.1 0 16:36 26.04.2020
4250 Clear 20 1010 20 10000 2.1 0 16:18 26.04.2020
4251 Clear 20 1010 24 10000 3.1 0 15:54 26.04.2020
4252 Clear 20 1010 24 10000 1.5 0 15:36 26.04.2020
4253 Clear 19 1010 27 10000 2.6 270 15:18 26.04.2020
4254 Clear 18 1010 31 10000 1.5 0 14:40 26.04.2020
4255 Clear 18 1010 31 10000 1.5 0 14:19 26.04.2020
4256 Clear 17 1011 33 10000 3.1 320 13:58 26.04.2020
4257 Clear 17 1011 36 10000 3.1 300 13:38 26.04.2020
4258 Clear 17 1011 36 10000 3.1 300 13:19 26.04.2020
4259 Clear 17 1011 36 10000 3.1 300 13:19 26.04.2020
4260 Clear 16 1011 36 10000 2.6 280 12:54 26.04.2020
4261 Clear 16 1011 38 10000 2.1 280 12:36 26.04.2020
4262 Clear 16 1011 38 10000 2.1 280 12:36 26.04.2020
4263 Clear 15 1011 38 10000 2.1 280 12:18 26.04.2020
4264 Clear 14 1011 38 10000 1.5 0 11:41 26.04.2020
4265 Clear 14 1011 38 10000 1.5 0 11:23 26.04.2020
4266 Clear 13 1012 47 10000 1.5 0 11:23 26.04.2020
4267 Clear 13 1012 47 10000 1.5 0 10:58 26.04.2020
4268 Clear 12 1011 47 10000 1.5 150 10:40 26.04.2020
4269 Clear 12 1011 47 10000 1.5 150 10:40 26.04.2020
4270 Clear 12 1011 47 10000 1.5 150 10:22 26.04.2020
4271 Clear 11 1011 50 10000 1 0 09:57 26.04.2020
4272 Clear 10 1011 57 10000 1 0 09:37 26.04.2020
4273 Clouds 9 1011 57 10000 1 0 09:18 26.04.2020
4274 Clouds 7 1011 65 10000 0.5 0 08:41 26.04.2020
4275 Clouds 6 1011 65 10000 0.5 0 08:20 26.04.2020
4276 Clouds 3 1011 80 10000 0.5 340 07:48 26.04.2020
4277 Clouds 3 1011 80 10000 0.5 340 07:22 26.04.2020
4278 Clouds 2 1011 86 10000 1 0 06:45 26.04.2020
4279 Clouds 2 1011 86 10000 0.5 0 06:18 26.04.2020
4280 Clouds 2 1011 86 10000 1 70 05:45 26.04.2020
4281 Clouds 2 1011 86 10000 1 70 05:25 26.04.2020
4282 Clouds 3 1011 80 10000 1 60 04:24 26.04.2020
4283 Clouds 4 1011 86 10000 0.5 0 03:32 26.04.2020
4284 Clear 5 1011 64 10000 1 40 02:32 26.04.2020
4285 Clear 6 1011 70 10000 0.5 0 01:52 26.04.2020
4286 Clear 6 1011 65 10000 1.98 72 01:27 26.04.2020
4287 Clear 7 1011 65 10000 0.5 0 00:40 26.04.2020
4288 Clear 8 1011 65 10000 0.5 0 00:19 26.04.2020
4289 Clear 9 1011 57 10000 3.1 80 23:39 25.04.2020
4290 Clear 9 1011 57 10000 3.1 80 23:21 25.04.2020
4291 Clear 10 1010 53 10000 3.6 70 22:58 25.04.2020
4292 Clear 10 1010 53 10000 3.1 70 22:40 25.04.2020
4293 Clear 10 1010 50 10000 1.5 20 22:19 25.04.2020
4294 Clear 11 1010 50 10000 1.5 20 21:56 25.04.2020
4295 Clouds 12 1010 43 10000 2.1 10 21:36 25.04.2020
4296 Clouds 13 1009 38 10000 2.6 360 21:18 25.04.2020
4297 Clouds 14 1009 31 10000 2.6 320 20:42 25.04.2020
4298 Clouds 15 1009 31 10000 2.6 320 20:22 25.04.2020
4299 Clouds 15 1009 52 10000 4.6 300 19:56 25.04.2020
4300 Clouds 16 1009 52 10000 3.1 280 19:38 25.04.2020
4301 Clouds 17 1009 29 10000 4.6 330 19:19 25.04.2020
4302 Clouds 17 1010 29 10000 3.1 360 18:42 25.04.2020
4303 Clear 16 1010 29 10000 3.1 360 18:21 25.04.2020
4304 Clear 17 1010 29 10000 3.1 0 17:58 25.04.2020
4305 Clear 17 1010 31 10000 3.1 300 17:39 25.04.2020
4306 Clear 17 1010 33 10000 2.6 350 17:20 25.04.2020
4307 Clear 17 1010 33 10000 2.6 350 16:57 25.04.2020
4308 Clear 17 1010 33 10000 3.6 0 16:38 25.04.2020
4309 Clear 17 1011 28 10000 3.6 0 16:19 25.04.2020
4310 Clear 16 1011 28 10000 2.6 340 15:42 25.04.2020
4311 Clear 16 1011 31 10000 2.6 340 15:21 25.04.2020
4312 Clear 16 1011 31 10000 4.1 270 14:58 25.04.2020
4313 Clear 16 1011 31 10000 4.1 270 14:58 25.04.2020
4314 Clear 16 1011 33 10000 2.6 0 14:39 25.04.2020
4315 Clear 16 1011 33 10000 2.6 0 14:20 25.04.2020
4316 Clear 16 1011 33 10000 2.6 0 14:20 25.04.2020
4317 Clear 15 1012 31 10000 3.6 310 13:54 25.04.2020
4318 Clear 15 1012 41 10000 3.6 300 13:36 25.04.2020
4319 Clear 15 1012 41 10000 4.6 290 13:18 25.04.2020
4320 Clouds 14 1012 43 10000 4.6 300 12:42 25.04.2020
4321 Clouds 13 1012 43 10000 4.6 300 12:21 25.04.2020
4322 Clouds 13 1012 43 10000 3.6 290 11:59 25.04.2020
4323 Clear 12 1012 46 10000 4.6 290 11:41 25.04.2020
4324 Clear 12 1012 46 10000 4.6 290 11:22 25.04.2020
4325 Clear 12 1012 50 10000 4.6 340 10:45 25.04.2020
4326 Clear 12 1012 50 10000 4.6 340 10:26 25.04.2020
4327 Clear 11 1011 50 10000 5.1 350 09:57 25.04.2020
4328 Clear 11 1011 50 10000 5.1 340 09:39 25.04.2020
4329 Clear 11 1011 50 10000 5.1 340 09:21 25.04.2020
4330 Clear 9 1010 70 10000 1.5 290 08:41 25.04.2020
4331 Clear 9 1010 70 10000 1.5 290 08:41 25.04.2020
4332 Clear 9 1010 70 10000 1.5 290 08:22 25.04.2020
4333 Clear 8 1010 70 10000 1 300 07:59 25.04.2020
4334 Clear 6 1010 80 10000 1 350 07:41 25.04.2020
4335 Clear 5 1010 86 10000 1 0 06:57 25.04.2020
4336 Clear 5 1009 86 10000 1 0 06:36 25.04.2020
4337 Clear 6 1009 86 10000 1 360 05:42 25.04.2020
4338 Clear 6 1009 86 10000 1 360 05:24 25.04.2020
4339 Clouds 8 1009 75 10000 1 350 03:29 25.04.2020
4340 Clouds 9 1009 66 10000 1 350 02:36 25.04.2020
4341 Clouds 9 1009 70 10000 2.1 310 01:56 25.04.2020
4342 Clouds 9 1009 66 10000 1.5 320 01:37 25.04.2020
4343 Clouds 10 1008 61 10000 0.5 0 01:18 25.04.2020
4344 Clouds 11 1008 54 10000 1 0 00:38 25.04.2020
4345 Clouds 11 1009 58 10000 1.5 250 23:59 24.04.2020
4346 Clouds 12 1009 50 10000 1.5 240 23:40 24.04.2020
4347 Clouds 12 1009 50 10000 1.5 240 23:20 24.04.2020
4348 Clouds 13 1009 44 10000 1.5 250 22:41 24.04.2020
4349 Clouds 14 1009 44 10000 1.5 250 22:20 24.04.2020
4350 Clouds 15 1009 41 10000 1.5 260 21:58 24.04.2020
4351 Clouds 16 1009 39 10000 2.6 270 21:39 24.04.2020
4352 Clouds 16 1009 39 10000 2.6 270 21:21 24.04.2020
4353 Clouds 17 1008 36 10000 3.6 270 20:56 24.04.2020
4354 Clouds 18 1008 34 10000 4.1 290 20:38 24.04.2020
4355 Clouds 19 1008 34 10000 4.1 290 20:18 24.04.2020
4356 Clouds 19 1009 32 10000 5.1 310 19:43 24.04.2020
4357 Clouds 20 1009 32 10000 5.1 310 19:25 24.04.2020
4358 Clouds 20 1009 30 10000 7.2 290 18:46 24.04.2020
4359 Clouds 20 1009 30 10000 7.2 290 18:28 24.04.2020
4360 Clouds 21 1010 28 10000 8.2 270 17:59 24.04.2020
4361 Clouds 22 1010 30 10000 6.2 290 17:41 24.04.2020
4362 Clouds 22 1010 30 10000 6.2 290 17:22 24.04.2020
4363 Clouds 21 1010 32 10000 6.7 270 16:58 24.04.2020
4364 Clouds 21 1010 32 10000 6.7 270 16:58 24.04.2020
4365 Clouds 22 1010 30 10000 6.2 270 16:40 24.04.2020
4366 Clouds 22 1010 30 10000 6.2 270 16:40 24.04.2020
4367 Clouds 21 1010 26 10000 6.7 260 16:21 24.04.2020
4368 Clouds 21 1010 26 10000 6.7 260 15:55 24.04.2020
4369 Clouds 21 1011 28 10000 7.2 260 15:37 24.04.2020
4370 Clouds 21 1011 28 10000 7.2 260 15:18 24.04.2020
4371 Clouds 21 1011 30 10000 5.1 270 14:40 24.04.2020
4372 Clouds 21 1011 30 10000 5.1 270 14:20 24.04.2020
4373 Clouds 20 1012 32 10000 4.6 300 13:45 24.04.2020
4374 Clouds 20 1012 32 10000 4.6 300 13:27 24.04.2020
4375 Clouds 19 1012 37 10000 2.6 290 12:59 24.04.2020
4376 Clouds 19 1013 39 10000 2.6 290 12:41 24.04.2020
4377 Clouds 19 1013 39 10000 2.6 290 12:21 24.04.2020
4378 Clouds 18 1013 39 10000 2.6 300 11:57 24.04.2020
4379 Clouds 18 1013 39 10000 2.1 290 11:37 24.04.2020
4380 Clouds 17 1013 39 10000 2.1 290 11:18 24.04.2020
4381 Clouds 15 1013 41 10000 1.5 200 10:38 24.04.2020
4382 Clouds 15 1013 41 10000 1.5 200 10:20 24.04.2020
4383 Clouds 13 1013 50 10000 1.5 0 09:58 24.04.2020
4384 Clouds 11 1013 53 10000 2.1 120 09:39 24.04.2020
4385 Clouds 11 1013 53 10000 2.1 120 09:20 24.04.2020
4386 Clouds 8 1014 70 10000 2.1 120 08:43 24.04.2020
4387 Clouds 8 1014 70 10000 2.1 120 08:24 24.04.2020
4388 Clouds 6 1014 70 10000 3.6 100 07:59 24.04.2020
4389 Clouds 5 1014 80 10000 2.6 110 07:41 24.04.2020
4390 Clouds 4 1014 80 10000 2.6 110 07:23 24.04.2020
4391 Clouds 4 1014 57 10000 2.6 110 06:48 24.04.2020
4392 Clouds 4 1014 61 10000 3.6 110 06:30 24.04.2020
4393 Clouds 4 1014 80 10000 3.1 110 05:39 24.04.2020
4394 Clouds 6 1015 70 10000 3.6 100 03:41 24.04.2020
4395 Clear 6 1015 65 10000 2.6 110 02:55 24.04.2020
4396 Clear 6 1016 65 10000 1.5 110 02:37 24.04.2020
4397 Clear 8 1016 61 10000 1.5 130 01:47 24.04.2020
4398 Clear 9 1016 57 10000 2.1 110 00:55 24.04.2020
4399 Clear 9 1016 57 10000 1 0 00:20 24.04.2020
4400 Clear 10 1016 53 10000 0.5 0 23:48 23.04.2020
4401 Clear 10 1017 53 10000 1 0 23:28 23.04.2020
4402 Clear 11 1017 53 10000 1 60 22:58 23.04.2020
4403 Clear 12 1017 53 10000 1.5 100 22:39 23.04.2020
4404 Clear 13 1017 41 10000 1.5 50 22:20 23.04.2020
4405 Clear 13 1017 41 10000 1.5 50 21:57 23.04.2020
4406 Clear 15 1016 36 10000 2.1 50 21:39 23.04.2020
4407 Clear 16 1016 48 10000 2.1 50 21:20 23.04.2020
4408 Clear 16 1016 48 10000 2.1 50 20:57 23.04.2020
4409 Clear 18 1016 48 10000 2.1 40 20:39 23.04.2020
4410 Clear 18 1016 48 10000 2.1 40 20:19 23.04.2020
4411 Clear 19 1016 48 10000 3.1 60 19:56 23.04.2020
4412 Clear 20 1017 22 10000 2.6 50 19:38 23.04.2020
4413 Clear 20 1017 21 10000 2.1 100 19:19 23.04.2020
4414 Clear 20 1017 21 10000 2.1 100 19:19 23.04.2020
4415 Clear 21 1017 21 10000 2.6 130 18:41 23.04.2020
4416 Clear 21 1017 21 10000 2.6 130 18:22 23.04.2020
4417 Clear 21 1017 30 10000 3.1 0 17:58 23.04.2020
4418 Clear 21 1018 21 10000 3.1 90 17:39 23.04.2020
4419 Clear 21 1018 30 10000 3.1 110 17:21 23.04.2020
4420 Clear 21 1018 30 10000 3.1 110 16:55 23.04.2020
4421 Clear 21 1018 24 10000 3.1 0 16:37 23.04.2020
4422 Clear 21 1019 26 10000 4.6 120 16:18 23.04.2020
4423 Clear 21 1019 30 10000 2.6 0 15:41 23.04.2020
4424 Clear 21 1019 30 10000 2.6 0 15:41 23.04.2020
4425 Clear 20 1019 30 10000 2.6 0 15:22 23.04.2020
4426 Clear 20 1019 30 10000 2.1 0 14:56 23.04.2020
4427 Clear 20 1020 24 10000 3.6 60 14:37 23.04.2020
4428 Clear 20 1020 24 10000 3.6 60 14:18 23.04.2020
4429 Clear 19 1020 31 10000 1.5 0 13:40 23.04.2020
4430 Clear 19 1020 31 10000 1.5 0 13:22 23.04.2020
4431 Clear 18 1020 31 10000 3.6 110 12:58 23.04.2020
4432 Clear 18 1020 31 10000 3.1 0 12:40 23.04.2020
4433 Clear 17 1020 31 10000 3.1 0 12:21 23.04.2020
4434 Clear 16 1020 36 10000 4.6 100 11:47 23.04.2020
4435 Clear 16 1020 36 10000 4.6 100 11:28 23.04.2020
4436 Clear 15 1021 38 10000 5.7 110 10:59 23.04.2020
4437 Clear 15 1020 38 10000 3.6 110 10:40 23.04.2020
4438 Clear 14 1020 38 10000 3.6 110 10:20 23.04.2020
4439 Clear 12 1020 39 10000 3.1 60 09:40 23.04.2020
4440 Clear 12 1020 59 10000 3.1 60 09:19 23.04.2020
4441 Clear 10 1020 53 10000 2.1 70 08:51 23.04.2020
4442 Clear 9 1020 53 10000 2.1 70 08:32 23.04.2020
4443 Clear 8 1021 59 10000 1.5 70 07:58 23.04.2020
4444 Clear 7 1021 65 10000 1 0 07:39 23.04.2020
4445 Clear 7 1021 65 10000 1 0 07:21 23.04.2020
4446 Clear 6 1020 59 10000 1.5 330 06:45 23.04.2020
4447 Clear 6 1020 66 10000 1 0 05:54 23.04.2020
4448 Clear 7 1020 66 10000 1.5 330 05:21 23.04.2020
4449 Clear 7 1020 52 10000 2.1 30 03:48 23.04.2020
4450 Clear 9 1019 46 10000 2.1 60 02:23 23.04.2020
4451 Clear 10 1019 40 10000 2.6 80 01:38 23.04.2020
4452 Clear 11 1019 37 10000 3.6 70 00:56 23.04.2020
4453 Clear 12 1019 37 10000 3.6 70 00:28 23.04.2020
4454 Clear 12 1019 37 10000 3.6 70 00:28 23.04.2020
4455 Clear 12 1019 37 10000 3.6 80 23:58 22.04.2020
4456 Clear 13 1019 59 10000 3.1 70 23:40 22.04.2020
4457 Clear 13 1019 59 10000 3.1 70 23:19 22.04.2020
4458 Clear 14 1019 59 10000 3.1 60 22:40 22.04.2020
4459 Clear 14 1019 59 10000 3.1 60 22:20 22.04.2020
4460 Clear 14 1019 38 10000 2.1 40 21:59 22.04.2020
4461 Clear 16 1018 36 10000 3.1 60 21:40 22.04.2020
4462 Clear 15 1018 36 10000 3.1 60 21:21 22.04.2020
4463 Clear 16 1018 33 10000 3.6 60 20:57 22.04.2020
4464 Clear 17 1018 31 10000 5.1 70 20:39 22.04.2020
4465 Clear 17 1017 48 10000 5.1 70 20:18 22.04.2020
4466 Clear 18 1017 48 10000 5.1 70 19:56 22.04.2020
4467 Clear 19 1017 24 10000 5.1 80 19:37 22.04.2020
4468 Clear 19 1017 24 10000 5.7 80 19:18 22.04.2020
4469 Clear 19 1017 24 10000 5.7 80 18:56 22.04.2020
4470 Clear 20 1017 48 10000 6.2 70 18:37 22.04.2020
4471 Clear 20 1017 22 10000 7.2 90 18:19 22.04.2020
4472 Clear 20 1017 34 10000 6.2 70 17:42 22.04.2020
4473 Clear 21 1017 34 10000 6.2 70 17:24 22.04.2020
4474 Clear 21 1017 22 10000 5.7 70 16:56 22.04.2020
4475 Clear 20 1017 21 10000 7.2 80 16:36 22.04.2020
4476 Clear 21 1017 21 10000 7.2 80 16:18 22.04.2020
4477 Clear 20 1018 22 0 5.1 70 15:38 22.04.2020
4478 Clear 20 1018 22 0 5.1 70 15:20 22.04.2020
4479 Clear 19 1018 22 10000 6.7 80 14:56 22.04.2020
4480 Clear 19 1018 22 10000 7.7 80 14:37 22.04.2020
4481 Clear 19 1018 22 10000 7.7 80 14:37 22.04.2020
4482 Clear 19 1018 24 10000 7.7 90 14:19 22.04.2020
4483 Clear 19 1018 22 10000 7.7 80 14:19 22.04.2020
4484 Clear 19 1018 24 10000 7.2 70 13:44 22.04.2020
4485 Clear 19 1018 24 10000 7.2 70 13:20 22.04.2020
4486 Clear 18 1018 27 10000 10.8 90 12:44 22.04.2020
4487 Clear 16 1018 27 10000 10.8 90 12:26 22.04.2020
4488 Clear 16 1018 27 10000 9.8 90 11:59 22.04.2020
4489 Clear 16 1019 30 10000 8.2 80 11:39 22.04.2020
4490 Clear 16 1019 30 10000 8.2 80 11:20 22.04.2020
4491 Clear 16 1019 30 10000 8.2 80 11:20 22.04.2020
4492 Clear 14 1019 33 10000 8.7 90 10:45 22.04.2020
4493 Clear 13 1019 35 10000 6.2 90 10:25 22.04.2020
4494 Clear 13 1019 35 10000 6.2 90 09:56 22.04.2020
4495 Clear 12 1019 37 10000 6.2 90 09:37 22.04.2020
4496 Clear 11 1019 40 10000 5.7 80 09:19 22.04.2020
4497 Clear 10 1018 43 10000 5.7 90 08:42 22.04.2020
4498 Clear 10 1018 43 10000 3.1 80 08:23 22.04.2020
4499 Clear 10 1018 43 10000 3.1 80 08:23 22.04.2020
4500 Clear 9 1018 43 10000 3.1 80 07:58 22.04.2020
4501 Clear 9 1018 45 10000 3.6 80 07:39 22.04.2020
4502 Clear 8 1018 45 10000 3.6 80 07:19 22.04.2020
4503 Clear 8 1018 45 10000 4.1 80 06:42 22.04.2020
4504 Clear 8 1018 45 10000 4.1 90 05:45 22.04.2020
4505 Clear 9 1018 43 10000 6.2 80 04:46 22.04.2020
4506 Clear 10 1018 43 10000 7.2 90 03:40 22.04.2020
4507 Clear 11 1018 40 10000 6.7 80 02:28 22.04.2020
4508 Clear 11 1018 40 10000 6.7 80 02:28 22.04.2020
4509 Clear 11 1018 40 10000 5.1 80 01:41 22.04.2020
4510 Clear 12 1018 40 10000 5.1 80 01:21 22.04.2020
4511 Clear 12 1018 37 10000 6.2 90 00:41 22.04.2020
4512 Clear 12 1018 37 10000 6.2 90 00:20 22.04.2020
4513 Clear 13 1017 35 10000 6.7 80 23:44 21.04.2020
4514 Clear 13 1017 35 10000 6.7 80 23:22 21.04.2020
4515 Clear 13 1017 35 10000 6.2 80 22:58 21.04.2020
4516 Clear 13 1017 35 10000 6.2 70 22:39 21.04.2020
4517 Clear 14 1017 35 10000 6.2 70 22:19 21.04.2020
4518 Clear 14 1017 33 10000 5.1 70 21:43 21.04.2020
4519 Clear 14 1017 33 10000 5.1 70 21:24 21.04.2020
4520 Clear 15 1016 29 10000 6.7 70 20:59 21.04.2020
4521 Clear 15 1016 29 10000 6.7 70 20:59 21.04.2020
4522 Clear 15 1016 27 10000 8.2 80 20:40 21.04.2020
4523 Clear 16 1016 27 10000 8.2 80 20:22 21.04.2020
4524 Clear 16 1016 29 10000 7.2 80 19:56 21.04.2020
4525 Clear 17 1016 27 10000 7.7 80 19:36 21.04.2020
4526 Clear 17 1016 27 10000 7.7 80 19:18 21.04.2020
4527 Clear 18 1016 27 10000 7.7 80 18:54 21.04.2020
4528 Clear 18 1015 25 10000 9.8 90 18:36 21.04.2020
4529 Clear 18 1015 25 10000 9.8 90 18:18 21.04.2020
4530 Clear 18 1015 25 10000 6.7 70 17:39 21.04.2020
4531 Clear 18 1015 25 10000 6.7 70 17:19 21.04.2020
4532 Clear 19 1015 22 10000 7.2 80 16:54 21.04.2020
4533 Clear 19 1015 22 10000 7.2 80 16:36 21.04.2020
4534 Clear 19 1015 22 10000 7.2 80 16:18 21.04.2020
4535 Clear 19 1015 24 10000 8.2 80 15:54 21.04.2020
4536 Clear 19 1015 24 10000 8.2 70 15:36 21.04.2020
4537 Clear 19 1015 24 10000 8.2 70 15:18 21.04.2020
4538 Clear 18 1015 27 10000 7.7 70 14:43 21.04.2020
4539 Clear 18 1015 27 10000 7.7 70 14:23 21.04.2020
4540 Clear 18 1016 25 10000 7.2 70 13:55 21.04.2020
4541 Clear 17 1016 25 10000 9.3 80 13:37 21.04.2020
4542 Clear 17 1015 23 10000 11.3 80 13:18 21.04.2020
4543 Clear 16 1016 26 10000 10.3 80 12:38 21.04.2020
4544 Clear 16 1016 26 10000 10.3 80 12:19 21.04.2020
4545 Clear 16 1016 29 10000 7.7 80 11:57 21.04.2020
4546 Clear 15 1016 30 10000 7.7 80 11:38 21.04.2020
4547 Clear 14 1016 35 10000 8.2 80 11:19 21.04.2020
4548 Clear 13 1016 35 10000 8.2 80 10:58 21.04.2020
4549 Clear 13 1016 35 10000 8.2 80 10:39 21.04.2020
4550 Clear 13 1016 35 10000 8.2 80 10:20 21.04.2020
4551 Clear 12 1016 40 10000 8.2 90 09:55 21.04.2020
4552 Clear 11 1016 40 10000 6.2 90 09:36 21.04.2020
4553 Clear 11 1016 40 10000 6.2 90 09:36 21.04.2020
4554 Clear 10 1016 40 10000 6.2 90 09:18 21.04.2020
4555 Clear 9 1016 42 10000 4.6 70 08:42 21.04.2020
4556 Clear 8 1016 42 10000 4.6 70 08:23 21.04.2020
4557 Clear 8 1016 42 10000 3.6 70 07:49 21.04.2020
4558 Clear 8 1016 42 10000 3.6 70 07:49 21.04.2020
4559 Clear 7 1015 48 10000 4.6 80 07:24 21.04.2020
4560 Clear 7 1015 48 10000 4.6 80 06:50 21.04.2020
4561 Clear 7 1015 48 10000 4.1 80 06:24 21.04.2020
4562 Clear 7 1015 45 10000 3.6 80 05:49 21.04.2020
4563 Clear 8 1016 45 10000 4.6 70 04:54 21.04.2020
4564 Clear 9 1016 45 10000 6.2 80 03:45 21.04.2020
4565 Clear 10 1017 43 10000 5.7 80 01:53 21.04.2020
4566 Clear 10 1017 43 10000 6.2 70 01:29 21.04.2020
4567 Clear 10 1017 40 10000 5.1 60 00:38 21.04.2020
4568 Clear 10 1017 40 10000 5.1 70 23:48 20.04.2020
4569 Clear 11 1017 40 10000 5.1 70 23:26 20.04.2020
4570 Clear 11 1017 34 10000 5.1 70 22:59 20.04.2020
4571 Clear 11 1017 34 10000 5.7 70 22:41 20.04.2020
4572 Clear 11 1017 34 10000 5.7 70 22:21 20.04.2020
4573 Clear 11 1017 34 10000 5.7 70 22:21 20.04.2020
4574 Clear 12 1017 32 10000 5.7 70 21:59 20.04.2020
4575 Clear 12 1016 32 10000 5.1 70 21:39 20.04.2020
4576 Clear 12 1016 32 10000 5.1 70 21:20 20.04.2020
4577 Clear 13 1016 30 10000 6.2 70 20:59 20.04.2020
4578 Clear 13 1016 30 10000 6.7 60 20:40 20.04.2020
4579 Clear 14 1016 30 10000 6.7 60 20:19 20.04.2020
4580 Clear 14 1016 30 10000 8.2 60 19:59 20.04.2020
4581 Clear 14 1016 30 10000 8.2 60 19:59 20.04.2020
4582 Clear 15 1015 29 10000 6.2 70 19:39 20.04.2020
4583 Clear 15 1015 29 10000 6.2 70 19:39 20.04.2020
4584 Clear 16 1015 29 10000 6.2 70 19:19 20.04.2020
4585 Clear 16 1015 31 10000 7.2 70 18:54 20.04.2020
4586 Clear 16 1015 31 10000 7.2 70 18:54 20.04.2020
4587 Rain 17 1015 29 10000 7.7 70 18:36 20.04.2020
4588 Rain 17 1015 29 10000 7.7 70 18:36 20.04.2020
4589 Rain 17 1015 27 10000 8.7 80 18:18 20.04.2020
4590 Rain 17 1015 29 10000 7.7 80 17:40 20.04.2020
4591 Rain 18 1015 27 10000 8.2 70 17:22 20.04.2020
4592 Rain 18 1015 27 10000 8.2 70 16:59 20.04.2020
4593 Rain 18 1016 29 10000 7.2 70 16:40 20.04.2020
4594 Rain 17 1016 29 10000 7.2 70 16:19 20.04.2020
4595 Rain 18 1016 27 10000 8.2 80 15:45 20.04.2020
4596 Clear 17 1016 25 10000 7.7 70 15:25 20.04.2020
4597 Rain 17 1016 25 10000 7.7 70 14:59 20.04.2020
4598 Rain 17 1016 26 10000 8.2 60 14:40 20.04.2020
4599 Rain 17 1016 26 10000 8.2 60 14:19 20.04.2020
4600 Clear 16 1017 25 10000 7.2 70 13:56 20.04.2020
4601 Clear 16 1017 25 10000 7.2 70 13:56 20.04.2020
4602 Clear 16 1017 25 10000 7.2 70 13:56 20.04.2020
4603 Clear 16 1017 26 10000 6.7 80 13:37 20.04.2020
4604 Clear 15 1017 30 10000 8.2 70 13:19 20.04.2020
4605 Clear 14 1017 30 10000 8.2 70 12:43 20.04.2020
4606 Clear 14 1017 32 10000 7.7 70 12:22 20.04.2020
4607 Clear 14 1017 32 10000 6.7 70 11:43 20.04.2020
4608 Clear 13 1017 32 10000 6.7 70 11:23 20.04.2020
4609 Clear 12 1017 34 10000 7.2 80 10:57 20.04.2020
4610 Clear 11 1018 34 10000 7.7 80 10:39 20.04.2020
4611 Clear 12 1018 34 10000 7.7 80 10:20 20.04.2020
4612 Clear 11 1018 39 10000 7.2 80 09:59 20.04.2020
4613 Clear 9 1018 42 10000 6.7 70 09:40 20.04.2020
4614 Clear 9 1018 42 10000 6.7 70 09:21 20.04.2020
4615 Clear 8 1018 45 10000 5.1 70 08:42 20.04.2020
4616 Clear 7 1018 45 10000 5.1 70 08:23 20.04.2020
4617 Clear 7 1018 48 10000 4.1 70 07:56 20.04.2020
4618 Clear 6 1018 56 10000 4.6 70 07:37 20.04.2020
4619 Clear 6 1018 56 10000 3.6 70 07:19 20.04.2020
4620 Clear 6 1018 56 10000 3.6 70 07:19 20.04.2020
4621 Clear 6 1018 56 10000 3.6 60 06:37 20.04.2020
4622 Clear 7 1018 56 10000 4.1 60 05:48 20.04.2020
4623 Clear 7 1018 52 10000 4.6 70 04:33 20.04.2020
4624 Clear 8 1018 65 10000 2.6 50 02:47 20.04.2020
4625 Clear 8 1018 65 10000 2.6 50 02:19 20.04.2020
4626 Clear 9 1018 61 10000 2.1 60 01:29 20.04.2020
4627 Clear 9 1018 65 10000 1.5 30 00:42 20.04.2020
4628 Clear 9 1018 65 10000 1.5 30 00:20 20.04.2020
4629 Clear 10 1018 57 10000 1.5 20 23:39 19.04.2020
4630 Clear 10 1018 57 10000 1.5 20 23:21 19.04.2020
4631 Clear 11 1018 53 10000 1.5 40 22:55 19.04.2020
4632 Clear 11 1017 50 10000 2.1 60 22:36 19.04.2020
4633 Clear 11 1017 50 10000 3.1 70 22:18 19.04.2020
4634 Clear 12 1017 54 10000 3.1 60 21:42 19.04.2020
4635 Clouds 12 1017 54 10000 3.1 60 21:23 19.04.2020
4636 Clouds 13 1017 50 10000 2.6 50 20:56 19.04.2020
4637 Clouds 13 1016 47 10000 3.6 60 20:38 19.04.2020
4638 Clouds 14 1016 47 10000 3.6 60 20:20 19.04.2020
4639 Clouds 15 1016 44 10000 4.6 70 19:56 19.04.2020
4640 Clouds 15 1016 44 10000 4.6 70 19:37 19.04.2020
4641 Clouds 15 1016 44 10000 4.6 70 19:19 19.04.2020
4642 Clouds 16 1016 58 10000 5.7 40 18:54 19.04.2020
4643 Clouds 16 1016 58 10000 5.7 40 18:36 19.04.2020
4644 Clouds 16 1016 55 10000 6.2 60 18:18 19.04.2020
4645 Clouds 17 1016 55 10000 6.2 60 17:54 19.04.2020
4646 Clouds 17 1015 48 10000 5.7 30 17:36 19.04.2020
4647 Clouds 17 1015 48 10000 5.7 30 17:36 19.04.2020
4648 Clouds 17 1015 48 10000 5.7 30 17:18 19.04.2020
4649 Clouds 17 1016 51 10000 5.7 50 16:39 19.04.2020
4650 Clouds 17 1016 51 10000 5.7 50 16:21 19.04.2020
4651 Clouds 17 1016 51 10000 5.7 50 15:57 19.04.2020
4652 Clouds 17 1016 59 10000 6.7 40 15:39 19.04.2020
4653 Clouds 17 1016 51 10000 4.6 20 15:18 19.04.2020
4654 Clouds 17 1016 51 10000 3.6 30 14:39 19.04.2020
4655 Clouds 17 1016 51 10000 3.6 80 14:20 19.04.2020
4656 Clouds 17 1016 51 10000 3.6 80 13:56 19.04.2020
4657 Clouds 17 1016 55 10000 5.1 110 13:36 19.04.2020
4658 Clouds 17 1016 55 10000 5.1 110 13:18 19.04.2020
4659 Clouds 15 1017 71 10000 3.6 60 12:43 19.04.2020
4660 Clouds 15 1017 71 10000 3.6 60 12:24 19.04.2020
4661 Clouds 14 1016 71 10000 2.1 20 11:39 19.04.2020
4662 Clouds 14 1016 76 10000 2.1 120 11:20 19.04.2020
4663 Clouds 14 1016 76 10000 2.1 120 10:59 19.04.2020
4664 Clouds 14 1016 82 10000 2.1 70 10:41 19.04.2020
4665 Clouds 13 1016 76 10000 4.1 30 10:20 19.04.2020
4666 Clouds 13 1016 76 10000 4.1 30 09:55 19.04.2020
4667 Clouds 13 1015 82 8000 2.1 50 09:36 19.04.2020
4668 Clouds 13 1015 82 8000 2.1 50 09:18 19.04.2020
4669 Mist 12 1015 93 4000 1.5 320 08:39 19.04.2020
4670 Mist 12 1015 93 4000 1.5 320 08:20 19.04.2020
4671 Clouds 11 1015 93 10000 1 0 07:45 19.04.2020
4672 Clouds 11 1015 93 10000 1 0 07:25 19.04.2020
4673 Clouds 10 1015 93 10000 1 220 06:55 19.04.2020
4674 Rain 10 1015 93 10000 0.5 330 06:19 19.04.2020
4675 Rain 10 1014 93 10000 1 70 04:56 19.04.2020
4676 Rain 11 1014 87 10000 1 330 03:34 19.04.2020
4677 Rain 12 1014 81 10000 1.5 180 02:22 19.04.2020
4678 Rain 13 1014 82 10000 1.5 260 01:39 19.04.2020
4679 Rain 13 1014 82 10000 1.5 260 01:21 19.04.2020
4680 Clouds 14 1014 72 10000 4.1 30 00:40 19.04.2020
4681 Clouds 15 1014 72 10000 4.1 30 00:19 19.04.2020
4682 Clouds 16 1014 63 10000 2.6 130 23:41 18.04.2020
4683 Clouds 16 1014 63 10000 2.6 130 23:19 18.04.2020
4684 Clouds 15 1014 59 10000 2.6 100 22:43 18.04.2020
4685 Clouds 15 1014 59 10000 2.6 100 22:24 18.04.2020
4686 Rain 17 1014 55 10000 2.1 120 21:58 18.04.2020
4687 Rain 17 1014 55 10000 2.1 120 21:39 18.04.2020
4688 Rain 17 1014 55 10000 2.1 120 21:21 18.04.2020
4689 Rain 17 1013 52 10000 1.5 70 20:58 18.04.2020
4690 Rain 18 1013 45 10000 1 20 20:40 18.04.2020
4691 Rain 19 1013 45 10000 1 20 20:18 18.04.2020
4692 Rain 20 1014 40 10000 2.1 330 19:40 18.04.2020
4693 Rain 21 1014 40 10000 2.1 330 19:22 18.04.2020
4694 Rain 22 1014 40 10000 1.5 0 18:39 18.04.2020
4695 Rain 22 1014 40 10000 1.5 0 18:20 18.04.2020
4696 Rain 22 1014 38 10000 2.1 280 17:57 18.04.2020
4697 Rain 22 1014 40 10000 1.5 0 17:39 18.04.2020
4698 Rain 22 1014 40 10000 1.5 0 17:18 18.04.2020
4699 Clouds 22 1014 40 10000 1 0 16:43 18.04.2020
4700 Clouds 22 1015 36 10000 2.1 0 16:22 18.04.2020
4701 Clouds 22 1015 36 10000 2.1 0 15:55 18.04.2020
4702 Clouds 21 1015 37 10000 2.1 0 15:37 18.04.2020
4703 Clouds 21 1015 43 10000 2.1 0 15:19 18.04.2020
4704 Clouds 20 1015 43 10000 1.5 320 14:44 18.04.2020
4705 Clouds 19 1016 48 10000 2.1 90 14:20 18.04.2020
4706 Clouds 18 1016 52 10000 1.5 90 13:43 18.04.2020
4707 Clouds 18 1016 52 10000 1.5 90 13:21 18.04.2020
4708 Rain 18 1016 48 10000 2.1 250 12:44 18.04.2020
4709 Clouds 18 1016 48 10000 2.1 250 12:26 18.04.2020
4710 Clouds 18 1016 42 10000 1 0 11:59 18.04.2020
4711 Clouds 18 1016 45 10000 1 0 11:40 18.04.2020
4712 Clouds 18 1016 45 10000 1 0 11:22 18.04.2020
4713 Clouds 18 1016 48 10000 1 0 10:56 18.04.2020
4714 Clouds 17 1016 48 10000 1.5 140 10:36 18.04.2020
4715 Clouds 16 1016 48 10000 1.5 140 10:18 18.04.2020
4716 Clouds 14 1016 66 10000 1 0 09:41 18.04.2020
4717 Clouds 13 1016 62 10000 0.5 0 09:21 18.04.2020
4718 Clouds 12 1016 71 10000 0.5 0 08:43 18.04.2020
4719 Clouds 11 1016 71 10000 0.5 0 08:23 18.04.2020
4720 Clouds 9 1015 81 10000 1 320 07:49 18.04.2020
4721 Clouds 8 1015 81 10000 1 360 07:30 18.04.2020
4722 Clouds 8 1015 87 10000 1 90 06:50 18.04.2020
4723 Clouds 8 1015 81 10000 1 50 05:50 18.04.2020
4724 Clouds 9 1014 81 10000 1 100 04:57 18.04.2020
4725 Clouds 9 1015 81 10000 1.5 20 04:32 18.04.2020
4726 Clouds 9 1015 81 10000 1.5 20 04:32 18.04.2020
4727 Clouds 10 1015 81 10000 0.5 0 03:43 18.04.2020
4728 Rain 11 1015 76 10000 1 350 02:42 18.04.2020
4729 Clouds 11 1015 76 10000 1 350 02:21 18.04.2020
4730 Clouds 11 1015 76 10000 1 350 02:21 18.04.2020
4731 Clouds 11 1015 76 10000 1 350 02:21 18.04.2020
4732 Clouds 11 1015 71 10000 0.5 0 01:48 18.04.2020
4733 Clouds 12 1015 71 10000 1 300 01:27 18.04.2020
4734 Clouds 13 1015 71 10000 1.5 330 00:38 18.04.2020
4735 Rain 13 1014 58 10000 2.1 70 00:18 18.04.2020
4736 Rain 14 1014 54 10000 1.5 70 23:41 17.04.2020
4737 Rain 14 1014 54 10000 1.5 70 23:20 17.04.2020
4738 -273 0 0 0 0 0 22:59 17.04.2020
4739 Rain 15 1014 51 10000 1.5 100 22:40 17.04.2020
4740 Rain 15 1014 51 10000 1.5 100 22:20 17.04.2020
4741 Rain 16 1014 51 10000 1 80 21:58 17.04.2020
4742 Rain 17 1014 45 10000 1.5 30 21:39 17.04.2020
4743 Rain 18 1014 42 10000 1 310 21:19 17.04.2020
4744 Rain 18 1014 42 10000 1 310 20:55 17.04.2020
4745 Rain 20 1014 40 10000 1.5 320 20:36 17.04.2020
4746 Rain 21 1014 35 10000 2.6 320 20:18 17.04.2020
4747 Rain 22 1013 33 10000 3.1 310 19:46 17.04.2020
4748 Rain 22 1013 33 10000 3.1 310 19:24 17.04.2020
4749 Rain 23 1013 29 10000 3.6 290 18:55 17.04.2020
4750 Rain 23 1013 29 10000 3.6 290 18:36 17.04.2020
4751 Clouds 24 1013 31 10000 4.1 290 18:18 17.04.2020
4752 Clouds 24 1014 29 10000 3.6 330 17:38 17.04.2020
4753 Clouds 24 1014 29 10000 3.6 330 17:19 17.04.2020
4754 Clouds 23 1014 33 10000 3.1 300 16:44 17.04.2020
4755 Clouds 23 1014 33 10000 3.1 300 16:24 17.04.2020
4756 Clouds 24 1014 31 10000 2.6 330 15:59 17.04.2020
4757 Clouds 23 1014 33 10000 2.6 340 15:39 17.04.2020
4758 Clouds 23 1014 33 10000 2.6 340 15:20 17.04.2020
4759 Clouds 23 1015 33 10000 2.1 0 14:42 17.04.2020
4760 Rain 23 1015 33 10000 2.1 0 14:23 17.04.2020
4761 Rain 23 1015 33 10000 3.1 290 13:58 17.04.2020
4762 Rain 23 1015 28 10000 2.1 0 13:39 17.04.2020
4763 Rain 23 1015 28 10000 2.1 0 13:20 17.04.2020
4764 Rain 22 1016 33 10000 1.5 0 12:48 17.04.2020
4765 Clouds 21 1016 33 10000 1.5 0 12:26 17.04.2020
4766 Clear 20 1017 37 10000 2.1 250 11:58 17.04.2020
4767 Clouds 20 1016 37 10000 1 0 11:37 17.04.2020
4768 Clouds 18 1016 39 10000 1 0 11:18 17.04.2020
4769 Clouds 17 1016 45 10000 1 0 10:40 17.04.2020
4770 Clouds 16 1016 45 10000 1 0 10:19 17.04.2020
4771 Clouds 14 1016 51 10000 1.5 130 09:55 17.04.2020
4772 Clouds 13 1016 58 10000 1.5 80 09:36 17.04.2020
4773 Clouds 12 1016 58 10000 1.5 80 09:18 17.04.2020
4774 Clouds 10 1016 66 10000 2.1 90 08:45 17.04.2020
4775 Clouds 9 1016 70 10000 2.6 100 08:25 17.04.2020
4776 Clouds 8 1016 75 10000 2.6 150 07:44 17.04.2020
4777 Clouds 8 1016 70 10000 2.6 100 07:25 17.04.2020
4778 Clouds 7 1016 75 10000 3.1 110 06:57 17.04.2020
4779 Clouds 7 1016 70 10000 3.1 100 06:27 17.04.2020
4780 Clouds 8 1016 66 10000 3.1 100 05:38 17.04.2020
4781 Clear 8 1016 66 10000 3.6 100 03:22 17.04.2020
4782 Clear 8 1016 66 10000 3.6 100 03:22 17.04.2020
4783 Clear 8 1016 70 10000 3.1 110 02:37 17.04.2020
4784 Clouds 9 1016 57 10000 3.6 100 01:30 17.04.2020
4785 Clouds 9 1016 61 10000 3.1 100 00:59 17.04.2020
4786 Clear 10 1016 61 10000 1 110 00:20 17.04.2020
4787 Clear 11 1016 62 10000 1.5 100 23:46 16.04.2020
4788 Clear 12 1016 54 10000 1 100 23:23 16.04.2020
4789 Clear 12 1016 47 10000 1 0 22:58 16.04.2020
4790 Clear 13 1016 47 10000 1 0 22:39 16.04.2020
4791 Clear 13 1016 47 10000 1 0 22:20 16.04.2020
4792 Clear 15 1015 42 10000 1.5 210 21:56 16.04.2020
4793 Clouds 15 1015 39 10000 1.5 240 21:37 16.04.2020
4794 Clouds 16 1015 39 10000 1.5 240 21:18 16.04.2020
4795 Clouds 18 1015 37 10000 2.1 240 20:40 16.04.2020
4796 Clouds 18 1015 32 10000 2.1 250 20:22 16.04.2020
4797 Clouds 20 1015 32 10000 2.1 280 19:56 16.04.2020
4798 Clouds 21 1015 28 10000 4.6 270 19:37 16.04.2020
4799 Clouds 21 1015 28 10000 4.6 270 19:19 16.04.2020
4800 Clouds 21 1015 26 10000 5.1 280 18:45 16.04.2020
4801 Clouds 22 1015 25 10000 3.6 280 18:26 16.04.2020
4802 Clouds 22 1015 25 10000 4.1 300 17:58 16.04.2020
4803 Clouds 22 1015 25 10000 4.1 300 17:39 16.04.2020
4804 Clouds 22 1016 23 10000 4.1 280 17:20 16.04.2020
4805 Clouds 22 1016 47 10000 4.1 270 16:44 16.04.2020
4806 Clouds 22 1016 23 10000 4.1 270 16:26 16.04.2020
4807 Clouds 22 1017 47 10000 5.7 270 15:55 16.04.2020
4808 Clouds 22 1017 47 10000 5.7 270 15:36 16.04.2020
4809 Clouds 22 1017 24 10000 2.6 0 15:18 16.04.2020
4810 Clouds 21 1017 24 10000 3.6 270 14:45 16.04.2020
4811 Clouds 21 1018 33 10000 2.6 290 14:25 16.04.2020
4812 Clouds 21 1018 22 10000 1.5 0 13:59 16.04.2020
4813 Clouds 21 1018 22 10000 1.5 0 13:40 16.04.2020
4814 Clouds 21 1018 22 10000 1.5 0 13:40 16.04.2020
4815 Clouds 20 1018 22 10000 2.1 170 13:21 16.04.2020
4816 Clouds 19 1018 22 10000 2.6 180 12:58 16.04.2020
4817 Clouds 19 1018 22 10000 2.6 180 12:39 16.04.2020
4818 Clouds 18 1018 23 10000 2.6 180 12:19 16.04.2020
4819 Clouds 17 1019 23 10000 2.6 200 11:57 16.04.2020
4820 Clouds 16 1019 23 10000 2.6 200 11:38 16.04.2020
4821 Clouds 16 1019 29 10000 2.1 190 11:20 16.04.2020
4822 Clouds 14 1019 33 10000 2.1 160 10:55 16.04.2020
4823 Clouds 13 1019 37 10000 2.1 110 10:36 16.04.2020
4824 Clouds 12 1019 37 10000 2.1 110 10:18 16.04.2020
4825 Clouds 10 1020 37 10000 1.5 110 09:39 16.04.2020
4826 Clouds 8 1020 56 10000 2.1 130 09:20 16.04.2020
4827 Clouds 6 1020 56 10000 2.1 140 08:56 16.04.2020
4828 Clouds 5 1020 56 10000 2.1 140 08:36 16.04.2020
4829 Clouds 5 1020 56 10000 1.5 110 08:18 16.04.2020
4830 Clouds 5 1020 56 10000 1.5 110 08:18 16.04.2020
4831 Clouds 4 1020 80 10000 2.6 110 07:42 16.04.2020
4832 Clouds 3 1020 56 10000 2.6 110 07:20 16.04.2020
4833 Clouds 2 1020 80 10000 1.5 100 06:41 16.04.2020
4834 Clouds 2 1020 86 10000 1.5 110 06:22 16.04.2020
4835 Clouds 3 1020 80 10000 1.5 110 04:53 16.04.2020
4836 Clouds 3 1021 74 10000 1.5 100 03:28 16.04.2020
4837 Clouds 4 1021 65 10000 2.6 90 02:59 16.04.2020
4838 Clouds 4 1021 65 10000 2.6 90 02:36 16.04.2020
4839 Clouds 5 1021 69 10000 1.5 150 01:28 16.04.2020
4840 Clouds 5 1021 65 10000 2.1 100 00:53 16.04.2020
4841 Clear 6 1021 65 10000 1.5 80 00:21 16.04.2020
4842 Clear 6 1021 65 10000 1.5 80 00:21 16.04.2020
4843 Clear 6 1021 56 10000 2.1 130 23:54 15.04.2020
4844 Clear 6 1021 56 10000 2.1 130 23:36 15.04.2020
4845 Clear 7 1021 56 10000 2.1 100 23:18 15.04.2020
4846 Clear 8 1021 56 10000 1 0 22:38 15.04.2020
4847 Clear 8 1022 49 10000 1 0 22:20 15.04.2020
4848 Clear 9 1022 40 10000 1 90 21:55 15.04.2020
4849 Clear 10 1022 40 10000 1 90 21:37 15.04.2020
4850 Clouds 11 1022 37 10000 1 30 21:18 15.04.2020
4851 Clouds 13 1021 33 10000 1.5 30 20:54 15.04.2020
4852 Clouds 13 1021 33 10000 1.5 30 20:36 15.04.2020
4853 Clouds 14 1022 29 10000 2.1 10 20:18 15.04.2020
4854 Clear 15 1022 30 10000 0.62 30 19:40 15.04.2020
4855 Clouds 16 1022 23 10000 0.5 0 19:20 15.04.2020
4856 Clouds 17 1022 25 10000 2.1 270 18:41 15.04.2020
4857 Clouds 16 1022 25 10000 2.1 270 18:23 15.04.2020
4858 Clouds 16 1022 25 10000 1.5 0 17:58 15.04.2020
4859 Clouds 16 1022 25 10000 1.5 0 17:39 15.04.2020
4860 Clouds 17 1023 23 10000 1.5 100 17:20 15.04.2020
4861 Clouds 16 1023 21 10000 1.5 0 16:56 15.04.2020
4862 Clouds 16 1023 21 10000 1.5 0 16:37 15.04.2020
4863 Clouds 16 1023 23 10000 1 120 16:19 15.04.2020
4864 Clouds 16 1024 25 10000 1 0 15:56 15.04.2020
4865 Clouds 15 1024 25 10000 1 0 15:38 15.04.2020
4866 Clouds 15 1024 24 10000 1.5 0 15:19 15.04.2020
4867 Clouds 14 1024 26 10000 1.5 0 14:55 15.04.2020
4868 Clouds 14 1024 26 10000 1.5 0 14:55 15.04.2020
4869 Clouds 14 1024 26 10000 1.5 0 14:37 15.04.2020
4870 Clouds 14 1024 26 10000 1.5 0 14:19 15.04.2020
4871 Clouds 13 1025 28 10000 1 0 13:56 15.04.2020
4872 Clouds 13 1025 28 10000 1 0 13:36 15.04.2020
4873 Clouds 12 1025 32 10000 2.1 0 13:18 15.04.2020
4874 Clouds 11 1025 32 10000 2.1 0 12:42 15.04.2020
4875 Clouds 11 1025 32 10000 2.1 0 12:23 15.04.2020
4876 Clouds 10 1026 34 10000 1.5 0 11:58 15.04.2020
4877 Clouds 9 1026 34 10000 1.5 0 11:39 15.04.2020
4878 Clouds 9 1026 36 10000 2.1 220 11:21 15.04.2020
4879 Clouds 7 1026 39 10000 2.1 0 10:39 15.04.2020
4880 Clouds 6 1026 45 10000 1 0 10:20 15.04.2020
4881 Clouds 5 1026 52 10000 1.5 0 09:57 15.04.2020
4882 Clouds 4 1026 52 10000 1.5 0 09:39 15.04.2020
4883 Clear 3 1026 55 10000 2.1 140 09:20 15.04.2020
4884 Clear 1 1026 69 10000 1.5 100 08:55 15.04.2020
4885 Clear 1 1026 69 10000 1.5 100 08:37 15.04.2020
4886 Clear 0 1026 61 10000 1 0 08:37 15.04.2020
4887 Clear 0 1026 61 10000 1 0 08:18 15.04.2020
4888 Clear -1 1025 74 10000 2.1 110 07:46 15.04.2020
4889 Clear -2 1025 79 10000 3.1 100 07:28 15.04.2020
4890 Clear -2 1024 79 10000 2.6 110 06:32 15.04.2020
4891 Clear -2 1025 74 10000 3.6 110 05:50 15.04.2020
4892 Clear -2 1024 74 10000 3.6 110 04:48 15.04.2020
4893 Clear -1 1025 74 10000 3.1 100 04:23 15.04.2020
4894 Clear -1 1025 68 10000 3.6 100 03:23 15.04.2020
4895 Clear -1 1025 74 10000 4.1 100 02:50 15.04.2020
4896 Clear -1 1025 68 10000 4.1 100 01:53 15.04.2020
4897 Clear 0 1025 68 10000 2.6 100 01:25 15.04.2020
4898 Clear 0 1025 68 10000 2.1 90 00:51 15.04.2020
4899 Clear 0 1025 66 10000 2.6 100 00:29 15.04.2020
4900 Clear 0 1025 66 10000 1 0 23:57 14.04.2020
4901 Clear 1 1025 66 10000 1 0 23:38 14.04.2020
4902 Clear 2 1025 59 10000 1.5 140 23:20 14.04.2020
4903 Clear 2 1025 51 10000 0.5 0 22:58 14.04.2020
4904 Clear 3 1025 51 10000 0.5 0 22:39 14.04.2020
4905 Clear 3 1025 51 10000 1 0 22:21 14.04.2020
4906 Clear 4 1025 48 10000 1.5 230 21:57 14.04.2020
4907 Clear 4 1025 48 10000 1.5 230 21:39 14.04.2020
4908 Clouds 5 1025 48 10000 1.5 250 21:19 14.04.2020
4909 Clouds 6 1024 39 10000 2.1 240 20:58 14.04.2020
4910 Clouds 6 1024 39 10000 2.1 240 20:39 14.04.2020
4911 Clouds 7 1024 36 10000 2.6 260 20:20 14.04.2020
4912 Clouds 8 1024 33 10000 2.1 250 19:41 14.04.2020
4913 Clouds 9 1024 31 10000 1.5 240 19:22 14.04.2020
4914 Clouds 8 1024 34 10000 3.1 250 18:58 14.04.2020
4915 Clouds 9 1024 34 10000 3.1 250 18:39 14.04.2020
4916 Clouds 9 1024 31 10000 3.1 280 18:21 14.04.2020
4917 Clouds 9 1024 31 10000 4.1 320 17:58 14.04.2020
4918 Clouds 9 1024 31 10000 4.1 320 17:38 14.04.2020
4919 Clouds 9 1024 34 10000 3.6 290 17:19 14.04.2020
4920 Clouds 9 1024 34 10000 4.6 300 16:56 14.04.2020
4921 Clouds 9 1024 34 10000 4.6 300 16:37 14.04.2020
4922 Clouds 8 1024 34 10000 2.6 0 16:19 14.04.2020
4923 Clouds 8 1024 36 10000 3.6 0 15:42 14.04.2020
4924 Clouds 7 1024 33 10000 3.1 330 15:23 14.04.2020
4925 Clouds 7 1024 36 10000 4.1 340 14:59 14.04.2020
4926 Clouds 7 1024 36 10000 4.1 340 14:41 14.04.2020
4927 Clouds 7 1024 36 10000 3.1 350 14:22 14.04.2020
4928 Clouds 7 1024 39 10000 3.1 320 13:58 14.04.2020
4929 Clouds 7 1024 39 10000 3.1 320 13:40 14.04.2020
4930 Clouds 7 1024 38 10000 4.1 320 13:21 14.04.2020
4931 Clouds 6 1024 41 10000 4.1 350 12:42 14.04.2020
4932 Clear 6 1024 39 10000 4.1 350 12:22 14.04.2020
4933 Clouds 5 1023 48 10000 3.6 330 11:57 14.04.2020
4934 Clouds 5 1023 48 10000 3.6 330 11:38 14.04.2020
4935 Clouds 5 1023 48 10000 4.1 360 11:19 14.04.2020
4936 Clouds 5 1023 56 10000 4.1 340 10:46 14.04.2020
4937 Clouds 4 1023 60 10000 4.6 330 10:27 14.04.2020
4938 Clear 4 1023 64 10000 4.1 320 09:58 14.04.2020
4939 Clouds 3 1023 64 10000 4.1 320 09:40 14.04.2020
4940 Clear 3 1023 64 10000 4.1 320 09:22 14.04.2020
4941 Clear 1 1022 59 10000 3.6 300 08:42 14.04.2020
4942 Clear 0 1022 74 10000 0.5 0 08:24 14.04.2020
4943 Clear -1 1022 79 10000 0.5 0 07:56 14.04.2020
4944 Clear -1 1022 79 10000 0.5 0 07:32 14.04.2020
4945 Clear -2 1021 86 10000 1.5 330 06:57 14.04.2020
4946 Clear -1 1021 92 10000 1 280 06:33 14.04.2020
4947 Clear -1 1021 74 10000 1 0 04:48 14.04.2020
4948 Clouds 1 1020 92 10000 1 350 03:00 14.04.2020
4949 Clouds 1 1020 86 10000 0.5 0 02:18 14.04.2020
4950 Clouds 1 1020 72 10000 1 320 01:25 14.04.2020
4951 Clouds 3 1020 86 10000 1.5 350 00:39 14.04.2020
4952 Clouds 3 1019 69 10000 0.5 0 00:19 14.04.2020
4953 Clouds 3 1019 69 10000 0.5 0 23:45 13.04.2020
4954 Clouds 4 1019 63 10000 1.5 340 23:26 13.04.2020
4955 Clouds 4 1019 63 10000 1.5 340 22:59 13.04.2020
4956 Clouds 4 1019 63 10000 1.5 340 22:41 13.04.2020
4957 Clouds 5 1018 75 10000 2.1 350 22:22 13.04.2020
4958 Clouds 5 1018 80 10000 1.5 10 21:57 13.04.2020
4959 Clouds 5 1018 80 10000 1.5 10 21:37 13.04.2020
4960 Clouds 5 1017 93 10000 1.5 350 21:19 13.04.2020
4961 Clouds 6 1017 87 10000 1 0 20:56 13.04.2020
4962 Clouds 6 1017 87 10000 1 0 20:38 13.04.2020
4963 Clouds 7 1016 81 10000 1 0 20:18 13.04.2020
4964 Clouds 8 1016 81 10000 4.1 350 19:39 13.04.2020
4965 Clouds 8 1016 81 10000 4.1 350 19:20 13.04.2020
4966 Clouds 8 1016 81 10000 4.1 330 19:00 13.04.2020
4967 Clouds 8 1016 81 10000 4.1 330 18:39 13.04.2020
4968 Clouds 8 1016 87 10000 5.1 330 18:20 13.04.2020
4969 Rain 8 1016 87 10000 6.2 340 17:59 13.04.2020
4970 Rain 8 1016 87 10000 6.2 340 17:39 13.04.2020
4971 Rain 8 1016 81 10000 7.7 340 17:20 13.04.2020
4972 Rain 8 1016 81 10000 7.7 340 17:20 13.04.2020
4973 Rain 8 1016 81 10000 7.7 340 17:20 13.04.2020
4974 Clouds 9 1015 87 10000 5.7 330 16:59 13.04.2020
4975 Clouds 9 1015 87 10000 5.7 330 16:41 13.04.2020
4976 Rain 11 1015 87 10000 8.2 330 16:21 13.04.2020
4977 Rain 11 1015 71 10000 9.8 330 15:59 13.04.2020
4978 Rain 12 1015 71 10000 9.8 330 15:41 13.04.2020
4979 Rain 14 1014 71 10000 7.2 340 15:23 13.04.2020
4980 Rain 13 1014 71 10000 8.7 330 14:56 13.04.2020
4981 Rain 13 1014 71 10000 8.7 330 14:38 13.04.2020
4982 Rain 15 1013 67 10000 8.2 290 14:20 13.04.2020
4983 Rain 15 1013 48 10000 9.3 270 13:55 13.04.2020
4984 Rain 15 1013 48 10000 9.3 270 13:55 13.04.2020
4985 Rain 16 1013 48 10000 9.3 270 13:37 13.04.2020
4986 Rain 17 1013 42 10000 6.2 310 13:18 13.04.2020
4987 Rain 17 1013 39 10000 3.6 270 12:56 13.04.2020
4988 Rain 18 1013 39 10000 3.6 270 12:38 13.04.2020
4989 Rain 18 1013 39 10000 4.1 300 12:19 13.04.2020
4990 Rain 18 1013 42 10000 4.6 290 11:43 13.04.2020
4991 Rain 17 1013 48 10000 2.6 310 11:19 13.04.2020
4992 Rain 17 1013 48 10000 2.1 310 10:56 13.04.2020
4993 Rain 16 1013 48 10000 2.1 310 10:38 13.04.2020
4994 Rain 15 1013 51 10000 1.5 200 10:19 13.04.2020
4995 Rain 14 1013 54 10000 1.5 160 09:55 13.04.2020
4996 Rain 12 1013 54 10000 1.5 160 09:36 13.04.2020
4997 Clouds 10 1013 62 10000 2.6 120 09:18 13.04.2020
4998 Clouds 9 1013 71 10000 1.5 80 08:42 13.04.2020
4999 Clouds 9 1013 71 10000 1.5 80 08:42 13.04.2020
5000 Clouds 8 1012 81 10000 3.6 110 08:24 13.04.2020
5001 Clouds 7 1012 81 10000 4.1 100 07:42 13.04.2020
5002 Clouds 7 1012 81 10000 3.6 110 07:24 13.04.2020
5003 Clouds 7 1012 81 10000 3.6 100 06:47 13.04.2020
5004 Rain 7 1012 75 10000 4.1 100 06:25 13.04.2020
5005 Rain 8 1012 75 10000 3.1 110 05:32 13.04.2020
5006 Rain 8 1012 76 10000 2.6 100 04:53 13.04.2020
5007 Rain 8 1012 75 10000 1.5 0 04:24 13.04.2020
5008 Rain 9 1012 70 10000 1.5 120 03:48 13.04.2020
5009 Rain 10 1013 66 10000 1 0 02:59 13.04.2020
5010 Rain 10 1013 66 10000 1 0 02:37 13.04.2020
5011 Rain 12 1013 62 10000 1 0 01:43 13.04.2020
5012 Rain 12 1013 58 10000 2.1 120 01:25 13.04.2020
5013 Rain 14 1013 54 10000 1 330 00:42 13.04.2020
5014 Rain 13 1013 54 10000 1 0 00:20 13.04.2020
5015 Rain 14 1013 54 10000 1 0 00:20 13.04.2020
5016 Rain 15 1014 48 10000 2.1 270 23:48 12.04.2020
5017 Rain 15 1014 45 10000 5.7 250 23:23 12.04.2020
5018 Rain 14 1014 51 10000 2.1 0 22:58 12.04.2020
5019 Rain 15 1014 51 10000 2.1 0 22:37 12.04.2020
5020 Rain 14 1013 58 10000 1 0 22:19 12.04.2020
5021 Rain 15 1013 47 10000 0.5 0 21:40 12.04.2020
5022 Clouds 16 1013 42 10000 0.5 240 21:21 12.04.2020
5023 Clouds 18 1013 34 10000 1.5 210 20:58 12.04.2020
5024 Clouds 18 1013 32 10000 0.5 0 20:39 12.04.2020
5025 Clouds 18 1013 32 10000 0.5 0 20:39 12.04.2020
5026 Clouds 19 1013 32 10000 0.5 0 20:21 12.04.2020
5027 Clouds 20 1013 30 10000 1 0 19:55 12.04.2020
5028 Clouds 21 1013 28 10000 2.1 190 19:36 12.04.2020
5029 Clouds 21 1013 28 10000 2.1 190 19:18 12.04.2020
5030 Clouds 22 1013 27 10000 1 0 18:40 12.04.2020
5031 Clouds 22 1014 27 10000 1.5 0 18:21 12.04.2020
5032 Clouds 22 1014 27 10000 1.5 0 17:57 12.04.2020
5033 Clouds 22 1014 27 10000 1.5 0 17:38 12.04.2020
5034 Clouds 22 1014 30 10000 2.1 190 17:19 12.04.2020
5035 Clouds 22 1014 30 10000 3.1 210 16:56 12.04.2020
5036 Clouds 21 1014 30 10000 3.1 210 16:37 12.04.2020
5037 Clouds 22 1015 28 10000 3.1 250 16:19 12.04.2020
5038 Clouds 22 1015 26 10000 2.6 350 15:42 12.04.2020
5039 Clear 22 1016 26 10000 1.5 350 15:22 12.04.2020
5040 Clear 22 1016 25 10000 1 0 14:41 12.04.2020
5041 Clear 22 1016 27 10000 3.1 240 14:22 12.04.2020
5042 Clear 22 1017 26 10000 2.6 330 13:58 12.04.2020
5043 Clear 22 1017 26 10000 2.6 330 13:40 12.04.2020
5044 Clear 21 1017 24 10000 1.5 0 13:21 12.04.2020
5045 Clear 21 1017 28 10000 1 0 12:47 12.04.2020
5046 Clear 20 1018 30 10000 1.28 208 12:22 12.04.2020
5047 Clear 18 1018 32 10000 1.5 0 11:59 12.04.2020
5048 Clear 18 1018 32 10000 1.5 0 11:59 12.04.2020
5049 Clear 18 1018 32 10000 1.5 0 11:39 12.04.2020
5050 Clear 17 1019 36 10000 2.1 110 11:20 12.04.2020
5051 Clear 15 1019 41 10000 2.1 140 10:57 12.04.2020
5052 Clear 15 1019 41 10000 2.1 140 10:39 12.04.2020
5053 Clear 14 1019 44 10000 2.1 140 10:20 12.04.2020
5054 Clear 12 1019 54 10000 2.1 130 09:58 12.04.2020
5055 Clear 12 1019 54 10000 2.1 130 09:39 12.04.2020
5056 Clear 9 1020 57 10000 2.1 120 09:19 12.04.2020
5057 Clear 8 1020 70 10000 2.1 110 08:50 12.04.2020
5058 Clear 6 1020 80 10000 2.6 100 08:31 12.04.2020
5059 Clear 5 1020 58 10000 0.5 0 07:47 12.04.2020
5060 Clear 4 1020 58 10000 1.5 100 07:20 12.04.2020
5061 Clear 4 1020 58 10000 1.5 100 06:54 12.04.2020
5062 Clear 4 1020 58 10000 1 0 06:30 12.04.2020
5063 Clear 4 1020 59 10000 1.5 100 05:49 12.04.2020
5064 Clear 4 1020 75 10000 2.1 110 04:44 12.04.2020
5065 Clear 6 1021 75 10000 1 90 03:30 12.04.2020
5066 Clear 6 1021 75 10000 1 50 02:49 12.04.2020
5067 Clear 7 1021 65 10000 1.5 110 02:29 12.04.2020
5068 Clear 7 1022 61 10000 1.59 136 01:23 12.04.2020
5069 Clear 8 1022 61 10000 0.5 0 00:43 12.04.2020
5070 Clear 8 1022 57 10000 1 0 00:21 12.04.2020
5071 Clear 9 1022 57 10000 0.5 0 23:58 11.04.2020
5072 Clear 9 1022 57 10000 0.5 0 23:40 11.04.2020
5073 Clear 9 1022 57 10000 0.5 0 23:22 11.04.2020
5074 Clear 10 1022 57 10000 1 20 22:38 11.04.2020
5075 Clear 11 1022 50 10000 1.5 60 22:20 11.04.2020
5076 Clear 11 1022 43 10000 0.5 10 21:55 11.04.2020
5077 Clear 13 1022 43 10000 0.5 10 21:36 11.04.2020
5078 Clouds 14 1022 44 10000 1 330 21:18 11.04.2020
5079 Clouds 15 1022 36 10000 1.5 320 20:56 11.04.2020
5080 Clouds 15 1022 36 10000 1.5 320 20:56 11.04.2020
5081 Clouds 16 1022 36 10000 1.5 320 20:37 11.04.2020
5082 Clouds 17 1022 31 10000 2.6 290 20:19 11.04.2020
5083 Clouds 17 1022 31 10000 2.6 290 20:19 11.04.2020
5084 Clouds 18 1022 29 10000 3.6 290 19:56 11.04.2020
5085 Clouds 19 1022 29 10000 3.6 290 19:38 11.04.2020
5086 Clouds 19 1022 29 10000 3.6 290 19:38 11.04.2020
5087 Clouds 19 1022 45 10000 3.1 280 19:18 11.04.2020
5088 Clouds 20 1022 45 10000 2.6 300 18:55 11.04.2020
5089 Clouds 20 1022 45 10000 3.1 280 18:37 11.04.2020
5090 Clouds 20 1022 31 10000 3.1 280 18:18 11.04.2020
5091 Clouds 20 1022 31 10000 2.6 290 17:57 11.04.2020
5092 Clouds 20 1022 31 10000 2.6 290 17:57 11.04.2020
5093 Clouds 20 1022 31 10000 2.6 290 17:37 11.04.2020
5094 Clouds 20 1022 31 10000 4.1 310 17:19 11.04.2020
5095 Clouds 20 1022 24 10000 3.1 0 16:42 11.04.2020
5096 Clouds 20 1023 24 10000 2.6 280 16:21 11.04.2020
5097 Clouds 20 1023 22 10000 3.1 0 15:42 11.04.2020
5098 Clouds 20 1023 24 10000 2.6 0 15:21 11.04.2020
5099 Clouds 20 1024 29 10000 1.5 0 14:59 11.04.2020
5100 Clouds 19 1024 29 10000 1.5 0 14:40 11.04.2020
5101 Clouds 19 1024 32 10000 1.5 0 14:22 11.04.2020
5102 Clouds 18 1024 36 10000 2.6 0 13:42 11.04.2020
5103 Clouds 18 1024 39 10000 2.6 300 13:24 11.04.2020
5104 Clouds 17 1025 42 10000 3.6 310 12:59 11.04.2020
5105 Clouds 17 1025 42 10000 3.6 310 12:37 11.04.2020
5106 Clouds 16 1025 42 10000 2.1 0 12:18 11.04.2020
5107 Clouds 15 1025 44 10000 2.6 330 11:43 11.04.2020
5108 Clouds 15 1025 51 10000 1.5 0 11:21 11.04.2020
5109 Clouds 14 1025 50 10000 1.5 0 10:57 11.04.2020
5110 Clouds 13 1025 50 10000 1.5 0 10:37 11.04.2020
5111 Clouds 12 1025 54 10000 1.5 280 10:19 11.04.2020
5112 Clouds 11 1025 62 10000 1.5 340 09:57 11.04.2020
5113 Clouds 10 1025 62 10000 1.5 340 09:38 11.04.2020
5114 Clouds 9 1025 61 10000 1 0 09:19 11.04.2020
5115 Clouds 8 1025 70 10000 1 0 08:43 11.04.2020
5116 Clouds 7 1025 86 10000 0.5 0 08:23 11.04.2020
5117 Clouds 6 1024 80 10000 0.5 0 07:49 11.04.2020
5118 Clouds 5 1024 93 10000 0.5 0 07:28 11.04.2020
5119 Clouds 5 1024 86 10000 0.5 0 06:44 11.04.2020
5120 Clouds 5 1024 80 10000 1.5 360 05:59 11.04.2020
5121 Clouds 6 1024 80 10000 1 360 04:33 11.04.2020
5122 Clouds 7 1023 70 10000 1.5 360 03:30 11.04.2020
5123 Clouds 9 1023 70 10000 1 350 01:48 11.04.2020
5124 Clouds 9 1023 66 10000 0.5 290 01:19 11.04.2020
5125 Clouds 11 1023 54 10000 1 0 00:42 11.04.2020
5126 Clouds 11 1023 54 10000 1 0 00:19 11.04.2020
5127 Clouds 11 1023 57 10000 1.5 70 23:56 10.04.2020
5128 Clouds 12 1023 57 10000 1.5 70 23:37 10.04.2020
5129 Clouds 12 1023 54 10000 2.1 360 23:18 10.04.2020
5130 Clouds 13 1023 47 10000 1.5 360 22:43 10.04.2020
5131 Clouds 13 1023 47 10000 2.1 350 22:20 10.04.2020
5132 Clouds 14 1023 41 10000 2.1 360 21:42 10.04.2020
5133 Clouds 15 1023 41 10000 3.1 360 21:22 10.04.2020
5134 Clouds 17 1022 39 10000 2.1 350 20:59 10.04.2020
5135 Clouds 17 1022 39 10000 2.1 350 20:41 10.04.2020
5136 Clouds 18 1022 32 10000 2.6 360 20:23 10.04.2020
5137 Clouds 19 1022 30 10000 3.6 350 19:57 10.04.2020
5138 Clouds 19 1022 30 10000 3.6 350 19:39 10.04.2020
5139 Clouds 20 1022 32 10000 4.1 310 19:19 10.04.2020
5140 Clouds 20 1022 30 10000 3.6 350 18:56 10.04.2020
5141 Clouds 20 1022 30 10000 3.6 350 18:38 10.04.2020
5142 Clear 21 1022 30 10000 3.6 320 18:20 10.04.2020
5143 Clear 21 1022 32 10000 2.1 330 17:57 10.04.2020
5144 Clear 21 1022 32 10000 2.1 330 17:57 10.04.2020
5145 Clear 21 1022 32 10000 2.1 330 17:39 10.04.2020
5146 Clear 21 1022 32 10000 4.1 310 17:19 10.04.2020
5147 Clear 21 1022 30 10000 3.1 0 16:46 10.04.2020
5148 Clear 21 1023 28 10000 4.6 300 16:24 10.04.2020
5149 Clear 21 1023 24 10000 4.1 300 15:59 10.04.2020
5150 Clear 21 1023 24 10000 4.1 300 15:40 10.04.2020
5151 Clouds 21 1023 32 10000 3.1 260 15:21 10.04.2020
5152 Clouds 20 1023 32 10000 3.6 0 14:59 10.04.2020
5153 Clouds 21 1023 32 10000 3.6 0 14:41 10.04.2020
5154 Clear 21 1024 32 10000 4.1 290 14:23 10.04.2020
5155 Clear 20 1024 34 10000 4.1 310 13:56 10.04.2020
5156 Clear 20 1024 34 10000 3.6 0 13:38 10.04.2020
5157 Clear 20 1024 34 10000 3.6 0 13:20 10.04.2020
5158 Clouds 19 1024 39 10000 4.1 300 12:42 10.04.2020
5159 Clouds 19 1025 42 10000 3.1 320 12:21 10.04.2020
5160 Clouds 18 1025 45 10000 2.1 290 11:54 10.04.2020
5161 Clouds 18 1025 45 10000 2.1 290 11:36 10.04.2020
5162 Clouds 17 1025 45 10000 1.5 0 11:18 10.04.2020
5163 Clouds 15 1025 51 10000 1 0 10:41 10.04.2020
5164 Clouds 15 1025 51 10000 0.5 0 10:22 10.04.2020
5165 Clouds 13 1025 62 10000 1 0 09:44 10.04.2020
5166 Clear 12 1025 62 10000 1 0 09:25 10.04.2020
5167 Clear 10 1025 71 10000 0.5 0 08:55 10.04.2020
5168 Clear 10 1025 71 10000 0.5 0 08:37 10.04.2020
5169 Clear 9 1025 81 10000 0.5 0 08:18 10.04.2020
5170 Clear 9 1025 81 10000 0.5 0 08:18 10.04.2020
5171 Clear 8 1025 87 10000 0.5 0 07:42 10.04.2020
5172 Clear 8 1024 81 10000 0.5 0 07:21 10.04.2020
5173 Clear 8 1024 81 10000 1 0 06:43 10.04.2020
5174 Clear 8 1024 81 10000 0.5 0 06:23 10.04.2020
5175 Clear 9 1024 75 10000 1 0 05:35 10.04.2020
5176 Clear 9 1024 81 10000 0.5 340 04:57 10.04.2020
5177 Clear 9 1024 81 10000 1 360 03:36 10.04.2020
5178 Clouds 10 1024 75 10000 0.5 0 02:52 10.04.2020
5179 Clear 10 1024 70 10000 0.5 0 02:34 10.04.2020
5180 Clear 10 1024 70 10000 1 0 01:50 10.04.2020
5181 Clear 10 1024 66 10000 0.5 320 01:28 10.04.2020
5182 Clear 10 1024 61 10000 1 360 00:47 10.04.2020
5183 Clear 11 1024 62 10000 0.5 0 00:22 10.04.2020
5184 Clear 11 1024 62 10000 2.1 330 23:44 09.04.2020
5185 Clear 11 1024 54 10000 1.5 360 23:24 09.04.2020
5186 Clear 12 1024 50 10000 2.1 70 22:59 09.04.2020
5187 Clear 12 1024 50 10000 2.1 70 22:40 09.04.2020
5188 Clear 13 1023 41 10000 2.1 50 22:22 09.04.2020
5189 Clear 15 1023 41 10000 2.6 20 21:40 09.04.2020
5190 Clouds 15 1023 41 10000 2.6 20 21:21 09.04.2020
5191 Clouds 16 1022 36 10000 1 0 20:54 09.04.2020
5192 Clouds 17 1022 36 10000 1 0 20:36 09.04.2020
5193 Clouds 18 1022 37 10000 1.5 280 20:18 09.04.2020
5194 Clouds 20 1022 30 10000 1.5 290 19:39 09.04.2020
5195 Clouds 21 1022 30 10000 2.1 280 19:21 09.04.2020
5196 Clouds 21 1022 30 10000 2.1 280 19:21 09.04.2020
5197 Clouds 21 1022 26 10000 3.1 270 18:42 09.04.2020
5198 Clear 22 1022 26 10000 3.6 300 18:21 09.04.2020
5199 Clear 22 1022 24 10000 3.6 290 17:58 09.04.2020
5200 Clear 22 1022 24 10000 3.6 290 17:39 09.04.2020
5201 Clear 22 1022 29 10000 2.6 0 17:19 09.04.2020
5202 Clear 22 1022 23 10000 5.1 280 16:40 09.04.2020
5203 Clear 22 1022 29 10000 4.6 290 16:20 09.04.2020
5204 Clear 22 1022 21 10000 3.1 350 15:56 09.04.2020
5205 Clear 22 1023 29 10000 3.1 310 15:37 09.04.2020
5206 Clear 22 1023 27 10000 3.1 310 15:19 09.04.2020
5207 Clear 22 1023 27 10000 5.1 360 14:43 09.04.2020
5208 Clear 22 1023 24 10000 3.6 310 14:21 09.04.2020
5209 Clear 22 1023 29 10000 4.6 280 13:58 09.04.2020
5210 Clear 22 1023 29 10000 4.6 280 13:40 09.04.2020
5211 Clear 21 1023 24 10000 2.1 0 13:22 09.04.2020
5212 Clear 21 1024 24 10000 1.5 0 12:54 09.04.2020
5213 Clear 21 1024 24 10000 1.5 0 12:36 09.04.2020
5214 Clear 20 1024 30 10000 1 0 12:18 09.04.2020
5215 Clear 18 1024 32 10000 1 0 11:42 09.04.2020
5216 Clear 17 1024 39 10000 1 0 11:20 09.04.2020
5217 Clear 15 1024 44 10000 1 0 10:58 09.04.2020
5218 Clear 15 1024 44 10000 1 0 10:40 09.04.2020
5219 Clear 14 1024 50 10000 1 0 10:21 09.04.2020
5220 Clear 12 1024 53 10000 1.5 120 09:56 09.04.2020
5221 Clear 12 1024 53 10000 1.5 120 09:38 09.04.2020
5222 Clear 9 1024 61 10000 1.5 120 09:20 09.04.2020
5223 Clear 6 1023 65 10000 1.5 100 08:44 09.04.2020
5224 Clear 6 1023 80 10000 1.5 100 08:23 09.04.2020
5225 Clear 4 1023 74 10000 1 110 07:55 09.04.2020
5226 Clear 3 1023 80 10000 1.5 110 07:27 09.04.2020
5227 Clear 4 1023 55 10000 0.5 0 06:56 09.04.2020
5228 Clear 3 1023 53 10000 0.5 0 06:18 09.04.2020
5229 Clear 4 1022 53 10000 2.1 110 05:40 09.04.2020
5230 Clear 5 1022 53 10000 0.5 0 03:50 09.04.2020
5231 Clear 7 1023 49 10000 1.5 90 02:27 09.04.2020
5232 Clear 7 1023 49 10000 1 120 01:41 09.04.2020
5233 Clear 7 1023 49 10000 1.5 110 01:20 09.04.2020
5234 Clear 9 1023 49 10000 0.5 0 00:41 09.04.2020
5235 Clear 10 1023 57 10000 1 0 00:20 09.04.2020
5236 Clear 10 1023 47 10000 1.5 110 23:58 08.04.2020
5237 Clear 10 1023 47 10000 1.5 110 23:40 08.04.2020
5238 Clear 11 1023 50 10000 0.5 0 23:20 08.04.2020
5239 Clear 12 1023 46 10000 1.5 350 22:43 08.04.2020
5240 Clear 12 1023 46 10000 1.5 350 22:24 08.04.2020
5241 Clear 13 1023 54 10000 1.5 300 21:56 08.04.2020
5242 Clear 14 1022 53 10000 1.5 30 21:37 08.04.2020
5243 Clear 15 1022 48 10000 1.5 30 21:19 08.04.2020
5244 Clear 16 1022 38 10000 1.5 360 20:57 08.04.2020
5245 Clear 17 1022 29 10000 2.1 320 20:38 08.04.2020
5246 Clear 18 1022 29 10000 2.1 320 20:19 08.04.2020
5247 Clear 20 1022 48 10000 4.1 310 19:42 08.04.2020
5248 Clear 21 1022 48 10000 4.1 310 19:22 08.04.2020
5249 Clear 21 1022 48 10000 4.1 310 18:58 08.04.2020
5250 Clear 21 1022 48 10000 3.6 310 18:40 08.04.2020
5251 Clear 22 1022 27 10000 3.6 300 18:20 08.04.2020
5252 Clear 22 1022 27 10000 3.6 300 17:43 08.04.2020
5253 Clear 22 1023 27 10000 4.6 300 17:22 08.04.2020
5254 Clear 22 1023 27 10000 4.6 300 17:22 08.04.2020
5255 Clear 22 1023 27 10000 4.6 300 16:59 08.04.2020
5256 Clear 22 1023 27 10000 4.1 320 16:40 08.04.2020
5257 Clear 22 1023 27 10000 4.1 320 16:22 08.04.2020
5258 Clear 22 1024 27 10000 4.1 330 15:39 08.04.2020
5259 Clear 22 1024 27 10000 4.1 330 15:21 08.04.2020
5260 Clear 22 1024 27 10000 3.1 300 14:59 08.04.2020
5261 Clear 21 1024 27 10000 3.1 300 14:41 08.04.2020
5262 Clear 21 1025 26 10000 4.1 290 14:22 08.04.2020
5263 Clear 21 1025 26 10000 4.1 290 14:22 08.04.2020
5264 Clear 21 1025 26 10000 3.1 300 13:44 08.04.2020
5265 Clear 20 1025 26 10000 3.1 300 13:44 08.04.2020
5266 Clear 20 1025 26 10000 2.1 300 13:21 08.04.2020
5267 Clear 20 1025 26 10000 2.1 300 13:21 08.04.2020
5268 Clear 19 1025 27 10000 2.1 280 12:58 08.04.2020
5269 Clear 19 1025 27 10000 2.1 280 12:39 08.04.2020
5270 Clear 18 1026 29 10000 2.1 170 12:18 08.04.2020
5271 Clear 17 1026 27 10000 2.1 180 11:42 08.04.2020
5272 Clear 17 1026 27 10000 2.1 180 11:42 08.04.2020
5273 Clear 16 1026 34 10000 1.5 170 11:23 08.04.2020
5274 Clear 15 1026 34 10000 2.1 120 10:59 08.04.2020
5275 Clear 15 1026 34 10000 3.6 110 10:41 08.04.2020
5276 Clear 14 1026 34 10000 3.6 110 10:21 08.04.2020
5277 Clear 13 1026 47 10000 1 0 09:59 08.04.2020
5278 Clear 13 1026 47 10000 1 0 09:59 08.04.2020
5279 Clear 11 1026 47 10000 1 0 09:41 08.04.2020
5280 Clear 10 1027 53 10000 1 330 09:19 08.04.2020
5281 Clear 9 1027 61 10000 1 0 08:57 08.04.2020
5282 Clear 8 1027 61 10000 1 0 08:38 08.04.2020
5283 Clear 7 1027 75 10000 1 0 08:20 08.04.2020
5284 Clear 6 1027 75 10000 0.5 0 07:43 08.04.2020
5285 Clear 5 1027 53 10000 1 360 07:21 08.04.2020
5286 Clear 5 1026 75 10000 1 360 06:29 08.04.2020
5287 Clear 6 1027 65 10000 1 0 04:58 08.04.2020
5288 Clear 9 1028 53 10000 2.1 80 02:50 08.04.2020
5289 Clear 10 1028 53 10000 3.1 110 02:22 08.04.2020
5290 Clear 10 1028 44 10000 2.6 70 01:56 08.04.2020
5291 Clear 10 1028 44 10000 3.6 70 01:28 08.04.2020
5292 Clear 10 1028 44 10000 3.6 70 01:28 08.04.2020
5293 Clear 11 1028 44 10000 3.6 70 00:47 08.04.2020
5294 Clear 12 1028 44 10000 4.1 70 00:25 08.04.2020
5295 Clear 12 1028 47 10000 3.1 60 23:56 07.04.2020
5296 Clear 12 1028 47 10000 3.1 60 23:37 07.04.2020
5297 Clear 13 1028 44 10000 3.6 40 23:18 07.04.2020
5298 Clear 13 1028 59 10000 3.6 40 22:54 07.04.2020
5299 Clear 13 1028 59 10000 3.6 40 22:54 07.04.2020
5300 Clear 14 1028 59 10000 3.6 40 22:36 07.04.2020
5301 Clear 14 1028 38 10000 3.6 30 22:18 07.04.2020
5302 Clear 15 1028 59 10000 2.1 80 21:42 07.04.2020
5303 Clouds 16 1028 51 10000 2.1 90 21:21 07.04.2020
5304 Clouds 17 1027 51 10000 3.1 90 20:58 07.04.2020
5305 Clouds 17 1027 51 10000 3.1 90 20:39 07.04.2020
5306 Clouds 18 1027 51 10000 3.1 90 20:21 07.04.2020
5307 Clouds 20 1027 26 10000 3.6 100 19:57 07.04.2020
5308 Clouds 20 1027 26 10000 4.1 100 19:37 07.04.2020
5309 Clouds 21 1027 26 10000 4.1 100 19:19 07.04.2020
5310 Clouds 22 1027 21 10000 3.1 70 18:57 07.04.2020
5311 Clear 22 1027 31 10000 3.1 90 18:39 07.04.2020
5312 Clear 22 1027 31 10000 3.1 0 18:19 07.04.2020
5313 Clear 22 1027 31 10000 3.1 0 17:45 07.04.2020
5314 Clear 23 1027 23 10000 2.1 330 17:21 07.04.2020
5315 Clear 23 1028 31 10000 2.1 0 16:47 07.04.2020
5316 Clear 23 1028 31 10000 2.1 0 16:29 07.04.2020
5317 Clear 22 1028 31 10000 2.6 350 15:58 07.04.2020
5318 Clear 23 1028 31 10000 2.6 350 15:40 07.04.2020
5319 Clear 22 1029 28 10000 3.1 310 15:22 07.04.2020
5320 Clear 22 1029 30 10000 3.1 0 14:41 07.04.2020
5321 Clear 21 1029 24 10000 3.1 310 14:22 07.04.2020
5322 Clear 21 1029 21 10000 2.6 250 13:57 07.04.2020
5323 Clear 21 1029 21 10000 2.6 250 13:38 07.04.2020
5324 Clear 21 1030 28 10000 2.1 0 13:18 07.04.2020
5325 Clear 21 1030 28 10000 2.1 0 13:18 07.04.2020
5326 Clear 20 1030 32 10000 1.5 310 12:55 07.04.2020
5327 Clear 19 1030 34 10000 1 0 12:36 07.04.2020
5328 Clear 19 1030 34 10000 1 0 12:18 07.04.2020
5329 Clear 17 1030 36 10000 1.5 300 11:44 07.04.2020
5330 Clear 16 1030 38 10000 0.5 210 11:25 07.04.2020
5331 Clear 14 1030 44 10000 0.5 0 10:58 07.04.2020
5332 Clear 14 1030 44 10000 0.5 0 10:38 07.04.2020
5333 Clear 13 1030 47 10000 0.5 0 10:19 07.04.2020
5334 Clear 11 1030 50 10000 1 0 09:45 07.04.2020
5335 Clear 9 1030 57 10000 2.1 120 09:19 07.04.2020
5336 Clear 7 1030 70 10000 2.1 120 08:55 07.04.2020
5337 Clear 7 1030 70 10000 2.1 120 08:36 07.04.2020
5338 Clear 5 1029 64 10000 2.1 110 08:18 07.04.2020
5339 Clear 4 1029 74 10000 1.5 100 07:40 07.04.2020
5340 Clear 4 1029 80 10000 3.6 110 07:21 07.04.2020
5341 Clear 4 1029 74 10000 2.6 100 06:51 07.04.2020
5342 Clear 4 1029 74 10000 2.6 90 06:21 07.04.2020
5343 Clear 4 1028 74 10000 2.6 110 05:38 07.04.2020
5344 Clear 5 1028 66 10000 2.6 110 04:46 07.04.2020
5345 Clear 5 1027 62 10000 1 0 03:26 07.04.2020
5346 Clear 7 1027 62 10000 3.1 110 02:54 07.04.2020
5347 Clear 6 1027 66 10000 1.5 140 01:48 07.04.2020
5348 Clear 6 1026 60 10000 3.1 110 01:25 07.04.2020
5349 Clear 8 1026 56 10000 3.1 110 00:29 07.04.2020
5350 Clear 8 1026 56 10000 3.1 110 00:29 07.04.2020
5351 Clear 9 1025 59 10000 3.1 100 23:55 06.04.2020
5352 Clear 9 1025 59 10000 3.1 100 23:36 06.04.2020
5353 Clear 9 1025 49 10000 3.1 110 23:18 06.04.2020
5354 Clear 10 1025 49 10000 0.5 0 22:39 06.04.2020
5355 Clear 11 1025 46 10000 1 0 22:21 06.04.2020
5356 Clear 12 1025 40 10000 0.5 0 21:57 06.04.2020
5357 Clear 13 1025 40 10000 0.5 0 21:38 06.04.2020
5358 Clear 13 1025 35 10000 0.5 0 21:18 06.04.2020
5359 Clear 14 1025 35 10000 0.5 0 21:18 06.04.2020
5360 Clear 14 1024 31 10000 0.5 0 20:55 06.04.2020
5361 Clear 15 1024 31 10000 0.5 0 20:37 06.04.2020
5362 Clear 16 1024 56 10000 1 310 20:18 06.04.2020
5363 Clear 19 1023 56 10000 2.1 280 19:41 06.04.2020
5364 Clear 19 1023 56 10000 2.1 280 19:23 06.04.2020
5365 Clear 20 1023 22 10000 3.1 270 18:58 06.04.2020
5366 Clear 20 1023 22 10000 3.1 270 18:39 06.04.2020
5367 Clear 20 1023 21 10000 2.6 290 18:20 06.04.2020
5368 Clear 21 1023 22 10000 3.1 270 17:42 06.04.2020
5369 Clear 21 1023 19 10000 3.1 260 17:20 06.04.2020
5370 Clear 21 1023 22 10000 1.5 0 16:50 06.04.2020
5371 Clear 21 1023 39 10000 2.6 250 16:31 06.04.2020
5372 Clear 21 1023 39 10000 2.6 250 15:59 06.04.2020
5373 Clear 19 1023 32 10000 2.1 0 14:20 06.04.2020
5374 Clear 19 1023 32 10000 2.1 0 14:20 06.04.2020
5375 Clear 18 1023 34 10000 2.1 0 13:40 06.04.2020
5376 Clear 18 1023 33 10000 2.1 0 13:20 06.04.2020
5377 Clear 18 1023 33 10000 2.1 0 13:20 06.04.2020
5378 Clear 16 1023 40 10000 1.5 0 12:23 06.04.2020
5379 Clear 16 1023 40 10000 1.5 0 12:23 06.04.2020
5380 Clear 16 1023 40 10000 1.5 0 12:23 06.04.2020
5381 Clear 14 1023 48 10000 1.5 0 11:55 06.04.2020
5382 Clear 14 1024 48 10000 2.6 200 11:33 06.04.2020
5383 Clear 14 1024 48 10000 2.6 200 11:33 06.04.2020
5384 Clear 14 1024 48 10000 2.6 200 11:33 06.04.2020
5385 Clear 14 1024 48 10000 2.6 200 11:33 06.04.2020
5386 Clear 14 1024 48 10000 2.6 200 11:33 06.04.2020
5387 Clear 12 1023 48 10000 3.1 180 10:52 06.04.2020
5388 Clear 13 1023 48 10000 3.1 180 10:52 06.04.2020
5389 Clear 13 1023 48 10000 3.1 210 10:52 06.04.2020
5390 Clear 13 1023 48 10000 3.1 210 10:52 06.04.2020
5391 Clear 12 1023 48 10000 3.1 180 10:52 06.04.2020
5392 Clear 11 1023 40 10000 3.1 150 10:22 06.04.2020
5393 Clear 10 1023 43 10000 3.1 140 09:47 06.04.2020
5394 Clear 7 1023 59 10000 2.6 90 09:22 06.04.2020
5395 Clear 6 1023 59 10000 2.6 90 08:55 06.04.2020
5396 Clear 4 1023 65 10000 1 0 08:31 06.04.2020
5397 Clear 2 1022 80 10000 2.1 120 07:51 06.04.2020
5398 Clear 2 1022 74 10000 1 90 07:51 06.04.2020
5399 Clear 2 1022 80 10000 2.1 120 07:51 06.04.2020
5400 Clear 2 1022 80 10000 2.1 120 07:51 06.04.2020
5401 Clear 3 1021 74 10000 1 110 06:52 06.04.2020
5402 Clear 3 1021 74 10000 1 110 06:52 06.04.2020
5403 Clear 2 1021 74 10000 1 100 06:25 06.04.2020
5404 Clear 4 1021 64 10000 1 0 04:20 06.04.2020
5405 Clear 4 1021 64 10000 1 0 03:18 06.04.2020
5406 Clear 5 1021 65 10000 1 0 02:36 06.04.2020
5407 Clear 7 1021 49 10000 1 110 01:47 06.04.2020
5408 Clear 6 1021 49 10000 3.1 100 00:46 06.04.2020
5409 Clear 6 1021 49 10000 3.1 100 00:46 06.04.2020
5410 Clear 7 1021 49 10000 3.1 100 00:24 06.04.2020
5411 Clear 8 1021 45 10000 4.1 100 23:44 05.04.2020
5412 Clear 8 1021 45 10000 4.1 100 23:26 05.04.2020
5413 Clear 8 1021 43 10000 4.1 90 22:56 05.04.2020
5414 Clear 9 1021 40 10000 3.1 90 22:37 05.04.2020
5415 Clear 8 1021 40 10000 3.1 90 22:37 05.04.2020
5416 Clear 9 1021 40 10000 3.1 90 22:37 05.04.2020
5417 Clear 8 1021 40 10000 3.1 90 22:37 05.04.2020
5418 Clear 9 1021 40 10000 3.6 90 22:18 05.04.2020
5419 Clear 10 1021 35 10000 3.1 80 21:46 05.04.2020
5420 Clear 11 1021 35 10000 3.1 80 21:25 05.04.2020
5421 Clear 13 1021 35 10000 2.6 70 20:49 05.04.2020
5422 Clear 13 1021 35 10000 2.6 70 20:49 05.04.2020
5423 Clear 13 1021 35 10000 2.6 70 20:49 05.04.2020
5424 Clear 13 1021 35 10000 2.6 70 20:48 05.04.2020
5425 Clear 13 1021 35 10000 2.6 70 20:48 05.04.2020
5426 Clear 14 1021 31 10000 4.1 80 20:20 05.04.2020
5427 Clear 14 1021 31 10000 4.1 80 20:20 05.04.2020
5428 Clear 16 1021 29 10000 4.6 80 19:38 05.04.2020
5429 Clear 16 1021 29 10000 4.6 90 19:20 05.04.2020
5430 Clear 17 1022 29 10000 5.1 90 18:44 05.04.2020
5431 Clear 17 1022 29 10000 5.1 90 18:44 05.04.2020
5432 Clear 17 1022 29 10000 5.1 90 18:44 05.04.2020
5433 Clear 17 1022 29 10000 5.1 90 18:44 05.04.2020
5434 Clear 17 1022 29 10000 5.1 90 18:44 05.04.2020
5435 Clear 18 1022 27 10000 5.7 70 17:56 05.04.2020
5436 Clear 18 1022 27 10000 5.7 70 17:38 05.04.2020
5437 Clear 18 1022 27 10000 5.7 70 17:37 05.04.2020
5438 Clear 18 1022 27 10000 5.7 70 17:37 05.04.2020
5439 Clear 18 1022 27 10000 5.7 70 17:37 05.04.2020
5440 Clear 18 1022 27 10000 5.7 70 17:37 05.04.2020
5441 Clear 18 1022 29 10000 5.7 90 17:19 05.04.2020
5442 Clear 18 1022 29 10000 5.7 90 17:18 05.04.2020
5443 Clear 17 1022 29 10000 5.7 90 17:18 05.04.2020
5444 Clear 18 1022 29 10000 5.7 90 17:17 05.04.2020
5445 Clear 18 1022 29 10000 5.7 90 17:13 05.04.2020
5446 Clear 18 1023 27 10000 6.2 90 16:20 05.04.2020
5447 Clear 17 1023 34 10000 6.2 110 15:52 05.04.2020
5448 Clear 17 1023 34 10000 6.2 110 15:33 05.04.2020
5449 Clear 16 1024 33 10000 5.1 100 14:50 05.04.2020
5450 Clear 16 1024 34 10000 5.1 100 14:26 05.04.2020
5451 Clear 16 1024 34 10000 6.2 110 13:43 05.04.2020
5452 Clear 15 1025 33 10000 7.2 110 12:54 05.04.2020
5453 Clear 15 1025 33 10000 7.2 110 12:54 05.04.2020
5454 Clear 15 1025 33 10000 7.2 110 12:53 05.04.2020
5455 Clear 15 1025 33 10000 7.2 110 12:53 05.04.2020
5456 Clear 15 1025 33 10000 7.2 110 12:51 05.04.2020
5457 Clear 13 1026 35 10000 8.7 110 11:43 05.04.2020
5458 Clear 13 1026 35 10000 8.7 110 11:21 05.04.2020
5459 Clear 13 1026 35 10000 8.7 110 11:21 05.04.2020
5460 Clear 11 1026 41 10000 8.2 110 10:59 05.04.2020
5461 Clear 11 1026 50 10000 5.7 100 10:40 05.04.2020
5462 Clear 11 1026 50 10000 5.7 100 10:40 05.04.2020
5463 Clear 11 1026 50 10000 5.7 100 10:40 05.04.2020
5464 Clear 11 1026 50 10000 5.7 100 10:40 05.04.2020
5465 Clear 11 1026 50 10000 5.7 100 10:40 05.04.2020
5466 Clear 10 1026 41 10000 5.7 100 10:18 05.04.2020
5467 Clear 9 1026 53 10000 4.6 100 09:42 05.04.2020
5468 Clear 6 1026 69 10000 3.6 90 09:24 05.04.2020
5469 Clear 6 1026 69 10000 3.6 90 09:23 05.04.2020
5470 Clear 6 1026 67 10000 3.6 90 09:23 05.04.2020
5471 Clear 6 1026 69 10000 3.6 90 09:23 05.04.2020
5472 Clear 6 1026 69 10000 3.6 90 09:23 05.04.2020
5473 Clear 2 1026 69 10000 4.1 90 07:41 05.04.2020
5474 Clear 2 1025 74 10000 3.6 100 04:36 05.04.2020
5475 Clear 3 1025 69 10000 3.1 100 03:32 05.04.2020
5476 Clear 4 1025 56 10000 3.6 90 02:52 05.04.2020
5477 Clear 4 1025 52 10000 3.6 80 01:48 05.04.2020
5478 Clear 4 1025 52 10000 3.6 90 01:28 05.04.2020
5479 Clear 4 1025 52 10000 3.6 80 01:28 05.04.2020
5480 Clear 5 1025 52 10000 3.6 80 00:44 05.04.2020
5481 Clear 5 1025 52 10000 3.6 80 00:21 05.04.2020
5482 Clear 5 1025 56 10000 2.1 80 23:55 04.04.2020
5483 Clear 5 1025 56 10000 2.1 80 23:37 04.04.2020
5484 Clear 5 1025 65 10000 1 100 23:19 04.04.2020
5485 Clear 6 1025 60 10000 2.1 70 22:40 04.04.2020
5486 Clear 6 1025 56 10000 1.5 50 22:21 04.04.2020
5487 Clear 7 1025 56 10000 1.5 50 21:58 04.04.2020
5488 Clear 8 1025 61 10000 2.1 40 21:40 04.04.2020
5489 Clear 9 1024 56 10000 1.5 40 21:19 04.04.2020
5490 Clear 10 1024 56 10000 1.5 40 20:58 04.04.2020
5491 Clear 10 1024 56 10000 2.1 40 20:39 04.04.2020
5492 Clear 11 1024 56 10000 1.5 30 20:21 04.04.2020
5493 Clear 12 1024 56 10000 1.5 30 19:57 04.04.2020
5494 Clear 13 1023 56 10000 1 0 19:37 04.04.2020
5495 Clear 13 1023 35 10000 2.1 310 19:19 04.04.2020
5496 Clear 14 1023 56 10000 3.6 310 18:55 04.04.2020
5497 Clouds 14 1023 56 10000 3.1 20 18:37 04.04.2020
5498 Clouds 14 1023 38 10000 3.6 280 18:18 04.04.2020
5499 Clouds 15 1023 38 10000 3.1 300 17:41 04.04.2020
5500 Clouds 15 1023 38 10000 3.1 300 17:41 04.04.2020
5501 Clouds 15 1023 37 10000 3.6 300 17:20 04.04.2020
5502 Clouds 15 1023 38 10000 1.5 0 16:56 04.04.2020
5503 Clouds 15 1023 38 10000 1.5 0 16:38 04.04.2020
5504 Clouds 15 1023 38 10000 2.1 0 16:19 04.04.2020
5505 Clouds 14 1023 38 10000 2.1 0 15:41 04.04.2020
5506 Clear 14 1024 39 10000 2.1 0 15:23 04.04.2020
5507 Clear 13 1024 40 10000 2.1 0 14:59 04.04.2020
5508 Clear 14 1024 40 10000 2.1 0 14:40 04.04.2020
5509 Clear 13 1024 39 10000 2.1 0 14:22 04.04.2020
5510 Clouds 13 1024 37 10000 2.6 270 13:55 04.04.2020
5511 Clouds 13 1024 37 10000 2.6 270 13:37 04.04.2020
5512 Clear 12 1024 39 10000 1.5 0 13:18 04.04.2020
5513 Clouds 12 1024 39 10000 2.1 0 12:44 04.04.2020
5514 Clouds 12 1024 39 10000 2.1 0 12:44 04.04.2020
5515 Clouds 11 1024 40 10000 2.1 0 12:23 04.04.2020
5516 Clouds 11 1024 40 10000 2.1 0 11:58 04.04.2020
5517 Clouds 10 1024 50 10000 2.1 0 11:38 04.04.2020
5518 Clouds 10 1024 53 10000 0.5 0 11:19 04.04.2020
5519 Clouds 9 1024 53 10000 0.5 0 10:55 04.04.2020
5520 Clouds 8 1024 61 10000 1 0 10:37 04.04.2020
5521 Clear 7 1024 61 10000 1 0 10:18 04.04.2020
5522 Clear 7 1024 61 10000 1 0 09:54 04.04.2020
5523 Clear 6 1023 61 10000 0.5 210 09:36 04.04.2020
5524 Clear 4 1023 76 10000 0.5 0 09:18 04.04.2020
5525 Clear 2 1023 76 10000 1.5 100 08:38 04.04.2020
5526 Clear 1 1023 80 10000 2.6 90 08:20 04.04.2020
5527 Clear 0 1022 76 10000 1.5 90 07:41 04.04.2020
5528 Clear 0 1022 76 10000 0.5 0 07:23 04.04.2020
5529 Clear 0 1022 76 10000 0.5 0 06:47 04.04.2020
5530 Clear 0 1021 86 10000 2.1 100 06:18 04.04.2020
5531 Clear 1 1021 80 10000 2.1 90 05:41 04.04.2020
5532 Clear 1 1021 80 10000 2.1 90 05:22 04.04.2020
5533 Clear 2 1021 80 10000 1 0 04:25 04.04.2020
5534 Clear 2 1020 78 10000 0.5 0 03:47 04.04.2020
5535 Clouds 3 1020 77 10000 0.5 0 02:49 04.04.2020
5536 Clouds 3 1020 78 10000 0.5 0 02:30 04.04.2020
5537 Clouds 4 1020 78 10000 1 0 01:53 04.04.2020
5538 Clouds 4 1020 78 10000 1 0 01:24 04.04.2020
5539 Clouds 4 1020 78 10000 0.5 20 00:47 04.04.2020
5540 Clouds 4 1020 78 10000 0.5 20 00:27 04.04.2020
5541 Clouds 5 1019 76 10000 1.5 250 23:39 03.04.2020
5542 Clouds 5 1019 75 10000 2.1 260 23:21 03.04.2020
5543 Clouds 6 1019 75 10000 2.6 250 22:56 03.04.2020
5544 Clouds 6 1019 76 10000 2.1 220 22:38 03.04.2020
5545 Clouds 6 1018 76 10000 2.1 230 22:18 03.04.2020
5546 Clouds 7 1018 65 10000 1.5 260 21:43 03.04.2020
5547 Clouds 8 1018 72 10000 2.1 260 21:24 03.04.2020
5548 Clouds 8 1018 57 10000 1.5 290 20:56 03.04.2020
5549 Clouds 9 1018 57 10000 1.5 290 20:37 03.04.2020
5550 Clouds 9 1017 53 10000 2.1 270 20:19 03.04.2020
5551 Clouds 10 1017 53 10000 3.1 280 19:56 03.04.2020
5552 Clouds 10 1017 53 10000 3.1 280 19:38 03.04.2020
5553 Clouds 10 1016 53 10000 3.6 260 19:19 03.04.2020
5554 Clouds 10 1016 53 10000 3.6 260 18:58 03.04.2020
5555 Clouds 10 1016 50 10000 4.6 270 18:40 03.04.2020
5556 Clouds 10 1016 50 10000 3.6 270 18:22 03.04.2020
5557 Rain 11 1016 66 10000 2.6 290 17:43 03.04.2020
5558 Clouds 10 1016 66 10000 3.1 300 17:21 03.04.2020
5559 Clouds 11 1016 66 10000 3.1 300 16:58 03.04.2020
5560 Clouds 11 1016 50 10000 5.1 300 16:40 03.04.2020
5561 Clouds 11 1016 50 10000 4.6 280 16:21 03.04.2020
5562 Clouds 11 1016 50 10000 4.6 280 15:57 03.04.2020
5563 Clouds 11 1016 50 10000 4.1 300 15:38 03.04.2020
5564 Clouds 10 1016 63 10000 4.6 280 15:19 03.04.2020
5565 Clouds 10 1016 63 10000 4.6 280 15:19 03.04.2020
5566 Clouds 10 1016 63 10000 4.6 280 14:41 03.04.2020
5567 Clouds 10 1016 63 10000 4.6 280 14:41 03.04.2020
5568 Clouds 9 1016 63 10000 4.6 280 14:22 03.04.2020
5569 Clouds 9 1016 53 10000 4.6 280 13:57 03.04.2020
5570 Clouds 9 1016 53 10000 4.6 280 13:38 03.04.2020
5571 Clouds 9 1016 49 10000 4.6 270 13:20 03.04.2020
5572 Clouds 8 1016 53 10000 3.6 250 12:43 03.04.2020
5573 Clouds 8 1016 56 10000 3.1 230 12:20 03.04.2020
5574 Clouds 8 1016 56 10000 2.6 240 11:57 03.04.2020
5575 Clouds 8 1016 56 10000 2.6 240 11:38 03.04.2020
5576 Clouds 8 1016 56 10000 2.6 240 11:38 03.04.2020
5577 Clouds 7 1016 56 10000 2.6 230 11:20 03.04.2020
5578 Clouds 7 1016 56 10000 2.6 230 10:58 03.04.2020
5579 Clouds 6 1015 56 10000 2.1 240 10:38 03.04.2020
5580 Clouds 6 1015 60 10000 2.1 210 10:20 03.04.2020
5581 Clouds 5 1015 60 10000 2.1 210 09:57 03.04.2020
5582 Clouds 4 1014 65 10000 2.1 180 09:39 03.04.2020
5583 Clouds 3 1014 65 10000 2.1 180 09:21 03.04.2020
5584 Clouds 2 1014 65 10000 2.6 160 08:55 03.04.2020
5585 Clouds 2 1014 69 10000 2.1 110 08:36 03.04.2020
5586 Clouds 0 1014 74 10000 2.6 120 08:18 03.04.2020
5587 Clouds -1 1013 74 10000 2.1 120 07:42 03.04.2020
5588 Clouds -1 1013 74 10000 2.1 120 07:23 03.04.2020
5589 Clouds -1 1013 79 10000 1 0 06:40 03.04.2020
5590 Clouds -1 1013 79 10000 0.5 0 06:21 03.04.2020
5591 Clouds -1 1012 79 10000 0.5 0 05:34 03.04.2020
5592 Clouds 0 1011 77 10000 0.5 0 03:40 03.04.2020
5593 Clouds 1 1011 71 10000 1.5 270 02:55 03.04.2020
5594 Clouds 1 1011 72 10000 0.5 0 01:53 03.04.2020
5595 Clouds 1 1011 59 10000 0.5 0 01:18 03.04.2020
5596 Clouds 2 1010 59 10000 0.5 0 00:34 03.04.2020
5597 Clear 3 1010 51 10000 0.5 0 23:58 02.04.2020
5598 Clear 3 1010 48 10000 1 0 23:39 02.04.2020
5599 Clear 3 1010 48 10000 1 0 23:21 02.04.2020
5600 Clear 5 1010 45 10000 2.1 270 22:43 02.04.2020
5601 Clear 5 1010 48 10000 1.5 270 22:25 02.04.2020
5602 Clear 5 1010 48 10000 1.5 270 21:59 02.04.2020
5603 Clear 6 1010 45 10000 2.1 250 21:38 02.04.2020
5604 Clear 6 1010 45 10000 2.1 250 21:38 02.04.2020
5605 Clear 7 1009 39 10000 1.5 250 21:19 02.04.2020
5606 Clear 8 1009 39 10000 1.5 250 20:55 02.04.2020
5607 Clear 8 1009 39 10000 2.1 270 20:37 02.04.2020
5608 Clear 9 1009 34 10000 2.6 290 20:19 02.04.2020
5609 Clear 11 1009 30 10000 3.6 300 19:42 02.04.2020
5610 Clear 12 1009 32 10000 4.1 300 19:20 02.04.2020
5611 Clear 13 1009 28 10000 4.1 300 18:57 02.04.2020
5612 Clear 13 1009 28 10000 4.1 300 18:39 02.04.2020
5613 Clear 13 1009 28 10000 5.1 270 18:19 02.04.2020
5614 Clear 13 1009 24 10000 3.6 270 17:44 02.04.2020
5615 Clear 14 1009 26 10000 4.1 280 17:26 02.04.2020
5616 Clear 13 1009 26 10000 4.1 280 16:59 02.04.2020
5617 Clear 14 1010 24 10000 3.1 260 16:41 02.04.2020
5618 Clear 14 1010 24 10000 3.1 260 16:22 02.04.2020
5619 Clear 13 1010 26 10000 2.6 0 15:59 02.04.2020
5620 Clear 13 1010 26 10000 3.6 270 15:40 02.04.2020
5621 Clear 13 1011 26 10000 2.6 0 15:20 02.04.2020
5622 Clear 13 1011 26 10000 2.6 0 14:58 02.04.2020
5623 Clear 12 1011 27 10000 2.6 0 14:38 02.04.2020
5624 Clear 12 1012 30 10000 2.1 0 14:19 02.04.2020
5625 Clear 12 1012 30 10000 2.6 330 13:55 02.04.2020
5626 Clear 11 1012 30 10000 2.6 330 13:37 02.04.2020
5627 Clear 11 1012 27 10000 2.6 190 13:19 02.04.2020
5628 Clear 10 1013 29 10000 2.1 0 12:46 02.04.2020
5629 Clear 10 1013 31 10000 2.1 0 12:20 02.04.2020
5630 Clear 9 1013 31 10000 2.1 0 11:58 02.04.2020
5631 Clear 8 1013 34 10000 1.5 0 11:39 02.04.2020
5632 Clear 8 1013 39 10000 1.5 150 11:20 02.04.2020
5633 Clear 6 1014 39 10000 1 0 10:57 02.04.2020
5634 Clear 6 1014 39 10000 1 0 10:38 02.04.2020
5635 Clear 4 1013 44 10000 2.6 130 10:20 02.04.2020
5636 Clear 4 1013 44 10000 2.6 130 10:20 02.04.2020
5637 Clear 3 1013 44 10000 2.6 130 09:59 02.04.2020
5638 Clear 2 1014 51 10000 1.5 100 09:41 02.04.2020
5639 Clear 0 1014 59 10000 1.5 120 09:21 02.04.2020
5640 Clear -2 1014 68 10000 1.5 110 08:47 02.04.2020
5641 Clear -2 1014 68 10000 1.5 110 08:28 02.04.2020
5642 Clear -3 1014 73 10000 1.5 110 07:57 02.04.2020
5643 Clear -3 1014 73 10000 1.5 110 07:38 02.04.2020
5644 Clear -5 1014 79 10000 2.1 100 07:19 02.04.2020
5645 Clear -4 1014 73 10000 1.5 100 06:24 02.04.2020
5646 Clear -4 1014 73 10000 1 0 05:46 02.04.2020
5647 Clear -4 1014 79 10000 0.5 0 04:55 02.04.2020
5648 Clear -2 1015 68 10000 0.5 0 02:19 02.04.2020
5649 Clear -1 1015 58 10000 3.1 100 00:59 02.04.2020
5650 Clear -1 1015 54 10000 3.1 110 00:38 02.04.2020
5651 Clear -1 1016 69 10000 2.1 100 00:19 02.04.2020
5652 Clear -1 1016 54 10000 1 70 23:39 01.04.2020
5653 Clear 0 1016 69 10000 0.5 0 23:19 01.04.2020
5654 Clear 0 1016 69 10000 0.5 0 22:56 01.04.2020
5655 Clear 1 1016 40 10000 1.5 110 22:38 01.04.2020
5656 Clear 1 1016 47 10000 0.5 0 22:19 01.04.2020
5657 Clear 2 1016 47 10000 2.1 30 21:41 01.04.2020
5658 Clouds 4 1016 41 10000 2.1 20 21:19 01.04.2020
5659 Clouds 5 1016 41 10000 2.1 20 20:56 01.04.2020
5660 Clouds 5 1016 38 10000 2.1 360 20:38 01.04.2020
5661 Clouds 6 1016 33 10000 2.6 320 20:19 01.04.2020
5662 Clouds 7 1016 33 10000 2.6 320 19:57 01.04.2020
5663 Clouds 7 1016 31 10000 2.6 320 19:57 01.04.2020
5664 Clouds 8 1016 31 10000 2.6 320 19:38 01.04.2020
5665 Clouds 8 1016 29 10000 2.6 320 19:19 01.04.2020
5666 Clouds 9 1016 27 10000 3.1 290 18:42 01.04.2020
5667 Clouds 10 1016 27 10000 2.1 330 18:22 01.04.2020
5668 Clouds 10 1016 27 10000 2.1 330 17:57 01.04.2020
5669 Clouds 10 1017 25 10000 1.5 0 17:37 01.04.2020
5670 Clouds 10 1017 27 10000 1.5 0 17:19 01.04.2020
5671 Clouds 10 1017 27 10000 1.5 290 16:56 01.04.2020
5672 Clouds 10 1017 27 10000 1.5 290 16:38 01.04.2020
5673 Clouds 10 1018 29 10000 2.1 290 16:20 01.04.2020
5674 Clouds 10 1018 29 10000 1.5 0 15:43 01.04.2020
5675 Clouds 9 1019 34 10000 2.1 180 15:24 01.04.2020
5676 Clear 9 1019 31 10000 1.5 150 14:59 01.04.2020
5677 Clear 8 1019 31 10000 1.5 150 14:40 01.04.2020
5678 Clear 8 1019 31 10000 1.5 150 14:40 01.04.2020
5679 Clear 8 1020 33 10000 2.6 160 14:21 01.04.2020
5680 Clear 7 1020 33 10000 2.6 160 13:59 01.04.2020
5681 Clear 7 1020 36 10000 2.1 0 13:39 01.04.2020
5682 Clear 7 1021 39 10000 1.5 0 13:20 01.04.2020
5683 Clear 7 1021 39 10000 1.5 0 12:57 01.04.2020
5684 Clear 6 1021 41 10000 2.6 0 12:37 01.04.2020
5685 Clear 6 1022 45 10000 1 0 12:18 01.04.2020
5686 Clear 5 1022 45 10000 1 0 11:56 01.04.2020
5687 Clear 4 1022 48 10000 1 0 11:37 01.04.2020
5688 Clear 4 1022 48 10000 1 0 11:37 01.04.2020
5689 Clear 4 1022 48 10000 1 0 11:37 01.04.2020
5690 Clear 4 1022 48 10000 1 0 11:37 01.04.2020
5691 Clear 4 1022 51 10000 1.5 230 11:18 01.04.2020
5692 Clear 2 1023 51 10000 1.5 0 10:38 01.04.2020
5693 Clear 2 1023 51 10000 1 0 10:20 01.04.2020
5694 Clear 1 1023 51 10000 1 0 09:58 01.04.2020
5695 Clear 0 1023 55 10000 1.5 120 09:39 01.04.2020
5696 Clear -2 1022 63 10000 1.11 88 09:19 01.04.2020
5697 Clear -3 1023 63 10000 0.5 0 08:44 01.04.2020
5698 Clear -4 1023 73 10000 0.5 340 08:18 01.04.2020
5699 Clear -5 1023 73 10000 1.15 86 07:48 01.04.2020
5700 Clear -6 1023 73 10000 1.15 86 07:23 01.04.2020
5701 Clear -6 1023 79 10000 0.5 110 06:59 01.04.2020
5702 Clear -6 1023 79 10000 0.5 0 06:38 01.04.2020
5703 Clear -6 1023 73 10000 0.5 0 06:20 01.04.2020
5704 Clear -5 1024 79 10000 0.5 340 04:38 01.04.2020
5705 Clear -5 1024 73 10000 1 360 03:36 01.04.2020
5706 Clear -4 1024 73 10000 0.5 290 02:59 01.04.2020
5707 Clear -4 1025 68 10000 0.5 0 02:24 01.04.2020
5708 Clear -4 1025 58 10000 2.1 110 01:43 01.04.2020
5709 Clear -4 1025 58 10000 2.1 110 01:23 01.04.2020
5710 Clear -3 1026 58 10000 1 70 00:47 01.04.2020
5711 Clear -3 1026 58 10000 0.5 0 00:21 01.04.2020
5712 Clear -2 1026 54 10000 0.5 0 23:49 31.03.2020
5713 Clear -2 1026 85 10000 1 0 23:28 31.03.2020
5714 Clear -1 1026 85 10000 2.6 40 22:59 31.03.2020
5715 Clear -1 1026 85 10000 2.6 40 22:38 31.03.2020
5716 Clear 0 1026 43 10000 2.6 30 22:20 31.03.2020
5717 Clear 0 1026 43 10000 2.1 40 21:57 31.03.2020
5718 Clear 0 1026 43 10000 2.1 40 21:39 31.03.2020
5719 Clouds 1 1026 40 10000 2.6 30 21:20 31.03.2020
5720 Clouds 1 1026 40 10000 2.6 30 21:20 31.03.2020
5721 Clouds 1 1026 40 10000 2.6 30 21:20 31.03.2020
5722 Clouds 2 1026 40 10000 2.6 30 20:56 31.03.2020
5723 Clouds 2 1026 37 10000 2.6 20 20:37 31.03.2020
5724 Clouds 2 1026 37 10000 2.6 20 20:37 31.03.2020
5725 Clouds 3 1026 37 10000 2.6 20 20:18 31.03.2020
5726 Clouds 4 1026 35 10000 3.1 30 19:42 31.03.2020
5727 Clouds 4 1025 35 10000 4.6 360 19:24 31.03.2020
5728 Clouds 5 1025 33 10000 5.1 360 18:59 31.03.2020
5729 Clouds 5 1025 33 10000 5.1 360 18:41 31.03.2020
5730 Clouds 6 1025 35 10000 2.6 340 18:19 31.03.2020
5731 Clouds 6 1025 35 10000 3.6 30 17:55 31.03.2020
5732 Clouds 6 1025 35 10000 3.6 30 17:37 31.03.2020
5733 Clouds 6 1025 35 10000 2.1 30 17:19 31.03.2020
5734 Clouds 6 1025 38 10000 4.1 30 16:41 31.03.2020
5735 Clouds 6 1025 36 10000 4.1 0 16:20 31.03.2020
5736 Clouds 6 1025 36 10000 4.1 0 15:58 31.03.2020
5737 Clouds 6 1026 35 10000 5.1 20 15:40 31.03.2020
5738 Clouds 6 1026 35 10000 5.1 20 15:22 31.03.2020
5739 Rain 5 1026 44 10000 5.7 40 14:58 31.03.2020
5740 Rain 5 1026 44 10000 5.7 40 14:58 31.03.2020
5741 Rain 5 1026 48 10000 6.2 360 14:39 31.03.2020
5742 Clouds 5 1026 45 10000 4.6 10 14:21 31.03.2020
5743 Clouds 5 1026 48 10000 5.7 20 13:43 31.03.2020
5744 Clouds 5 1026 44 10000 4.1 360 13:20 31.03.2020
5745 Clouds 5 1026 44 10000 4.1 360 12:59 31.03.2020
5746 Clouds 4 1026 48 10000 6.7 340 12:40 31.03.2020
5747 Clouds 4 1026 55 10000 4.1 350 12:19 31.03.2020
5748 Rain 4 1027 59 10000 4.6 10 11:41 31.03.2020
5749 Clouds 4 1027 59 10000 4.1 360 11:20 31.03.2020
5750 Clouds 3 1027 59 10000 4.1 360 11:20 31.03.2020
5751 Clouds 3 1027 59 10000 4.1 360 10:59 31.03.2020
5752 Clouds 3 1027 64 10000 4.1 350 10:40 31.03.2020
5753 Clouds 3 1026 64 10000 3.1 330 10:22 31.03.2020
5754 Snow 2 1026 69 10000 1.5 350 09:59 31.03.2020
5755 Snow 2 1026 69 10000 1.5 350 09:40 31.03.2020
5756 Rain 1 1026 69 10000 1.5 320 09:22 31.03.2020
5757 Clouds 0 1026 81 10000 1.5 340 08:57 31.03.2020
5758 Clouds 0 1026 81 10000 1.5 340 08:38 31.03.2020
5759 Clouds 0 1026 81 10000 3.1 350 08:19 31.03.2020
5760 Clouds -1 1026 81 10000 3.1 350 08:19 31.03.2020
5761 Clouds -1 1026 81 10000 3.1 350 07:56 31.03.2020
5762 Clouds -1 1026 68 10000 2.1 350 07:37 31.03.2020
5763 Clouds -1 1025 74 10000 2.1 350 07:18 31.03.2020
5764 Clouds -1 1025 68 10000 1 0 06:45 31.03.2020
5765 Clouds -1 1025 63 10000 1 0 06:20 31.03.2020
5766 Clouds -2 1025 63 10000 1 30 05:39 31.03.2020
5767 Clouds -1 1025 58 10000 0.5 0 03:34 31.03.2020
5768 Clouds -1 1024 54 10000 1.5 90 01:59 31.03.2020
5769 Clouds -1 1024 63 10000 2.1 360 01:40 31.03.2020
5770 Clouds -1 1024 74 10000 1.5 340 00:47 31.03.2020
5771 Clouds 0 1024 74 10000 1.5 340 00:25 31.03.2020
5772 Clouds 0 1024 71 10000 0.5 0 23:42 30.03.2020
5773 Clouds 0 1024 71 10000 1 0 23:20 30.03.2020
5774 Clouds 0 1024 71 10000 0.5 0 22:59 30.03.2020
5775 Clouds 0 1024 71 10000 0.5 0 22:41 30.03.2020
5776 Clouds 0 1024 71 10000 0.5 0 22:22 30.03.2020
5777 Clouds 1 1024 43 10000 0.5 10 21:58 30.03.2020
5778 Clouds 1 1024 43 10000 0.5 10 21:39 30.03.2020
5779 Clouds 1 1024 43 10000 0.5 10 21:39 30.03.2020
5780 Clouds 2 1024 37 10000 0.5 0 21:21 30.03.2020
5781 Clear 3 1024 37 10000 0.5 0 20:59 30.03.2020
5782 Clear 3 1024 35 10000 1 0 20:39 30.03.2020
5783 Clear 4 1024 27 10000 2.6 330 20:21 30.03.2020
5784 Clear 5 1024 27 10000 2.6 330 19:58 30.03.2020
5785 Clear 5 1023 27 10000 3.1 360 19:39 30.03.2020
5786 Clear 6 1023 26 10000 3.1 330 19:21 30.03.2020
5787 Clear 6 1023 26 10000 3.1 330 18:56 30.03.2020
5788 Clear 6 1023 26 10000 3.1 340 18:36 30.03.2020
5789 Clear 6 1023 22 10000 3.6 340 18:18 30.03.2020
5790 Clear 7 1023 22 10000 4.1 360 17:55 30.03.2020
5791 Clear 7 1023 22 10000 4.1 360 17:36 30.03.2020
5792 Clear 7 1023 26 10000 4.6 350 17:18 30.03.2020
5793 Clear 7 1023 26 10000 3.6 10 16:41 30.03.2020
5794 Clear 7 1024 28 10000 4.1 10 16:21 30.03.2020
5795 Clear 7 1024 28 10000 4.1 10 16:21 30.03.2020
5796 Clear 6 1024 28 10000 4.1 10 15:56 30.03.2020
5797 Clear 6 1024 28 10000 4.1 10 15:56 30.03.2020
5798 Clear 6 1024 28 10000 4.6 0 15:38 30.03.2020
5799 Clear 6 1024 30 10000 4.6 350 15:20 30.03.2020
5800 Clear 6 1024 30 10000 4.6 350 14:58 30.03.2020
5801 Clear 5 1025 32 10000 3.6 330 14:37 30.03.2020
5802 Clear 5 1025 32 10000 3.6 0 14:18 30.03.2020
5803 Clear 5 1025 32 10000 3.6 0 14:18 30.03.2020
5804 Clear 4 1025 32 10000 3.6 30 13:56 30.03.2020
5805 Clear 4 1025 32 10000 3.6 30 13:37 30.03.2020
5806 Clear 4 1025 32 10000 3.1 20 13:19 30.03.2020
5807 Clear 3 1026 34 10000 4.1 70 12:44 30.03.2020
5808 Clear 3 1026 40 10000 3.6 0 12:21 30.03.2020
5809 Clear 3 1026 40 10000 3.6 0 12:21 30.03.2020
5810 Clear 3 1026 40 10000 3.6 0 12:21 30.03.2020
5811 Clear 2 1026 40 10000 3.6 0 11:57 30.03.2020
5812 Clear 2 1026 37 10000 2.1 0 11:39 30.03.2020
5813 Clear 2 1027 40 10000 3.6 50 11:21 30.03.2020
5814 Clouds 1 1027 43 10000 3.1 60 10:41 30.03.2020
5815 Clouds 1 1027 43 10000 3.1 60 10:23 30.03.2020
5816 Clouds 0 1027 47 10000 3.1 50 09:59 30.03.2020
5817 Clouds 0 1027 47 10000 3.1 50 09:59 30.03.2020
5818 Clouds 0 1027 58 10000 4.1 30 09:40 30.03.2020
5819 Clouds -1 1027 87 10000 2.6 20 09:19 30.03.2020
5820 Clouds -2 1027 58 10000 4.1 10 08:47 30.03.2020
5821 Clouds -2 1027 58 10000 4.1 10 08:28 30.03.2020
5822 Clouds -2 1027 58 10000 4.1 10 08:28 30.03.2020
5823 Clouds -2 1027 63 10000 3.1 360 07:58 30.03.2020
5824 Clouds -3 1026 68 10000 3.6 360 07:39 30.03.2020
5825 Clouds -3 1026 68 10000 2.6 360 07:18 30.03.2020
5826 Clouds -3 1026 68 10000 3.1 360 06:37 30.03.2020
5827 Clouds -2 1026 68 10000 3.6 10 06:18 30.03.2020
5828 Clouds -2 1026 68 10000 4.1 360 05:38 30.03.2020
5829 Clouds -1 1026 90 10000 5.1 10 04:27 30.03.2020
5830 Clouds 0 1026 64 10000 3.6 10 03:50 30.03.2020
5831 Clouds 0 1026 64 10000 4.6 10 02:43 30.03.2020
5832 Clouds 1 1026 69 10000 3.6 10 01:52 30.03.2020
5833 Clouds 1 1026 69 10000 5.1 20 00:56 30.03.2020
5834 Clouds 2 1025 64 10000 5.1 20 00:25 30.03.2020
5835 Clouds 2 1025 64 10000 6.7 20 23:43 29.03.2020
5836 Clouds 2 1025 64 10000 6.7 20 23:24 29.03.2020
5837 Clouds 2 1024 64 10000 6.2 10 22:59 29.03.2020
5838 Clouds 2 1024 64 10000 6.2 10 22:39 29.03.2020
5839 Clouds 3 1024 69 10000 5.1 20 22:20 29.03.2020
5840 Clouds 3 1024 69 10000 5.1 20 21:58 29.03.2020
5841 Clouds 3 1023 69 10000 7.7 20 21:37 29.03.2020
5842 Clouds 3 1023 69 10000 7.7 10 21:18 29.03.2020
5843 Clouds 4 1023 69 10000 7.7 10 20:55 29.03.2020
5844 Clouds 4 1022 70 10000 5.7 360 20:55 29.03.2020
5845 Clouds 4 1022 70 10000 5.7 360 20:37 29.03.2020
5846 Clouds 4 1022 70 10000 5.7 360 20:37 29.03.2020
5847 Clouds 4 1022 70 10000 5.7 350 20:18 29.03.2020
5848 Clouds 5 1021 65 10000 6.2 340 19:54 29.03.2020
5849 Clouds 5 1021 65 10000 6.2 340 19:36 29.03.2020
5850 Rain 5 1021 60 10000 6.2 340 19:18 29.03.2020
5851 Rain 5 1021 56 10000 6.2 10 18:54 29.03.2020
5852 Rain 5 1021 56 10000 6.2 10 18:54 29.03.2020
5853 Rain 5 1021 56 10000 6.2 10 18:36 29.03.2020
5854 Rain 5 1021 56 10000 6.2 10 18:36 29.03.2020
5855 Clouds 6 1020 52 10000 4.6 10 18:18 29.03.2020
5856 Clouds 6 1020 52 10000 4.6 10 18:18 29.03.2020
5857 Clouds 7 1020 52 10000 4.6 10 17:42 29.03.2020
5858 Clouds 6 1020 56 10000 4.6 350 17:22 29.03.2020
5859 Clouds 6 1020 56 10000 4.6 350 16:58 29.03.2020
5860 Clouds 6 1020 60 10000 5.1 350 16:40 29.03.2020
5861 Clouds 7 1020 60 10000 5.1 10 16:21 29.03.2020
5862 Clouds 6 1020 60 10000 5.1 10 15:58 29.03.2020
5863 Clouds 6 1020 53 10000 6.2 350 15:39 29.03.2020
5864 Clouds 6 1020 66 10000 6.2 10 15:19 29.03.2020
5865 Clouds 7 1020 66 10000 6.2 10 14:56 29.03.2020
5866 Clouds 7 1019 66 10000 6.2 350 14:37 29.03.2020
5867 Clouds 7 1019 79 10000 5.7 340 14:18 29.03.2020
5868 Clouds 7 1019 79 10000 4.6 350 13:55 29.03.2020
5869 Clouds 7 1019 79 10000 4.6 350 13:55 29.03.2020
5870 Clouds 7 1019 79 10000 4.6 350 13:36 29.03.2020
5871 Clouds 7 1019 79 10000 4.6 360 13:18 29.03.2020
5872 Clouds 7 1019 79 10000 5.1 360 12:54 29.03.2020
5873 Clouds 7 1019 79 10000 5.1 360 12:36 29.03.2020
5874 Clouds 7 1019 79 10000 5.1 360 12:36 29.03.2020
5875 Clouds 7 1019 73 10000 4.1 20 12:18 29.03.2020
5876 Clouds 7 1019 73 10000 4.1 20 12:18 29.03.2020
5877 Clouds 6 1019 73 10000 4.1 360 11:38 29.03.2020
5878 Clouds 6 1019 73 10000 4.1 340 11:20 29.03.2020
5879 Clouds 5 1019 73 10000 3.6 330 10:40 29.03.2020
5880 Clouds 5 1019 73 10000 3.6 330 10:21 29.03.2020
5881 Clouds 5 1019 73 10000 3.6 330 09:59 29.03.2020
5882 Clouds 4 1019 73 10000 3.1 330 09:38 29.03.2020
5883 Clouds 4 1019 77 10000 3.1 310 09:19 29.03.2020
5884 Clouds 3 1018 77 10000 2.6 310 08:45 29.03.2020
5885 Clouds 3 1018 77 10000 2.6 310 08:27 29.03.2020
5886 Clouds 2 1018 80 10000 1.5 330 07:48 29.03.2020
5887 Clouds 2 1018 74 10000 1.5 320 07:24 29.03.2020
5888 Clouds 2 1018 74 10000 2.1 340 06:55 29.03.2020
5889 Clouds 3 1018 74 10000 2.1 320 04:57 29.03.2020
5890 Clouds 3 1018 74 10000 2.6 340 03:41 29.03.2020
5891 Clouds 3 1018 80 10000 1.5 350 03:22 29.03.2020
5892 Clear 4 1018 74 10000 2.1 360 01:44 29.03.2020
5893 Clear 4 1018 69 10000 2.1 350 01:23 29.03.2020
5894 Clear 4 1018 69 10000 1 330 00:46 29.03.2020
5895 Clear 4 1018 69 10000 1.5 360 00:28 29.03.2020
5896 Clear 6 1018 60 10000 1 320 23:41 28.03.2020
5897 Clear 6 1018 56 10000 1.5 350 23:23 28.03.2020
5898 Clear 7 1018 52 10000 1 0 22:54 28.03.2020
5899 Clear 7 1018 52 10000 1 0 22:36 28.03.2020
5900 Clear 8 1017 49 10000 1.5 50 22:18 28.03.2020
5901 Clear 9 1017 46 10000 2.6 20 21:40 28.03.2020
5902 Clear 9 1017 46 10000 2.6 20 21:40 28.03.2020
5903 Clear 9 1017 46 10000 2.6 20 21:21 28.03.2020
5904 Clear 10 1017 46 10000 2.6 20 20:58 28.03.2020
5905 Clear 11 1017 66 10000 2.6 360 20:38 28.03.2020
5906 Clouds 11 1016 50 10000 3.1 10 20:20 28.03.2020
5907 Clouds 11 1016 50 10000 3.1 10 19:55 28.03.2020
5908 Clouds 12 1016 46 10000 3.1 360 19:36 28.03.2020
5909 Clouds 12 1016 46 10000 3.1 360 19:36 28.03.2020
5910 Clouds 12 1016 43 10000 3.1 360 19:18 28.03.2020
5911 Clouds 14 1015 41 10000 4.1 350 18:42 28.03.2020
5912 Clouds 14 1015 38 10000 5.7 340 18:21 28.03.2020
5913 Clouds 15 1015 58 10000 5.1 350 17:43 28.03.2020
5914 Clouds 16 1015 33 10000 5.7 350 17:24 28.03.2020
5915 Clouds 16 1015 33 10000 5.7 330 17:00 28.03.2020
5916 Clouds 17 1015 33 10000 5.7 330 16:40 28.03.2020
5917 Clouds 17 1015 33 10000 4.6 360 16:20 28.03.2020
5918 Clouds 17 1015 33 10000 4.6 360 15:55 28.03.2020
5919 Clouds 17 1015 33 10000 4.1 0 15:37 28.03.2020
5920 Clouds 18 1015 31 10000 5.1 330 15:18 28.03.2020
5921 Clouds 17 1015 36 10000 3.6 340 14:41 28.03.2020
5922 Clear 17 1016 33 10000 4.1 330 14:22 28.03.2020
5923 Clear 17 1016 38 10000 3.1 30 13:44 28.03.2020
5924 Clear 17 1016 39 10000 3.1 30 13:25 28.03.2020
5925 Clear 17 1016 33 10000 3.1 50 12:57 28.03.2020
5926 Clear 17 1016 33 10000 3.6 20 12:37 28.03.2020
5927 Clear 16 1017 39 10000 4.1 80 12:18 28.03.2020
5928 Clear 16 1017 39 10000 4.6 50 11:41 28.03.2020
5929 Clear 14 1017 36 10000 3.1 0 11:21 28.03.2020
5930 Clear 13 1017 44 10000 2.6 310 10:40 28.03.2020
5931 Clear 12 1017 50 10000 3.6 290 10:22 28.03.2020
5932 Clear 11 1017 50 10000 3.6 290 09:56 28.03.2020
5933 Clear 10 1017 53 10000 1.5 310 09:37 28.03.2020
5934 Clear 9 1017 57 10000 1.5 300 09:19 28.03.2020
5935 Clear 8 1017 65 10000 1 0 08:42 28.03.2020
5936 Clouds 5 1017 70 10000 0.5 0 08:22 28.03.2020
5937 Clouds 4 1017 76 10000 0.5 0 07:46 28.03.2020
5938 Clouds 4 1017 76 10000 0.5 0 07:28 28.03.2020
5939 Clouds 3 1017 76 10000 0.5 0 06:37 28.03.2020
5940 Clouds 3 1016 80 10000 0.5 0 06:18 28.03.2020
5941 Clear 3 1016 80 10000 1 0 05:21 28.03.2020
5942 Clear 3 1016 77 10000 1.5 340 04:42 28.03.2020
5943 Clear 4 1016 74 10000 1 320 03:55 28.03.2020
5944 Clear 5 1016 74 10000 1.5 10 02:26 28.03.2020
5945 Clear 5 1016 74 10000 1 0 01:43 28.03.2020
5946 Clear 5 1017 73 10000 2.1 70 01:18 28.03.2020
5947 Clear 5 1016 73 10000 2.6 70 00:46 28.03.2020
5948 Clear 6 1016 73 10000 1.5 70 00:20 28.03.2020
5949 Clear 6 1017 73 10000 1.5 60 23:42 27.03.2020
5950 Clear 7 1017 63 10000 2.1 50 23:22 27.03.2020
5951 Clear 7 1016 63 10000 3.1 60 22:56 27.03.2020
5952 Clear 8 1016 63 10000 3.1 60 22:38 27.03.2020
5953 Clear 8 1016 63 10000 2.6 60 22:20 27.03.2020
5954 Clear 9 1016 63 10000 3.1 60 21:45 27.03.2020
5955 Clear 10 1016 63 10000 2.6 60 21:25 27.03.2020
5956 Clear 11 1016 63 10000 2.6 60 20:59 27.03.2020
5957 Clear 11 1016 63 10000 3.1 70 20:41 27.03.2020
5958 Clear 12 1016 56 10000 3.6 80 20:21 27.03.2020
5959 Clear 12 1015 41 10000 3.1 60 19:58 27.03.2020
5960 Clear 12 1015 41 10000 3.1 60 19:40 27.03.2020
5961 Clear 13 1015 38 10000 3.6 60 19:21 27.03.2020
5962 Clear 13 1015 38 10000 3.6 60 19:21 27.03.2020
5963 Clear 15 1015 38 10000 3.1 60 18:45 27.03.2020
5964 Clear 15 1015 36 10000 3.6 60 18:25 27.03.2020
5965 Clear 16 1015 36 10000 3.6 60 17:59 27.03.2020
5966 Clear 17 1014 36 10000 4.6 80 17:40 27.03.2020
5967 Clear 17 1014 36 10000 4.1 70 17:20 27.03.2020
5968 Clear 18 1014 34 10000 5.1 70 16:44 27.03.2020
5969 Clear 17 1014 36 10000 5.1 50 16:26 27.03.2020
5970 Clear 17 1014 36 10000 5.1 50 15:56 27.03.2020
5971 Clear 17 1014 33 10000 6.2 70 15:38 27.03.2020
5972 Clear 18 1014 34 10000 4.6 90 15:20 27.03.2020
5973 Clear 17 1015 36 10000 4.6 80 14:45 27.03.2020
5974 Clear 17 1015 36 10000 5.1 100 14:24 27.03.2020
5975 Clear 17 1015 36 10000 5.1 100 13:56 27.03.2020
5976 Clear 17 1015 36 10000 6.2 110 13:37 27.03.2020
5977 Clouds 15 1015 36 10000 5.7 110 13:18 27.03.2020
5978 Clouds 16 1016 36 10000 5.7 100 12:43 27.03.2020
5979 Clouds 15 1016 38 10000 5.1 100 12:19 27.03.2020
5980 Clouds 14 1016 43 10000 4.6 70 11:57 27.03.2020
5981 Clouds 14 1016 43 10000 4.6 70 11:39 27.03.2020
5982 Clouds 13 1016 43 10000 5.1 90 11:21 27.03.2020
5983 Clouds 12 1016 40 10000 7.2 90 10:42 27.03.2020
5984 Clouds 11 1016 43 10000 6.7 90 10:23 27.03.2020
5985 Clouds 11 1016 43 10000 6.7 90 09:59 27.03.2020
5986 Clouds 10 1016 46 10000 6.2 80 09:41 27.03.2020
5987 Clouds 9 1016 45 10000 4.1 90 09:23 27.03.2020
5988 Clouds 9 1016 45 10000 4.1 90 08:59 27.03.2020
5989 Clouds 8 1016 49 10000 4.1 80 08:59 27.03.2020
5990 Clouds 8 1016 49 10000 4.1 80 08:40 27.03.2020
5991 Clouds 6 1016 52 10000 3.6 70 08:22 27.03.2020
5992 Clouds 6 1016 52 10000 3.6 70 07:59 27.03.2020
5993 Clouds 5 1016 56 10000 3.6 80 07:41 27.03.2020
5994 Clouds 3 1016 69 10000 1.5 60 07:21 27.03.2020
5995 Clouds 3 1015 69 10000 1.5 20 06:40 27.03.2020
5996 Clouds 3 1015 69 10000 2.1 360 05:51 27.03.2020
5997 Clouds 3 1015 55 10000 2.1 40 03:34 27.03.2020
5998 Clouds 4 1016 55 10000 3.1 60 01:55 27.03.2020
5999 Clouds 4 1016 55 10000 2.1 30 01:18 27.03.2020
6000 Clouds 4 1017 55 10000 3.1 30 00:41 27.03.2020
6001 Clouds 4 1017 55 10000 3.1 30 00:41 27.03.2020
6002 Clouds 3 1017 59 10000 3.6 10 00:19 27.03.2020
6003 Clouds 4 1004 57 0 0.89 20 23:37 26.03.2020
6004 Clouds 4 1017 59 10000 2.1 350 23:18 26.03.2020
6005 Clouds 4 1018 64 10000 2.1 350 22:56 26.03.2020
6006 Clouds 4 1018 64 10000 2.1 350 22:36 26.03.2020
6007 Clouds 4 1018 55 10000 2.1 10 22:18 26.03.2020
6008 Clouds 5 1018 52 10000 2.1 30 21:40 26.03.2020
6009 Clouds 5 1018 52 10000 2.6 50 21:21 26.03.2020
6010 Clouds 5 1018 52 10000 2.6 50 20:59 26.03.2020
6011 Clouds 6 1018 48 10000 3.1 70 20:39 26.03.2020
6012 Clouds 6 1018 48 10000 3.1 70 20:21 26.03.2020
6013 Clouds 6 1018 52 10000 4.1 80 19:58 26.03.2020
6014 Clouds 6 1018 52 10000 4.1 80 19:39 26.03.2020
6015 Clouds 7 1018 48 10000 3.1 70 19:20 26.03.2020
6016 Clouds 8 1018 45 10000 4.6 60 18:58 26.03.2020
6017 Clouds 8 1018 45 10000 4.6 60 18:40 26.03.2020
6018 Clouds 8 1018 49 10000 3.6 50 18:21 26.03.2020
6019 Clouds 9 1018 45 10000 5.1 60 17:44 26.03.2020
6020 Clouds 9 1018 45 10000 5.1 70 17:19 26.03.2020
6021 Clouds 9 1019 42 10000 5.1 60 16:55 26.03.2020
6022 Clouds 9 1019 42 10000 5.1 60 16:55 26.03.2020
6023 Clouds 9 1019 42 10000 5.1 60 16:37 26.03.2020
6024 Clouds 9 1019 39 10000 4.6 80 16:18 26.03.2020
6025 Clouds 9 1019 45 10000 4.1 70 15:41 26.03.2020
6026 Clouds 8 1019 45 10000 4.6 90 15:22 26.03.2020
6027 Clouds 8 1019 42 10000 7.2 100 14:59 26.03.2020
6028 Clouds 8 1019 42 10000 7.2 100 14:41 26.03.2020
6029 Clouds 8 1019 45 10000 6.2 100 14:23 26.03.2020
6030 Clouds 9 1019 42 10000 6.2 100 13:45 26.03.2020
6031 Clouds 9 1019 42 10000 6.2 100 13:24 26.03.2020
6032 Clouds 8 1019 42 10000 7.2 110 12:59 26.03.2020
6033 Clouds 8 1019 42 10000 6.2 90 12:38 26.03.2020
6034 Clouds 7 1020 45 10000 6.2 100 12:20 26.03.2020
6035 Clouds 7 1019 45 10000 7.2 100 11:46 26.03.2020
6036 Clouds 6 1020 48 10000 5.1 80 11:22 26.03.2020
6037 Clouds 6 1019 48 10000 6.2 90 10:56 26.03.2020
6038 Clouds 6 1019 48 10000 6.2 90 10:56 26.03.2020
6039 -273 0 0 0 0 0 10:56 26.03.2020
6040 Clouds 5 1019 48 10000 6.2 90 10:38 26.03.2020
6041 Clouds 5 1020 52 10000 6.2 80 10:19 26.03.2020
6042 Clear 4 1019 55 10000 5.7 90 09:44 26.03.2020
6043 -273 0 0 0 0 0 09:20 26.03.2020
6044 Clear 3 1020 55 10000 5.7 80 08:55 26.03.2020
6045 Clear 2 1019 59 10000 5.7 90 08:37 26.03.2020
6046 Clear 1 1019 64 10000 5.1 80 08:18 26.03.2020
6047 Clear 0 1019 83 10000 3.6 70 07:44 26.03.2020
6048 Clear -1 1019 68 10000 3.6 60 07:21 26.03.2020
6049 Clear -1 1019 68 10000 3.6 60 06:56 26.03.2020
6050 Clear -1 1019 63 10000 4.1 70 05:59 26.03.2020
6051 Clear -1 1019 63 10000 4.6 60 04:33 26.03.2020
6052 Clear 0 1019 83 10000 2.6 50 03:44 26.03.2020
6053 Clear 0 1019 83 10000 3.1 60 02:55 26.03.2020
6054 Clouds 0 1020 50 10000 4.6 80 01:50 26.03.2020
6055 Clear 1 1020 50 10000 5.7 80 00:53 26.03.2020
6056 Clear 1 1021 47 10000 4.6 80 00:20 26.03.2020
6057 Clear 2 1022 47 10000 4.1 80 23:40 25.03.2020
6058 Clear 2 1022 47 10000 5.7 90 23:20 25.03.2020
6059 Clear 2 1022 40 10000 6.2 90 22:40 25.03.2020
6060 Clear 2 1022 40 10000 5.1 80 22:21 25.03.2020
6061 Clear 2 1022 40 10000 5.1 80 21:56 25.03.2020
6062 Clear 3 1022 40 10000 4.1 70 21:37 25.03.2020
6063 Clear 3 1022 40 10000 2.1 40 21:19 25.03.2020
6064 Clear 3 1022 40 10000 2.1 40 20:55 25.03.2020
6065 Clear 3 1022 38 10000 2.6 70 20:37 25.03.2020
6066 Clear 4 1022 38 10000 4.1 80 20:18 25.03.2020
6067 Clear 4 1022 38 10000 4.1 70 19:42 25.03.2020
6068 Clear 4 1022 35 10000 5.1 70 19:22 25.03.2020
6069 Clear 5 1022 33 10000 6.2 80 18:57 25.03.2020
6070 Clear 6 1022 33 10000 6.2 80 18:38 25.03.2020
6071 Clear 6 1022 33 10000 7.2 80 18:20 25.03.2020
6072 Clear 7 1022 28 10000 6.7 70 17:55 25.03.2020
6073 Clear 7 1022 28 10000 6.7 70 17:36 25.03.2020
6074 Clear 7 1022 28 10000 6.7 90 17:18 25.03.2020
6075 Clear 8 1022 26 10000 8.2 80 16:43 25.03.2020
6076 Clear 8 1022 26 10000 8.2 80 16:43 25.03.2020
6077 Clear 8 1022 26 10000 6.7 90 16:23 25.03.2020
6078 Clear 8 1022 26 10000 6.7 90 15:57 25.03.2020
6079 Clear 8 1023 26 10000 6.7 60 15:38 25.03.2020
6080 Clear 8 1023 26 10000 7.2 70 15:19 25.03.2020
6081 Clear 8 1023 26 10000 6.2 90 14:42 25.03.2020
6082 Clear 8 1024 26 10000 7.7 100 14:21 25.03.2020
6083 Clear 8 1024 26 10000 7.7 70 13:46 25.03.2020
6084 Clear 8 1024 26 10000 7.7 70 13:26 25.03.2020
6085 Clear 7 1025 30 10000 7.2 70 12:57 25.03.2020
6086 Clear 6 1025 30 10000 7.2 70 12:37 25.03.2020
6087 Clear 6 1025 30 10000 6.7 80 12:18 25.03.2020
6088 Clear 5 1026 32 10000 7.2 70 11:43 25.03.2020
6089 Clear 4 1026 35 10000 6.2 80 11:21 25.03.2020
6090 Clear 4 1026 35 10000 6.2 80 10:59 25.03.2020
6091 Clear 4 1026 35 10000 5.7 100 10:40 25.03.2020
6092 Clear 3 1026 37 10000 5.7 70 10:19 25.03.2020
6093 Clear 3 1026 37 10000 5.7 70 09:59 25.03.2020
6094 Clear 2 1027 40 10000 5.7 80 09:40 25.03.2020
6095 Clear 2 1027 40 10000 6.2 80 09:22 25.03.2020
6096 Clear 2 1027 40 10000 6.2 80 08:54 25.03.2020
6097 Clear 0 1027 43 10000 5.1 80 08:36 25.03.2020
6098 Clear -1 1027 83 10000 3.1 80 08:18 25.03.2020
6099 Clear -1 1027 50 10000 2.1 60 07:39 25.03.2020
6100 Clear -1 1027 50 10000 2.1 60 07:39 25.03.2020
6101 Clear -2 1027 58 10000 1.5 70 07:19 25.03.2020
6102 Clear -3 1027 62 10000 1 0 06:45 25.03.2020
6103 Clear -3 1027 62 10000 1.5 20 06:25 25.03.2020
6104 Clear -4 1027 62 10000 2.1 40 05:48 25.03.2020
6105 Clear -3 1028 53 10000 2.6 60 04:46 25.03.2020
6106 Clear -2 1028 50 10000 2.1 50 03:58 25.03.2020
6107 Clear -2 1028 50 10000 2.1 50 03:34 25.03.2020
6108 Clear -2 1029 46 10000 2.6 90 01:41 25.03.2020
6109 Clear -1 1029 78 10000 2.6 70 00:58 25.03.2020
6110 Clear -1 1029 42 10000 2.1 60 00:40 25.03.2020
6111 Clear -1 1029 46 10000 2.6 50 00:18 25.03.2020
6112 Clear 0 1029 78 10000 1.5 40 23:40 24.03.2020
6113 Clear -1 1029 58 10000 1.5 10 23:21 24.03.2020
6114 Clear 0 1030 73 10000 1.5 0 22:55 24.03.2020
6115 Clear 0 1030 73 10000 1.5 0 22:36 24.03.2020
6116 Clear 0 1029 73 10000 1 0 22:18 24.03.2020
6117 Clear 1 1029 37 10000 2.1 60 21:43 24.03.2020
6118 Clear 2 1029 34 10000 2.6 90 21:19 24.03.2020
6119 Clear 2 1029 34 10000 2.6 90 21:19 24.03.2020
6120 Clear 2 1029 34 10000 2.6 90 20:59 24.03.2020
6121 Clear 2 1030 31 10000 2.6 90 20:41 24.03.2020
6122 Clear 2 1030 31 10000 2.6 90 20:23 24.03.2020
6123 Clear 4 1029 25 10000 3.1 80 19:48 24.03.2020
6124 Clear 4 1029 25 10000 3.1 80 19:48 24.03.2020
6125 Clear 4 1029 25 10000 3.1 80 19:24 24.03.2020
6126 Clear 5 1029 25 10000 4.1 90 18:59 24.03.2020
6127 Clear 6 1029 20 10000 5.7 80 18:40 24.03.2020
6128 Clear 7 1029 22 10000 5.7 100 18:20 24.03.2020
6129 Clear 7 1029 22 10000 5.7 100 18:20 24.03.2020
6130 Clear 7 1029 20 10000 7.2 100 17:59 24.03.2020
6131 Clear 7 1029 20 10000 7.2 100 17:40 24.03.2020
6132 Clear 8 1029 19 10000 6.2 110 17:22 24.03.2020
6133 Clear 8 1029 16 10000 6.2 90 16:57 24.03.2020
6134 Clear 8 1029 16 10000 6.2 90 16:38 24.03.2020
6135 Clear 8 1030 17 10000 6.7 90 16:20 24.03.2020
6136 Clear 8 1030 16 10000 6.7 80 15:44 24.03.2020
6137 Clear 8 1030 16 10000 6.7 80 15:44 24.03.2020
6138 Clear 8 1030 19 10000 7.2 110 15:25 24.03.2020
6139 Clear 8 1030 19 10000 7.2 110 14:57 24.03.2020
6140 Clear 7 1031 20 10000 8.2 80 14:39 24.03.2020
6141 Clear 8 1031 20 10000 6.2 90 14:18 24.03.2020
6142 Clear 7 1031 20 10000 8.2 100 13:41 24.03.2020
6143 Clear 7 1031 26 10000 7.2 100 13:22 24.03.2020
6144 Clear 6 1032 26 10000 7.2 90 12:45 24.03.2020
6145 Clear 6 1032 26 10000 7.2 90 12:27 24.03.2020
6146 Clear 5 1032 28 10000 5.1 70 11:58 24.03.2020
6147 Clear 5 1032 27 10000 3.6 70 11:38 24.03.2020
6148 Clear 4 1033 29 10000 5.1 90 11:18 24.03.2020
6149 Clear 3 1033 34 10000 5.1 80 10:42 24.03.2020
6150 Clear 2 1033 34 10000 5.1 70 10:19 24.03.2020
6151 Clear 2 1033 34 10000 5.1 70 10:19 24.03.2020
6152 Clear 2 1033 40 10000 5.7 90 09:49 24.03.2020
6153 Clear 1 1033 40 10000 5.7 90 09:27 24.03.2020
6154 Clear 0 1033 43 10000 5.7 100 08:58 24.03.2020
6155 Clear -1 1033 32 10000 4.6 90 08:38 24.03.2020
6156 Clear -2 1033 48 10000 3.6 90 08:20 24.03.2020
6157 Clear -3 1033 46 10000 3.1 80 07:45 24.03.2020
6158 Clear -4 1033 46 10000 3.1 80 07:23 24.03.2020
6159 Clear -5 1033 53 10000 3.1 80 06:42 24.03.2020
6160 Clear -5 1032 58 10000 2.6 60 06:23 24.03.2020
6161 Clear -5 1032 53 10000 3.1 80 04:53 24.03.2020
6162 Clear -4 1033 53 10000 3.1 90 03:46 24.03.2020
6163 Clear -4 1033 68 10000 1 360 02:45 24.03.2020
6164 Clear -3 1033 50 10000 2.1 90 01:38 24.03.2020
6165 Clear -3 1033 46 10000 3.6 90 00:42 24.03.2020
6166 Clear -3 1033 50 10000 3.1 90 00:22 24.03.2020
6167 Clear -2 1033 46 10000 2.1 80 23:39 23.03.2020
6168 Clear -2 1033 46 10000 3.1 70 23:21 23.03.2020
6169 Clear -1 1033 46 10000 2.6 60 22:45 23.03.2020
6170 Clear -1 1033 40 10000 2.1 70 22:24 23.03.2020
6171 Clear -1 1033 40 10000 2.1 70 21:58 23.03.2020
6172 Clear -1 1033 40 10000 2.6 90 21:40 23.03.2020
6173 Clear 0 1033 37 10000 3.1 80 21:20 23.03.2020
6174 Clear 0 1033 37 10000 2.6 70 20:56 23.03.2020
6175 Clear 0 1033 37 10000 2.6 70 20:56 23.03.2020
6176 Clear 0 1033 37 10000 2.6 70 20:38 23.03.2020
6177 Clear 1 1033 34 10000 2.6 70 20:19 23.03.2020
6178 Clear 2 1032 29 10000 2.6 70 19:44 23.03.2020
6179 Clear 2 1032 29 10000 3.1 70 19:24 23.03.2020
6180 Clear 4 1032 32 10000 2.6 70 18:56 23.03.2020
6181 Clear 4 1032 32 10000 2.6 70 18:38 23.03.2020
6182 Clear 4 1032 30 0 4.6 100 18:20 23.03.2020
6183 Clear 6 1032 28 10000 2.6 70 17:42 23.03.2020
6184 Clear 6 1032 28 10000 4.6 90 17:21 23.03.2020
6185 Clear 6 1032 26 10000 4.6 90 16:56 23.03.2020
6186 Clear 6 1032 26 10000 4.6 90 16:38 23.03.2020
6187 Clear 6 1032 24 10000 5.1 80 16:19 23.03.2020
6188 Clear 6 1032 26 10000 4.6 70 15:41 23.03.2020
6189 Clear 6 1032 28 10000 6.2 110 15:19 23.03.2020
6190 Clear 6 1033 28 10000 5.7 100 14:38 23.03.2020
6191 Clear 6 1033 28 10000 5.7 110 14:20 23.03.2020
6192 Clear 6 1033 28 10000 5.7 110 13:58 23.03.2020
6193 Clear 6 1033 32 10000 4.6 90 13:40 23.03.2020
6194 Clear 5 1033 32 10000 4.6 90 13:40 23.03.2020
6195 Clear 5 1034 32 10000 7.2 110 13:20 23.03.2020
6196 Clear 5 1034 32 10000 7.7 100 12:44 23.03.2020
6197 Clear 4 1034 35 10000 5.1 100 12:25 23.03.2020
6198 Clear 4 1035 37 10000 4.6 70 11:58 23.03.2020
6199 Clear 3 1035 37 10000 4.6 70 11:39 23.03.2020
6200 Clear 3 1035 34 10000 5.7 90 11:19 23.03.2020
6201 Clear 2 1035 34 10000 6.7 110 10:56 23.03.2020
6202 Clear 2 1035 34 10000 6.7 110 10:37 23.03.2020
6203 Clear 2 1035 37 10000 7.7 110 10:19 23.03.2020
6204 Clear 1 1035 40 10000 5.7 100 09:44 23.03.2020
6205 Clear 0 1035 32 10000 5.7 100 09:21 23.03.2020
6206 Clear -1 1035 46 10000 6.2 90 08:56 23.03.2020
6207 Clear -1 1035 46 10000 6.2 90 08:36 23.03.2020
6208 Clear -2 1035 50 10000 4.6 80 08:18 23.03.2020
6209 Clear -3 1035 54 10000 3.6 80 07:42 23.03.2020
6210 Clear -3 1035 58 10000 4.1 80 07:21 23.03.2020
6211 Clear -4 1035 62 10000 3.6 90 06:49 23.03.2020
6212 Clear -4 1033 79 10000 4.6 80 05:51 23.03.2020
6213 Clear -3 1034 63 10000 3.6 70 04:58 23.03.2020
6214 Clear -3 1034 63 10000 2.6 70 03:26 23.03.2020
6215 Clear -2 1034 58 10000 3.1 80 01:50 23.03.2020
6216 Clear -2 1034 58 10000 3.6 70 00:58 23.03.2020
6217 Clear -2 1034 54 10000 3.6 80 00:36 23.03.2020
6218 Clear -1 1034 54 10000 3.1 80 23:47 22.03.2020
6219 Clear -1 1034 54 10000 3.1 80 23:47 22.03.2020
6220 Clear -1 1034 54 10000 3.1 80 23:25 22.03.2020
6221 Clear -1 1034 52 10000 3.1 80 22:45 22.03.2020
6222 Clear -1 1033 52 10000 2.6 70 22:24 22.03.2020
6223 Clear 0 1033 52 10000 3.1 70 21:56 22.03.2020
6224 Clear 0 1033 52 10000 3.1 70 21:37 22.03.2020
6225 Clear 0 1033 52 10000 3.1 70 21:19 22.03.2020
6226 Clear 1 1033 43 10000 4.1 80 20:46 22.03.2020
6227 Clear 1 1032 43 10000 4.1 80 20:25 22.03.2020
6228 Clear 1 1032 43 10000 4.1 80 19:58 22.03.2020
6229 Clear 1 1032 43 10000 3.1 70 19:40 22.03.2020
6230 Clear 2 1032 40 10000 4.6 70 19:20 22.03.2020
6231 Clear 3 1032 40 10000 4.6 70 18:59 22.03.2020
6232 Clear 3 1031 40 10000 4.1 80 18:41 22.03.2020
6233 Clear 3 1031 38 10000 5.7 80 18:22 22.03.2020
6234 Clear 4 1031 38 10000 5.7 80 17:59 22.03.2020
6235 Clear 5 1030 35 10000 5.7 60 17:39 22.03.2020
6236 Clear 5 1030 35 10000 6.2 60 17:20 22.03.2020
6237 Clear 6 1030 35 10000 6.2 80 16:58 22.03.2020
6238 Clear 6 1030 35 10000 6.2 80 16:58 22.03.2020
6239 Clear 6 1030 35 10000 6.2 80 16:39 22.03.2020
6240 Clear 6 1030 33 10000 5.1 70 16:21 22.03.2020
6241 Clear 6 1030 33 10000 5.1 70 15:56 22.03.2020
6242 Clear 7 1029 35 10000 5.7 50 15:38 22.03.2020
6243 Clear 7 1029 35 10000 7.2 90 14:46 22.03.2020
6244 Clear 6 1029 33 10000 6.2 80 14:19 22.03.2020
6245 Clear 7 1029 33 10000 6.2 80 13:55 22.03.2020
6246 Clear 6 1029 35 10000 5.7 70 13:37 22.03.2020
6247 Clear 6 1030 33 10000 6.2 80 13:18 22.03.2020
6248 Clear 6 1030 33 10000 6.2 70 12:43 22.03.2020
6249 Clear 5 1030 32 10000 5.7 50 12:20 22.03.2020
6250 Clear 5 1030 35 10000 5.7 70 11:55 22.03.2020
6251 Clear 5 1030 35 10000 5.7 70 11:36 22.03.2020
6252 Clear 4 1029 38 10000 6.7 90 11:18 22.03.2020
6253 Clear 3 1029 38 10000 6.2 90 10:42 22.03.2020
6254 Clear 3 1029 40 10000 6.7 90 10:23 22.03.2020
6255 Clear 2 1029 43 10000 6.7 90 09:47 22.03.2020
6256 Rain 2 1029 43 10000 8.2 90 09:28 22.03.2020
6257 Rain 1 1029 47 10000 6.7 90 08:53 22.03.2020
6258 Rain 1 1029 43 10000 8.2 90 08:53 22.03.2020
6259 Rain 1 1029 47 10000 6.7 90 08:33 22.03.2020
6260 Clear 0 1029 47 10000 5.1 80 07:59 22.03.2020
6261 Clear -1 1029 63 10000 4.6 80 07:41 22.03.2020
6262 Clear -1 1028 58 10000 3.1 80 06:48 22.03.2020
6263 Clear -1 1027 58 10000 4.1 80 05:52 22.03.2020
6264 Clear -1 1027 63 10000 3.6 60 04:39 22.03.2020
6265 Clear 0 1026 70 10000 3.1 60 02:34 22.03.2020
6266 Clouds 1 1026 59 10000 4.1 70 00:51 22.03.2020
6267 Clouds 1 1026 59 10000 4.1 70 00:32 22.03.2020
6268 Clouds 1 1026 59 10000 3.6 60 23:46 21.03.2020
6269 Clouds 2 1026 55 10000 4.6 70 23:23 21.03.2020
6270 Clouds 2 1026 59 10000 5.7 80 22:59 21.03.2020
6271 Clouds 2 1026 59 10000 5.7 80 22:38 21.03.2020
6272 Clouds 2 1026 59 10000 5.7 80 22:38 21.03.2020
6273 Clouds 2 1026 59 10000 4.6 70 22:20 21.03.2020
6274 Rain 2 1026 64 10000 4.6 60 21:58 21.03.2020
6275 Rain 2 1026 64 10000 4.6 60 21:38 21.03.2020
6276 Clouds 2 1025 59 10000 4.6 60 21:19 21.03.2020
6277 Clouds 3 1025 59 10000 5.7 70 20:42 21.03.2020
6278 Clouds 3 1025 64 10000 6.2 70 20:22 21.03.2020
6279 Rain 3 1025 64 10000 6.2 70 19:55 21.03.2020
6280 Rain 3 1025 64 10000 6.2 70 19:36 21.03.2020
6281 Rain 3 1024 64 10000 4.6 70 19:18 21.03.2020
6282 Drizzle 3 1023 100 10000 7.2 60 18:41 21.03.2020
6283 Rain 4 1024 65 10000 4.6 70 18:21 21.03.2020
6284 Rain 4 1023 65 10000 4.6 70 17:59 21.03.2020
6285 Rain 4 1023 65 10000 4.6 70 17:41 21.03.2020
6286 Rain 5 1023 65 10000 5.1 70 17:22 21.03.2020
6287 Rain 4 1023 65 10000 5.1 60 16:42 21.03.2020
6288 Rain 4 1023 65 10000 5.1 60 16:42 21.03.2020
6289 Rain 4 1023 65 10000 6.2 60 16:24 21.03.2020
6290 Rain 5 1023 65 10000 6.2 60 15:59 21.03.2020
6291 Rain 5 1023 75 10000 4.6 60 15:40 21.03.2020
6292 Rain 5 1023 65 10000 5.1 50 15:22 21.03.2020
6293 Rain 5 1023 65 10000 5.1 50 14:57 21.03.2020
6294 Rain 5 1023 65 10000 4.6 60 14:38 21.03.2020
6295 Rain 5 1023 82 10000 4.6 60 14:19 21.03.2020
6296 Clouds 5 1023 82 10000 4.6 60 13:57 21.03.2020
6297 Clouds 5 1023 82 10000 4.1 60 13:39 21.03.2020
6298 Clouds 5 1023 92 10000 5.7 70 13:20 21.03.2020
6299 Clouds 5 1023 92 10000 5.1 70 12:54 21.03.2020
6300 Rain 5 1023 92 10000 5.1 70 12:36 21.03.2020
6301 Rain 5 1022 92 10000 6.2 60 12:18 21.03.2020
6302 Drizzle 5 1022 100 10000 7.7 60 11:54 21.03.2020
6303 Drizzle 5 1022 100 10000 7.7 60 11:54 21.03.2020
6304 Rain 5 1023 75 10000 5.7 70 11:36 21.03.2020
6305 Rain 5 1023 75 10000 5.1 60 11:18 21.03.2020
6306 Rain 5 1022 100 10000 7.2 60 10:55 21.03.2020
6307 Rain 4 1023 80 10000 5.1 50 10:37 21.03.2020
6308 Rain 4 1023 86 10000 3.6 50 10:18 21.03.2020
6309 Rain 4 1023 93 10000 3.1 40 09:39 21.03.2020
6310 Rain 4 1023 86 10000 3.6 50 09:21 21.03.2020
6311 Rain 4 1023 86 10000 3.6 50 08:56 21.03.2020
6312 Rain 4 1023 86 10000 4.1 30 08:38 21.03.2020
6313 Rain 3 1022 86 10000 3.6 50 08:19 21.03.2020
6314 Rain 3 1022 93 10000 3.1 30 07:39 21.03.2020
6315 Clouds 4 1022 80 10000 4.1 10 07:20 21.03.2020
6316 Clouds 4 1022 93 10000 4.6 30 06:44 21.03.2020
6317 Clouds 4 1022 75 10000 3.1 20 06:25 21.03.2020
6318 Clouds 4 1022 75 10000 2.6 20 05:40 21.03.2020
6319 Clouds 5 1021 75 10000 3.6 10 04:26 21.03.2020
6320 Clouds 5 1021 75 10000 3.6 20 02:37 21.03.2020
6321 Clouds 5 1021 75 10000 4.1 10 01:45 21.03.2020
6322 Clouds 5 1021 75 10000 4.1 10 01:25 21.03.2020
6323 Clouds 6 1021 75 10000 4.1 360 00:39 21.03.2020
6324 Rain 6 1021 75 10000 5.7 350 00:21 21.03.2020
6325 Clouds 6 1021 81 10000 4.6 360 23:43 20.03.2020
6326 Clouds 6 1021 75 10000 4.6 350 23:22 20.03.2020
6327 Rain 7 1021 75 10000 4.1 350 22:44 20.03.2020
6328 Rain 7 1021 81 10000 4.6 360 22:25 20.03.2020
6329 Clouds 7 1021 81 10000 4.6 360 21:58 20.03.2020
6330 Clouds 7 1021 81 10000 4.1 350 21:40 20.03.2020
6331 Clouds 7 1020 81 10000 3.6 360 21:20 20.03.2020
6332 Clouds 8 1020 81 10000 3.6 360 20:58 20.03.2020
6333 Clouds 8 1020 76 10000 4.6 360 20:40 20.03.2020
6334 Clouds 8 1020 81 10000 4.1 350 20:19 20.03.2020
6335 Clouds 9 1020 76 10000 4.1 10 19:47 20.03.2020
6336 Clouds 9 1020 76 10000 5.1 360 19:20 20.03.2020
6337 Clouds 10 1019 76 10000 7.2 350 18:57 20.03.2020
6338 Clouds 10 1019 76 10000 7.2 350 18:38 20.03.2020
6339 Clouds 11 1019 71 10000 6.2 340 18:19 20.03.2020
6340 Clouds 12 1019 71 10000 6.2 350 17:56 20.03.2020
6341 Clouds 12 1019 71 10000 6.2 350 17:37 20.03.2020
6342 Clouds 13 1018 62 10000 7.7 350 17:18 20.03.2020
6343 Clouds 14 1018 59 10000 6.2 340 16:41 20.03.2020
6344 Clouds 14 1018 59 10000 6.2 340 16:41 20.03.2020
6345 Clouds 15 1018 51 10000 5.7 340 16:21 20.03.2020
6346 Clouds 15 1018 48 10000 5.1 340 15:44 20.03.2020
6347 Clouds 16 1019 48 10000 3.6 360 15:23 20.03.2020
6348 Clouds 16 1019 45 10000 2.1 0 14:58 20.03.2020
6349 Clouds 16 1019 45 10000 2.1 0 14:40 20.03.2020
6350 Clouds 17 1019 45 10000 2.6 330 14:20 20.03.2020
6351 Clouds 15 1019 45 10000 2.6 340 13:48 20.03.2020
6352 Clouds 15 1020 45 10000 2.6 340 13:22 20.03.2020
6353 Clouds 14 1020 51 10000 1 0 12:58 20.03.2020
6354 Clouds 14 1020 51 10000 1 0 12:38 20.03.2020
6355 Clouds 14 1020 59 10000 1.5 0 12:19 20.03.2020
6356 Clouds 13 1021 71 10000 1 0 11:39 20.03.2020
6357 Clouds 12 1021 71 10000 1 0 11:20 20.03.2020
6358 Clouds 11 1021 76 10000 2.6 320 10:55 20.03.2020
6359 Clouds 11 1021 76 10000 2.6 320 10:37 20.03.2020
6360 Clouds 10 1021 76 10000 2.1 300 10:18 20.03.2020
6361 Clouds 10 1021 76 10000 1.5 110 09:44 20.03.2020
6362 Clouds 9 1021 87 10000 0.5 0 09:20 20.03.2020
6363 Clouds 8 1021 87 0 1.5 110 08:44 20.03.2020
6364 Clouds 8 1021 87 0 1.5 110 08:23 20.03.2020
6365 Clouds 7 1021 87 10000 0.5 0 07:59 20.03.2020
6366 Clouds 7 1021 93 10000 1.5 100 07:38 20.03.2020
6367 Clouds 7 1021 93 10000 0.5 0 07:19 20.03.2020
6368 Clouds 7 1021 93 10000 0.5 0 06:42 20.03.2020
6369 Clouds 6 1021 93 10000 1 0 06:18 20.03.2020
6370 Clouds 6 1021 93 10000 1 0 04:36 20.03.2020
6371 Clouds 6 1021 93 10000 1 0 02:50 20.03.2020
6372 Clouds 7 1022 93 10000 1 60 01:50 20.03.2020
6373 Clouds 7 1022 93 10000 0.5 330 00:38 20.03.2020
6374 Clouds 8 1022 81 10000 0.5 0 23:58 19.03.2020
6375 Clouds 8 1022 81 10000 0.5 0 23:40 19.03.2020
6376 Clouds 8 1022 81 10000 0.5 0 23:19 19.03.2020
6377 Clouds 8 1022 81 10000 0.5 0 23:19 19.03.2020
6378 Clouds 9 1022 81 10000 0.5 0 22:38 19.03.2020
6379 Clouds 9 1022 81 10000 0.5 310 22:20 19.03.2020
6380 Clouds 10 1022 66 10000 1.5 90 21:57 19.03.2020
6381 Clouds 10 1022 66 10000 1.5 90 21:38 19.03.2020
6382 Clouds 10 1022 62 10000 1.5 70 21:18 19.03.2020
6383 Clouds 11 1022 62 10000 2.6 90 20:42 19.03.2020
6384 Clouds 11 1022 62 10000 2.6 90 20:42 19.03.2020
6385 Clear 11 1022 62 10000 2.6 90 20:24 19.03.2020
6386 Clouds 13 1022 62 10000 2.1 350 19:57 19.03.2020
6387 Clouds 13 1022 62 10000 2.1 350 19:38 19.03.2020
6388 Clouds 13 1022 54 10000 1.5 20 19:20 19.03.2020
6389 Clouds 15 1022 55 10000 1.5 30 18:57 19.03.2020
6390 Clouds 15 1022 55 10000 1.5 30 18:38 19.03.2020
6391 Clouds 16 1022 51 10000 2.1 330 18:19 19.03.2020
6392 Clouds 17 1022 45 10000 2.6 320 17:42 19.03.2020
6393 Clouds 17 1022 45 10000 2.1 320 17:20 19.03.2020
6394 Clouds 17 1022 45 10000 2.1 320 16:56 19.03.2020
6395 Clouds 17 1022 45 10000 2.1 320 16:37 19.03.2020
6396 Clouds 18 1022 42 10000 1.5 320 16:19 19.03.2020
6397 Clouds 18 1023 45 10000 1 0 15:40 19.03.2020
6398 Clouds 18 1023 45 10000 1.5 0 15:18 19.03.2020
6399 Clouds 18 1023 48 10000 2.1 260 14:43 19.03.2020
6400 Clouds 17 1024 48 10000 2.1 260 14:21 19.03.2020
6401 Clouds 17 1024 45 10000 1.5 0 13:42 19.03.2020
6402 Clouds 17 1024 48 10000 1.5 320 13:21 19.03.2020
6403 Clouds 17 1024 48 10000 1.5 320 13:21 19.03.2020
6404 Clouds 17 1024 48 10000 1.5 240 12:58 19.03.2020
6405 Clouds 16 1024 48 10000 1.5 240 12:40 19.03.2020
6406 Clouds 16 1025 55 10000 1 0 12:21 19.03.2020
6407 Clouds 15 1025 58 10000 1 0 11:43 19.03.2020
6408 Clouds 14 1025 62 10000 1.5 310 11:24 19.03.2020
6409 Clouds 13 1025 71 10000 1.5 300 10:58 19.03.2020
6410 Clouds 13 1025 71 10000 1.5 300 10:38 19.03.2020
6411 Clouds 12 1025 66 10000 0.5 0 10:19 19.03.2020
6412 Clouds 11 1025 76 10000 0.5 0 09:55 19.03.2020
6413 Clouds 11 1025 76 10000 0.5 0 09:37 19.03.2020
6414 Clouds 10 1025 81 10000 1 0 09:18 19.03.2020
6415 Clouds 9 1025 81 10000 1 0 08:41 19.03.2020
6416 Clouds 9 1025 87 10000 1 0 08:20 19.03.2020
6417 Clouds 8 1025 87 10000 2.1 90 07:44 19.03.2020
6418 Clouds 8 1025 87 10000 2.1 90 07:25 19.03.2020
6419 Clouds 8 1025 87 10000 0.5 0 06:35 19.03.2020
6420 Clouds 7 1025 93 10000 1 0 05:48 19.03.2020
6421 Clouds 7 1025 93 10000 2.6 110 04:54 19.03.2020
6422 Clouds 6 1025 93 10000 2.6 110 04:34 19.03.2020
6423 Clouds 7 1025 87 10000 1 0 02:37 19.03.2020
6424 Clouds 7 1026 87 10000 2.6 100 00:58 19.03.2020
6425 Clouds 7 1025 81 10000 3.1 100 00:22 19.03.2020
6426 Clouds 7 1025 87 10000 3.6 110 23:48 18.03.2020
6427 Clouds 8 1026 81 10000 2.1 100 23:29 18.03.2020
6428 Clouds 8 1026 81 10000 1.5 110 22:44 18.03.2020
6429 Clouds 8 1026 81 10000 1.5 110 22:24 18.03.2020
6430 Clouds 9 1026 81 10000 2.6 120 21:59 18.03.2020
6431 Clouds 10 1026 76 10000 3.1 110 21:41 18.03.2020
6432 Clouds 10 1026 71 10000 2.6 100 21:21 18.03.2020
6433 Clouds 11 1026 71 10000 2.6 100 20:57 18.03.2020
6434 Clouds 11 1026 66 10000 1 0 20:39 18.03.2020
6435 Clouds 11 1026 66 10000 1.5 60 20:20 18.03.2020
6436 Clouds 12 1026 66 10000 1.5 60 19:55 18.03.2020
6437 Clouds 12 1026 62 10000 1.5 80 19:36 18.03.2020
6438 Clouds 13 1026 67 10000 1 0 19:18 18.03.2020
6439 Clouds 14 1026 58 10000 1 360 18:41 18.03.2020
6440 Clouds 15 1026 55 10000 1 0 18:20 18.03.2020
6441 Clouds 16 1026 51 10000 1 0 17:57 18.03.2020
6442 Clouds 15 1026 51 10000 1 0 17:57 18.03.2020
6443 Clouds 16 1026 51 10000 1 0 17:39 18.03.2020
6444 Clouds 16 1026 48 10000 0.5 0 17:21 18.03.2020
6445 Clouds 16 1026 48 10000 2.6 280 16:54 18.03.2020
6446 Clouds 16 1026 48 10000 2.6 280 16:36 18.03.2020
6447 Clouds 16 1026 45 10000 1.5 0 16:18 18.03.2020
6448 Clouds 17 1027 45 10000 2.1 0 15:44 18.03.2020
6449 Clouds 16 1027 48 10000 2.6 250 15:20 18.03.2020
6450 Clouds 17 1027 51 10000 2.6 340 14:45 18.03.2020
6451 Clouds 17 1027 51 10000 2.6 320 14:22 18.03.2020
6452 Clouds 16 1027 51 10000 2.6 320 13:56 18.03.2020
6453 Clouds 16 1028 51 10000 1.5 230 13:36 18.03.2020
6454 Clouds 16 1028 51 10000 1.5 0 13:18 18.03.2020
6455 Clouds 16 1029 55 10000 1.5 0 12:41 18.03.2020
6456 Clouds 15 1029 55 10000 2.1 0 12:19 18.03.2020
6457 Clouds 14 1029 58 10000 1 0 11:39 18.03.2020
6458 Clouds 13 1029 67 10000 1 0 11:21 18.03.2020
6459 Clear 11 1030 71 10000 1.5 0 10:58 18.03.2020
6460 Clear 11 1030 71 10000 1.5 0 10:39 18.03.2020
6461 Clouds 11 1030 76 10000 2.1 120 10:20 18.03.2020
6462 Clouds 9 1030 81 10000 2.1 100 09:43 18.03.2020
6463 Clouds 8 1030 81 10000 2.1 100 09:25 18.03.2020
6464 Clear 6 1030 93 9000 3.1 110 08:57 18.03.2020
6465 Clear 6 1030 93 9000 3.1 110 08:39 18.03.2020
6466 Clear 6 1030 93 9000 3.1 110 08:39 18.03.2020
6467 Clouds 5 1029 100 9000 3.1 100 08:20 18.03.2020
6468 Fog 4 1029 93 6000 3.1 110 07:46 18.03.2020
6469 Fog 4 1029 100 6000 2.1 120 07:28 18.03.2020
6470 Mist 4 1029 100 4500 2.1 120 06:44 18.03.2020
6471 Fog 4 1029 100 800 1.28 176 06:22 18.03.2020
6472 Mist 4 1029 100 4000 1.28 176 05:35 18.03.2020
6473 Mist 4 1029 100 1400 1.5 200 04:25 18.03.2020
6474 Mist 4 1030 100 3500 2.1 110 02:48 18.03.2020
6475 Mist 4 1030 93 4000 2.6 100 01:48 18.03.2020
6476 Mist 5 1030 100 5000 2.1 110 01:27 18.03.2020
6477 Fog 5 1030 93 8000 1.5 100 00:24 18.03.2020
6478 Fog 6 1030 93 8000 1.5 100 23:49 17.03.2020
6479 Clouds 6 1030 93 9000 3.1 100 23:27 17.03.2020
6480 Fog 6 1030 93 9000 2.6 100 22:57 17.03.2020
6481 Fog 7 1030 93 9000 2.6 100 22:37 17.03.2020
6482 Clouds 7 1030 93 9000 1 0 22:19 17.03.2020
6483 Clouds 7 1030 87 10000 2.1 90 21:39 17.03.2020
6484 Clouds 8 1030 87 10000 1 100 21:21 17.03.2020
6485 Clouds 8 1030 87 10000 1 100 21:21 17.03.2020
6486 Clouds 9 1030 81 10000 0.5 0 20:40 17.03.2020
6487 Clouds 9 1030 81 10000 0.5 0 20:40 17.03.2020
6488 Rain 9 1030 81 10000 0.5 0 20:21 17.03.2020
6489 Rain 10 1030 81 10000 0.5 0 19:58 17.03.2020
6490 Rain 10 1029 76 10000 0.5 0 19:39 17.03.2020
6491 Rain 11 1029 71 10000 2.1 270 19:18 17.03.2020
6492 Rain 12 1029 66 10000 2.1 290 18:56 17.03.2020
6493 Rain 12 1029 66 10000 2.1 290 18:37 17.03.2020
6494 Clouds 14 1029 67 10000 1.5 360 18:19 17.03.2020
6495 Clouds 14 1029 62 10000 2.6 320 17:40 17.03.2020
6496 Clouds 14 1029 58 10000 4.1 330 17:21 17.03.2020
6497 Clouds 15 1028 62 10000 4.1 330 16:54 17.03.2020
6498 Clouds 15 1028 62 10000 4.1 330 16:36 17.03.2020
6499 Rain 15 1028 58 10000 5.1 270 16:18 17.03.2020
6500 Rain 15 1029 51 10000 4.6 260 15:41 17.03.2020
6501 Rain 15 1029 51 10000 4.6 280 15:19 17.03.2020
6502 Clouds 15 1029 55 10000 4.1 290 14:42 17.03.2020
6503 Rain 15 1029 54 10000 6.7 270 14:21 17.03.2020
6504 Clouds 14 1029 58 10000 4.1 290 13:44 17.03.2020
6505 Clouds 14 1029 58 10000 4.1 290 13:26 17.03.2020
6506 Rain 14 1029 62 10000 3.1 320 12:58 17.03.2020
6507 Rain 14 1029 62 10000 3.1 320 12:58 17.03.2020
6508 Rain 14 1029 62 10000 3.1 320 12:39 17.03.2020
6509 Rain 13 1029 62 10000 2.6 270 12:21 17.03.2020
6510 Rain 12 1029 66 10000 1.5 200 11:45 17.03.2020
6511 Rain 12 1029 71 10000 1.5 160 11:27 17.03.2020
6512 Rain 12 1029 71 10000 1.5 160 11:27 17.03.2020
6513 Rain 11 1029 76 10000 1.5 160 10:58 17.03.2020
6514 Rain 11 1029 76 10000 1.5 160 10:37 17.03.2020
6515 Rain 10 1029 76 10000 1.5 160 10:19 17.03.2020
6516 Clouds 9 1029 81 10000 2.1 130 09:55 17.03.2020
6517 Clouds 10 1029 81 10000 2.1 130 09:36 17.03.2020
6518 Rain 9 1029 87 10000 2.6 100 09:18 17.03.2020
6519 Rain 9 1028 87 10000 3.1 100 08:42 17.03.2020
6520 Clouds 8 1028 87 10000 3.6 100 08:21 17.03.2020
6521 Rain 8 1028 93 10000 3.1 110 07:49 17.03.2020
6522 Rain 7 1027 87 10000 3.1 110 07:24 17.03.2020
6523 Rain 8 1027 81 10000 2.6 110 06:53 17.03.2020
6524 Clouds 8 1027 76 10000 1.5 250 06:27 17.03.2020
6525 Rain 8 1027 70 10000 2.1 110 05:38 17.03.2020
6526 Clouds 8 1025 75 10000 3.6 110 03:36 17.03.2020
6527 Clouds 8 1025 75 10000 2.6 120 02:38 17.03.2020
6528 Clouds 8 1025 75 10000 1.5 150 01:41 17.03.2020
6529 Clouds 8 1025 75 10000 2.6 110 01:18 17.03.2020
6530 Clouds 7 1025 75 10000 1 0 00:19 17.03.2020
6531 Clouds 7 1025 70 10000 2.1 120 23:44 16.03.2020
6532 Clouds 7 1025 70 10000 2.6 110 23:23 16.03.2020
6533 Clouds 8 1024 70 10000 2.6 110 22:39 16.03.2020
6534 Clouds 8 1024 70 10000 4.1 110 22:20 16.03.2020
6535 Clouds 9 1024 70 10000 4.1 110 21:55 16.03.2020
6536 Clouds 9 1024 65 10000 2.6 110 21:36 16.03.2020
6537 Clouds 9 1024 57 10000 1.5 120 21:18 16.03.2020
6538 Clouds 9 1023 66 10000 1 0 20:42 16.03.2020
6539 Clouds 10 1023 53 10000 1 110 20:24 16.03.2020
6540 Clouds 11 1023 62 10000 1 10 19:47 16.03.2020
6541 Clouds 12 1022 50 10000 1 350 19:25 16.03.2020
6542 Clouds 13 1022 47 10000 1.5 310 19:00 16.03.2020
6543 Clouds 14 1022 47 10000 1.5 310 18:40 16.03.2020
6544 Clouds 15 1022 41 10000 1.5 300 18:20 16.03.2020
6545 Clouds 16 1021 38 10000 2.6 290 17:46 16.03.2020
6546 Clouds 16 1021 36 10000 4.1 290 17:26 16.03.2020
6547 Clouds 17 1021 34 10000 4.6 280 16:58 16.03.2020
6548 Clouds 17 1021 34 10000 4.6 280 16:40 16.03.2020
6549 Clouds 17 1021 31 10000 4.6 270 16:21 16.03.2020
6550 Clouds 17 1021 31 10000 5.7 260 15:43 16.03.2020
6551 Clouds 17 1020 34 10000 2.6 0 15:24 16.03.2020
6552 Clouds 17 1020 34 10000 2.1 0 14:48 16.03.2020
6553 Clouds 17 1020 34 10000 2.1 0 14:23 16.03.2020
6554 Clouds 16 1021 36 10000 1.5 80 13:51 16.03.2020
6555 Clouds 16 1021 36 10000 1.5 80 13:29 16.03.2020
6556 Clouds 16 1021 38 10000 1 0 12:58 16.03.2020
6557 Clouds 15 1021 38 10000 1 0 12:39 16.03.2020
6558 Clouds 14 1021 44 10000 1 0 12:20 16.03.2020
6559 Clouds 13 1021 43 10000 1.5 0 11:43 16.03.2020
6560 Clouds 13 1021 50 10000 1.5 120 11:25 16.03.2020
6561 Clouds 10 1021 46 10000 2.1 140 10:45 16.03.2020
6562 Clouds 9 1020 49 10000 2.6 130 10:24 16.03.2020
6563 Clouds 8 1020 49 10000 2.6 130 09:56 16.03.2020
6564 Clouds 7 1020 49 10000 3.1 130 09:37 16.03.2020
6565 Clouds 6 1020 52 10000 2.6 120 09:19 16.03.2020
6566 Clouds 4 1020 60 10000 1.5 130 08:41 16.03.2020
6567 Clouds 3 1019 69 10000 2.1 130 08:21 16.03.2020
6568 Clouds 1 1019 78 10000 2.1 160 07:42 16.03.2020
6569 Clouds 0 1018 78 10000 1.5 130 07:19 16.03.2020
6570 Clouds 0 1017 78 10000 2.1 140 06:29 16.03.2020
6571 Clouds 1 1017 78 10000 2.1 150 05:59 16.03.2020
6572 Clouds 1 1017 69 10000 2.1 120 04:21 16.03.2020
6573 Clouds 3 1016 69 10000 2.1 120 01:46 16.03.2020
6574 Clouds 3 1016 69 10000 2.1 120 00:45 16.03.2020
6575 Clouds 4 1016 60 10000 2.6 100 00:26 16.03.2020
6576 Clouds 3 1016 60 10000 2.6 110 23:40 15.03.2020
6577 Clouds 4 1016 60 10000 2.1 110 23:19 15.03.2020
6578 Clouds 4 1016 60 10000 1.5 110 22:42 15.03.2020
6579 Clouds 4 1016 60 10000 3.1 110 22:20 15.03.2020
6580 Clouds 4 1016 52 10000 3.1 100 21:39 15.03.2020
6581 Clouds 4 1016 48 10000 2.6 90 21:21 15.03.2020
6582 Clouds 6 1016 45 10000 3.6 90 20:55 15.03.2020
6583 Clouds 6 1016 45 10000 3.6 90 20:36 15.03.2020
6584 Clouds 6 1016 45 10000 4.1 100 20:18 15.03.2020
6585 Clouds 7 1016 48 10000 4.6 110 19:43 15.03.2020
6586 Clouds 8 1016 42 10000 4.6 100 19:25 15.03.2020
6587 Clouds 9 1016 42 10000 4.1 110 18:59 15.03.2020
6588 Clouds 10 1016 42 10000 4.1 110 18:40 15.03.2020
6589 Clouds 10 1016 37 10000 5.1 120 18:22 15.03.2020
6590 Clouds 11 1016 37 10000 5.1 120 17:57 15.03.2020
6591 Clouds 11 1016 34 10000 5.1 110 17:38 15.03.2020
6592 Clear 12 1017 32 10000 5.1 130 17:18 15.03.2020
6593 Clear 12 1017 32 10000 5.7 130 16:43 15.03.2020
6594 Clear 13 1017 32 10000 5.7 130 16:25 15.03.2020
6595 Clear 13 1017 32 10000 5.7 130 15:58 15.03.2020
6596 Clear 13 1017 32 10000 5.7 150 15:40 15.03.2020
6597 Clear 13 1017 34 10000 6.2 130 15:19 15.03.2020
6598 Clear 12 1018 34 10000 5.7 150 14:46 15.03.2020
6599 Clear 12 1018 37 10000 5.1 150 14:24 15.03.2020
6600 Clouds 12 1018 37 10000 5.1 150 13:58 15.03.2020
6601 Clouds 11 1019 37 10000 6.2 140 13:38 15.03.2020
6602 Clouds 11 1019 37 10000 6.2 140 13:38 15.03.2020
6603 Clouds 11 1019 37 10000 6.2 140 13:38 15.03.2020
6604 Clouds 11 1019 37 10000 6.2 150 13:20 15.03.2020
6605 Clouds 10 1020 40 10000 6.2 150 12:44 15.03.2020
6606 Clouds 10 1020 46 10000 7.2 150 12:25 15.03.2020
6607 Clouds 10 1020 46 10000 6.7 140 11:56 15.03.2020
6608 Clouds 9 1020 46 10000 6.7 140 11:38 15.03.2020
6609 Clouds 8 1021 49 10000 5.7 140 11:20 15.03.2020
6610 Clouds 7 1021 49 10000 5.1 130 10:55 15.03.2020
6611 Clouds 7 1021 49 10000 5.1 130 10:36 15.03.2020
6612 Clouds 7 1021 52 10000 5.7 140 10:18 15.03.2020
6613 Clouds 5 1022 52 10000 6.2 130 09:39 15.03.2020
6614 Clouds 4 1022 60 10000 5.7 130 09:20 15.03.2020
6615 Clouds 4 1022 60 10000 5.7 130 08:42 15.03.2020
6616 Clouds 3 1022 64 10000 5.1 120 08:20 15.03.2020
6617 Clear 2 1022 69 10000 4.1 120 07:50 15.03.2020
6618 Clear 1 1022 69 10000 3.6 110 07:23 15.03.2020
6619 Clear 0 1022 69 10000 2.1 120 06:45 15.03.2020
6620 Clear 0 1022 74 10000 2.6 110 05:50 15.03.2020
6621 Clear 0 1022 80 10000 3.1 110 04:58 15.03.2020
6622 Clear 0 1022 80 10000 3.1 110 04:40 15.03.2020
6623 Clear 0 1023 80 10000 2.6 110 04:21 15.03.2020
6624 Clear 0 1023 80 10000 2.6 100 03:25 15.03.2020
6625 Clear 1 1023 80 10000 1.5 110 02:36 15.03.2020
6626 Clear 0 1023 79 10000 2.1 120 01:19 15.03.2020
6627 Clouds 1 1023 80 10000 2.1 120 00:42 15.03.2020
6628 Clouds 1 1023 80 10000 3.1 100 00:20 15.03.2020
6629 Clouds 1 1023 80 10000 2.6 110 23:41 14.03.2020
6630 Clouds 1 1023 80 10000 3.1 100 23:20 14.03.2020
6631 Clouds 2 1023 80 10000 2.1 110 22:56 14.03.2020
6632 Clouds 2 1023 80 10000 2.1 110 22:38 14.03.2020
6633 Clouds 2 1023 74 10000 2.1 110 22:20 14.03.2020
6634 Clouds 2 1023 74 10000 2.1 110 21:56 14.03.2020
6635 Clouds 3 1023 76 10000 2.1 100 21:36 14.03.2020
6636 Clouds 3 1023 76 10000 3.1 90 21:18 14.03.2020
6637 Clouds 3 1023 76 10000 3.1 90 21:18 14.03.2020
6638 Clouds 4 1023 76 10000 3.1 90 20:58 14.03.2020
6639 Clouds 4 1023 76 10000 3.1 100 20:39 14.03.2020
6640 Clouds 4 1023 66 10000 1.5 90 20:18 14.03.2020
6641 Clouds 5 1022 86 10000 1.31 94 19:42 14.03.2020
6642 Clouds 5 1023 65 10000 1.5 70 19:24 14.03.2020
6643 Clouds 7 1022 66 10000 2.1 70 18:41 14.03.2020
6644 Clouds 7 1022 66 10000 2.1 40 18:21 14.03.2020
6645 Clouds 8 1022 49 10000 2.1 90 17:44 14.03.2020
6646 Clouds 8 1021 66 10000 2.6 120 17:24 14.03.2020
6647 Clouds 9 1021 52 10000 3.1 130 17:00 14.03.2020
6648 Clouds 9 1021 52 10000 3.1 130 16:40 14.03.2020
6649 Clouds 9 1021 52 10000 2.1 50 16:21 14.03.2020
6650 Clouds 9 1021 52 10000 2.1 50 16:21 14.03.2020
6651 Clouds 9 1021 57 10000 2.1 60 15:52 14.03.2020
6652 Clouds 9 1021 57 10000 2.1 60 15:25 14.03.2020
6653 Rain 9 1021 52 10000 2.1 40 14:46 14.03.2020
6654 Rain 9 1021 52 10000 2.1 40 14:23 14.03.2020
6655 Rain 9 1022 54 10000 1 0 13:57 14.03.2020
6656 Clouds 9 1022 54 10000 1.5 270 13:39 14.03.2020
6657 Clouds 9 1022 53 10000 2.1 0 13:20 14.03.2020
6658 Clouds 8 1022 53 10000 2.1 140 12:45 14.03.2020
6659 Clouds 8 1022 61 10000 2.1 220 12:26 14.03.2020
6660 Clouds 7 1022 53 10000 1.5 140 11:56 14.03.2020
6661 Clouds 7 1022 61 10000 1.5 190 11:38 14.03.2020
6662 Clouds 7 1022 61 10000 1.5 190 11:19 14.03.2020
6663 Clouds 7 1022 65 10000 2.1 0 10:41 14.03.2020
6664 Clouds 6 1022 70 10000 1.5 230 10:23 14.03.2020
6665 Clouds 5 1022 70 10000 1 0 09:44 14.03.2020
6666 Clouds 4 1022 70 10000 1 0 09:24 14.03.2020
6667 Clouds 4 1022 70 10000 1 0 09:24 14.03.2020
6668 Clouds 2 1021 70 10000 1.5 30 08:48 14.03.2020
6669 Clouds 2 1021 70 10000 1.5 30 08:29 14.03.2020
6670 Clouds 0 1021 86 10000 2.6 80 07:55 14.03.2020
6671 Clouds 0 1021 88 10000 2.6 100 07:37 14.03.2020
6672 Clouds -1 1021 92 10000 3.6 100 07:19 14.03.2020
6673 Clouds -1 1021 92 10000 1.5 140 06:40 14.03.2020
6674 Clouds 0 1021 87 10000 1 70 05:24 14.03.2020
6675 Clouds 1 1021 80 10000 1.5 140 03:46 14.03.2020
6676 Clouds 1 1021 80 10000 1.5 140 03:24 14.03.2020
6677 Clear 1 1021 86 10000 2.1 110 02:22 14.03.2020
6678 Clouds 2 1021 83 10000 0.5 0 00:46 14.03.2020
6679 Clouds 3 1021 83 10000 1 0 23:46 13.03.2020
6680 Clouds 3 1021 83 10000 1 0 23:27 13.03.2020
6681 Clouds 3 1021 69 10000 1.5 170 22:49 13.03.2020
6682 Clouds 3 1021 69 10000 1.5 170 22:26 13.03.2020
6683 Clouds 4 1021 76 10000 1.5 280 21:44 13.03.2020
6684 Clouds 4 1020 76 10000 2.6 250 21:21 13.03.2020
6685 Clouds 5 1020 76 10000 2.6 250 20:58 13.03.2020
6686 Clouds 5 1020 76 10000 3.1 240 20:39 13.03.2020
6687 Clouds 5 1020 76 10000 3.1 240 20:39 13.03.2020
6688 Clouds 5 1020 72 10000 3.1 250 20:20 13.03.2020
6689 Clouds 6 1020 72 10000 2.6 250 19:47 13.03.2020
6690 Clouds 6 1020 72 10000 2.6 250 19:47 13.03.2020
6691 Clouds 6 1020 72 10000 2.6 250 19:28 13.03.2020
6692 Clouds 7 1019 72 10000 4.1 260 18:47 13.03.2020
6693 Clouds 7 1019 72 10000 4.1 260 18:29 13.03.2020
6694 Clouds 8 1019 72 10000 5.7 260 17:57 13.03.2020
6695 Clouds 8 1019 72 10000 5.7 260 17:38 13.03.2020
6696 Clouds 8 1019 49 10000 7.7 260 17:19 13.03.2020
6697 Clouds 9 1019 49 10000 8.2 270 16:42 13.03.2020
6698 Clouds 9 1019 49 10000 8.2 270 16:24 13.03.2020
6699 Clouds 9 1019 59 10000 6.7